# Wetter Temperatur Luftdruck Luftfeuchtigkeit Sichtweite Windgeschwindigkeit Windrichtung Zeit
1 Clouds 14 1031 58 10000 5.7 110 19:55 17.10.2019
2 Clouds 15 1032 42 10000 1.5 20 19:37 17.10.2019
3 Clouds 15 1032 42 10000 1.5 20 19:18 17.10.2019
4 Clouds 14 1033 54 10000 2.1 30 18:42 17.10.2019
5 Clouds 13 1034 54 10000 0.5 190 18:21 17.10.2019
6 Clouds 12 1034 62 10000 1 310 17:55 17.10.2019
7 Clouds 11 1034 66 10000 0.5 70 17:37 17.10.2019
8 Clouds 10 1034 66 10000 0.5 70 17:19 17.10.2019
9 Clouds 11 1034 66 10000 1.5 90 16:55 17.10.2019
10 Clouds 10 1034 71 10000 2.1 120 16:36 17.10.2019
11 Clouds 10 1034 71 10000 2.1 120 16:18 17.10.2019
12 Clouds 10 1034 71 10000 2.1 120 15:41 17.10.2019
13 Clouds 9 1034 81 10000 1.5 100 15:21 17.10.2019
14 Clouds 9 1034 76 10000 3.1 100 14:58 17.10.2019
15 Clouds 9 1034 76 10000 1.5 110 14:39 17.10.2019
16 Clouds 9 1034 76 10000 1.5 110 14:21 17.10.2019
17 Clouds 8 1033 81 10000 2.1 110 13:42 17.10.2019
18 Clouds 8 1033 87 10000 1 0 13:21 17.10.2019
19 Drizzle 8 1033 81 10000 2.1 110 12:58 17.10.2019
20 Drizzle 8 1033 81 10000 2.1 110 12:40 17.10.2019
21 Clouds 8 1032 81 10000 0.5 100 12:20 17.10.2019
22 Clouds 5 1032 81 10000 1.031 276 11:57 17.10.2019
23 Clouds 5 1032 81 10000 1.031 276 11:38 17.10.2019
24 Clouds 5 1032 81 10000 1.031 276 11:18 17.10.2019
25 Clouds 5 1032 81 10000 1 0 10:42 17.10.2019
26 Clouds 5 1032 81 10000 1 0 10:20 17.10.2019
27 Clouds 5 1032 81 10000 2.6 100 09:58 17.10.2019
28 Clouds 5 1032 81 10000 2.6 100 09:39 17.10.2019
29 Clouds 5 1032 81 10000 2.6 100 09:21 17.10.2019
30 Clouds 6 1033 81 10000 2.6 110 08:58 17.10.2019
31 Clouds 6 1033 81 10000 2.6 110 08:38 17.10.2019
32 -273 0 0 0 0 0 08:19 17.10.2019
33 Drizzle 6 1034 87 9000 3.1 100 07:50 17.10.2019
34 Drizzle 6 1034 87 9000 3.1 100 07:21 17.10.2019
35 Drizzle 6 1034 87 9000 3.1 100 07:21 17.10.2019
36 -273 0 0 0 0 0 06:59 17.10.2019
37 Rain 8 1034 87 9000 3.1 120 06:39 17.10.2019
38 Rain 8 1034 87 9000 3.1 120 06:20 17.10.2019
39 Rain 10 1034 76 9000 3.1 330 05:46 17.10.2019
40 Rain 10 1034 76 9000 3.1 330 05:28 17.10.2019
41 Rain 11 1034 66 9000 2.6 220 04:50 17.10.2019
42 Clouds 14 1032 54 10000 2.1 150 03:52 17.10.2019
43 Clouds 16 1029 44 10000 2.6 0 02:35 17.10.2019
44 Clouds 17 1028 42 10000 3.1 120 00:54 17.10.2019
45 Clouds 18 1027 36 10000 2.6 0 00:36 17.10.2019
46 Clouds 18 1027 36 10000 2.6 0 00:18 17.10.2019
47 Clouds 19 1037 34 10000 5.7 20 23:41 16.10.2019
48 Clouds 21 1026 26 10000 3.6 20 23:20 16.10.2019
49 Clouds 20 1027 28 10000 2.6 0 22:55 16.10.2019
50 Clouds 20 1027 28 10000 2.6 0 22:55 16.10.2019
51 Clouds 21 1027 30 10000 2.6 0 22:36 16.10.2019
52 Clouds 21 1027 30 10000 2.6 0 22:36 16.10.2019
53 Clouds 21 1027 30 10000 2.6 0 22:18 16.10.2019
54 -273 0 0 0 0 0 21:55 16.10.2019
55 Clouds 18 1029 39 10000 4.1 340 21:37 16.10.2019
56 Clouds 18 1029 39 10000 4.1 340 21:18 16.10.2019
57 Clouds 18 1030 39 10000 4.1 120 20:56 16.10.2019
58 Clouds 17 1030 45 10000 2.1 110 20:38 16.10.2019
59 Clouds 17 1030 45 10000 2.1 110 20:20 16.10.2019
60 Rain 16 1031 44 10000 4.1 110 19:42 16.10.2019
61 Clouds 17 1032 39 10000 1.5 300 19:21 16.10.2019
62 Clouds 17 1032 39 10000 1.5 310 18:59 16.10.2019
63 Clouds 16 1032 48 10000 2.1 280 18:39 16.10.2019
64 Clouds 16 1032 48 10000 2.1 280 18:19 16.10.2019
65 Clouds 16 1033 48 10000 2.1 310 17:56 16.10.2019
66 Clouds 15 1033 47 10000 1.5 190 17:38 16.10.2019
67 Clouds 15 1033 47 10000 1.5 190 17:19 16.10.2019
68 Clouds 15 1034 47 10000 1 230 16:58 16.10.2019
69 Clouds 15 1033 47 10000 2.6 270 16:38 16.10.2019
70 Clouds 15 1033 47 10000 2.6 270 16:20 16.10.2019
71 Clouds 15 1034 47 10000 2.1 260 15:54 16.10.2019
72 Clouds 15 1034 47 10000 2.1 260 15:54 16.10.2019
73 Clouds 13 1034 54 10000 2.1 60 15:36 16.10.2019
74 Clouds 13 1034 54 10000 2.1 60 15:18 16.10.2019
75 Clouds 13 1034 54 10000 2.1 60 15:18 16.10.2019
76 Clouds 13 1034 54 10000 2.1 60 14:55 16.10.2019
77 Clouds 13 1034 54 10000 2.1 60 14:36 16.10.2019
78 Clouds 12 1033 58 10000 1.5 60 14:18 16.10.2019
79 Clouds 12 1033 62 10000 2.1 100 13:42 16.10.2019
80 Clouds 11 1032 66 10000 1 70 13:23 16.10.2019
81 Clouds 11 1032 62 10000 0.451 255 12:57 16.10.2019
82 Clouds 11 1032 62 10000 0.451 255 12:39 16.10.2019
83 Clouds 11 1032 62 10000 2.1 110 12:18 16.10.2019
84 Clouds 11 1032 62 10000 2.1 90 11:42 16.10.2019
85 Clouds 11 1032 62 10000 2.1 90 11:42 16.10.2019
86 Clouds 11 1032 62 10000 2.1 90 11:18 16.10.2019
87 Clouds 11 1032 62 10000 2.1 90 11:18 16.10.2019
88 Clouds 11 1032 62 10000 2.1 90 11:18 16.10.2019
89 Clouds 11 1031 53 10000 2.1 180 10:38 16.10.2019
90 Clouds 11 1031 53 10000 2.1 180 10:20 16.10.2019
91 Clouds 11 1032 62 10000 2.1 100 09:55 16.10.2019
92 Clouds 11 1032 62 10000 2.1 100 09:37 16.10.2019
93 Clouds 11 1032 62 10000 2.1 100 09:19 16.10.2019
94 Clouds 11 1032 62 10000 2.1 100 08:42 16.10.2019
95 Clouds 11 1032 62 10000 2.1 100 08:24 16.10.2019
96 Clouds 12 1033 58 10000 0.814 331 07:45 16.10.2019
97 Clouds 12 1033 58 10000 0.814 331 07:45 16.10.2019
98 -273 0 0 0 0 0 07:25 16.10.2019
99 Clouds 12 1033 58 10000 0.814 331 07:24 16.10.2019
100 Clouds 11 1033 62 10000 2.1 100 06:56 16.10.2019
101 Clouds 11 1033 62 10000 2.1 100 06:35 16.10.2019
102 Clouds 11 1033 62 10000 1.5 90 05:39 16.10.2019
103 Clouds 14 1031 50 10000 2.6 10 02:57 16.10.2019
104 Clouds 14 1031 50 10000 2.6 10 02:38 16.10.2019
105 Clouds 16 1029 44 10000 3.1 320 01:19 16.10.2019
106 Clouds 16 1029 44 10000 4.1 290 00:47 16.10.2019
107 Clouds 17 1029 39 10000 5.1 260 00:27 16.10.2019
108 Clouds 17 1028 39 10000 6.7 280 23:40 15.10.2019
109 Clouds 19 1028 34 10000 3.1 340 23:22 15.10.2019
110 Clouds 18 1028 34 10000 4.6 350 22:56 15.10.2019
111 Clouds 18 1028 34 10000 4.6 350 22:38 15.10.2019
112 Clouds 19 1028 32 10000 5.1 10 22:19 15.10.2019
113 Clouds 19 1029 32 10000 5.1 360 21:56 15.10.2019
114 Clouds 19 1029 32 10000 5.1 360 21:38 15.10.2019
115 Clouds 18 1029 34 10000 5.1 10 21:20 15.10.2019
116 Clouds 21 1029 30 10000 2.6 80 20:57 15.10.2019
117 Clouds 21 1029 30 10000 2.6 80 20:39 15.10.2019
118 Clouds 21 1029 30 10000 2.6 80 20:39 15.10.2019
119 Clouds 21 1029 30 10000 2.6 80 20:39 15.10.2019
120 Clouds 20 1030 32 10000 5.1 90 20:20 15.10.2019
121 Clouds 20 1030 32 10000 5.1 90 20:20 15.10.2019
122 Clouds 19 1030 37 10000 5.1 90 19:58 15.10.2019
123 Clouds 20 1030 37 10000 5.1 90 19:40 15.10.2019
124 Clouds 19 1032 42 10000 4.6 120 19:20 15.10.2019
125 Clouds 19 1032 42 10000 5.1 110 18:47 15.10.2019
126 Clouds 19 1032 39 10000 5.1 110 18:29 15.10.2019
127 Clouds 17 1033 45 10000 4.6 110 17:59 15.10.2019
128 Clouds 18 1033 45 10000 4.6 110 17:39 15.10.2019
129 Clouds 16 1033 51 10000 4.1 90 17:20 15.10.2019
130 Clouds 14 1033 54 10000 2.1 0 16:55 15.10.2019
131 Clouds 14 1033 54 10000 2.1 0 16:55 15.10.2019
132 Clouds 13 1033 54 10000 2.1 0 16:37 15.10.2019
133 Clouds 12 1034 50 10000 1.5 110 16:19 15.10.2019
134 Clouds 12 1034 58 10000 1 100 15:42 15.10.2019
135 Clouds 8 1033 62 10000 0.5 0 15:20 15.10.2019
136 Clouds 7 1033 66 10000 1 0 14:58 15.10.2019
137 Clouds 7 1033 66 10000 1 0 14:38 15.10.2019
138 Clouds 7 1033 66 10000 1 0 14:38 15.10.2019
139 Clouds 6 1033 66 10000 0.5 0 14:20 15.10.2019
140 Clouds 6 1032 70 10000 2.1 250 13:55 15.10.2019
141 Clouds 6 1032 70 10000 2.1 250 13:37 15.10.2019
142 Clouds 5 1032 75 10000 1.5 300 13:18 15.10.2019
143 Clouds 5 1032 81 10000 2.1 280 12:41 15.10.2019
144 Clouds 5 1031 81 10000 1.5 280 12:21 15.10.2019
145 Clouds 5 1031 81 10000 2.1 100 11:56 15.10.2019
146 Clouds 5 1031 81 10000 2.1 100 11:37 15.10.2019
147 Clouds 5 1031 81 10000 2.1 100 11:18 15.10.2019
148 -273 0 0 0 0 0 10:43 15.10.2019
149 Clouds 5 1031 81 10000 1 0 10:19 15.10.2019
150 Clouds 6 1031 75 10000 0.5 0 09:58 15.10.2019
151 Clouds 6 1031 75 10000 0.5 0 09:37 15.10.2019
152 Clouds 6 1031 75 10000 0.5 0 09:19 15.10.2019
153 Clouds 6 1032 75 10000 1 280 08:43 15.10.2019
154 Clouds 7 1032 75 10000 1 280 08:22 15.10.2019
155 Clouds 8 1032 75 10000 0.5 0 07:59 15.10.2019
156 Clouds 7 1032 75 10000 0.5 0 07:41 15.10.2019
157 Clouds 7 1032 75 10000 0.5 0 07:20 15.10.2019
158 Clouds 7 1032 75 10000 2.1 300 06:45 15.10.2019
159 Clouds 7 1032 75 10000 2.1 300 06:26 15.10.2019
160 Clouds 8 1032 75 10000 2.1 290 05:41 15.10.2019
161 Clouds 8 1032 75 10000 2.1 290 05:23 15.10.2019
162 Clouds 8 1031 76 10000 2.1 280 04:33 15.10.2019
163 Clouds 9 1031 76 10000 1 0 03:37 15.10.2019
164 Clouds 10 1031 76 10000 1.5 280 02:42 15.10.2019
165 Clouds 12 1029 66 10000 2.6 290 01:49 15.10.2019
166 Rain 13 1029 71 10000 1 0 01:22 15.10.2019
167 Rain 13 1029 58 10000 1 330 00:49 15.10.2019
168 Clouds 17 1028 47 10000 4.1 110 00:22 15.10.2019
169 Clouds 18 1028 47 10000 7.2 120 23:45 14.10.2019
170 Rain 17 1027 33 10000 2.1 80 23:20 14.10.2019
171 Clouds 19 1027 51 10000 0.5 0 22:58 14.10.2019
172 Clouds 19 1027 51 10000 0.5 0 22:38 14.10.2019
173 Clouds 19 1027 51 10000 5.7 300 22:18 14.10.2019
174 Clouds 19 1027 51 10000 5.7 300 22:18 14.10.2019
175 Clouds 19 1028 29 10000 6.7 300 21:55 14.10.2019
176 Clouds 19 1028 29 10000 6.7 300 21:36 14.10.2019
177 Clouds 22 1028 39 10000 6.2 40 21:18 14.10.2019
178 Clouds 22 1028 28 10000 6.7 40 20:54 14.10.2019
179 Clouds 22 1028 28 10000 6.7 40 20:54 14.10.2019
180 -273 0 0 0 0 0 20:54 14.10.2019
181 Clouds 21 1028 28 10000 6.7 40 20:36 14.10.2019
182 Clouds 21 1029 26 10000 6.7 40 20:18 14.10.2019
183 Clouds 21 1029 28 10000 3.6 70 19:41 14.10.2019
184 Clouds 21 1029 28 10000 3.6 70 19:41 14.10.2019
185 Clouds 20 1029 32 10000 2.1 0 19:23 14.10.2019
186 Clouds 20 1029 32 10000 2.1 0 19:23 14.10.2019
187 Rain 20 1030 30 10000 1 0 18:58 14.10.2019
188 Clouds 18 1031 34 10000 3.1 350 18:39 14.10.2019
189 Clouds 18 1031 34 10000 3.1 350 18:19 14.10.2019
190 Clouds 18 1031 34 10000 0.5 170 17:57 14.10.2019
191 Clouds 18 1031 34 10000 0.5 170 17:57 14.10.2019
192 Clouds 16 1032 48 10000 1.5 320 17:38 14.10.2019
193 Clouds 16 1032 48 10000 1.5 320 17:38 14.10.2019
194 Clouds 15 1032 48 10000 1.5 320 17:19 14.10.2019
195 Clouds 13 1032 47 10000 1 0 16:43 14.10.2019
196 Clouds 12 1033 54 10000 1 0 16:21 14.10.2019
197 Clouds 13 1033 58 10000 0.5 0 15:43 14.10.2019
198 Clouds 8 1033 66 10000 0.5 80 15:24 14.10.2019
199 Clouds 7 1033 66 10000 0.5 60 14:57 14.10.2019
200 Rain 6 1032 81 10000 1 70 14:39 14.10.2019
201 Rain 5 1032 81 10000 1 70 14:20 14.10.2019
202 Clouds 8 1032 81 10000 0.5 250 13:44 14.10.2019
203 Clouds 8 1032 81 10000 1.03 323.651 13:21 14.10.2019
204 Clouds 7 1032 87 10000 1.03 323.651 12:55 14.10.2019
205 Clouds 7 1031 87 10000 1.5 100 12:37 14.10.2019
206 Clouds 5 1031 87 10000 1.03 320.401 12:18 14.10.2019
207 Clouds 5 1031 87 10000 1.03 320.401 11:44 14.10.2019
208 -273 0 0 0 0 0 11:26 14.10.2019
209 Clouds 4 1030 81 10000 1.03 320.401 10:57 14.10.2019
210 Clouds 5 1030 81 10000 1.03 320.401 10:38 14.10.2019
211 Clouds 5 1030 81 10000 1.03 320.401 10:19 14.10.2019
212 Clouds 5 1030 81 10000 1 90 09:42 14.10.2019
213 Clouds 5 1030 81 10000 1 90 09:21 14.10.2019
214 Clouds 6 1031 81 10000 1.34 334.297 08:52 14.10.2019
215 Clouds 6 1031 81 10000 1.34 334.297 08:23 14.10.2019
216 Clouds 7 1031 81 10000 1.34 334.297 07:59 14.10.2019
217 Clouds 6 1031 81 10000 1.34 334.297 07:39 14.10.2019
218 Clouds 6 1031 81 10000 1.34 334.297 07:18 14.10.2019
219 Clouds 6 1032 87 10000 1.5 120 06:37 14.10.2019
220 Clouds 6 1032 87 10000 1.5 120 06:18 14.10.2019
221 Clouds 8 1032 76 10000 1 260 05:42 14.10.2019
222 Clouds 7 1032 81 10000 1.5 280 04:42 14.10.2019
223 Clouds 8 1030 87 10000 1.5 80 03:27 14.10.2019
224 Clouds 9 1029 81 10000 1 0 02:36 14.10.2019
225 Rain 12 1029 76 10000 2.6 90 01:22 14.10.2019
226 Rain 11 1029 71 10000 2.6 120 00:45 14.10.2019
227 Rain 14 1029 71 10000 2.6 120 00:19 14.10.2019
228 Rain 15 1029 76 10000 2.6 130 23:44 13.10.2019
229 Rain 17 1028 58 10000 3.6 140 23:20 13.10.2019
230 Rain 16 1028 58 10000 4.6 130 22:58 13.10.2019
231 Rain 17 1028 58 10000 5.1 120 22:40 13.10.2019
232 Rain 17 1028 58 10000 5.1 120 22:21 13.10.2019
233 Rain 15 1028 54 10000 2.1 110 21:58 13.10.2019
234 Rain 16 1028 66 10000 1 0 21:37 13.10.2019
235 Rain 17 1028 66 10000 1 0 21:18 13.10.2019
236 Rain 17 1028 66 10000 1 0 21:18 13.10.2019
237 Rain 18 1028 48 10000 0.5 0 20:57 13.10.2019
238 -273 0 0 0 0 0 20:57 13.10.2019
239 Rain 18 1028 48 10000 0.5 0 20:57 13.10.2019
240 Rain 18 1029 47 10000 1 310 20:38 13.10.2019
241 Rain 17 1029 47 10000 1 310 20:19 13.10.2019
242 Rain 17 1029 54 10000 1.5 40 19:57 13.10.2019
243 Rain 17 1029 54 10000 1.5 40 19:57 13.10.2019
244 Rain 17 1029 54 10000 1.5 40 19:57 13.10.2019
245 Clouds 16 1030 62 10000 2.1 0 19:39 13.10.2019
246 Clouds 16 1030 62 10000 2.1 0 19:39 13.10.2019
247 Clouds 16 1030 62 10000 2.1 0 19:20 13.10.2019
248 -273 0 0 0 0 0 18:55 13.10.2019
249 Rain 14 1031 62 10000 2.1 290 18:55 13.10.2019
250 Rain 14 1031 62 10000 2.1 290 18:54 13.10.2019
251 Drizzle 14 1031 54 10000 4.1 300 18:36 13.10.2019
252 Drizzle 13 1031 54 10000 4.1 300 18:18 13.10.2019
253 Drizzle 12 1031 54 10000 6.2 300 17:42 13.10.2019
254 Rain 14 1031 36 10000 3.1 0 17:24 13.10.2019
255 Rain 14 1031 36 10000 3.1 0 17:24 13.10.2019
256 Rain 17 1031 39 10000 3.6 0 16:45 13.10.2019
257 Rain 17 1031 39 10000 3.6 0 16:45 13.10.2019
258 Clouds 12 1032 41 10000 3.1 110 16:20 13.10.2019
259 Clouds 15 1032 44 10000 3.1 120 15:59 13.10.2019
260 Clouds 15 1032 44 10000 3.1 120 15:39 13.10.2019
261 Clouds 10 1032 47 10000 2.6 90 15:21 13.10.2019
262 Clouds 9 1032 47 10000 2.6 90 14:59 13.10.2019
263 Clouds 9 1032 47 10000 2.6 90 14:40 13.10.2019
264 Clouds 7 1032 57 10000 1.5 120 14:22 13.10.2019
265 Clouds 6 1031 57 10000 2.1 100 13:59 13.10.2019
266 Clouds 10 1031 61 10000 1 120 13:38 13.10.2019
267 Clouds 10 1031 61 10000 1 120 13:20 13.10.2019
268 Clouds 10 1030 61 10000 1 100 12:56 13.10.2019
269 Clouds 9 1030 66 10000 1.5 110 12:38 13.10.2019
270 Clouds 5 1030 66 10000 1.5 110 12:19 13.10.2019
271 Clouds 6 1030 66 10000 3.1 130 11:56 13.10.2019
272 Clouds 6 1030 66 10000 3.1 130 11:38 13.10.2019
273 Clouds 5 1030 66 10000 3.1 130 11:18 13.10.2019
274 Clouds 6 1030 61 10000 2.1 100 10:42 13.10.2019
275 Clouds 6 1030 61 10000 2.1 100 10:23 13.10.2019
276 Clouds 7 1030 57 10000 0.5 280 09:56 13.10.2019
277 Clouds 7 1030 57 10000 0.5 280 09:37 13.10.2019
278 Clouds 6 1030 57 10000 0.5 280 09:19 13.10.2019
279 Clouds 7 1030 61 10000 2.6 290 08:42 13.10.2019
280 Clouds 6 1030 61 10000 2.6 290 08:21 13.10.2019
281 Clouds 9 1031 61 10000 1 290 07:46 13.10.2019
282 Clouds 9 1031 61 10000 1 290 07:21 13.10.2019
283 Clouds 11 1031 57 10000 2.6 100 06:42 13.10.2019
284 Clouds 12 1031 54 10000 1.5 100 05:49 13.10.2019
285 Clouds 12 1030 54 10000 0.5 0 04:49 13.10.2019
286 Clouds 12 1030 54 10000 0.5 0 04:29 13.10.2019
287 Clouds 13 1029 50 10000 2.6 70 02:42 13.10.2019
288 Clouds 15 1027 41 10000 1.5 360 01:59 13.10.2019
289 Clouds 16 1027 38 10000 4.1 40 01:30 13.10.2019
290 Clouds 16 1026 38 10000 5.1 20 00:49 13.10.2019
291 Clouds 19 1025 29 10000 5.7 20 00:22 13.10.2019
292 Clouds 19 1025 29 10000 6.2 30 23:57 12.10.2019
293 Clouds 21 1025 50 10000 5.1 20 23:39 12.10.2019
294 Clouds 21 1025 50 10000 5.1 20 23:19 12.10.2019
295 Clouds 22 1025 21 10000 2.6 0 22:57 12.10.2019
296 Clouds 23 1025 17 10000 0.5 70 22:38 12.10.2019
297 Clouds 23 1025 17 10000 0.5 70 22:20 12.10.2019
298 Clouds 22 1026 19 10000 2.6 0 21:55 12.10.2019
299 Clouds 21 1027 21 10000 4.1 330 21:37 12.10.2019
300 Clouds 21 1027 21 10000 4.1 330 21:18 12.10.2019
301 Clouds 21 1027 21 10000 4.1 330 21:18 12.10.2019
302 Clouds 20 1027 24 10000 2.6 0 20:40 12.10.2019
303 Clouds 21 1028 22 10000 2.6 0 20:22 12.10.2019
304 Clouds 19 1030 22 10000 3.6 0 19:39 12.10.2019
305 Clouds 19 1030 22 10000 3.6 0 19:39 12.10.2019
306 Clouds 19 1030 22 10000 3.6 0 19:20 12.10.2019
307 Clouds 19 1031 24 10000 1.5 0 18:59 12.10.2019
308 Clouds 19 1031 25 10000 2.1 0 18:40 12.10.2019
309 Clouds 19 1031 25 10000 2.1 0 18:22 12.10.2019
310 Clouds 19 1032 25 10000 1.75 7.454 17:43 12.10.2019
311 Clouds 18 1032 27 10000 3.1 0 17:19 12.10.2019
312 Clouds 17 1032 29 10000 2.1 0 16:55 12.10.2019
313 Clouds 16 1033 31 10000 2.6 170 16:36 12.10.2019
314 Clouds 16 1033 31 10000 2.6 170 16:18 12.10.2019
315 Clouds 15 1033 27 10000 2.1 120 15:44 12.10.2019
316 Clouds 13 1033 47 10000 0.5 70 15:25 12.10.2019
317 Clouds 13 1033 47 10000 1.5 10 14:43 12.10.2019
318 Clouds 10 1033 57 10000 1 320 14:22 12.10.2019
319 Clouds 9 1032 57 10000 1.25 30.342 13:59 12.10.2019
320 Clouds 6 1032 70 10000 1.25 30.342 13:40 12.10.2019
321 Clouds 6 1032 70 10000 1.36 29.619 13:21 12.10.2019
322 Clouds 6 1031 70 10000 1.5 280 12:40 12.10.2019
323 Clouds 6 1031 70 10000 1.5 280 12:21 12.10.2019
324 Clouds 7 1031 65 10000 1 120 11:59 12.10.2019
325 Clouds 7 1031 65 10000 1 120 11:39 12.10.2019
326 Clouds 7 1031 65 10000 1 120 11:20 12.10.2019
327 Clouds 8 1031 61 10000 1.26 7.142 10:44 12.10.2019
328 Clouds 8 1031 61 10000 1.26 7.142 10:24 12.10.2019
329 Clouds 7 1031 65 10000 2.1 290 09:58 12.10.2019
330 Clouds 7 1031 65 10000 2.1 290 09:58 12.10.2019
331 Clouds 7 1031 65 10000 2.1 290 09:39 12.10.2019
332 Clouds 7 1031 65 10000 2.1 290 09:21 12.10.2019
333 Clouds 8 1031 61 10000 1.5 280 08:58 12.10.2019
334 Clouds 8 1031 61 10000 1.5 280 08:38 12.10.2019
335 Clouds 8 1031 61 10000 1.5 280 08:20 12.10.2019
336 Clouds 8 1031 61 10000 1.5 280 08:20 12.10.2019
337 Clouds 9 1031 57 10000 1 280 07:35 12.10.2019
338 Clouds 9 1031 57 10000 1.5 70 06:56 12.10.2019
339 Clouds 9 1031 57 10000 1 290 05:47 12.10.2019
340 Clouds 9 1031 57 10000 1 290 05:23 12.10.2019
341 Clouds 12 1030 46 10000 2.1 80 04:24 12.10.2019
342 Clouds 13 1030 43 10000 3.1 210 03:31 12.10.2019
343 Clouds 15 1028 33 10000 4.1 10 01:50 12.10.2019
344 Clouds 15 1027 48 10000 5.1 30 01:21 12.10.2019
345 Clouds 15 1027 48 10000 5.1 30 01:21 12.10.2019
346 Clouds 19 1026 24 10000 4.6 30 00:42 12.10.2019
347 Clouds 16 1010 25 0 3.77 28.212 23:59 11.10.2019
348 Clouds 16 1010 25 0 3.77 28.212 23:40 11.10.2019
349 Clouds 19 1026 24 10000 5.1 30 23:20 11.10.2019
350 Clouds 20 1026 19 10000 4.6 10 22:41 11.10.2019
351 Clouds 20 1027 18 10000 7.2 30 22:21 11.10.2019
352 Clouds 20 1027 16 10000 7.2 40 21:57 11.10.2019
353 Clouds 20 1028 18 10000 6.2 20 21:39 11.10.2019
354 Clouds 20 1028 18 10000 6.2 20 21:20 11.10.2019
355 Clouds 20 1028 19 10000 7.2 30 20:44 11.10.2019
356 Clouds 21 1028 18 10000 5.7 20 20:26 11.10.2019
357 Clouds 20 1029 19 10000 6.7 20 19:58 11.10.2019
358 Clouds 20 1030 19 10000 1.5 190 19:39 11.10.2019
359 Clouds 20 1030 19 10000 1.5 190 19:18 11.10.2019
360 Clouds 20 1030 19 10000 2.1 200 18:58 11.10.2019
361 Clouds 19 1031 20 10000 3.1 280 18:38 11.10.2019
362 Clouds 19 1031 20 10000 3.1 280 18:19 11.10.2019
363 Clouds 19 1031 20 10000 3.1 280 18:19 11.10.2019
364 Clouds 18 1032 22 10000 4.1 310 17:58 11.10.2019
365 Clouds 17 1032 25 10000 1.5 230 17:38 11.10.2019
366 Clouds 17 1032 25 10000 1.5 230 17:19 11.10.2019
367 Clouds 17 1033 29 10000 2.1 50 16:58 11.10.2019
368 Clouds 17 1033 29 10000 2.1 50 16:39 11.10.2019
369 Clouds 15 1033 37 10000 2.1 40 16:19 11.10.2019
370 Clouds 14 1033 41 10000 2.1 120 15:41 11.10.2019
371 Clouds 14 1033 41 10000 2.1 120 15:41 11.10.2019
372 Clouds 12 1033 46 10000 1.5 70 15:20 11.10.2019
373 Clouds 11 1033 53 10000 1.5 50 14:58 11.10.2019
374 Clouds 12 1033 46 10000 0.5 100 14:38 11.10.2019
375 Clouds 12 1033 46 10000 0.5 100 14:19 11.10.2019
376 Clouds 12 1033 46 10000 0.5 100 14:19 11.10.2019
377 Clouds 5 1032 63 10000 1.5 100 13:44 11.10.2019
378 Clouds 5 1032 63 10000 1.5 100 13:25 11.10.2019
379 Clouds 5 1032 63 10000 1.5 110 12:57 11.10.2019
380 Clouds 6 1031 70 10000 2.1 270 12:38 11.10.2019
381 Clouds 6 1031 70 10000 2.1 270 12:20 11.10.2019
382 Clouds 6 1031 65 10000 1.82 22.62 11:58 11.10.2019
383 Clouds 6 1031 65 10000 1.82 22.62 11:38 11.10.2019
384 Clouds 6 1031 65 10000 1.82 22.62 11:20 11.10.2019
385 Clouds 7 1030 65 10000 1 320 10:54 11.10.2019
386 Clouds 7 1030 65 10000 1 320 10:54 11.10.2019
387 Clouds 7 1030 65 10000 1 320 10:36 11.10.2019
388 Clouds 7 1030 65 10000 1 320 10:18 11.10.2019
389 Clouds 7 1030 65 10000 1 320 10:18 11.10.2019
390 Clouds 8 1031 61 10000 1.5 300 09:41 11.10.2019
391 Clouds 8 1031 61 10000 1.5 300 09:20 11.10.2019
392 Clouds 9 1031 57 10000 2.1 80 08:56 11.10.2019
393 Clouds 9 1031 57 10000 2.1 80 08:38 11.10.2019
394 Clouds 9 1031 57 10000 2.1 80 08:20 11.10.2019
395 Clouds 9 1031 57 10000 2.6 290 07:51 11.10.2019
396 Clouds 9 1031 57 10000 2.6 290 07:33 11.10.2019
397 Clouds 12 1032 50 10000 1.5 20 06:49 11.10.2019
398 Clouds 12 1032 50 10000 1.5 20 06:25 11.10.2019
399 Clear 13 1032 47 10000 2.6 110 05:46 11.10.2019
400 Clear 13 1032 47 10000 2.6 110 05:27 11.10.2019
401 Clear 13 1031 43 10000 2.1 90 04:47 11.10.2019
402 Clear 14 1028 41 10000 3.6 110 02:59 11.10.2019
403 Clouds 18 1026 27 10000 3.6 40 00:54 11.10.2019
404 Clouds 19 1025 24 10000 6.2 360 00:31 11.10.2019
405 Clouds 19 1025 24 10000 5.7 360 23:57 10.10.2019
406 Clouds 20 1025 22 10000 5.7 360 23:38 10.10.2019
407 Clouds 20 1025 22 10000 5.7 360 23:18 10.10.2019
408 Clouds 21 1025 21 10000 6.2 360 22:54 10.10.2019
409 Smoke 21 1026 21 10000 6.7 20 22:36 10.10.2019
410 Smoke 21 1026 21 10000 6.7 20 22:18 10.10.2019
411 Smoke 21 1026 21 10000 7.2 10 21:42 10.10.2019
412 Smoke 23 1026 21 10000 7.2 10 21:22 10.10.2019
413 Smoke 23 1026 21 10000 7.2 10 21:22 10.10.2019
414 Smoke 23 1026 19 10000 6.2 10 20:57 10.10.2019
415 Smoke 23 1026 19 10000 6.2 10 20:39 10.10.2019
416 Clouds 24 1027 16 10000 6.2 10 20:19 10.10.2019
417 Clouds 24 1027 16 10000 6.2 10 20:19 10.10.2019
418 Clouds 24 1027 11 10000 3.6 320 19:55 10.10.2019
419 Clouds 24 1027 11 10000 3.6 320 19:55 10.10.2019
420 Clouds 23 1029 13 10000 2.6 280 19:37 10.10.2019
421 Clouds 23 1029 13 10000 2.6 280 19:19 10.10.2019
422 Clouds 22 1029 14 10000 2.6 10 18:42 10.10.2019
423 Clouds 19 1030 15 10000 2.1 250 18:20 10.10.2019
424 Clouds 19 1031 14 10000 2.1 250 17:57 10.10.2019
425 Clouds 17 1032 29 10000 1.5 290 17:37 10.10.2019
426 Clouds 17 1032 29 10000 1.5 290 17:18 10.10.2019
427 Clouds 16 1033 34 10000 1 30 16:48 10.10.2019
428 Clouds 16 1033 34 10000 1 30 16:26 10.10.2019
429 Clouds 13 1033 34 10000 1.5 320 15:59 10.10.2019
430 Clouds 11 1034 34 10000 1.5 50 15:39 10.10.2019
431 Clouds 11 1034 60 10000 1.5 50 15:20 10.10.2019
432 Clouds 11 1034 60 10000 1 10 14:56 10.10.2019
433 Clouds 10 1033 52 10000 1 70 14:36 10.10.2019
434 Clouds 8 1033 52 10000 1 70 14:18 10.10.2019
435 Clouds 9 1033 56 10000 1.5 90 13:46 10.10.2019
436 Haze 3 1033 69 10000 0.5 0 13:27 10.10.2019
437 Clear 7 1033 74 10000 1 310 12:59 10.10.2019
438 Clear 4 1032 64 10000 0.18 69.481 12:40 10.10.2019
439 Clear 4 1032 64 10000 0.6 246.764 12:20 10.10.2019
440 Clear 3 1032 69 10000 0.6 246.764 11:58 10.10.2019
441 Clear 3 1032 69 10000 0.6 246.764 11:38 10.10.2019
442 Clear 3 1032 69 10000 0.6 246.764 11:19 10.10.2019
443 Clear 5 1031 60 10000 0.6 246.764 10:45 10.10.2019
444 Clear 5 1031 60 10000 0.6 246.764 10:26 10.10.2019
445 Clouds 6 1032 60 10000 0.5 0 09:58 10.10.2019
446 Clouds 6 1032 60 10000 0.5 0 09:39 10.10.2019
447 Clouds 6 1032 60 10000 0.5 0 09:21 10.10.2019
448 Clouds 6 1032 60 10000 1 0 08:57 10.10.2019
449 Clouds 6 1032 60 10000 1 0 08:38 10.10.2019
450 Clouds 6 1032 60 10000 1 0 08:19 10.10.2019
451 Clouds 6 1032 60 10000 1 0 08:19 10.10.2019
452 Clouds 8 1032 51 10000 0.5 0 07:45 10.10.2019
453 Clouds 8 1032 51 10000 0.5 0 07:22 10.10.2019
454 Clouds 9 1033 51 10000 0.5 0 06:49 10.10.2019
455 Clouds 9 1033 51 10000 0.5 0 06:29 10.10.2019
456 Clouds 11 1033 47 10000 1.5 280 05:28 10.10.2019
457 Clouds 11 1033 47 10000 1.5 270 04:54 10.10.2019
458 Clouds 12 1032 47 10000 2.1 30 04:33 10.10.2019
459 Clouds 15 1029 22 10000 5.1 40 01:50 10.10.2019
460 Clouds 15 1029 26 10000 5.1 30 01:30 10.10.2019
461 Clouds 16 1028 25 10000 7.7 30 01:00 10.10.2019
462 Clouds 20 1028 23 10000 5.1 30 00:24 10.10.2019
463 Clouds 18 1027 22 10000 5.7 30 23:41 09.10.2019
464 Clouds 19 1028 19 10000 5.7 20 23:23 09.10.2019
465 Clouds 19 1027 39 10000 6.7 20 22:59 09.10.2019
466 Clouds 19 1027 39 10000 6.7 20 22:40 09.10.2019
467 Clouds 20 1028 18 10000 7.2 10 22:22 09.10.2019
468 Clouds 19 1028 19 10000 6.7 20 21:41 09.10.2019
469 Clouds 21 1029 22 10000 6.7 20 21:21 09.10.2019
470 Clouds 21 1029 19 10000 6.7 20 20:56 09.10.2019
471 Clouds 21 1029 14 10000 7.2 30 20:38 09.10.2019
472 Clouds 21 1029 14 10000 7.2 30 20:19 09.10.2019
473 Clouds 21 1029 13 10000 7.2 10 19:58 09.10.2019
474 Clouds 21 1029 13 10000 7.2 10 19:40 09.10.2019
475 Clouds 21 1030 16 10000 4.6 360 19:22 09.10.2019
476 Clouds 21 1030 16 10000 4.6 360 19:22 09.10.2019
477 Clouds 20 1032 24 10000 2.6 130 18:38 09.10.2019
478 Clouds 19 1032 24 10000 2.6 130 18:20 09.10.2019
479 Clouds 19 1032 22 10000 1.5 150 17:58 09.10.2019
480 Clouds 19 1032 22 10000 1.5 150 17:58 09.10.2019
481 Clouds 19 1032 22 10000 1.5 150 17:39 09.10.2019
482 Clouds 17 1033 27 10000 2.1 120 17:21 09.10.2019
483 Clouds 16 1033 31 10000 0.5 110 16:56 09.10.2019
484 Clouds 16 1033 31 10000 0.5 110 16:56 09.10.2019
485 Clear 16 1034 30 10000 2.1 140 16:37 09.10.2019
486 Clear 16 1034 30 10000 2.1 140 16:19 09.10.2019
487 Clear 14 1034 37 10000 2.6 100 15:55 09.10.2019
488 Clear 12 1034 37 10000 1 50 15:37 09.10.2019
489 Clear 12 1034 37 10000 1 50 15:18 09.10.2019
490 Clear 11 1035 39 10000 1.5 90 14:44 09.10.2019
491 Clear 10 1034 42 10000 1 90 14:19 09.10.2019
492 Clear 9 1034 49 10000 1.31 70.875 13:59 09.10.2019
493 Haze 7 1034 60 10000 0.5 70 13:37 09.10.2019
494 Haze 8 1034 60 10000 0.5 70 13:18 09.10.2019
495 Clear 7 1034 64 10000 1.5 90 12:43 09.10.2019
496 Clear 2 1033 64 10000 1 290 12:22 09.10.2019
497 Clear 4 1032 60 10000 0.5 90 11:58 09.10.2019
498 Clear 4 1032 60 10000 0.5 90 11:39 09.10.2019
499 Clear 4 1032 60 10000 0.5 90 11:20 09.10.2019
500 Clear 4 1032 64 10000 0.9 37.914 10:57 09.10.2019
501 Clear 4 1032 64 10000 0.9 37.914 10:57 09.10.2019
502 Clear 4 1032 64 10000 0.9 37.914 10:39 09.10.2019
503 Clear 4 1032 64 10000 0.9 37.914 10:18 09.10.2019
504 Clear 5 1032 52 10000 0.9 37.914 09:42 09.10.2019
505 Clear 5 1032 52 10000 0.99 13.532 09:20 09.10.2019
506 Clear 6 1032 48 10000 0.99 13.532 08:57 09.10.2019
507 Clear 6 1032 48 10000 0.88 22.786 08:37 09.10.2019
508 Clear 6 1032 48 10000 0.88 22.786 08:18 09.10.2019
509 Clear 6 1033 48 10000 2.6 290 07:46 09.10.2019
510 Clear 6 1033 48 10000 2.6 290 07:24 09.10.2019
511 Clear 6 1033 48 10000 2.6 290 07:24 09.10.2019
512 Clear 8 1033 49 10000 1.5 280 06:54 09.10.2019
513 Clear 8 1033 49 10000 1.5 280 06:20 09.10.2019
514 Clear 9 1033 39 10000 1.5 0 05:47 09.10.2019
515 Clear 12 1032 32 10000 1.5 190 04:41 09.10.2019
516 Clear 15 1031 28 10000 3.6 0 03:24 09.10.2019
517 Clouds 14 1029 22 10000 2.1 70 01:55 09.10.2019
518 Clear 16 1028 15 10000 6.2 20 01:22 09.10.2019
519 Clouds 16 1028 15 10000 5.7 30 00:59 09.10.2019
520 Clouds 17 1027 18 10000 7.7 20 00:40 09.10.2019
521 Clouds 19 1027 18 10000 7.7 20 00:22 09.10.2019
522 Clouds 20 1027 20 10000 7.7 10 23:57 08.10.2019
523 Clouds 20 1027 25 10000 6.7 20 23:37 08.10.2019
524 Clouds 21 1027 25 10000 6.7 20 23:18 08.10.2019
525 Clouds 21 1026 24 10000 7.7 40 22:39 08.10.2019
526 Clouds 22 1025 22 10000 7.7 10 22:20 08.10.2019
527 Clouds 22 1025 22 10000 7.7 10 22:20 08.10.2019
528 Clouds 23 1027 15 10000 3.6 40 21:58 08.10.2019
529 Clouds 23 1027 15 10000 3.6 40 21:39 08.10.2019
530 Clouds 24 1026 13 10000 3.6 40 21:19 08.10.2019
531 Clouds 23 1027 11 10000 4.1 350 20:57 08.10.2019
532 Clouds 23 1028 12 10000 2.6 290 20:39 08.10.2019
533 Clouds 23 1028 12 10000 2.6 290 20:21 08.10.2019
534 Clouds 22 1028 13 10000 2.6 270 19:58 08.10.2019
535 Clouds 22 1028 13 10000 2.6 270 19:58 08.10.2019
536 Clouds 22 1028 13 10000 2.6 270 19:40 08.10.2019
537 Clouds 21 1030 18 10000 2.6 0 19:22 08.10.2019
538 Clear 20 1030 18 10000 2.6 230 18:55 08.10.2019
539 Clear 19 1031 22 10000 1.5 0 18:37 08.10.2019
540 Clear 19 1031 22 10000 1.5 0 18:19 08.10.2019
541 Clear 18 1032 23 10000 3.6 90 17:55 08.10.2019
542 Clear 17 1033 23 10000 1 100 17:36 08.10.2019
543 Clear 17 1033 23 10000 1 100 17:18 08.10.2019
544 Clouds 16 1034 33 10000 0.5 300 16:40 08.10.2019
545 Clouds 16 1034 33 10000 0.5 300 16:22 08.10.2019
546 Clouds 14 1034 50 10000 0.5 360 15:41 08.10.2019
547 Clouds 13 1034 50 10000 0.5 360 15:22 08.10.2019
548 Clouds 13 1034 50 10000 0.5 360 15:22 08.10.2019
549 Clouds 11 1034 57 10000 2.1 80 14:59 08.10.2019
550 Clouds 11 1034 57 10000 2.1 80 14:41 08.10.2019
551 Clouds 9 1034 66 10000 2.6 100 14:21 08.10.2019
552 Clouds 8 1034 65 10000 2.1 110 13:57 08.10.2019
553 Clouds 6 1033 75 10000 2.6 90 13:39 08.10.2019
554 Clouds 6 1033 75 10000 2.6 90 13:19 08.10.2019
555 Clouds 6 1032 70 10000 2.6 90 12:59 08.10.2019
556 Clouds 7 1032 70 10000 2.6 70 12:38 08.10.2019
557 Clouds 7 1032 70 10000 2.6 70 12:18 08.10.2019
558 Clouds 8 1031 65 10000 1.5 90 11:42 08.10.2019
559 Clouds 8 1031 65 10000 1.5 90 11:24 08.10.2019
560 Clouds 8 1031 65 10000 1.5 90 11:24 08.10.2019
561 Clouds 6 1031 75 10000 2.1 90 10:58 08.10.2019
562 Clouds 6 1031 75 10000 2.1 90 10:38 08.10.2019
563 Clouds 6 1031 75 10000 2.1 90 10:19 08.10.2019
564 Clouds 7 1031 70 10000 0.5 90 09:56 08.10.2019
565 Clouds 7 1031 70 10000 0.5 90 09:56 08.10.2019
566 Clouds 7 1031 70 10000 0.5 90 09:37 08.10.2019
567 Clear 7 1031 70 10000 0.5 90 09:19 08.10.2019
568 Clear 7 1031 70 10000 1.5 90 08:42 08.10.2019
569 Clear 7 1031 70 10000 1.5 90 08:23 08.10.2019
570 Clear 8 1031 65 10000 1 70 07:45 08.10.2019
571 Clear 8 1031 65 10000 1 70 07:21 08.10.2019
572 Clear 9 1031 66 10000 1 100 06:53 08.10.2019
573 Clear 9 1031 66 10000 1 100 06:29 08.10.2019
574 Clear 10 1031 61 10000 1.5 50 05:55 08.10.2019
575 Clear 10 1031 61 10000 1.5 50 05:55 08.10.2019
576 Clear 10 1031 61 10000 1.5 50 05:36 08.10.2019
577 Clouds 12 1030 54 10000 2.1 80 04:33 08.10.2019
578 Clear 12 1027 54 10000 2.6 110 03:29 08.10.2019
579 Clear 14 1027 50 10000 4.6 90 02:39 08.10.2019
580 Clear 14 1027 50 10000 4.6 120 01:47 08.10.2019
581 Clouds 16 1026 41 10000 2.6 0 01:28 08.10.2019
582 Clouds 17 1025 36 10000 3.1 0 00:48 08.10.2019
583 Clouds 18 1024 29 10000 3.1 30 00:21 08.10.2019
584 Clouds 19 1024 30 10000 3.6 0 23:41 07.10.2019
585 Clouds 20 1023 20 10000 5.1 360 23:20 07.10.2019
586 Clouds 20 1023 20 10000 5.1 360 23:20 07.10.2019
587 Clouds 20 1023 19 10000 5.1 350 22:57 07.10.2019
588 Clouds 21 1024 11 10000 4.1 0 22:39 07.10.2019
589 Clouds 21 1024 11 10000 4.1 0 22:20 07.10.2019
590 Clouds 21 1024 12 10000 2.1 0 21:57 07.10.2019
591 Clouds 21 1025 13 10000 3.6 90 21:38 07.10.2019
592 Clouds 21 1025 13 10000 3.6 90 21:20 07.10.2019
593 Clouds 21 1025 13 10000 3.6 90 21:20 07.10.2019
594 Clouds 21 1026 11 10000 2.93 257.847 20:58 07.10.2019
595 -273 0 0 0 0 0 20:39 07.10.2019
596 Rain 21 1026 11 10000 2.1 0 20:20 07.10.2019
597 Rain 21 1027 13 10000 2.6 270 19:58 07.10.2019
598 Clouds 20 1028 13 10000 4.6 350 19:40 07.10.2019
599 Clouds 20 1028 13 10000 4.6 350 19:19 07.10.2019
600 Clouds 20 1028 15 10000 2.6 310 18:56 07.10.2019
601 Clouds 20 1029 18 10000 4.1 80 18:38 07.10.2019
602 Clouds 20 1029 18 10000 4.1 80 18:18 07.10.2019
603 Clouds 18 1030 23 10000 2.1 0 17:43 07.10.2019
604 Clouds 18 1031 23 10000 2.1 360 17:20 07.10.2019
605 Clouds 16 1032 41 10000 1.5 100 16:57 07.10.2019
606 Rain 18 1032 41 10000 1.5 100 16:38 07.10.2019
607 Clouds 18 1032 41 10000 1.5 100 16:20 07.10.2019
608 Clouds 18 1032 44 10000 1.5 60 15:45 07.10.2019
609 Clouds 16 1032 58 10000 1.5 0 15:25 07.10.2019
610 Clouds 12 1032 54 10000 0.5 0 14:55 07.10.2019
611 Clouds 10 1031 61 10000 2.1 80 14:37 07.10.2019
612 Clouds 10 1031 61 10000 2.1 80 14:18 07.10.2019
613 Clouds 9 1031 66 10000 2.1 110 13:41 07.10.2019
614 Clouds 8 1030 70 10000 1.5 60 13:20 07.10.2019
615 Clouds 8 1030 70 10000 1.5 90 12:55 07.10.2019
616 Clouds 8 1030 70 10000 1 60 12:37 07.10.2019
617 Clouds 8 1030 70 10000 1 60 12:19 07.10.2019
618 Clouds 8 1029 70 10000 2.1 100 11:57 07.10.2019
619 Clouds 8 1029 70 10000 2.1 100 11:37 07.10.2019
620 Clouds 9 1030 66 10000 1.23 31.812 11:18 07.10.2019
621 Clouds 9 1030 66 10000 1.23 31.812 10:41 07.10.2019
622 Clouds 9 1030 66 10000 1.23 31.812 10:41 07.10.2019
623 Clouds 9 1030 66 10000 1.23 31.812 10:20 07.10.2019
624 Clouds 9 1030 66 10000 1.5 110 09:42 07.10.2019
625 Clouds 9 1030 66 10000 1.5 110 09:24 07.10.2019
626 Clouds 8 1031 70 10000 2.1 90 08:57 07.10.2019
627 Clouds 8 1031 70 10000 2.1 90 08:39 07.10.2019
628 Clouds 8 1031 70 10000 2.1 90 08:19 07.10.2019
629 Clouds 8 1032 70 10000 1 70 07:41 07.10.2019
630 Clouds 8 1032 70 10000 1 70 07:23 07.10.2019
631 Clouds 8 1032 65 10000 0.5 100 06:54 07.10.2019
632 Clouds 8 1032 65 10000 0.5 100 06:34 07.10.2019
633 Clouds 8 1032 65 10000 0.5 270 05:49 07.10.2019
634 Clouds 8 1032 65 10000 0.5 270 05:23 07.10.2019
635 Clouds 9 1031 66 10000 1.5 110 04:28 07.10.2019
636 Clouds 10 1030 61 10000 1.5 100 03:45 07.10.2019
637 Clouds 10 1030 61 10000 4.1 100 03:23 07.10.2019
638 Clouds 11 1028 57 10000 4.6 120 02:23 07.10.2019
639 Clouds 11 1028 57 10000 4.6 100 01:52 07.10.2019
640 Clouds 11 1027 57 10000 6.2 100 01:22 07.10.2019
641 Clouds 12 1027 54 10000 5.1 110 00:41 07.10.2019
642 Clouds 14 1026 44 10000 4.1 0 00:22 07.10.2019
643 Rain 14 1026 41 10000 3.1 10 23:54 06.10.2019
644 Rain 14 1026 44 10000 3.6 360 23:36 06.10.2019
645 Rain 14 1026 44 10000 3.6 360 23:18 06.10.2019
646 Rain 17 1026 33 10000 4.6 300 22:41 06.10.2019
647 Rain 17 1026 33 10000 4.6 300 22:22 06.10.2019
648 Rain 17 1026 33 10000 4.6 310 21:58 06.10.2019
649 Rain 18 1026 27 10000 6.7 300 21:38 06.10.2019
650 Rain 19 1026 27 10000 6.7 300 21:19 06.10.2019
651 Rain 20 1026 25 10000 7.2 190 20:58 06.10.2019
652 Clouds 21 1026 24 10000 5.1 280 20:40 06.10.2019
653 Clouds 21 1026 24 10000 5.1 280 20:21 06.10.2019
654 Clouds 20 1027 47 10000 6.2 290 19:58 06.10.2019
655 Clouds 20 1028 25 10000 3.1 220 19:38 06.10.2019
656 Clouds 20 1028 25 10000 3.1 220 19:20 06.10.2019
657 Clouds 20 1028 25 10000 3.1 220 19:20 06.10.2019
658 Clouds 20 1029 22 10000 2.1 270 18:57 06.10.2019
659 Clouds 18 1030 27 10000 2.1 320 18:39 06.10.2019
660 Clouds 18 1030 27 10000 2.1 320 18:20 06.10.2019
661 Clouds 18 1030 27 10000 2.1 200 17:59 06.10.2019
662 Clouds 18 1030 27 10000 2.1 200 17:39 06.10.2019
663 Clouds 17 1031 36 10000 0.5 170 17:19 06.10.2019
664 Clouds 17 1032 54 10000 1.5 270 16:43 06.10.2019
665 Clouds 14 1032 47 10000 2.1 360 16:24 06.10.2019
666 Clouds 14 1032 47 10000 2.1 360 16:24 06.10.2019
667 Clouds 12 1032 66 10000 2.1 70 15:59 06.10.2019
668 Clouds 12 1032 66 10000 2.1 70 15:41 06.10.2019
669 Clouds 12 1032 54 10000 1 130 15:18 06.10.2019
670 Clouds 11 1032 66 10000 1 110 14:43 06.10.2019
671 Clouds 10 1031 76 10000 1.5 70 14:24 06.10.2019
672 Clouds 9 1031 76 10000 1.5 220 13:58 06.10.2019
673 Clouds 9 1030 81 10000 1 10 13:39 06.10.2019
674 Clouds 9 1030 81 10000 1 10 13:21 06.10.2019
675 Rain 9 1030 76 10000 1.97 275.21 12:57 06.10.2019
676 Clouds 9 1030 76 10000 1.5 350 12:39 06.10.2019
677 Clouds 9 1030 76 10000 1.5 350 12:20 06.10.2019
678 Clouds 9 1030 76 10000 1.5 350 12:20 06.10.2019
679 Clouds 9 1029 81 10000 1 80 11:57 06.10.2019
680 Clouds 9 1029 81 10000 1 80 11:38 06.10.2019
681 Clouds 9 1029 81 10000 1 80 11:20 06.10.2019
682 Clouds 9 1029 76 10000 1 80 10:44 06.10.2019
683 Clouds 9 1029 76 10000 1 80 10:44 06.10.2019
684 Clouds 9 1029 76 10000 1 80 10:26 06.10.2019
685 Clouds 9 1030 81 10000 1.15 323.43 09:58 06.10.2019
686 Clouds 9 1030 81 10000 1.15 323.43 09:39 06.10.2019
687 Clouds 9 1030 81 10000 1.18 352.386 09:18 06.10.2019
688 Rain 8 1030 81 10000 0.5 0 08:43 06.10.2019
689 Rain 8 1030 81 10000 0.5 0 08:21 06.10.2019
690 Rain 10 1031 71 10000 1 230 07:56 06.10.2019
691 Rain 10 1031 71 10000 1 230 07:33 06.10.2019
692 Clouds 10 1030 61 10000 2.6 280 06:20 06.10.2019
693 Clouds 11 1030 57 10000 1 90 05:34 06.10.2019
694 Clouds 11 1029 57 10000 2.1 300 03:56 06.10.2019
695 Clouds 12 1028 54 10000 2.6 270 02:43 06.10.2019
696 Clouds 13 1027 50 10000 2.6 10 02:22 06.10.2019
697 Clouds 14 1027 47 10000 4.1 20 01:45 06.10.2019
698 Clouds 15 1026 41 10000 3.6 330 01:27 06.10.2019
699 Clouds 15 1026 38 10000 2.6 340 00:53 06.10.2019
700 Clouds 16 1026 38 10000 5.1 320 00:27 06.10.2019
701 Clouds 17 1026 36 10000 6.2 290 23:45 05.10.2019
702 Clouds 17 1025 36 10000 1 0 23:22 05.10.2019
703 Clouds 17 1026 39 10000 2.6 0 22:58 05.10.2019
704 Clouds 18 1026 36 10000 1 0 22:40 05.10.2019
705 Clouds 18 1026 36 10000 1 0 22:40 05.10.2019
706 Clouds 18 1026 36 10000 1 0 22:20 05.10.2019
707 Clouds 16 1027 44 10000 1.5 360 21:57 05.10.2019
708 Rain 15 1027 51 10000 5.7 290 21:38 05.10.2019
709 Rain 15 1027 51 10000 5.7 290 21:18 05.10.2019
710 Clouds 16 1028 41 10000 2.1 60 20:56 05.10.2019
711 Clouds 16 1028 41 10000 1.5 290 20:37 05.10.2019
712 Clouds 16 1028 41 10000 1.5 290 20:19 05.10.2019
713 Clouds 14 1030 47 10000 3.6 290 19:38 05.10.2019
714 Rain 13 1031 62 10000 6.7 290 19:19 05.10.2019
715 Rain 13 1031 62 10000 6.7 290 18:56 05.10.2019
716 Clouds 22 1031 38 10000 4.1 300 18:38 05.10.2019
717 Clouds 15 1031 38 10000 4.1 300 18:20 05.10.2019
718 Clouds 16 1031 36 10000 3.1 310 17:46 05.10.2019
719 Clouds 14 1031 44 10000 1.5 0 17:27 05.10.2019
720 Clouds 14 1032 44 10000 0.5 270 16:59 05.10.2019
721 Clouds 14 1032 44 10000 0.5 270 16:41 05.10.2019
722 Clouds 18 1032 47 10000 1.5 0 16:21 05.10.2019
723 Clouds 16 1032 50 10000 1.5 0 15:57 05.10.2019
724 Clouds 14 1032 57 10000 1.5 70 15:38 05.10.2019
725 Clouds 11 1032 57 10000 1.5 70 15:20 05.10.2019
726 Clouds 11 1032 57 10000 0.5 0 14:44 05.10.2019
727 Clouds 10 1031 61 10000 0.5 0 14:26 05.10.2019
728 Clouds 10 1031 61 10000 0.5 0 14:26 05.10.2019
729 Clouds 8 1031 70 10000 2.1 320 13:59 05.10.2019
730 Clouds 8 1031 70 10000 2.1 320 13:41 05.10.2019
731 Clouds 8 1031 70 10000 2.1 320 13:41 05.10.2019
732 Clouds 7 1031 70 10000 1.43 303.857 13:20 05.10.2019
733 Clouds 8 1030 65 10000 1 0 12:44 05.10.2019
734 Clouds 8 1030 65 10000 1.5 40 12:20 05.10.2019
735 -273 0 0 0 0 0 11:54 05.10.2019
736 Clouds 7 1030 70 10000 1 0 11:36 05.10.2019
737 Clouds 7 1030 70 10000 1 0 11:18 05.10.2019
738 Clouds 7 1030 70 10000 1 300 10:44 05.10.2019
739 Clouds 7 1030 70 10000 1 300 10:24 05.10.2019
740 Clouds 6 1030 75 10000 2.1 300 09:56 05.10.2019
741 Clouds 6 1030 75 10000 2.1 300 09:38 05.10.2019
742 Clouds 6 1030 75 10000 2.1 300 09:38 05.10.2019
743 Clouds 6 1030 75 10000 2.1 300 09:20 05.10.2019
744 Clouds 7 1030 65 10000 1 90 08:39 05.10.2019
745 Clouds 7 1030 65 10000 1 90 08:19 05.10.2019
746 Clouds 7 1030 65 10000 1.87 334.614 07:56 05.10.2019
747 Clouds 7 1030 65 10000 1.87 334.614 07:33 05.10.2019
748 Clouds 9 1030 61 10000 0.5 320 06:58 05.10.2019
749 Clouds 9 1030 61 10000 0.5 320 06:26 05.10.2019
750 Clouds 10 1030 57 10000 3.6 280 05:40 05.10.2019
751 Clouds 13 1028 43 10000 2.1 0 03:42 05.10.2019
752 Clouds 13 1029 47 10000 2.6 270 03:42 05.10.2019
753 Clouds 13 1028 43 10000 2.1 0 03:22 05.10.2019
754 Clouds 16 1027 64 10000 1.5 340 01:41 05.10.2019
755 Clouds 17 1027 62 10000 4.1 320 01:18 05.10.2019
756 Clouds 18 1027 62 10000 4.1 310 00:41 05.10.2019
757 Clouds 18 1027 31 10000 3.6 290 00:23 05.10.2019
758 Clouds 19 1027 25 10000 4.1 300 23:44 04.10.2019
759 Clouds 18 1027 31 10000 4.1 290 23:25 04.10.2019
760 Clouds 19 1027 53 10000 5.7 300 22:59 04.10.2019
761 Clouds 18 1028 31 10000 8.7 300 22:39 04.10.2019
762 Clouds 18 1028 31 10000 8.7 300 22:20 04.10.2019
763 Clouds 20 1028 28 10000 5.7 300 21:56 04.10.2019
764 Clouds 19 1029 29 10000 5.7 300 21:38 04.10.2019
765 Clouds 19 1029 29 10000 5.7 300 21:19 04.10.2019
766 Clouds 19 1029 32 10000 7.2 290 20:54 04.10.2019
767 Clouds 19 1030 29 10000 7.2 310 20:36 04.10.2019
768 Clouds 19 1030 29 10000 7.2 310 20:18 04.10.2019
769 Clouds 19 1030 32 10000 6.7 290 19:41 04.10.2019
770 Clouds 19 1031 29 10000 2.6 310 19:23 04.10.2019
771 Clouds 19 1031 32 10000 4.6 290 18:57 04.10.2019
772 Clouds 18 1032 34 10000 5.7 300 18:38 04.10.2019
773 Clouds 18 1032 34 10000 5.7 300 18:19 04.10.2019
774 Clouds 17 1032 36 10000 5.1 310 17:42 04.10.2019
775 Clouds 16 1033 38 10000 4.1 310 17:22 04.10.2019
776 Clouds 15 1033 44 10000 3.6 310 16:59 04.10.2019
777 Clouds 15 1033 44 10000 3.6 310 16:41 04.10.2019
778 Clouds 15 1033 44 10000 3.6 310 16:19 04.10.2019
779 Clouds 14 1033 47 10000 3.1 280 15:58 04.10.2019
780 Clouds 14 1033 47 10000 3.1 280 15:39 04.10.2019
781 Clouds 14 1033 47 10000 4.6 280 15:20 04.10.2019
782 Clouds 14 1033 47 10000 3.6 270 14:58 04.10.2019
783 Clouds 14 1033 47 10000 3.6 270 14:39 04.10.2019
784 Clouds 12 1032 54 10000 3.6 270 14:21 04.10.2019
785 Clouds 12 1032 54 10000 3.1 270 13:45 04.10.2019
786 Clouds 12 1032 54 10000 3.6 290 13:23 04.10.2019
787 Clouds 11 1031 57 10000 3.6 290 12:58 04.10.2019
788 Clouds 12 1031 58 10000 2.1 360 12:40 04.10.2019
789 Clouds 12 1031 58 10000 2.1 360 12:21 04.10.2019
790 Clouds 11 1031 62 10000 4.1 300 11:43 04.10.2019
791 Clouds 11 1031 62 10000 4.1 300 11:42 04.10.2019
792 Clouds 11 1031 62 10000 4.1 300 11:22 04.10.2019
793 Clouds 11 1030 62 10000 3.1 290 10:55 04.10.2019
794 Clouds 11 1030 62 10000 3.1 290 10:37 04.10.2019
795 Clouds 11 1030 62 10000 3.1 290 10:18 04.10.2019
796 Clouds 12 1030 58 10000 5.1 200 09:41 04.10.2019
797 Clouds 12 1030 58 10000 5.1 200 09:23 04.10.2019
798 Clouds 12 1031 58 10000 1.24 336.814 08:45 04.10.2019
799 Clouds 12 1031 58 10000 1.24 336.814 08:26 04.10.2019
800 Clouds 13 1031 54 10000 1.24 336.814 07:47 04.10.2019
801 Clouds 13 1031 54 10000 1.24 336.814 07:26 04.10.2019
802 Clouds 13 1032 50 10000 2.1 300 06:59 04.10.2019
803 Clouds 13 1032 50 10000 2.1 300 06:59 04.10.2019
804 Clouds 13 1032 50 10000 2.1 300 06:39 04.10.2019
805 Clouds 13 1032 50 10000 2.1 300 06:39 04.10.2019
806 Clouds 13 1032 50 10000 2.1 300 06:21 04.10.2019
807 Clouds 13 1032 50 10000 1.68 346.071 05:21 04.10.2019
808 Clouds 13 1031 47 10000 1 0 04:39 04.10.2019
809 Clouds 14 1031 41 10000 2.1 260 03:28 04.10.2019
810 Clouds 14 1030 44 10000 3.1 270 02:44 04.10.2019
811 Clouds 15 1029 38 10000 5.1 280 01:54 04.10.2019
812 Clouds 16 1028 36 10000 5.7 310 01:26 04.10.2019
813 Clouds 19 1027 62 10000 5.1 310 00:34 04.10.2019
814 Clouds 19 1027 25 10000 6.2 300 23:41 03.10.2019
815 Clouds 21 1026 21 10000 7.2 280 23:22 03.10.2019
816 Clouds 21 1026 21 10000 7.2 280 23:22 03.10.2019
817 Clouds 21 1026 19 10000 6.2 290 22:58 03.10.2019
818 Clouds 21 1026 19 10000 6.2 290 22:39 03.10.2019
819 Clouds 21 1026 19 10000 6.2 290 22:39 03.10.2019
820 Clouds 22 1026 18 10000 7.2 280 22:21 03.10.2019
821 Clouds 22 1026 18 10000 7.2 280 22:21 03.10.2019
822 Clouds 22 1027 17 10000 7.2 270 21:58 03.10.2019
823 Clouds 22 1027 17 10000 7.2 270 21:40 03.10.2019
824 Clouds 22 1027 17 10000 8.2 280 21:20 03.10.2019
825 Clouds 20 1028 19 10000 8.2 280 20:58 03.10.2019
826 Clouds 19 1028 22 10000 6.7 270 20:39 03.10.2019
827 Clouds 19 1028 22 10000 6.7 270 20:20 03.10.2019
828 Clouds 19 1029 40 10000 1.5 210 19:56 03.10.2019
829 Clouds 19 1029 40 10000 1.5 210 19:56 03.10.2019
830 Clouds 19 1029 40 10000 1.5 210 19:56 03.10.2019
831 Clouds 18 1030 40 10000 2.6 130 19:38 03.10.2019
832 Clouds 18 1030 40 10000 2.6 130 19:19 03.10.2019
833 Clouds 19 1031 29 10000 2.1 0 18:56 03.10.2019
834 Clouds 17 1031 33 10000 2.1 130 18:37 03.10.2019
835 Clouds 17 1031 33 10000 2.1 130 18:18 03.10.2019
836 Clouds 17 1032 33 10000 1 0 17:42 03.10.2019
837 Clouds 18 1032 31 10000 1 0 17:21 03.10.2019
838 Clouds 17 1032 33 10000 1.5 0 16:57 03.10.2019
839 Clouds 16 1033 38 10000 1.5 0 16:39 03.10.2019
840 Clouds 16 1033 38 10000 1.5 0 16:20 03.10.2019
841 Clouds 15 1033 47 10000 1.5 60 15:44 03.10.2019
842 Clouds 13 1033 50 10000 1 0 15:24 03.10.2019
843 Haze 12 1033 50 10000 1 0 14:58 03.10.2019
844 Haze 10 1033 57 10000 0.5 0 14:37 03.10.2019
845 Haze 10 1033 57 10000 0.5 0 14:18 03.10.2019
846 Clouds 6 1032 75 10000 1.5 80 13:44 03.10.2019
847 Clouds 6 1032 75 10000 1.5 80 13:25 03.10.2019
848 Clouds 6 1032 75 10000 1.5 80 13:25 03.10.2019
849 Clouds 6 1031 70 10000 1 80 12:59 03.10.2019
850 Clouds 6 1031 70 10000 1 300 12:40 03.10.2019
851 Clouds 6 1031 70 10000 1 300 12:20 03.10.2019
852 Clouds 5 1031 75 10000 1.5 270 11:58 03.10.2019
853 Clouds 5 1031 75 10000 1.5 270 11:40 03.10.2019
854 Clouds 5 1031 75 10000 1.5 270 11:21 03.10.2019
855 Clouds 7 1031 70 10000 0.5 0 10:57 03.10.2019
856 Clouds 7 1031 70 10000 0.5 0 10:38 03.10.2019
857 Clouds 7 1031 70 10000 0.5 0 10:18 03.10.2019
858 Clouds 9 1030 61 10000 0.5 310 09:56 03.10.2019
859 Clouds 9 1030 61 10000 0.5 310 09:37 03.10.2019
860 Clouds 7 1018 74 0 1.32 311.479 09:19 03.10.2019
861 Clouds 7 1018 75 0 1.5 305.693 08:42 03.10.2019
862 Clouds 7 1018 75 0 1.5 305.693 08:23 03.10.2019
863 Clouds 10 1032 57 10000 0.5 130 07:42 03.10.2019
864 Clouds 10 1032 57 10000 0.5 130 07:20 03.10.2019
865 Clouds 10 1032 57 10000 0.5 130 07:20 03.10.2019
866 Clouds 10 1032 57 10000 1.5 70 06:52 03.10.2019
867 Clouds 10 1032 57 10000 1.5 70 06:27 03.10.2019
868 Clouds 9 1032 57 10000 2.1 270 05:48 03.10.2019
869 Clouds 9 1032 57 10000 2.1 270 05:27 03.10.2019
870 Clouds 10 1031 53 10000 2.6 290 04:44 03.10.2019
871 Clouds 12 1030 50 10000 2.6 250 03:54 03.10.2019
872 Clouds 12 1030 50 10000 1 0 03:18 03.10.2019
873 Clouds 13 1029 43 10000 3.6 280 02:21 03.10.2019
874 Clouds 14 1028 41 10000 5.1 310 01:38 03.10.2019
875 Clouds 15 1027 38 10000 6.7 300 00:52 03.10.2019
876 Clouds 17 1027 47 10000 8.2 290 00:31 03.10.2019
877 Clouds 17 1026 33 10000 1.5 30 23:44 02.10.2019
878 Clouds 17 1026 33 10000 1.5 30 23:25 02.10.2019
879 Clouds 17 1026 39 10000 3.6 0 22:57 02.10.2019
880 Clouds 17 1027 45 10000 5.7 120 22:38 02.10.2019
881 Clouds 17 1027 45 10000 5.7 120 22:18 02.10.2019
882 Clouds 17 1027 42 10000 5.7 110 21:55 02.10.2019
883 Clouds 15 1028 47 10000 6.2 110 21:36 02.10.2019
884 Clouds 15 1028 47 10000 6.2 110 21:18 02.10.2019
885 Clouds 15 1028 47 10000 7.2 110 20:55 02.10.2019
886 Clouds 16 1028 44 10000 6.7 110 20:37 02.10.2019
887 Clouds 16 1028 44 10000 6.7 110 20:18 02.10.2019
888 Rain 14 1030 54 10000 2.6 110 19:43 02.10.2019
889 Rain 14 1030 54 10000 2.6 110 19:22 02.10.2019
890 Rain 13 1031 62 10000 3.6 90 18:58 02.10.2019
891 Rain 13 1031 62 10000 3.6 90 18:39 02.10.2019
892 Rain 13 1031 62 10000 3.6 90 18:21 02.10.2019
893 Clouds 13 1031 58 10000 2 320.924 17:57 02.10.2019
894 Clouds 13 1031 58 10000 2 320.924 17:57 02.10.2019
895 Clouds 13 1031 58 10000 2 320.924 17:57 02.10.2019
896 Clouds 13 1031 58 10000 2 320.924 17:38 02.10.2019
897 Clouds 13 1031 58 10000 2 320.924 17:38 02.10.2019
898 Clouds 13 1031 58 10000 2 320.924 17:20 02.10.2019
899 Rain 13 1031 54 10000 2.1 120 16:56 02.10.2019
900 Rain 13 1031 54 10000 2.1 120 16:36 02.10.2019
901 Clouds 11 1031 62 10000 3.1 120 16:18 02.10.2019
902 Clouds 11 1031 62 10000 3.1 120 15:41 02.10.2019
903 Clouds 11 1031 62 10000 3.1 120 15:23 02.10.2019
904 Rain 11 1031 62 10000 2.1 110 14:58 02.10.2019
905 Rain 11 1030 62 10000 2.1 110 14:40 02.10.2019
906 Clouds 10 1030 66 10000 2.6 90 14:21 02.10.2019
907 Clouds 10 1030 66 10000 2.6 90 13:48 02.10.2019
908 Rain 10 1029 66 10000 2.6 110 13:29 02.10.2019
909 Clouds 10 1029 66 10000 2.6 120 12:59 02.10.2019
910 Clouds 10 1029 61 10000 2.1 100 12:39 02.10.2019
911 Clouds 10 1029 61 10000 2.1 100 12:20 02.10.2019
912 Clouds 11 1028 62 10000 1.03 347.332 11:45 02.10.2019
913 Clouds 11 1028 62 10000 1.03 347.332 11:23 02.10.2019
914 Clouds 11 1028 57 10000 1.5 270 10:42 02.10.2019
915 Clouds 11 1028 57 10000 1.5 270 10:20 02.10.2019
916 Clouds 11 1028 57 10000 1.5 270 10:20 02.10.2019
917 Clouds 10 1028 61 10000 1.5 280 09:59 02.10.2019
918 Clouds 10 1028 61 10000 1.5 280 09:38 02.10.2019
919 Clouds 10 1028 61 10000 1.5 280 09:20 02.10.2019
920 Clouds 10 1029 61 10000 2.1 310 08:46 02.10.2019
921 Clouds 10 1029 61 10000 2.1 310 08:25 02.10.2019
922 Clouds 9 1029 66 10000 2.1 300 07:59 02.10.2019
923 Clouds 9 1029 66 10000 2.1 300 07:39 02.10.2019
924 Clouds 9 1029 66 10000 2.1 300 07:20 02.10.2019
925 Clouds 8 1029 65 10000 1.5 300 06:40 02.10.2019
926 Clouds 11 1029 57 10000 0.5 0 05:56 02.10.2019
927 Clouds 11 1029 57 10000 0.5 0 05:24 02.10.2019
928 Clouds 11 1029 57 10000 1 0 04:53 02.10.2019
929 Clouds 11 1028 57 10000 2.1 110 03:52 02.10.2019
930 Clouds 14 1026 47 10000 2.1 360 02:43 02.10.2019
931 Clouds 14 1026 47 10000 2.1 360 02:23 02.10.2019
932 Clouds 16 1026 38 10000 2.6 0 01:40 02.10.2019
933 Clouds 16 1025 41 10000 2.6 0 00:51 02.10.2019
934 Clouds 17 1025 36 10000 1 0 00:27 02.10.2019
935 Clouds 17 1025 39 10000 1 0 23:45 01.10.2019
936 Clouds 17 1025 39 10000 1 0 23:26 01.10.2019
937 Clouds 17 1025 39 10000 2.1 0 22:59 01.10.2019
938 Clouds 16 1026 44 10000 1.5 0 22:40 01.10.2019
939 Clouds 16 1026 44 10000 1.5 0 22:20 01.10.2019
940 Clouds 17 1026 39 10000 2.1 0 21:57 01.10.2019
941 Clouds 17 1026 39 10000 1.5 0 21:39 01.10.2019
942 Clouds 17 1026 39 10000 1.5 0 21:21 01.10.2019
943 Clouds 16 1027 41 10000 2.6 0 20:56 01.10.2019
944 Clouds 15 1028 51 10000 2.6 100 20:38 01.10.2019
945 Clouds 15 1028 51 10000 2.6 100 20:19 01.10.2019
946 Rain 13 1029 62 10000 4.6 330 19:56 01.10.2019
947 Rain 16 1028 41 10000 2.1 0 19:38 01.10.2019
948 Rain 16 1028 41 10000 2.1 0 19:18 01.10.2019
949 Clouds 15 1029 62 10000 1.5 0 18:40 01.10.2019
950 Clouds 15 1029 62 10000 1.5 0 18:22 01.10.2019
951 Clouds 16 1030 36 10000 2.1 0 17:58 01.10.2019
952 Clouds 16 1030 36 10000 2.1 0 17:40 01.10.2019
953 Clouds 16 1030 36 10000 2.1 0 17:19 01.10.2019
954 Clouds 15 1030 41 10000 2.1 110 16:57 01.10.2019
955 Clouds 20 1030 41 10000 1 0 16:39 01.10.2019
956 Clouds 19 1030 41 10000 1 0 16:21 01.10.2019
957 Clouds 19 1030 44 10000 2.6 120 15:46 01.10.2019
958 Clouds 13 1030 47 10000 1 0 15:23 01.10.2019
959 Clouds 10 1030 57 10000 0.73 340.373 14:42 01.10.2019
960 Clouds 10 1030 57 10000 0.73 340.373 14:21 01.10.2019
961 Clouds 9 1029 61 10000 0.73 340.373 13:59 01.10.2019
962 Clouds 8 1029 61 10000 0.5 0 13:40 01.10.2019
963 Clouds 8 1029 61 10000 1 290 13:21 01.10.2019
964 Clouds 8 1029 61 10000 1 290 12:59 01.10.2019
965 Clouds 9 1028 57 10000 1 80 12:40 01.10.2019
966 Clouds 9 1028 57 10000 1 80 12:19 01.10.2019
967 Clouds 9 1028 61 10000 1 80 11:58 01.10.2019
968 Clouds 9 1028 61 10000 1 80 11:38 01.10.2019
969 Clouds 9 1028 61 10000 1 80 11:19 01.10.2019
970 Clouds 10 1028 53 10000 2.6 60 10:49 01.10.2019
971 Clouds 10 1028 53 10000 2.6 60 10:29 01.10.2019
972 Clouds 11 1028 50 10000 3.1 130 09:57 01.10.2019
973 Clouds 11 1028 50 10000 3.1 130 09:39 01.10.2019
974 Clouds 11 1028 50 10000 3.1 130 09:21 01.10.2019
975 Clouds 12 1028 46 10000 1.5 70 08:42 01.10.2019
976 Clouds 12 1028 46 10000 1.5 70 08:24 01.10.2019
977 Clouds 12 1029 46 10000 3.1 100 07:48 01.10.2019
978 Clouds 12 1029 46 10000 3.1 100 07:25 01.10.2019
979 Clouds 13 1029 43 10000 4.1 90 06:48 01.10.2019
980 Clouds 13 1029 43 10000 4.1 90 06:19 01.10.2019
981 Clouds 13 1029 47 10000 1.5 150 05:46 01.10.2019
982 Clouds 13 1029 47 10000 1.5 150 05:18 01.10.2019
983 Clouds 13 1028 47 10000 1 0 04:29 01.10.2019
984 Rain 16 1026 36 10000 2.6 140 02:29 01.10.2019
985 Clouds 17 1025 33 10000 4.1 120 01:59 01.10.2019
986 Clouds 21 1023 57 10000 3.1 40 00:57 01.10.2019
987 Clouds 21 1023 57 10000 3.1 40 00:29 01.10.2019
988 Rain 14 1008 44 0 3.87 353.886 23:57 30.09.2019
989 Clouds 21 1023 22 10000 4.6 40 23:39 30.09.2019
990 Clouds 22 1023 21 10000 3.6 100 23:20 30.09.2019
991 Clouds 22 1023 21 10000 3.1 100 22:43 30.09.2019
992 Clouds 22 1023 21 10000 3.1 100 22:25 30.09.2019
993 Clouds 22 1024 21 10000 2.1 0 21:58 30.09.2019
994 Clouds 20 1025 24 10000 3.1 110 21:38 30.09.2019
995 Clouds 20 1025 24 10000 3.1 110 21:19 30.09.2019
996 Clouds 21 1025 21 10000 2.6 110 20:57 30.09.2019
997 Clouds 20 1027 22 10000 2.1 0 20:39 30.09.2019
998 Clouds 20 1027 22 10000 2.1 0 20:20 30.09.2019
999 Clouds 21 1027 21 10000 2.6 0 19:56 30.09.2019
1000 Clouds 21 1027 21 10000 2.6 0 19:56 30.09.2019
1001 Clouds 20 1029 24 10000 2.1 0 19:38 30.09.2019
1002 Clouds 20 1029 33 10000 1.5 0 19:19 30.09.2019
1003 Clouds 20 1029 33 10000 1.5 0 18:57 30.09.2019
1004 Clouds 19 1030 25 10000 2.6 320 18:37 30.09.2019
1005 Clouds 19 1030 25 10000 2.6 320 18:19 30.09.2019
1006 Clouds 17 1031 41 10000 1 0 17:43 30.09.2019
1007 Clouds 17 1031 41 10000 1 0 17:23 30.09.2019
1008 Clouds 16 1032 41 10000 0.5 230 16:57 30.09.2019
1009 Clouds 15 1032 38 10000 1.5 0 16:39 30.09.2019
1010 Haze 19 1033 41 10000 1 0 16:19 30.09.2019
1011 Haze 18 1033 41 10000 1 0 15:58 30.09.2019
1012 Haze 17 1033 50 10000 1 0 15:37 30.09.2019
1013 Haze 11 1033 50 10000 1 0 15:19 30.09.2019
1014 Haze 10 1033 53 10000 0.5 0 14:57 30.09.2019
1015 Haze 8 1032 61 10000 0.5 0 14:37 30.09.2019
1016 Haze 8 1032 61 10000 0.5 0 14:18 30.09.2019
1017 Haze 8 1032 61 10000 0.5 0 14:18 30.09.2019
1018 Haze 7 1032 65 10000 0.66 358.349 13:56 30.09.2019
1019 Haze 5 1032 68 10000 1.5 100 13:37 30.09.2019
1020 Haze 5 1032 69 10000 1.5 100 13:19 30.09.2019
1021 Clouds 6 1031 69 10000 0.5 0 12:42 30.09.2019
1022 Clouds 6 1031 77 10000 0.5 0 12:22 30.09.2019
1023 Clouds 6 1031 77 10000 2.1 90 11:57 30.09.2019
1024 Clouds 6 1031 77 10000 2.1 90 11:57 30.09.2019
1025 Clouds 6 1031 77 10000 2.1 90 11:56 30.09.2019
1026 Clouds 6 1031 77 10000 2.1 90 11:38 30.09.2019
1027 Clouds 6 1031 77 10000 2.1 90 11:19 30.09.2019
1028 Clouds 6 1031 77 10000 2.1 90 11:19 30.09.2019
1029 Clouds 6 1031 77 10000 0.89 283.13 10:41 30.09.2019
1030 Clouds 6 1031 77 10000 0.89 283.13 10:41 30.09.2019
1031 Clouds 6 1031 77 10000 0.89 283.13 10:19 30.09.2019
1032 Clouds 7 1031 77 10000 0.89 283.13 09:59 30.09.2019
1033 Clouds 7 1031 77 10000 0.89 283.13 09:39 30.09.2019
1034 Clouds 8 1031 70 10000 1.5 290 09:20 30.09.2019
1035 Clouds 8 1031 70 10000 1.5 290 08:47 30.09.2019
1036 Clouds 8 1031 70 10000 1.5 290 08:47 30.09.2019
1037 Clear 8 1031 70 10000 1.5 290 08:29 30.09.2019
1038 Clear 9 1031 70 10000 1.5 100 07:46 30.09.2019
1039 Clear 9 1031 70 10000 1.5 100 07:28 30.09.2019
1040 Clear 9 1031 70 10000 0.94 331.629 06:56 30.09.2019
1041 Clear 9 1031 70 10000 0.94 331.629 06:56 30.09.2019
1042 Clear 9 1031 70 10000 0.94 331.629 06:56 30.09.2019
1043 Clear 9 1031 70 10000 0.94 331.629 06:34 30.09.2019
1044 Clear 12 1031 62 10000 1 110 05:48 30.09.2019
1045 Clear 12 1031 50 10000 1.5 0 04:53 30.09.2019
1046 Clouds 14 1030 33 10000 4.6 20 02:48 30.09.2019
1047 Clouds 16 1027 25 10000 4.6 10 01:39 30.09.2019
1048 Clouds 19 1026 14 10000 5.1 10 00:43 30.09.2019
1049 Clouds 19 1026 14 10000 5.1 10 00:23 30.09.2019
1050 Clouds 20 1026 13 10000 6.2 10 23:56 29.09.2019
1051 Clouds 21 1026 14 10000 4.6 20 23:38 29.09.2019
1052 Clouds 21 1026 14 10000 4.6 20 23:19 29.09.2019
1053 Clouds 21 1027 18 10000 7.2 20 22:42 29.09.2019
1054 Clouds 21 1027 18 10000 7.2 20 22:23 29.09.2019
1055 Clouds 21 1027 18 10000 7.2 20 22:23 29.09.2019
1056 Clouds 21 1027 15 10000 7.2 20 21:58 29.09.2019
1057 Clouds 22 1028 17 10000 6.7 10 21:38 29.09.2019
1058 Clouds 22 1028 17 10000 6.7 10 21:19 29.09.2019
1059 Clouds 22 1028 17 10000 6.2 20 20:57 29.09.2019
1060 Clouds 22 1028 17 10000 6.2 20 20:57 29.09.2019
1061 Clouds 23 1029 13 10000 5.1 60 20:39 29.09.2019
1062 Clouds 23 1029 13 10000 5.1 60 20:19 29.09.2019
1063 Clouds 21 1030 18 10000 1.5 220 19:39 29.09.2019
1064 Clouds 21 1030 18 10000 1.5 220 19:19 29.09.2019
1065 Clouds 21 1031 18 10000 3.1 120 18:57 29.09.2019
1066 Clouds 21 1031 18 10000 3.1 120 18:57 29.09.2019
1067 Clouds 20 1032 20 10000 2.1 50 18:39 29.09.2019
1068 Clouds 20 1032 20 10000 2.1 50 18:20 29.09.2019
1069 Clouds 19 1032 25 10000 2.6 30 17:59 29.09.2019
1070 Clouds 18 1033 27 10000 2.1 120 17:41 29.09.2019
1071 Clouds 18 1033 27 10000 2.1 120 17:20 29.09.2019
1072 Clouds 18 1033 27 10000 2.1 120 17:20 29.09.2019
1073 Clouds 17 1033 33 10000 2.1 130 17:00 29.09.2019
1074 Clouds 16 1034 38 10000 1.5 90 16:41 29.09.2019
1075 Clouds 16 1034 38 10000 1.5 90 16:20 29.09.2019
1076 Clouds 14 1034 44 10000 2.6 60 15:58 29.09.2019
1077 Clouds 13 1034 47 10000 2.1 110 15:37 29.09.2019
1078 Clouds 13 1034 47 10000 2.1 110 15:18 29.09.2019
1079 Clouds 13 1034 47 10000 2.1 110 15:18 29.09.2019
1080 Clouds 13 1033 47 10000 2.1 90 14:57 29.09.2019
1081 Haze 11 1033 50 10000 1 60 14:37 29.09.2019
1082 Haze 11 1033 50 10000 1 60 14:19 29.09.2019
1083 Haze 9 1033 61 10000 1.5 80 13:55 29.09.2019
1084 Haze 8 1032 65 10000 1 80 13:36 29.09.2019
1085 Haze 8 1032 65 10000 1 80 13:18 29.09.2019
1086 Haze 8 1032 61 10000 1.5 100 12:56 29.09.2019
1087 Clouds 8 1032 65 10000 1.5 100 12:38 29.09.2019
1088 Clouds 8 1032 65 10000 1.5 100 12:20 29.09.2019
1089 Rain 7 1031 65 10000 0.46 102.138 11:41 29.09.2019
1090 Rain 7 1031 65 10000 0.46 102.138 11:20 29.09.2019
1091 Rain 8 1031 61 10000 1.5 290 10:58 29.09.2019
1092 Rain 8 1031 61 10000 1.5 290 10:39 29.09.2019
1093 Rain 8 1031 61 10000 1.5 290 10:20 29.09.2019
1094 Rain 8 1032 61 10000 0.46 102.138 09:57 29.09.2019
1095 Rain 8 1032 61 10000 0.46 102.138 09:38 29.09.2019
1096 Clouds 8 1032 61 10000 0.44 335.179 09:18 29.09.2019
1097 Clouds 10 1032 53 10000 0.4 44.699 08:42 29.09.2019
1098 Clouds 10 1032 53 10000 0.4 44.699 08:22 29.09.2019
1099 Clouds 9 1032 57 10000 0.4 44.699 07:44 29.09.2019
1100 Clouds 9 1032 57 10000 0.4 44.699 07:26 29.09.2019
1101 Clouds 9 1032 72 10000 0.4 44.699 06:49 29.09.2019
1102 Clouds 10 1032 53 10000 2.6 120 05:59 29.09.2019
1103 Clouds 10 1032 53 10000 2.1 110 04:45 29.09.2019
1104 Clouds 12 1032 46 10000 2.1 70 04:23 29.09.2019
1105 Rain 13 1030 43 10000 3.1 120 02:58 29.09.2019
1106 Rain 14 1029 44 10000 1.5 90 02:19 29.09.2019
1107 Clouds 15 1028 62 10000 6.2 360 01:42 29.09.2019
1108 Clouds 17 1028 33 10000 3.6 10 00:59 29.09.2019
1109 Clouds 17 1028 33 10000 3.6 10 00:59 29.09.2019
1110 Clouds 18 1027 31 10000 6.7 10 00:40 29.09.2019
1111 Clouds 18 1027 31 10000 6.7 10 00:19 29.09.2019
1112 Clouds 18 1027 31 10000 6.7 10 00:19 29.09.2019
1113 Clouds 20 1026 28 10000 7.7 10 23:38 28.09.2019
1114 Clouds 20 1026 28 10000 7.7 10 23:19 28.09.2019
1115 Clouds 22 1026 21 10000 7.2 20 22:40 28.09.2019
1116 Clouds 22 1026 21 10000 7.2 20 22:21 28.09.2019
1117 Clouds 24 1026 46 10000 6.2 10 21:58 28.09.2019
1118 Clouds 23 1027 18 10000 4.6 20 21:40 28.09.2019
1119 Clouds 23 1027 18 10000 4.6 20 21:21 28.09.2019
1120 Clouds 23 1027 18 10000 2.6 250 20:58 28.09.2019
1121 Clouds 23 1027 18 10000 2.6 250 20:58 28.09.2019
1122 Clouds 22 1028 19 10000 2.6 0 20:39 28.09.2019
1123 Clouds 22 1028 19 10000 2.6 0 20:19 28.09.2019
1124 Clouds 22 1029 19 10000 3.1 0 19:56 28.09.2019
1125 Clouds 21 1030 28 10000 2.1 0 19:38 28.09.2019
1126 Clouds 21 1030 28 10000 2.1 0 19:20 28.09.2019
1127 Clouds 20 1031 28 10000 1 200 18:57 28.09.2019
1128 Clouds 19 1032 29 10000 1.5 0 18:38 28.09.2019
1129 Clouds 19 1032 29 10000 1.5 0 18:20 28.09.2019
1130 Clouds 18 1033 34 10000 2.6 0 17:56 28.09.2019
1131 Clouds 16 1034 41 10000 0.5 300 17:37 28.09.2019
1132 Clouds 16 1034 41 10000 0.5 300 17:19 28.09.2019
1133 Clouds 13 1034 50 10000 2.1 80 16:41 28.09.2019
1134 Clouds 13 1034 50 10000 2.1 80 16:23 28.09.2019
1135 Haze 11 1034 57 10000 1 0 15:42 28.09.2019
1136 Haze 11 1034 57 10000 1 0 15:23 28.09.2019
1137 Haze 10 1034 61 10000 0.5 0 14:58 28.09.2019
1138 Haze 9 1034 61 10000 1.32 269.957 14:39 28.09.2019
1139 Haze 9 1034 61 10000 1.32 269.957 14:21 28.09.2019
1140 Haze 8 1034 65 10000 2.1 70 13:57 28.09.2019
1141 Clouds 6 1033 75 10000 1.5 100 13:38 28.09.2019
1142 Clouds 6 1033 75 10000 1.5 100 13:38 28.09.2019
1143 Clouds 6 1033 75 10000 1.5 100 13:19 28.09.2019
1144 Clouds 5 1033 75 10000 1.5 90 12:45 28.09.2019
1145 Clouds 5 1033 75 10000 1.5 90 12:20 28.09.2019
1146 Clouds 5 1032 75 10000 0.5 100 11:55 28.09.2019
1147 Clouds 5 1032 75 10000 0.5 100 11:37 28.09.2019
1148 Clouds 5 1032 75 10000 0.5 100 11:18 28.09.2019
1149 Clouds 5 1032 75 10000 0.5 100 11:18 28.09.2019
1150 Clouds 6 1032 75 10000 0.5 0 10:42 28.09.2019
1151 Clouds 6 1032 75 10000 0.5 0 10:20 28.09.2019
1152 Clouds 6 1032 75 10000 0.5 80 09:56 28.09.2019
1153 Clouds 6 1032 75 10000 0.5 80 09:37 28.09.2019
1154 Clouds 6 1032 75 10000 0.5 80 09:18 28.09.2019
1155 Clouds 7 1032 70 10000 0.5 0 08:44 28.09.2019
1156 Clouds 7 1032 70 10000 0.5 0 08:26 28.09.2019
1157 Clouds 8 1033 65 10000 2.1 90 07:45 28.09.2019
1158 Clouds 8 1033 65 10000 2.1 90 07:21 28.09.2019
1159 Clouds 9 1033 66 10000 1.5 80 06:55 28.09.2019
1160 Clouds 9 1033 66 10000 1.5 80 06:32 28.09.2019
1161 Clouds 10 1032 61 10000 1 100 05:55 28.09.2019
1162 Clouds 10 1032 61 10000 1 100 05:21 28.09.2019
1163 Clouds 12 1032 54 10000 2.1 150 04:40 28.09.2019
1164 Clouds 12 1031 54 10000 1.5 130 03:58 28.09.2019
1165 Rain 12 1031 54 10000 5.1 110 03:24 28.09.2019
1166 Rain 12 1031 54 10000 4.1 110 02:57 28.09.2019
1167 Rain 13 1030 50 10000 4.6 120 02:34 28.09.2019
1168 Rain 13 1029 50 10000 4.6 110 01:50 28.09.2019
1169 Rain 15 1029 44 10000 3.1 120 01:27 28.09.2019
1170 Rain 17 1028 39 10000 4.1 140 00:58 28.09.2019
1171 Rain 19 1027 32 10000 3.6 0 00:38 28.09.2019
1172 Clouds 20 1027 30 10000 3.6 0 00:18 28.09.2019
1173 Clouds 21 1026 26 10000 4.1 20 23:37 27.09.2019
1174 -273 0 0 0 0 0 23:19 27.09.2019
1175 Clouds 21 1027 26 10000 5.1 30 22:47 27.09.2019
1176 Clouds 23 1027 49 10000 5.1 10 22:20 27.09.2019
1177 Clouds 23 1027 16 10000 2.6 360 21:58 27.09.2019
1178 Clouds 24 1028 16 10000 1.5 330 21:39 27.09.2019
1179 Clouds 24 1028 16 10000 1.5 330 21:20 27.09.2019
1180 Clouds 22 1028 19 10000 1 0 20:58 27.09.2019
1181 Clouds 22 1029 19 10000 2.6 0 20:39 27.09.2019
1182 Clouds 22 1029 19 10000 2.6 0 20:19 27.09.2019
1183 Clouds 21 1030 21 10000 4.1 290 19:57 27.09.2019
1184 Clouds 21 1030 21 10000 4.1 290 19:57 27.09.2019
1185 Clouds 20 1031 22 10000 3.1 0 19:37 27.09.2019
1186 Clouds 20 1031 22 10000 3.1 0 19:18 27.09.2019
1187 Clouds 23 1034 25 10000 1.5 50 18:41 27.09.2019
1188 Clouds 19 1034 25 10000 1.5 50 18:22 27.09.2019
1189 Clouds 19 1034 25 10000 1.5 50 18:22 27.09.2019
1190 Clouds 18 1034 27 10000 20.6 0 17:56 27.09.2019
1191 Clouds 17 1035 33 10000 2.1 70 17:37 27.09.2019
1192 Clouds 17 1035 33 10000 2.1 70 17:18 27.09.2019
1193 Clouds 17 1035 47 10000 0.5 30 16:57 27.09.2019
1194 Clouds 18 1035 38 10000 2.1 0 16:37 27.09.2019
1195 Clouds 18 1035 38 10000 2.1 0 16:18 27.09.2019
1196 Clouds 18 1036 47 10000 2.1 100 16:18 27.09.2019
1197 Clouds 18 1036 47 10000 2.1 100 15:45 27.09.2019
1198 Clouds 18 1036 47 10000 2.1 100 15:45 27.09.2019
1199 Clouds 12 1036 54 10000 1 0 15:21 27.09.2019
1200 Haze 11 1036 53 10000 0.5 330 14:58 27.09.2019
1201 Haze 9 1036 61 10000 0.5 0 14:39 27.09.2019
1202 Haze 9 1036 61 10000 0.5 0 14:20 27.09.2019
1203 Haze 8 1035 65 10000 1.01 7.28 13:57 27.09.2019
1204 Clouds 4 1035 71 10000 0.5 310 13:39 27.09.2019
1205 Clouds 4 1035 71 10000 0.5 310 13:20 27.09.2019
1206 Clouds 5 1035 75 10000 0.98 11.701 12:52 27.09.2019
1207 Clouds 5 1034 75 10000 1.08 318.001 12:23 27.09.2019
1208 Clouds 5 1034 77 10000 1.08 318.001 11:57 27.09.2019
1209 Clouds 5 1034 77 10000 1.08 318.001 11:38 27.09.2019
1210 Clouds 5 1034 77 10000 1.08 318.001 11:19 27.09.2019
1211 Clouds 6 1033 70 10000 1.5 120 10:43 27.09.2019
1212 Clouds 6 1033 70 10000 1.5 120 10:21 27.09.2019
1213 Clouds 6 1033 70 10000 1.5 100 09:56 27.09.2019
1214 Clouds 6 1033 70 10000 1.5 100 09:38 27.09.2019
1215 Clouds 6 1033 70 10000 1.5 100 09:18 27.09.2019
1216 Clouds 7 1034 65 10000 0.85 332.799 08:41 27.09.2019
1217 Clouds 7 1034 65 10000 1.3 309.896 08:21 27.09.2019
1218 Clouds 8 1034 65 10000 1.3 309.896 07:49 27.09.2019
1219 Clouds 8 1034 65 10000 1.3 309.896 07:26 27.09.2019
1220 Clouds 8 1034 65 10000 2.1 280 06:46 27.09.2019
1221 Clouds 8 1034 65 10000 2.1 280 06:28 27.09.2019
1222 Clouds 8 1034 65 10000 2.6 280 05:54 27.09.2019
1223 Clouds 8 1034 65 10000 2.6 280 05:54 27.09.2019
1224 Clouds 8 1034 65 10000 2.6 280 05:33 27.09.2019
1225 Clouds 11 1034 53 10000 2.1 100 04:24 27.09.2019
1226 Clouds 12 1033 54 10000 1 200 03:38 27.09.2019
1227 Clouds 13 1031 50 10000 1.5 350 01:55 27.09.2019
1228 Clouds 13 1031 50 10000 1.5 300 01:30 27.09.2019
1229 Clouds 15 1029 44 10000 5.7 40 00:40 27.09.2019
1230 Clouds 15 1029 44 10000 6.2 30 23:57 26.09.2019
1231 Clouds 15 1029 44 10000 6.2 30 23:57 26.09.2019
1232 Clouds 15 1028 44 10000 7.2 20 23:39 26.09.2019
1233 Clouds 15 1028 44 10000 7.2 20 23:19 26.09.2019
1234 Clouds 15 1028 44 10000 7.2 20 23:19 26.09.2019
1235 Rain 20 1028 41 10000 7.7 20 22:58 26.09.2019
1236 Rain 18 1028 36 10000 4.6 10 22:39 26.09.2019
1237 Rain 18 1028 36 10000 4.6 10 22:18 26.09.2019
1238 Rain 18 1029 34 10000 2.6 230 21:58 26.09.2019
1239 Smoke 22 1028 19 10000 3.6 0 21:37 26.09.2019
1240 Smoke 22 1028 19 10000 3.6 0 21:19 26.09.2019
1241 Smoke 23 1028 20 10000 5.1 280 20:58 26.09.2019
1242 Clouds 22 1029 19 10000 2.1 0 20:39 26.09.2019
1243 Clouds 22 1029 19 10000 2.1 0 20:21 26.09.2019
1244 Clouds 22 1030 21 10000 3.1 0 19:56 26.09.2019
1245 Clouds 24 1032 22 10000 2.6 0 19:38 26.09.2019
1246 Clouds 24 1032 37 10000 1 270 19:18 26.09.2019
1247 Clouds 24 1033 37 10000 2.1 0 18:43 26.09.2019
1248 Clouds 19 1033 48 10000 2.1 0 18:22 26.09.2019
1249 Clouds 18 1034 31 10000 0.5 110 17:59 26.09.2019
1250 Clouds 18 1034 31 10000 0.5 110 17:59 26.09.2019
1251 Clouds 17 1035 33 10000 2.1 0 17:38 26.09.2019
1252 Clouds 17 1035 36 10000 1.5 0 17:19 26.09.2019
1253 Clouds 19 1035 36 10000 1.5 0 16:56 26.09.2019
1254 Clouds 17 1036 41 10000 1 0 16:37 26.09.2019
1255 Clouds 17 1036 41 10000 1 0 16:18 26.09.2019
1256 Clouds 17 1036 47 10000 1 0 16:18 26.09.2019
1257 Clouds 16 1036 50 10000 0.5 160 15:42 26.09.2019
1258 Clouds 13 1036 50 10000 0.5 160 15:23 26.09.2019
1259 Clouds 12 1036 54 10000 1 290 14:59 26.09.2019
1260 Clouds 11 1035 57 10000 2.1 290 14:40 26.09.2019
1261 Clouds 11 1035 57 10000 2.1 290 14:21 26.09.2019
1262 Clouds 11 1035 57 10000 2.1 290 13:57 26.09.2019
1263 Clouds 10 1034 61 10000 2.1 280 13:39 26.09.2019
1264 Clouds 10 1034 61 10000 2.1 280 13:39 26.09.2019
1265 Clouds 10 1034 61 10000 2.1 280 13:19 26.09.2019
1266 Clouds 10 1034 61 10000 3.1 290 12:44 26.09.2019
1267 Clouds 10 1034 61 10000 3.1 290 12:23 26.09.2019
1268 Clouds 10 1033 61 10000 3.6 300 11:57 26.09.2019
1269 Clouds 10 1033 61 10000 3.6 300 11:39 26.09.2019
1270 Clouds 10 1033 61 10000 3.6 300 11:39 26.09.2019
1271 Clouds 10 1033 61 10000 3.6 300 11:19 26.09.2019
1272 Clouds 10 1033 61 10000 3.6 300 11:19 26.09.2019
1273 Clouds 11 1034 57 10000 5.1 290 10:42 26.09.2019
1274 Clouds 11 1034 57 10000 5.1 290 10:23 26.09.2019
1275 Clouds 11 1034 57 10000 5.1 290 09:59 26.09.2019
1276 Clouds 11 1034 57 10000 5.1 290 09:40 26.09.2019
1277 Clouds 11 1034 57 10000 5.1 290 09:20 26.09.2019
1278 Clouds 12 1034 50 10000 0.5 0 08:51 26.09.2019
1279 Clouds 12 1034 50 10000 0.5 0 08:31 26.09.2019
1280 Clouds 13 1035 43 10000 1 100 07:48 26.09.2019
1281 Clouds 13 1035 43 10000 1 100 07:22 26.09.2019
1282 Clouds 13 1035 43 10000 1 20 06:55 26.09.2019
1283 Clouds 13 1035 43 10000 1 20 06:29 26.09.2019
1284 Clouds 13 1035 43 10000 2.1 110 05:59 26.09.2019
1285 Clouds 13 1035 43 10000 2.1 110 05:32 26.09.2019
1286 Clouds 14 1035 64 10000 2.1 110 04:34 26.09.2019
1287 Clouds 16 1032 31 10000 1.5 0 02:33 26.09.2019
1288 Clouds 16 1032 29 10000 2.6 0 01:48 26.09.2019
1289 Clouds 17 1030 27 10000 6.2 30 01:22 26.09.2019
1290 Clouds 19 1030 22 10000 5.1 40 00:46 26.09.2019
1291 Clouds 19 1030 22 10000 5.1 40 00:25 26.09.2019
1292 Clouds 21 1029 16 10000 3.6 40 23:44 25.09.2019
1293 Clouds 21 1029 16 10000 3.6 40 23:23 25.09.2019
1294 Clouds 21 1030 16 10000 4.6 20 22:56 25.09.2019
1295 Clouds 22 1030 14 10000 2.6 60 22:37 25.09.2019
1296 Clouds 22 1030 14 10000 2.6 60 22:18 25.09.2019
1297 Clouds 22 1030 14 10000 2.6 60 22:18 25.09.2019
1298 Clouds 22 1030 14 10000 3.1 20 21:56 25.09.2019
1299 Clouds 21 1031 16 10000 4.1 30 21:37 25.09.2019
1300 Clouds 21 1032 15 10000 4.6 30 21:18 25.09.2019
1301 Clouds 21 1032 15 10000 4.6 30 20:56 25.09.2019
1302 Clouds 21 1033 15 10000 4.1 10 20:37 25.09.2019
1303 Clouds 22 1033 15 10000 5.1 20 20:18 25.09.2019
1304 Clouds 21 1034 13 10000 5.7 360 19:40 25.09.2019
1305 Clouds 21 1034 13 10000 5.7 360 19:40 25.09.2019
1306 Clouds 21 1034 19 10000 4.6 10 19:21 25.09.2019
1307 Clouds 25 1034 19 10000 4.6 10 18:56 25.09.2019
1308 Clouds 23 1035 25 10000 3.6 90 18:38 25.09.2019
1309 Clouds 20 1036 24 10000 2.6 10 18:20 25.09.2019
1310 Clouds 18 1036 31 10000 1.5 200 17:40 25.09.2019
1311 Clouds 18 1036 31 10000 1.5 200 17:22 25.09.2019
1312 Clouds 17 1037 33 10000 2.6 290 16:59 25.09.2019
1313 Clouds 19 1037 36 10000 1.5 30 16:41 25.09.2019
1314 Clouds 18 1037 36 10000 1.5 30 16:23 25.09.2019
1315 Clouds 17 1037 38 10000 1.5 60 15:56 25.09.2019
1316 Clouds 14 1038 44 10000 1.5 90 15:38 25.09.2019
1317 Clouds 14 1038 44 10000 1.5 90 15:19 25.09.2019
1318 Clouds 12 1037 54 10000 1 80 14:42 25.09.2019
1319 Clouds 12 1037 54 10000 1 80 14:22 25.09.2019
1320 Clouds 11 1037 53 10000 0.5 320 13:58 25.09.2019
1321 Clouds 11 1036 61 10000 1 260 13:40 25.09.2019
1322 Clouds 10 1036 61 10000 1 260 13:20 25.09.2019
1323 Clouds 10 1036 61 10000 0.5 0 12:56 25.09.2019
1324 Clouds 10 1036 61 10000 1 0 12:37 25.09.2019
1325 Clouds 10 1035 57 10000 1.5 80 12:18 25.09.2019
1326 Clouds 10 1035 57 10000 1.5 80 11:40 25.09.2019
1327 Clouds 10 1035 57 10000 1.5 80 11:40 25.09.2019
1328 Clouds 10 1035 57 10000 1.5 80 11:20 25.09.2019
1329 Clouds 11 1035 53 10000 1.5 100 10:47 25.09.2019
1330 Clouds 11 1035 53 10000 1.5 100 10:27 25.09.2019
1331 Clouds 11 1035 53 10000 1 100 09:59 25.09.2019
1332 Clouds 11 1035 53 10000 1 100 09:59 25.09.2019
1333 Clouds 11 1035 53 10000 1 100 09:41 25.09.2019
1334 Clouds 11 1035 53 10000 1 100 09:23 25.09.2019
1335 Clouds 11 1036 53 10000 1.5 280 08:57 25.09.2019
1336 Clouds 11 1036 53 10000 1.5 280 08:39 25.09.2019
1337 Clouds 11 1036 53 10000 1.5 280 08:19 25.09.2019
1338 Clouds 10 1037 57 10000 2.1 280 07:40 25.09.2019
1339 Clear 11 1037 53 10000 0.5 220 07:22 25.09.2019
1340 Clear 11 1037 53 10000 0.5 220 06:55 25.09.2019
1341 Clear 11 1037 53 10000 0.5 220 06:34 25.09.2019
1342 Clouds 12 1037 50 10000 2.1 0 05:43 25.09.2019
1343 Clouds 12 1036 50 10000 2.1 80 04:58 25.09.2019
1344 Clouds 14 1034 41 10000 4.6 20 02:50 25.09.2019
1345 Clouds 15 1033 41 10000 6.2 10 01:29 25.09.2019
1346 Clouds 17 1033 33 10000 6.2 20 00:38 25.09.2019
1347 Clouds 17 1032 33 10000 7.2 10 00:20 25.09.2019
1348 Clouds 17 1032 33 10000 9.8 360 23:42 24.09.2019
1349 Clouds 17 1032 33 10000 9.8 360 23:22 24.09.2019
1350 Clouds 18 1032 38 10000 7.2 10 22:58 24.09.2019
1351 Clouds 20 1032 38 10000 7.7 30 22:38 24.09.2019
1352 Clouds 20 1032 38 10000 7.2 10 22:18 24.09.2019
1353 Clouds 20 1032 38 10000 7.7 30 22:18 24.09.2019
1354 Clouds 20 1032 39 10000 7.2 10 21:55 24.09.2019
1355 Clouds 20 1032 39 10000 7.2 10 21:55 24.09.2019
1356 Clouds 20 1032 39 10000 8.2 20 21:37 24.09.2019
1357 Clouds 20 1032 39 10000 8.2 20 21:37 24.09.2019
1358 Clouds 20 1033 22 10000 8.7 30 21:18 24.09.2019
1359 Clouds 20 1032 30 10000 8.2 20 21:18 24.09.2019
1360 Clouds 20 1033 22 10000 8.7 30 20:56 24.09.2019
1361 Clouds 20 1033 22 10000 8.7 30 20:56 24.09.2019
1362 Clouds 20 1033 30 10000 7.2 20 20:38 24.09.2019
1363 Clouds 20 1033 30 10000 7.2 20 20:19 24.09.2019
1364 Clouds 24 1034 30 10000 6.2 20 19:42 24.09.2019
1365 Clouds 23 1035 30 10000 5.1 20 19:20 24.09.2019
1366 Clouds 23 1035 30 10000 5.1 20 19:20 24.09.2019
1367 Clouds 24 1035 30 10000 5.1 20 18:57 24.09.2019
1368 Clouds 23 1035 30 10000 5.1 20 18:39 24.09.2019
1369 Clouds 20 1035 38 10000 5.1 20 18:20 24.09.2019
1370 Clouds 19 1036 25 10000 1 0 17:57 24.09.2019
1371 Clouds 18 1036 38 10000 1.5 260 17:38 24.09.2019
1372 Clouds 18 1036 38 10000 1.5 260 17:19 24.09.2019
1373 Clouds 19 1037 41 10000 1.25 32.708 16:42 24.09.2019
1374 Clouds 18 1037 41 10000 1.25 32.708 16:21 24.09.2019
1375 Clouds 16 1038 47 10000 1 100 15:59 24.09.2019
1376 Clouds 16 1038 50 10000 2.1 120 15:41 24.09.2019
1377 Clouds 12 1038 50 10000 2.1 120 15:22 24.09.2019
1378 Clouds 9 1038 61 10000 0.5 40 14:40 24.09.2019
1379 Clouds 9 1038 61 10000 0.5 40 14:19 24.09.2019
1380 Clouds 5 1037 75 10000 0.84 63.009 13:45 24.09.2019
1381 Clouds 5 1037 75 10000 0.77 75.782 13:23 24.09.2019
1382 Clouds 4 1037 80 10000 0.77 75.782 12:59 24.09.2019
1383 Clouds 5 1036 75 10000 0.5 100 12:39 24.09.2019
1384 Clouds 5 1036 75 10000 1.17 46.841 12:18 24.09.2019
1385 Clouds 5 1036 75 10000 1.17 46.841 11:42 24.09.2019
1386 Clouds 5 1036 75 10000 1.17 46.841 11:21 24.09.2019
1387 Clouds 5 1035 75 10000 1.17 46.841 10:56 24.09.2019
1388 Clouds 5 1035 75 10000 1.17 46.841 10:36 24.09.2019
1389 Clouds 5 1035 75 10000 1.17 46.841 10:18 24.09.2019
1390 Clouds 6 1035 75 10000 1.17 46.841 09:45 24.09.2019
1391 Clouds 6 1035 75 10000 0.9 26.737 09:27 24.09.2019
1392 Clouds 7 1035 70 10000 0.5 100 08:57 24.09.2019
1393 Clear 7 1035 70 10000 0.5 100 08:38 24.09.2019
1394 Clear 7 1035 70 10000 0.5 100 08:19 24.09.2019
1395 -273 0 0 0 0 0 08:19 24.09.2019
1396 Clear 8 1035 65 10000 0.87 33.617 07:47 24.09.2019
1397 Clear 8 1035 65 10000 0.87 33.617 07:25 24.09.2019
1398 Clear 9 1036 61 10000 0.87 33.617 06:56 24.09.2019
1399 Clear 9 1036 61 10000 0.87 33.617 06:32 24.09.2019
1400 Clear 9 1036 61 10000 2.03 36.38 05:51 24.09.2019
1401 Clear 10 1035 57 10000 0.5 0 05:18 24.09.2019
1402 Clear 14 1034 41 10000 1.5 80 03:44 24.09.2019
1403 Clouds 14 1034 41 10000 4.1 30 02:48 24.09.2019
1404 Clouds 15 1034 38 10000 2.1 90 02:30 24.09.2019
1405 Clouds 19 1032 22 10000 6.7 40 00:44 24.09.2019
1406 Clouds 19 1032 22 10000 6.7 40 00:26 24.09.2019
1407 Clouds 19 1031 20 10000 7.7 40 23:58 23.09.2019
1408 Clouds 20 1031 20 10000 6.2 30 23:40 23.09.2019
1409 Clouds 20 1031 20 10000 6.2 30 23:20 23.09.2019
1410 Clouds 21 1031 19 10000 6.2 30 22:39 23.09.2019
1411 Clouds 21 1031 19 10000 6.2 30 22:21 23.09.2019
1412 Clouds 21 1033 21 10000 6.2 30 21:58 23.09.2019
1413 Clouds 21 1032 19 10000 6.2 20 21:40 23.09.2019
1414 Clouds 21 1032 19 10000 6.2 20 21:19 23.09.2019
1415 Clouds 21 1033 21 10000 6.2 30 20:55 23.09.2019
1416 Clouds 21 1033 21 10000 6.2 20 20:36 23.09.2019
1417 Clouds 21 1033 21 10000 6.2 20 20:18 23.09.2019
1418 Clouds 22 1035 20 10000 6.2 10 19:39 23.09.2019
1419 Clouds 22 1035 20 10000 4.1 170 19:21 23.09.2019
1420 Clouds 22 1036 23 10000 2.6 10 18:55 23.09.2019
1421 Clouds 22 1036 23 10000 2.6 10 18:37 23.09.2019
1422 Clouds 19 1036 24 10000 2.6 0 18:18 23.09.2019
1423 Clouds 19 1036 24 10000 2.6 0 17:55 23.09.2019
1424 Clouds 17 1037 42 10000 1 140 17:37 23.09.2019
1425 Clouds 17 1037 42 10000 1 140 17:18 23.09.2019
1426 Clouds 15 1038 41 10000 1.5 0 16:40 23.09.2019
1427 Clouds 18 1038 41 10000 1.5 0 16:22 23.09.2019
1428 Clouds 17 1038 47 10000 2.6 70 15:59 23.09.2019
1429 Clouds 16 1038 54 10000 1.5 0 15:41 23.09.2019
1430 Clouds 12 1038 54 10000 1.5 0 15:20 23.09.2019
1431 Clouds 11 1038 62 10000 0.5 60 14:59 23.09.2019
1432 Clouds 10 1038 61 10000 1.06 51.467 14:39 23.09.2019
1433 Clouds 10 1038 61 10000 1.06 51.467 14:19 23.09.2019
1434 Clouds 8 1038 70 10000 1.06 51.467 13:57 23.09.2019
1435 Clouds 8 1024 72 0 1.06 51.467 13:37 23.09.2019
1436 Clouds 5 1037 80 10000 1 110 13:18 23.09.2019
1437 Clouds 4 1036 80 10000 0.7 56.695 12:41 23.09.2019
1438 Clouds 4 1036 86 10000 0.3 350.32 12:21 23.09.2019
1439 Clouds 4 1036 86 10000 0.3 350.32 11:55 23.09.2019
1440 Clouds 4 1036 86 10000 0.3 350.32 11:37 23.09.2019
1441 Clouds 5 1035 80 10000 1 300 11:18 23.09.2019
1442 Clouds 5 1035 80 10000 1 300 11:18 23.09.2019
1443 Clouds 5 1035 80 10000 1 300 10:44 23.09.2019
1444 Clouds 6 1035 75 10000 1 90 10:20 23.09.2019
1445 Clouds 6 1035 75 10000 1 90 09:43 23.09.2019
1446 Clouds 6 1035 75 10000 1 90 09:25 23.09.2019
1447 Clouds 8 1035 70 10000 1 260 08:58 23.09.2019
1448 Clouds 8 1035 70 10000 1 260 08:39 23.09.2019
1449 Clouds 8 1036 70 10000 1 90 08:19 23.09.2019
1450 Clouds 8 1036 70 10000 1 90 07:38 23.09.2019
1451 Clouds 8 1036 70 10000 0.61 33.821 07:20 23.09.2019
1452 Clouds 8 1036 70 10000 1.19 13.441 06:20 23.09.2019
1453 Clouds 10 1036 61 10000 1 340 05:38 23.09.2019
1454 Clouds 10 1036 61 10000 1.19 13.441 04:58 23.09.2019
1455 Clouds 12 1035 54 10000 1 60 03:59 23.09.2019
1456 Clouds 16 1032 36 10000 4.1 10 01:26 23.09.2019
1457 Clouds 18 1031 31 10000 5.1 20 00:38 23.09.2019
1458 Clouds 19 1031 44 10000 5.1 20 00:18 23.09.2019
1459 Clouds 18 1030 44 10000 5.1 30 23:41 22.09.2019
1460 Clouds 18 1030 44 10000 5.1 30 23:22 22.09.2019
1461 Clouds 19 1030 44 10000 7.2 30 22:55 22.09.2019
1462 Clouds 20 1031 28 10000 6.7 20 22:37 22.09.2019
1463 Clouds 20 1031 28 10000 6.7 20 22:19 22.09.2019
1464 Clouds 20 1031 30 10000 4.6 20 21:42 22.09.2019
1465 Clouds 20 1031 30 10000 4.6 20 21:21 22.09.2019
1466 Clouds 21 1032 30 10000 1.5 0 20:45 22.09.2019
1467 Clouds 21 1032 30 10000 1.5 0 20:45 22.09.2019
1468 Clouds 21 1032 30 10000 1.5 0 20:27 22.09.2019
1469 Clouds 19 1033 32 10000 0.5 0 19:59 22.09.2019
1470 Clouds 19 1033 32 10000 0.5 0 19:59 22.09.2019
1471 Clouds 19 1034 34 10000 3.1 80 19:40 22.09.2019
1472 Clouds 18 1034 34 10000 0.5 0 19:21 22.09.2019
1473 Clouds 18 1034 34 10000 0.5 0 18:57 22.09.2019
1474 Clouds 17 1035 36 10000 0.5 0 18:38 22.09.2019
1475 Mist 16 1036 41 10000 1.5 360 18:18 22.09.2019
1476 Clouds 15 1037 54 10000 4.6 350 17:47 22.09.2019
1477 Clouds 15 1037 54 10000 4.6 350 17:27 22.09.2019
1478 Mist 14 1037 54 10000 1.5 50 16:58 22.09.2019
1479 Mist 14 1037 54 10000 1.5 50 16:58 22.09.2019
1480 -273 0 0 0 0 0 16:40 22.09.2019
1481 Clouds 18 1037 62 10000 0.5 320 16:20 22.09.2019
1482 Mist 16 1037 71 10000 1 120 15:46 22.09.2019
1483 Clouds 14 1037 76 10000 2.1 90 15:26 22.09.2019
1484 Mist 9 1037 87 10000 1.5 110 14:55 22.09.2019
1485 Mist 9 1037 81 10000 1.5 100 14:37 22.09.2019
1486 Mist 9 1037 81 10000 1.5 100 14:37 22.09.2019
1487 Mist 9 1037 81 10000 1.5 100 14:19 22.09.2019
1488 Clouds 8 1035 87 10000 1 90 13:43 22.09.2019
1489 Clouds 8 1035 87 10000 1 90 13:43 22.09.2019
1490 Clouds 8 1035 87 10000 1 90 13:25 22.09.2019
1491 Clouds 8 1035 87 10000 2.1 80 12:57 22.09.2019
1492 Clouds 8 1035 87 9000 1 120 12:39 22.09.2019
1493 Clouds 8 1035 87 9000 1 120 12:21 22.09.2019
1494 Rain 8 1035 87 8000 2.1 110 11:56 22.09.2019
1495 Rain 8 1035 87 8000 2.1 110 11:56 22.09.2019
1496 Rain 8 1035 87 8000 2.1 110 11:37 22.09.2019
1497 Rain 8 1035 87 8000 2.1 110 11:19 22.09.2019
1498 Rain 9 1034 81 8000 1.5 150 10:42 22.09.2019
1499 Rain 9 1034 81 8000 1.5 150 10:42 22.09.2019
1500 Rain 9 1034 81 8000 1.5 150 10:20 22.09.2019
1501 Drizzle 9 1034 87 9000 1.5 120 10:20 22.09.2019
1502 Drizzle 9 1034 87 9000 1.5 120 09:55 22.09.2019
1503 Drizzle 9 1034 87 9000 1.5 120 09:36 22.09.2019
1504 Drizzle 9 1034 87 9000 1.5 120 09:18 22.09.2019
1505 Rain 10 1034 76 9000 0.5 360 08:42 22.09.2019
1506 Rain 10 1034 76 9000 0.5 360 08:22 22.09.2019
1507 Rain 10 1034 76 9000 1.1 22.411 07:46 22.09.2019
1508 Rain 10 1034 76 9000 1.1 22.411 07:26 22.09.2019
1509 Clouds 10 1035 71 10000 1 100 06:59 22.09.2019
1510 Clouds 10 1035 71 10000 1 100 06:37 22.09.2019
1511 Clouds 11 1034 62 10000 1 300 05:18 22.09.2019
1512 Clouds 13 1032 54 10000 2.6 270 02:45 22.09.2019
1513 Clouds 13 1032 54 10000 2.6 270 02:24 22.09.2019
1514 Clouds 14 1032 47 10000 2.1 80 01:45 22.09.2019
1515 Clouds 15 1031 44 10000 3.6 100 00:54 22.09.2019
1516 Clouds 15 1031 44 10000 3.6 110 00:32 22.09.2019
1517 Clouds 16 1031 41 10000 4.6 100 23:54 21.09.2019
1518 Clouds 16 1031 41 10000 3.6 110 23:36 21.09.2019
1519 Clouds 17 1031 36 10000 1.5 170 22:47 21.09.2019
1520 Clouds 17 1031 39 10000 3.6 110 22:26 21.09.2019
1521 Clouds 17 1032 39 10000 1.5 180 21:59 21.09.2019
1522 Clouds 17 1032 39 10000 1.5 180 21:59 21.09.2019
1523 Clouds 16 1033 44 10000 1 70 21:41 21.09.2019
1524 Clouds 16 1033 44 10000 1 70 21:19 21.09.2019
1525 Clouds 15 1033 44 10000 2.6 60 20:56 21.09.2019
1526 Rain 14 1034 50 10000 3.1 40 20:37 21.09.2019
1527 Rain 14 1034 50 10000 3.1 40 20:18 21.09.2019
1528 Rain 14 1034 50 10000 3.1 40 20:18 21.09.2019
1529 Rain 14 1035 50 10000 2.6 20 19:45 21.09.2019
1530 Rain 14 1035 50 10000 2.6 20 19:45 21.09.2019
1531 Rain 14 1035 50 10000 2.6 20 19:21 21.09.2019
1532 Clouds 21 1035 54 10000 3.6 90 18:41 21.09.2019
1533 Clouds 14 1036 54 10000 4.6 120 18:22 21.09.2019
1534 Clouds 14 1035 54 10000 3.6 100 17:43 21.09.2019
1535 Clouds 14 1035 54 10000 3.6 100 17:24 21.09.2019
1536 Clouds 14 1035 50 10000 1 160 16:58 21.09.2019
1537 Clouds 18 1036 62 10000 1 0 16:39 21.09.2019
1538 Clouds 18 1036 62 10000 1 0 16:20 21.09.2019
1539 Clouds 15 1036 66 10000 1.5 70 15:45 21.09.2019
1540 Clouds 10 1036 66 10000 1.5 70 15:23 21.09.2019
1541 Clouds 10 1035 71 10000 0.5 90 14:49 21.09.2019
1542 Clouds 9 1035 76 10000 2.1 90 14:31 21.09.2019
1543 Clouds 8 1034 81 10000 1 110 13:55 21.09.2019
1544 Clouds 8 1034 81 10000 3.1 100 13:36 21.09.2019
1545 Clouds 8 1033 81 10000 3.6 110 13:18 21.09.2019
1546 Clouds 8 1033 75 10000 1.5 280 12:55 21.09.2019
1547 Clouds 8 1033 75 10000 1.5 280 12:36 21.09.2019
1548 Rain 8 1033 81 7000 5.1 100 12:18 21.09.2019
1549 Rain 8 1033 81 7000 5.1 100 11:42 21.09.2019
1550 Rain 8 1033 81 7000 5.1 100 11:23 21.09.2019
1551 Rain 10 1033 66 5000 3.1 20 10:43 21.09.2019
1552 Rain 10 1033 66 5000 3.1 20 10:24 21.09.2019
1553 Rain 12 1033 58 10000 1.02 12.095 09:58 21.09.2019
1554 Rain 12 1033 58 10000 1.02 12.095 09:39 21.09.2019
1555 Rain 12 1033 58 10000 1.61 35.289 09:20 21.09.2019
1556 Rain 12 1033 58 10000 1.61 35.289 09:20 21.09.2019
1557 Rain 12 1033 54 10000 1.61 35.289 08:52 21.09.2019
1558 Clouds 12 1033 54 10000 1.53 37.655 08:27 21.09.2019
1559 Clouds 12 1033 54 10000 1.53 37.655 07:42 21.09.2019
1560 Clouds 12 1033 54 10000 1.53 37.655 07:23 21.09.2019
1561 Clouds 12 1033 54 10000 2.6 90 06:57 21.09.2019
1562 Clouds 12 1033 54 10000 2.6 90 06:32 21.09.2019
1563 Clouds 13 1033 50 10000 2.6 280 05:32 21.09.2019
1564 Clouds 14 1033 50 10000 1.5 260 04:36 21.09.2019
1565 Clouds 15 1030 44 10000 7.2 20 02:38 21.09.2019
1566 Clouds 16 1029 38 10000 6.2 20 02:20 21.09.2019
1567 Clouds 16 1029 57 10000 4.6 30 01:45 21.09.2019
1568 Clouds 18 1028 31 10000 5.1 20 00:43 21.09.2019
1569 Clouds 18 1027 27 10000 5.7 10 00:20 21.09.2019
1570 Clouds 19 1027 25 10000 6.2 50 23:42 20.09.2019
1571 Clouds 19 1027 25 10000 6.2 50 23:24 20.09.2019
1572 Clouds 21 1027 40 10000 6.2 70 22:41 20.09.2019
1573 Clouds 22 1028 26 10000 5.7 40 22:23 20.09.2019
1574 Clouds 22 1028 26 10000 5.7 40 21:57 20.09.2019
1575 Clouds 22 1028 24 10000 6.7 10 21:38 20.09.2019
1576 Clouds 22 1028 24 10000 6.7 10 21:20 20.09.2019
1577 Clouds 22 1028 26 10000 6.7 40 20:56 20.09.2019
1578 Clouds 23 1029 23 10000 4.6 20 20:37 20.09.2019
1579 Clouds 23 1029 23 10000 4.6 20 20:18 20.09.2019
1580 Clouds 21 1030 28 10000 3.1 90 19:45 20.09.2019
1581 Clouds 21 1030 28 10000 3.1 90 19:25 20.09.2019
1582 Clouds 20 1031 32 10000 1.5 20 18:58 20.09.2019
1583 Clouds 22 1032 32 10000 1 130 18:38 20.09.2019
1584 Clouds 22 1032 32 10000 1 130 18:38 20.09.2019
1585 Clouds 19 1032 34 10000 3.6 360 18:18 20.09.2019
1586 Clouds 16 1033 44 10000 3.1 350 17:45 20.09.2019
1587 Clouds 16 1033 44 10000 3.1 350 17:45 20.09.2019
1588 Clouds 16 1033 44 10000 3.1 350 17:45 20.09.2019
1589 Clouds 16 1033 44 10000 3.1 350 17:26 20.09.2019
1590 Clouds 16 1032 44 10000 1.5 50 16:44 20.09.2019
1591 Clouds 18 1032 44 10000 1.5 50 16:23 20.09.2019
1592 Clouds 16 1033 51 10000 1 60 15:59 20.09.2019
1593 Clouds 16 1033 54 10000 1 10 15:41 20.09.2019
1594 Clouds 14 1033 54 10000 1 10 15:22 20.09.2019
1595 Clouds 14 1033 54 10000 1 10 15:22 20.09.2019
1596 Drizzle 11 1032 71 9000 2.1 80 14:44 20.09.2019
1597 Drizzle 11 1032 71 9000 2.1 80 14:44 20.09.2019
1598 Drizzle 11 1032 71 9000 2.1 80 14:20 20.09.2019
1599 Drizzle 11 1032 71 9000 2.1 80 14:20 20.09.2019
1600 Clouds 10 1031 66 10000 0.61 321.869 13:57 20.09.2019
1601 Clouds 10 1031 66 10000 0.61 321.869 13:38 20.09.2019
1602 Clouds 10 1031 66 10000 0.92 324.325 13:20 20.09.2019
1603 Clouds 11 1030 62 10000 1 110 12:38 20.09.2019
1604 Clouds 10 1030 66 10000 1.3 274.914 12:19 20.09.2019
1605 Clouds 10 1030 66 10000 1.3 274.914 11:50 20.09.2019
1606 Clouds 10 1030 66 10000 1.3 274.914 11:25 20.09.2019
1607 Clouds 10 1030 66 10000 1 100 10:58 20.09.2019
1608 Clouds 10 1030 66 10000 1 100 10:39 20.09.2019
1609 Clouds 10 1030 66 10000 1 100 10:20 20.09.2019
1610 Clouds 11 1030 62 10000 1.5 250 09:38 20.09.2019
1611 Clouds 11 1030 62 10000 1.5 250 09:18 20.09.2019
1612 Clouds 11 1030 62 10000 1.28 309.129 08:46 20.09.2019
1613 Clouds 11 1030 62 10000 1.28 309.129 08:26 20.09.2019
1614 Clouds 11 1031 62 10000 1 70 07:49 20.09.2019
1615 Clouds 11 1031 62 10000 1 70 07:29 20.09.2019
1616 Clouds 11 1031 62 10000 1 300 06:50 20.09.2019
1617 Clouds 11 1031 62 10000 1 300 06:32 20.09.2019
1618 Clouds 12 1031 62 10000 1 40 05:58 20.09.2019
1619 Smoke 13 1030 58 10000 2.1 80 04:28 20.09.2019
1620 Smoke 14 1029 54 10000 2.6 80 03:26 20.09.2019
1621 Smoke 15 1027 47 10000 3.1 60 01:50 20.09.2019
1622 Clouds 16 1027 48 10000 4.6 80 01:31 20.09.2019
1623 Rain 17 1027 45 10000 8.2 100 00:32 20.09.2019
1624 Clouds 20 1025 28 10000 8.7 290 23:46 19.09.2019
1625 Clouds 20 1025 28 10000 8.7 290 23:27 19.09.2019
1626 Clouds 21 1025 45 10000 8.7 290 22:58 19.09.2019
1627 Clouds 21 1025 45 10000 2.6 360 22:38 19.09.2019
1628 Clouds 21 1025 45 10000 2.6 360 22:20 19.09.2019
1629 Clouds 21 1025 45 10000 4.1 30 21:56 19.09.2019
1630 Clouds 22 1026 45 10000 4.1 20 21:38 19.09.2019
1631 Clouds 22 1026 32 10000 4.1 20 21:19 19.09.2019
1632 Clouds 22 1027 21 10000 1.5 310 20:43 19.09.2019
1633 Clouds 22 1027 21 10000 1.5 310 20:43 19.09.2019
1634 Clouds 22 1027 21 10000 1.5 310 20:23 19.09.2019
1635 Clouds 23 1027 30 10000 3.6 260 19:57 19.09.2019
1636 Clouds 24 1028 22 10000 2.1 90 19:39 19.09.2019
1637 Clouds 21 1028 22 10000 2.1 90 19:21 19.09.2019
1638 Clouds 20 1029 30 10000 2.6 80 18:56 19.09.2019
1639 Clouds 20 1029 30 10000 2.6 80 18:38 19.09.2019
1640 Clouds 19 1030 32 10000 1.5 90 18:18 19.09.2019
1641 Clouds 19 1031 32 10000 1 330 17:42 19.09.2019
1642 Clouds 19 1031 32 10000 1 330 17:23 19.09.2019
1643 Clouds 17 1031 39 10000 2.6 200 16:58 19.09.2019
1644 Clouds 20 1031 41 10000 2.1 70 16:39 19.09.2019
1645 Clouds 21 1031 41 10000 2.1 70 16:19 19.09.2019
1646 Clouds 18 1032 54 10000 2.6 110 15:39 19.09.2019
1647 Clouds 13 1032 54 10000 2.6 110 15:20 19.09.2019
1648 Clouds 12 1031 54 10000 1.19 279.952 14:42 19.09.2019
1649 Clouds 12 1031 54 10000 1.19 279.952 14:24 19.09.2019
1650 Clouds 11 1030 57 10000 0.5 0 13:59 19.09.2019
1651 Clouds 11 1030 57 10000 0.5 0 13:40 19.09.2019
1652 Clouds 11 1030 57 10000 0.5 0 13:20 19.09.2019
1653 Clouds 11 1029 57 10000 0.5 360 12:40 19.09.2019
1654 Clouds 10 1029 61 10000 0.5 0 12:20 19.09.2019
1655 Clouds 10 1029 61 10000 0.5 0 11:58 19.09.2019
1656 Clouds 10 1029 61 10000 0.5 0 11:39 19.09.2019
1657 Clouds 10 1029 61 10000 0.5 0 11:21 19.09.2019
1658 Rain 10 1029 61 10000 0.5 130 10:56 19.09.2019
1659 Rain 10 1029 61 10000 0.5 130 10:56 19.09.2019
1660 Rain 10 1029 61 10000 0.5 130 10:36 19.09.2019
1661 Rain 10 1029 61 10000 0.5 130 10:18 19.09.2019
1662 Rain 11 1030 57 10000 1.1 298.685 09:42 19.09.2019
1663 Clouds 11 1030 57 10000 0.55 29.68 09:22 19.09.2019
1664 Clouds 10 1030 61 10000 0.55 29.68 08:56 19.09.2019
1665 Clouds 10 1030 61 10000 0.55 29.68 08:56 19.09.2019
1666 Clouds 10 1030 61 10000 0.63 58.363 08:29 19.09.2019
1667 Clouds 9 1030 61 10000 2.6 300 07:58 19.09.2019
1668 Clouds 9 1030 61 10000 2.6 300 07:40 19.09.2019
1669 Clouds 10 1030 57 10000 0.63 58.363 07:21 19.09.2019
1670 Clouds 10 1030 57 10000 0.63 58.363 06:45 19.09.2019
1671 Clouds 10 1030 57 10000 0.63 58.363 06:27 19.09.2019
1672 Clouds 11 1030 53 10000 0.5 150 05:51 19.09.2019
1673 Clouds 13 1029 50 10000 1.66 27.895 04:43 19.09.2019
1674 Clouds 13 1029 50 10000 1.5 90 03:51 19.09.2019
1675 Rain 15 1027 44 10000 2.99 46.302 02:27 19.09.2019
1676 Rain 18 1026 58 10000 3.6 280 01:22 19.09.2019
1677 Rain 20 1025 58 10000 2.1 360 00:49 19.09.2019
1678 Clouds 20 1025 41 10000 2.1 360 00:25 19.09.2019
1679 Rain 20 1025 58 10000 2.1 360 00:25 19.09.2019
1680 Clouds 21 1025 41 10000 5.7 20 23:39 18.09.2019
1681 Clouds 22 1025 41 10000 6.2 20 23:21 18.09.2019
1682 Clouds 23 1025 20 10000 5.7 30 22:44 18.09.2019
1683 Clouds 23 1025 20 10000 5.7 30 22:23 18.09.2019
1684 Clouds 25 1025 15 10000 5.7 10 21:59 18.09.2019
1685 Clouds 25 1026 11 10000 0.5 0 21:40 18.09.2019
1686 Clouds 24 1026 12 10000 3.1 40 21:19 18.09.2019
1687 Clouds 24 1026 12 10000 3.1 40 20:58 18.09.2019
1688 Clouds 24 1026 12 10000 3.1 40 20:40 18.09.2019
1689 Clouds 24 1028 11 10000 2.1 330 20:22 18.09.2019
1690 Clouds 24 1028 11 10000 2.1 330 19:58 18.09.2019
1691 Clouds 24 1028 11 10000 2.1 330 19:58 18.09.2019
1692 Clouds 27 1028 11 10000 2.1 330 19:40 18.09.2019
1693 Clouds 26 1029 15 10000 2.6 60 19:19 18.09.2019
1694 Clouds 26 1029 15 10000 2.6 60 18:56 18.09.2019
1695 Clear 25 1030 22 10000 3.1 0 18:37 18.09.2019
1696 Clear 20 1030 22 10000 3.1 0 18:19 18.09.2019
1697 Clear 20 1031 24 10000 2.1 0 17:58 18.09.2019
1698 Clear 19 1032 29 10000 1 30 17:39 18.09.2019
1699 Clear 19 1032 29 10000 1 30 17:19 18.09.2019
1700 Haze 17 1032 36 10000 1 80 16:56 18.09.2019
1701 Haze 20 1033 41 10000 1.5 160 16:38 18.09.2019
1702 Haze 20 1033 41 10000 1.5 160 16:18 18.09.2019
1703 Haze 19 1033 44 10000 0.5 70 15:55 18.09.2019
1704 Haze 19 1033 44 10000 0.5 70 15:55 18.09.2019
1705 Haze 16 1034 43 10000 1 0 15:37 18.09.2019
1706 Haze 16 1034 43 10000 1 0 15:37 18.09.2019
1707 Haze 11 1034 43 10000 1 0 15:18 18.09.2019
1708 Haze 11 1034 43 10000 0.5 60 14:57 18.09.2019
1709 Haze 8 1033 52 10000 0.5 0 14:38 18.09.2019
1710 Haze 8 1033 52 10000 0.5 0 14:20 18.09.2019
1711 Clouds 4 1033 60 10000 1 280 13:43 18.09.2019
1712 Clouds 4 1032 64 10000 0.9 211.029 13:19 18.09.2019
1713 -273 0 0 0 0 0 12:55 18.09.2019
1714 Clouds 4 1032 64 10000 0.5 270 12:37 18.09.2019
1715 Clouds 5 1032 56 10000 0.83 244.828 12:18 18.09.2019
1716 Clouds 5 1032 56 10000 0.83 244.828 11:39 18.09.2019
1717 Clouds 5 1032 56 10000 0.83 244.828 11:19 18.09.2019
1718 Clouds 6 1031 56 10000 0.83 244.828 10:41 18.09.2019
1719 Clouds 6 1031 56 10000 0.83 244.828 10:22 18.09.2019
1720 Clouds 7 1032 52 10000 2.1 100 09:59 18.09.2019
1721 Clouds 7 1032 52 10000 2.1 100 09:41 18.09.2019
1722 Clouds 7 1032 52 10000 2.1 100 09:22 18.09.2019
1723 Clouds 8 1032 45 10000 0.81 271.622 08:46 18.09.2019
1724 Clouds 8 1032 45 10000 0.81 271.622 08:26 18.09.2019
1725 Clouds 8 1032 42 10000 2.6 280 07:59 18.09.2019
1726 Clouds 8 1032 42 10000 2.6 280 07:41 18.09.2019
1727 Clouds 8 1032 42 10000 2.6 280 07:23 18.09.2019
1728 Clouds 9 1032 42 10000 0.81 271.622 06:41 18.09.2019
1729 Clear 10 1032 39 10000 1.5 60 05:54 18.09.2019
1730 Clear 10 1032 39 10000 1.5 60 05:21 18.09.2019
1731 Clear 13 1030 28 10000 3 6.079 03:25 18.09.2019
1732 Clear 15 1030 24 10000 1.5 110 02:39 18.09.2019
1733 Clear 17 1029 18 10000 3.1 80 01:35 18.09.2019
1734 Smoke 18 1029 22 10000 3.1 50 00:51 18.09.2019
1735 Smoke 20 1029 18 10000 4.6 20 00:28 18.09.2019
1736 Clouds 21 1029 15 10000 4.1 30 23:47 17.09.2019
1737 Clouds 21 1029 15 10000 4.1 30 23:23 17.09.2019
1738 Clouds 21 1029 15 10000 5.1 40 22:45 17.09.2019
1739 Clouds 21 1029 15 10000 5.1 40 22:25 17.09.2019
1740 Clouds 21 1030 16 10000 5.1 60 21:56 17.09.2019
1741 Clouds 22 1030 15 10000 4.6 30 21:37 17.09.2019
1742 Clouds 22 1030 15 10000 4.6 30 21:19 17.09.2019
1743 Clouds 22 1030 15 10000 4.6 30 21:19 17.09.2019
1744 Clouds 22 1030 15 10000 4.6 30 21:19 17.09.2019
1745 Clouds 22 1030 14 10000 5.1 30 20:59 17.09.2019
1746 Smoke 21 1031 13 10000 6.2 30 20:41 17.09.2019
1747 Smoke 21 1031 13 10000 6.2 30 20:22 17.09.2019
1748 Smoke 21 1031 13 10000 6.2 30 20:22 17.09.2019
1749 Clouds 21 1031 16 10000 5.1 50 19:59 17.09.2019
1750 Clouds 26 1032 16 10000 2.1 30 19:39 17.09.2019
1751 Clouds 26 1033 19 10000 2.1 0 19:20 17.09.2019
1752 Clouds 25 1033 19 10000 2.1 0 18:58 17.09.2019
1753 Clouds 25 1033 19 10000 2.1 0 18:58 17.09.2019
1754 Clouds 25 1033 22 10000 1.5 0 18:40 17.09.2019
1755 Clouds 19 1033 22 10000 1.5 0 18:21 17.09.2019
1756 Clouds 17 1035 27 10000 1 0 17:46 17.09.2019
1757 Clouds 17 1035 27 10000 1 0 17:21 17.09.2019
1758 Clouds 16 1035 31 10000 1.5 120 16:59 17.09.2019
1759 Clouds 14 1036 35 10000 2.1 0 16:41 17.09.2019
1760 Clouds 20 1036 35 10000 2.1 0 16:22 17.09.2019
1761 Clouds 21 1036 35 10000 2.1 0 16:22 17.09.2019
1762 Clouds 20 1036 35 10000 2.1 0 16:22 17.09.2019
1763 Haze 17 1036 40 10000 1.27 21.567 15:40 17.09.2019
1764 Haze 10 1036 46 10000 0.5 0 15:21 17.09.2019
1765 Haze 10 1036 46 10000 0.5 0 14:58 17.09.2019
1766 Haze 7 1035 56 10000 1.5 60 14:40 17.09.2019
1767 Haze 7 1035 56 10000 1.5 60 14:21 17.09.2019
1768 Haze 6 1035 60 10000 0.5 0 13:59 17.09.2019
1769 Haze 2 1035 74 10000 1.5 270 13:40 17.09.2019
1770 Haze 2 1035 74 10000 1.5 270 13:22 17.09.2019
1771 Clouds 4 1034 64 10000 1 80 12:43 17.09.2019
1772 Clear 4 1033 64 10000 0.5 130 12:20 17.09.2019
1773 Clear 4 1033 64 10000 0.5 130 11:58 17.09.2019
1774 Clear 4 1033 64 10000 0.5 130 11:58 17.09.2019
1775 Clear 4 1033 64 10000 0.5 130 11:40 17.09.2019
1776 Clear 4 1033 64 10000 2.1 290 11:18 17.09.2019
1777 Clear 4 1033 64 10000 0.5 130 11:18 17.09.2019
1778 Clear 4 1033 64 10000 2.1 290 10:42 17.09.2019
1779 Clear 4 1033 64 10000 2.1 290 10:22 17.09.2019
1780 Clear 5 1033 65 10000 0.5 300 09:58 17.09.2019
1781 Clear 5 1033 65 10000 0.5 300 09:40 17.09.2019
1782 Clear 5 1033 65 10000 0.5 300 09:20 17.09.2019
1783 Clear 6 1033 60 10000 1 110 08:44 17.09.2019
1784 Clear 6 1033 60 10000 1 110 08:25 17.09.2019
1785 Clear 6 1033 60 10000 1 110 08:25 17.09.2019
1786 -273 0 0 0 0 0 07:55 17.09.2019
1787 Clear 7 1033 56 10000 0.5 360 07:36 17.09.2019
1788 Clear 7 1033 56 10000 2.6 280 07:18 17.09.2019
1789 Clear 7 1033 56 10000 2.6 280 06:44 17.09.2019
1790 Clouds 9 1033 45 10000 0.5 300 06:19 17.09.2019
1791 Clouds 9 1033 45 10000 0.5 300 05:33 17.09.2019
1792 Clouds 11 1032 65 10000 1.5 80 04:21 17.09.2019
1793 Smoke 16 1031 29 10000 2.1 210 02:41 17.09.2019
1794 Smoke 16 1030 29 10000 1 80 01:55 17.09.2019
1795 Clouds 18 1029 20 10000 1.5 0 01:19 17.09.2019
1796 Clouds 21 1029 10 10000 4.6 20 00:22 17.09.2019
1797 Clouds 22 1028 9 10000 5.1 20 23:37 16.09.2019
1798 Clouds 22 1028 10 10000 6.7 40 23:18 16.09.2019
1799 Clouds 23 1028 11 10000 6.2 20 22:42 16.09.2019
1800 Clouds 23 1028 11 10000 6.2 20 22:24 16.09.2019
1801 Smoke 24 1029 9 10000 3.6 50 21:59 16.09.2019
1802 Clouds 23 1029 9 10000 6.7 20 21:39 16.09.2019
1803 Clouds 23 1029 9 10000 6.7 20 21:20 16.09.2019
1804 Clouds 23 1029 11 10000 2.1 0 20:58 16.09.2019
1805 Clouds 23 1030 11 10000 3.6 130 20:39 16.09.2019
1806 Clouds 23 1030 11 10000 3.6 130 20:19 16.09.2019
1807 Clouds 23 1031 11 10000 2.6 230 19:55 16.09.2019
1808 Clouds 21 1032 13 10000 3.6 260 19:37 16.09.2019
1809 Clouds 21 1033 15 10000 2.1 0 19:18 16.09.2019
1810 Clouds 21 1033 15 10000 2.1 0 19:18 16.09.2019
1811 Clouds 21 1033 15 10000 2.1 0 18:43 16.09.2019
1812 Clouds 21 1033 15 10000 2.1 0 18:25 16.09.2019
1813 Clouds 19 1034 22 10000 1.5 10 17:54 16.09.2019
1814 Clouds 16 1035 42 10000 0.5 0 17:36 16.09.2019
1815 Clouds 15 1035 38 10000 0.5 0 17:18 16.09.2019
1816 Clouds 14 1036 41 10000 1.5 360 16:42 16.09.2019
1817 Clouds 14 1036 41 10000 1.5 360 16:21 16.09.2019
1818 Haze 13 1036 47 10000 1.5 40 15:57 16.09.2019
1819 Haze 11 1036 50 10000 1.5 190 15:38 16.09.2019
1820 Haze 11 1036 50 10000 1.5 190 15:38 16.09.2019
1821 Haze 11 1036 50 10000 1.5 190 15:20 16.09.2019
1822 Haze 10 1036 53 10000 1.5 40 14:57 16.09.2019
1823 Haze 8 1035 61 10000 1 80 14:39 16.09.2019
1824 Haze 8 1035 61 10000 1 80 14:20 16.09.2019
1825 Clouds 4 1034 80 10000 1.5 90 13:43 16.09.2019
1826 Clouds 4 1034 80 10000 1.5 90 13:22 16.09.2019
1827 Clouds 4 1034 75 10000 1 80 12:57 16.09.2019
1828 Clouds 4 1033 75 10000 1 90 12:38 16.09.2019
1829 Clouds 5 1033 81 10000 1 90 12:18 16.09.2019
1830 Clouds 5 1033 81 10000 1 90 11:44 16.09.2019
1831 Clouds 5 1032 81 10000 1 0 11:22 16.09.2019
1832 Clouds 5 1032 81 10000 1 0 10:55 16.09.2019
1833 Clouds 5 1032 81 10000 1 0 10:55 16.09.2019
1834 Clouds 5 1032 81 10000 1 0 10:36 16.09.2019
1835 Clouds 6 1018 81 0 0.63 256.972 10:18 16.09.2019
1836 Clouds 6 1018 81 0 0.63 256.972 09:41 16.09.2019
1837 Clear 7 1032 65 10000 0.47 348.111 09:21 16.09.2019
1838 Clear 7 1032 65 10000 0.47 348.111 08:53 16.09.2019
1839 Clear 7 1032 65 10000 0.49 337.443 08:34 16.09.2019
1840 Clear 9 1032 57 10000 1.5 280 07:59 16.09.2019
1841 Clear 9 1032 57 10000 1.5 280 07:40 16.09.2019
1842 Clear 8 1033 61 10000 2.6 300 07:20 16.09.2019
1843 Clear 8 1033 61 10000 2.6 300 06:49 16.09.2019
1844 Clear 8 1033 61 10000 2.6 300 06:31 16.09.2019
1845 Clear 10 1032 57 10000 0.5 0 05:57 16.09.2019
1846 Clear 10 1032 57 10000 0.5 0 05:39 16.09.2019
1847 Clear 10 1032 57 10000 0.5 0 05:18 16.09.2019
1848 Smoke 13 1031 43 10000 4.1 100 03:35 16.09.2019
1849 Smoke 18 1028 61 10000 3.1 350 00:57 16.09.2019
1850 Smoke 20 1028 24 10000 3.6 20 00:37 16.09.2019
1851 Smoke 20 1028 24 10000 3.6 20 00:19 16.09.2019
1852 Clouds 21 1028 21 10000 5.1 350 23:38 15.09.2019
1853 Clouds 21 1028 21 10000 5.1 350 23:20 15.09.2019
1854 Clouds 22 1028 17 10000 6.2 30 22:39 15.09.2019
1855 Clouds 22 1028 17 10000 6.2 30 22:20 15.09.2019
1856 Clouds 24 1028 14 10000 4.6 0 21:57 15.09.2019
1857 Clouds 24 1028 12 10000 3.1 0 21:39 15.09.2019
1858 Clouds 24 1028 12 10000 3.1 0 21:20 15.09.2019
1859 Clouds 22 1030 18 10000 3.1 0 20:46 15.09.2019
1860 Clouds 22 1030 18 10000 3.1 0 20:27 15.09.2019
1861 Clouds 22 1030 18 10000 2.6 0 19:59 15.09.2019
1862 Clouds 21 1031 28 10000 1.5 30 19:41 15.09.2019
1863 Clouds 21 1032 28 10000 1.5 120 19:22 15.09.2019
1864 Clouds 19 1033 28 10000 1 350 18:41 15.09.2019
1865 Clouds 19 1033 44 10000 1 350 18:23 15.09.2019
1866 Clouds 18 1033 27 10000 1 340 17:56 15.09.2019
1867 Clouds 16 1034 38 10000 1.5 300 17:36 15.09.2019
1868 Clouds 15 1035 41 10000 1.5 70 17:18 15.09.2019
1869 Clouds 13 1035 47 10000 1.5 30 16:42 15.09.2019
1870 Clouds 13 1035 47 10000 1.5 30 16:23 15.09.2019
1871 Clouds 12 1035 50 10000 1 0 15:58 15.09.2019
1872 Clouds 10 1035 53 10000 1 80 15:38 15.09.2019
1873 Clouds 10 1035 53 10000 1 80 15:19 15.09.2019
1874 Haze 9 1035 57 10000 1 50 14:55 15.09.2019
1875 Haze 8 1035 61 10000 0.51 353.647 14:37 15.09.2019
1876 Haze 8 1035 61 10000 0.51 353.647 14:19 15.09.2019
1877 Clouds 3 1034 74 10000 0.51 353.647 13:44 15.09.2019
1878 Clouds 3 1034 74 10000 0.51 353.647 13:44 15.09.2019
1879 Clouds 3 1034 74 10000 0.23 306.721 13:22 15.09.2019
1880 Clouds 3 1033 74 10000 1.5 260 12:43 15.09.2019
1881 Clouds 3 1033 74 10000 1.5 260 12:25 15.09.2019
1882 Clouds 3 1033 74 10000 1.5 260 12:25 15.09.2019
1883 Clear 4 1033 81 10000 1 0 11:59 15.09.2019
1884 Clear 4 1033 81 10000 1 0 11:41 15.09.2019
1885 Clear 4 1033 81 10000 1 0 11:21 15.09.2019
1886 Clear 5 1033 81 10000 0.58 317.307 10:47 15.09.2019
1887 Clear 5 1033 81 10000 0.58 317.307 10:47 15.09.2019
1888 Clear 5 1033 81 10000 0.58 317.307 10:23 15.09.2019
1889 Clear 4 1033 81 10000 2.1 300 09:59 15.09.2019
1890 Clear 4 1033 81 10000 2.1 300 09:39 15.09.2019
1891 Clear 6 1033 70 10000 0.5 0 09:19 15.09.2019
1892 Clear 6 1033 70 10000 0.5 0 08:46 15.09.2019
1893 Clear 6 1033 70 10000 0.5 0 08:27 15.09.2019
1894 Clear 7 1034 65 10000 0.5 0 07:49 15.09.2019
1895 Clear 7 1034 65 10000 0.5 0 07:28 15.09.2019
1896 Clear 7 1033 65 10000 1.5 300 06:43 15.09.2019
1897 Clear 12 1032 50 10000 5.1 280 03:31 15.09.2019
1898 Clouds 14 1031 41 10000 3.1 340 02:41 15.09.2019
1899 Clouds 15 1030 65 10000 2.6 310 01:41 15.09.2019
1900 Clouds 15 1030 65 10000 2.6 310 01:41 15.09.2019
1901 Clouds 15 1030 65 10000 2.6 310 01:21 15.09.2019
1902 Clouds 17 1030 65 10000 3.6 10 00:46 15.09.2019
1903 Clouds 17 1030 48 10000 3.6 10 00:24 15.09.2019
1904 Clouds 19 1030 48 10000 4.1 10 23:58 14.09.2019
1905 Clouds 19 1030 48 10000 5.1 20 23:40 14.09.2019
1906 Clouds 19 1030 48 10000 5.1 20 23:21 14.09.2019
1907 Clouds 18 1030 27 10000 4.6 360 22:59 14.09.2019
1908 Clouds 18 1030 48 10000 5.1 20 22:40 14.09.2019
1909 Clouds 18 1030 48 10000 5.1 20 22:21 14.09.2019
1910 Clouds 18 1030 27 10000 4.6 20 21:57 14.09.2019
1911 Clouds 19 1031 25 10000 4.1 20 21:39 14.09.2019
1912 Clouds 20 1031 22 10000 4.1 20 21:19 14.09.2019
1913 Clouds 20 1031 22 10000 4.1 20 20:55 14.09.2019
1914 Clouds 20 1031 22 10000 4.1 20 20:55 14.09.2019
1915 Clouds 20 1031 20 10000 3.6 350 20:36 14.09.2019
1916 Clouds 20 1031 20 10000 3.6 350 20:18 14.09.2019
1917 Clouds 20 1033 22 10000 2.6 0 19:44 14.09.2019
1918 Clouds 19 1033 24 10000 1.5 0 19:21 14.09.2019
1919 Clouds 18 1034 25 10000 1.5 120 18:55 14.09.2019
1920 Clouds 18 1034 25 10000 1.5 120 18:37 14.09.2019
1921 Clouds 18 1035 49 10000 2.1 0 18:18 14.09.2019
1922 Clouds 15 1036 49 10000 1.5 10 17:42 14.09.2019
1923 Clouds 15 1036 49 10000 1.5 10 17:22 14.09.2019
1924 Clouds 15 1036 49 10000 1 120 16:47 14.09.2019
1925 Clouds 14 1036 41 10000 2.1 120 16:26 14.09.2019
1926 Clouds 12 1036 46 10000 1.5 0 15:57 14.09.2019
1927 Haze 10 1036 53 10000 1 0 15:38 14.09.2019
1928 Haze 10 1036 53 10000 1 0 15:19 14.09.2019
1929 Haze 8 1036 61 10000 2.1 100 14:43 14.09.2019
1930 Haze 8 1036 61 10000 2.1 100 14:19 14.09.2019
1931 Haze 8 1036 61 10000 2.1 100 14:19 14.09.2019
1932 Clouds 6 1036 70 10000 2.1 100 13:48 14.09.2019
1933 Clouds 6 1035 70 10000 0.7 51.751 13:23 14.09.2019
1934 Clouds 6 1035 70 10000 0.7 51.751 12:58 14.09.2019
1935 Clouds 6 1032 70 10000 0.7 51.751 12:37 14.09.2019
1936 Clouds 4 1034 76 10000 1.5 110 12:18 14.09.2019
1937 Clouds 4 1034 76 10000 1.5 110 11:40 14.09.2019
1938 Clouds 3 1034 86 10000 0.5 50 11:19 14.09.2019
1939 Clouds 3 1034 86 10000 0.5 50 10:39 14.09.2019
1940 Clouds 3 1034 86 10000 0.5 50 10:20 14.09.2019
1941 Clouds 5 1034 76 10000 0.63 21.496 09:57 14.09.2019
1942 Clouds 5 1034 76 10000 0.63 21.496 09:39 14.09.2019
1943 Clouds 5 1034 71 10000 1.48 34.859 09:19 14.09.2019
1944 Clouds 6 1034 70 10000 1.13 34.576 08:46 14.09.2019
1945 Clouds 6 1034 70 10000 1.13 34.576 08:24 14.09.2019
1946 Clouds 5 1034 80 10000 1.13 34.576 07:48 14.09.2019
1947 Clouds 5 1034 80 10000 1.13 34.576 07:28 14.09.2019
1948 Clouds 5 1034 80 10000 1.13 34.576 07:28 14.09.2019
1949 Clouds 7 1035 65 10000 1.13 34.576 06:52 14.09.2019
1950 Clouds 7 1035 65 10000 1.13 34.576 06:29 14.09.2019
1951 Clouds 7 1034 65 10000 1.73 29.983 05:26 14.09.2019
1952 Clouds 12 1033 46 10000 1.73 29.983 03:46 14.09.2019
1953 Clouds 12 1032 50 10000 3.1 330 02:55 14.09.2019
1954 Clouds 13 1032 43 10000 2.1 90 01:55 14.09.2019
1955 Clouds 14 1031 41 10000 5.7 30 01:23 14.09.2019
1956 Clouds 14 1030 41 10000 6.2 30 00:59 14.09.2019
1957 Clouds 15 1030 72 10000 5.7 20 00:39 14.09.2019
1958 Clouds 15 1030 72 10000 5.7 20 00:39 14.09.2019
1959 Clouds 16 1030 70 10000 5.7 10 00:21 14.09.2019
1960 Clouds 16 1030 70 10000 5.7 10 00:21 14.09.2019
1961 Clouds 16 1030 70 10000 5.7 10 00:21 14.09.2019
1962 Clouds 17 1030 33 10000 4.1 20 23:38 13.09.2019
1963 Clouds 17 1030 33 10000 4.1 20 23:19 13.09.2019
1964 Clouds 18 1030 31 10000 5.1 20 22:59 13.09.2019
1965 Clouds 17 1030 33 10000 6.2 10 22:39 13.09.2019
1966 Clouds 17 1030 33 10000 6.2 10 22:20 13.09.2019
1967 Clouds 18 1031 31 10000 5.7 10 21:55 13.09.2019
1968 Clouds 17 1031 33 10000 5.1 360 21:37 13.09.2019
1969 Clouds 17 1031 33 10000 5.1 360 21:18 13.09.2019
1970 Clouds 17 1032 33 10000 5.7 10 20:55 13.09.2019
1971 Clouds 16 1032 36 10000 5.7 10 20:36 13.09.2019
1972 Clouds 16 1032 36 10000 5.7 10 20:18 13.09.2019
1973 Clouds 16 1033 66 10000 4.1 360 19:42 13.09.2019
1974 Clouds 16 1033 66 10000 1.5 50 19:21 13.09.2019
1975 Clouds 16 1033 66 10000 1.5 50 18:57 13.09.2019
1976 Clouds 17 1034 33 10000 3.1 100 18:37 13.09.2019
1977 Clouds 17 1034 33 10000 2.6 0 18:19 13.09.2019
1978 Clouds 17 1035 39 10000 3.1 90 17:43 13.09.2019
1979 Clouds 17 1035 39 10000 3.1 90 17:19 13.09.2019
1980 Clouds 16 1035 41 10000 1.5 0 16:54 13.09.2019
1981 Clouds 13 1035 54 10000 2.6 110 16:36 13.09.2019
1982 Clouds 13 1035 50 10000 1.5 60 16:18 13.09.2019
1983 Clouds 17 1035 57 10000 0.5 70 15:40 13.09.2019
1984 Clouds 11 1035 57 10000 0.5 70 15:21 13.09.2019
1985 Clouds 9 1035 66 10000 1.53 27.22 14:44 13.09.2019
1986 Clouds 9 1035 66 10000 1.53 27.22 14:44 13.09.2019
1987 Clouds 9 1035 66 10000 1.53 27.22 14:23 13.09.2019
1988 Clouds 9 1034 66 10000 1 0 13:58 13.09.2019
1989 Clouds 9 1033 66 10000 2.1 100 13:39 13.09.2019
1990 Clouds 9 1033 66 10000 2.1 100 13:21 13.09.2019
1991 Rain 7 1023 74 0 0.9 1.016 12:44 13.09.2019
1992 Clouds 8 1032 70 10000 1.04 4.504 12:24 13.09.2019
1993 Clouds 8 1032 70 10000 1.04 4.504 11:56 13.09.2019
1994 Clouds 8 1032 70 10000 1 120 11:20 13.09.2019
1995 Clouds 8 1032 70 10000 1 120 10:41 13.09.2019
1996 Clouds 8 1032 70 10000 1.04 4.504 10:21 13.09.2019
1997 Clouds 8 1032 70 10000 1 120 10:21 13.09.2019
1998 Clouds 8 1032 70 10000 1.04 4.504 09:54 13.09.2019
1999 Clouds 8 1032 70 10000 1.04 4.504 09:36 13.09.2019
2000 Clouds 8 1032 70 10000 1.04 4.504 09:36 13.09.2019
2001 Clouds 8 1032 70 10000 1.73 353.418 09:18 13.09.2019
2002 Clouds 7 1033 70 10000 1 90 08:41 13.09.2019
2003 Clouds 7 1033 70 10000 1 90 08:21 13.09.2019
2004 Clouds 7 1033 70 10000 1.5 290 07:57 13.09.2019
2005 Clouds 7 1033 70 10000 1.5 290 07:39 13.09.2019
2006 Clouds 8 1034 65 10000 1.82 359.495 06:49 13.09.2019
2007 Clouds 8 1034 65 10000 1.82 359.495 06:49 13.09.2019
2008 Clouds 8 1033 65 10000 2.12 14.442 05:50 13.09.2019
2009 Clouds 8 1033 65 10000 2.12 14.442 05:30 13.09.2019
2010 Clouds 12 1031 50 10000 1.5 100 03:44 13.09.2019
2011 Clouds 12 1031 54 10000 0.5 180 02:54 13.09.2019
2012 Clouds 12 1030 54 10000 1.5 350 02:19 13.09.2019
2013 Clouds 13 1029 50 10000 3.1 110 01:35 13.09.2019
2014 Clouds 14 1029 47 10000 5.1 110 00:59 13.09.2019
2015 Clouds 15 1028 44 10000 5.1 100 00:33 13.09.2019
2016 Clouds 15 1029 44 10000 5.1 100 23:46 12.09.2019
2017 Clouds 15 1029 44 10000 5.1 100 23:22 12.09.2019
2018 Clouds 16 1029 41 10000 4.1 110 22:56 12.09.2019
2019 Clouds 14 1029 47 10000 5.7 110 22:37 12.09.2019
2020 Clouds 14 1029 47 10000 5.7 110 22:18 12.09.2019
2021 Clouds 15 1030 41 10000 4.1 140 21:54 12.09.2019
2022 Clouds 17 1030 39 10000 4.1 80 21:36 12.09.2019
2023 Clouds 17 1030 39 10000 4.1 80 21:18 12.09.2019
2024 Rain 15 1031 44 10000 4.1 40 20:41 12.09.2019
2025 Rain 15 1031 44 10000 4.1 40 20:21 12.09.2019
2026 Rain 16 1031 44 10000 2.6 300 19:57 12.09.2019
2027 Clouds 16 1031 38 10000 2.6 130 19:37 12.09.2019
2028 Clouds 16 1032 38 10000 3.1 120 19:19 12.09.2019
2029 Clouds 16 1032 38 10000 3.1 120 19:19 12.09.2019
2030 Clouds 16 1032 38 10000 3.1 120 19:19 12.09.2019
2031 Clouds 16 1032 38 10000 1.5 0 18:39 12.09.2019
2032 Clouds 16 1033 38 10000 2.1 100 18:20 12.09.2019
2033 Clouds 16 1033 38 10000 2.1 100 17:59 12.09.2019
2034 Clouds 15 1033 41 10000 2.6 0 17:39 12.09.2019
2035 Clouds 15 1033 41 10000 2.6 0 17:20 12.09.2019
2036 Clouds 15 1033 41 10000 2.6 0 17:20 12.09.2019
2037 Clouds 14 1033 47 10000 2.6 80 16:43 12.09.2019
2038 Clouds 14 1033 47 10000 2.6 80 16:23 12.09.2019
2039 Clouds 20 1033 47 10000 2.6 100 15:59 12.09.2019
2040 Clouds 19 1033 50 10000 1 0 15:39 12.09.2019
2041 Clouds 13 1033 50 10000 1 0 15:21 12.09.2019
2042 Clouds 9 1033 66 10000 0.5 350 14:45 12.09.2019
2043 Clouds 9 1033 66 10000 0.5 350 14:21 12.09.2019
2044 Clouds 9 1033 61 10000 1.5 310 13:54 12.09.2019
2045 Clouds 8 1032 65 10000 0.5 180 13:36 12.09.2019
2046 Clouds 8 1032 65 10000 0.5 180 13:18 12.09.2019
2047 Clouds 8 1032 65 10000 0.5 180 13:18 12.09.2019
2048 Clouds 8 1031 65 10000 2.1 300 12:41 12.09.2019
2049 Clouds 9 1031 66 10000 1.24 339.903 12:18 12.09.2019
2050 Clouds 9 1031 66 10000 1.24 339.903 11:55 12.09.2019
2051 Clouds 9 1031 66 10000 1.24 339.903 11:36 12.09.2019
2052 Clouds 9 1031 66 10000 1.24 339.903 11:18 12.09.2019
2053 Clouds 10 1031 61 10000 1 80 10:43 12.09.2019
2054 Clouds 10 1031 61 10000 1 80 10:24 12.09.2019
2055 Clouds 10 1031 57 10000 1 290 09:44 12.09.2019
2056 Clouds 10 1031 57 10000 1 290 09:20 12.09.2019
2057 Clouds 11 1031 57 10000 2.1 280 08:57 12.09.2019
2058 Clouds 11 1031 57 10000 2.1 280 08:39 12.09.2019
2059 Clouds 11 1031 57 10000 2.1 280 08:21 12.09.2019
2060 Clouds 10 1032 57 10000 1 260 07:39 12.09.2019
2061 Clouds 11 1032 57 10000 1.5 80 07:19 12.09.2019
2062 Clouds 11 1032 57 10000 1.5 80 06:50 12.09.2019
2063 Clouds 12 1032 50 10000 2.6 300 06:19 12.09.2019
2064 Clouds 12 1032 50 10000 2.6 300 05:48 12.09.2019
2065 Clouds 12 1032 50 10000 2.6 300 05:27 12.09.2019
2066 Clouds 12 1031 50 10000 1 340 04:34 12.09.2019
2067 Clouds 14 1030 41 10000 4.1 290 01:48 12.09.2019
2068 Clouds 14 1029 44 10000 4.6 290 01:30 12.09.2019
2069 Clouds 15 1029 41 10000 4.6 290 00:58 12.09.2019
2070 Clouds 15 1029 38 10000 4.1 310 00:40 12.09.2019
2071 Clouds 15 1029 38 10000 4.1 310 00:22 12.09.2019
2072 Clouds 16 1028 36 10000 7.2 300 23:41 11.09.2019
2073 Clouds 16 1028 36 10000 7.2 300 23:21 11.09.2019
2074 Clouds 17 1028 27 10000 6.2 290 22:56 11.09.2019
2075 Clouds 18 1028 25 10000 6.2 280 22:37 11.09.2019
2076 Clouds 18 1028 25 10000 6.2 280 22:18 11.09.2019
2077 Clouds 18 1029 56 10000 5.1 300 21:42 11.09.2019
2078 Clouds 18 1029 45 10000 5.1 300 21:24 11.09.2019
2079 Clouds 16 1031 36 10000 3.6 120 20:57 11.09.2019
2080 Clouds 16 1031 36 10000 3.6 120 20:38 11.09.2019
2081 Clouds 16 1030 43 10000 2.6 90 20:19 11.09.2019
2082 Clouds 16 1030 43 10000 2.6 90 19:58 11.09.2019
2083 Clouds 16 1031 36 10000 3.6 120 19:39 11.09.2019
2084 Clouds 16 1031 36 10000 3.6 120 19:39 11.09.2019
2085 Clouds 16 1031 36 10000 3.6 120 19:39 11.09.2019
2086 Clouds 16 1032 36 10000 4.1 80 19:19 11.09.2019
2087 Clouds 16 1032 36 10000 4.1 80 18:56 11.09.2019
2088 Clouds 17 1032 33 10000 4.1 100 18:37 11.09.2019
2089 Clouds 16 1033 36 10000 2.6 80 18:19 11.09.2019
2090 Clouds 14 1034 44 10000 1.5 140 17:42 11.09.2019
2091 Clouds 14 1034 44 10000 1.5 140 17:22 11.09.2019
2092 Clouds 14 1034 44 10000 1.5 140 16:59 11.09.2019
2093 Clouds 13 1034 47 10000 1.5 150 16:40 11.09.2019
2094 Clouds 13 1034 47 10000 1.5 150 16:21 11.09.2019
2095 Clouds 19 1035 53 10000 1 330 15:47 11.09.2019
2096 Clouds 9 1035 61 10000 0.5 290 15:24 11.09.2019
2097 Clouds 8 1034 65 10000 1.5 80 14:59 11.09.2019
2098 Clouds 7 1034 65 10000 0.5 0 14:41 11.09.2019
2099 Clouds 7 1034 65 10000 0.5 0 14:20 11.09.2019
2100 Drizzle 7 1034 65 10000 0.96 296.565 13:59 11.09.2019
2101 Clouds 6 1033 70 10000 2.1 90 13:37 11.09.2019
2102 Clouds 6 1033 70 10000 2.1 90 13:19 11.09.2019
2103 Clouds 5 1033 75 10000 0.84 269.932 12:43 11.09.2019
2104 Clouds 5 1033 75 10000 1.18 312.365 12:22 11.09.2019
2105 Clear 5 1032 79 10000 1.18 312.365 11:58 11.09.2019
2106 Clear 5 1032 79 10000 1.18 312.365 11:38 11.09.2019
2107 Clear 5 1032 79 10000 1.18 312.365 11:20 11.09.2019
2108 -273 0 0 0 0 0 10:55 11.09.2019
2109 Clear 4 1032 69 10000 1 300 10:55 11.09.2019
2110 Clear 4 1032 69 10000 1 300 10:36 11.09.2019
2111 Clear 4 1032 69 10000 1 300 10:18 11.09.2019
2112 Clear 5 1032 79 10000 1.18 312.365 09:37 11.09.2019
2113 Clouds 5 1032 75 10000 1.5 354.023 09:19 11.09.2019
2114 Clouds 5 1032 75 10000 1.44 344.591 08:42 11.09.2019
2115 Clouds 5 1032 75 10000 1.44 344.591 08:21 11.09.2019
2116 Clouds 6 1033 70 10000 1.44 344.591 07:57 11.09.2019
2117 Clouds 6 1033 70 10000 1.44 344.591 07:39 11.09.2019
2118 Clouds 7 1033 65 10000 1.44 344.591 07:20 11.09.2019
2119 Clouds 7 1033 65 10000 1.44 344.591 06:40 11.09.2019
2120 Clouds 7 1033 65 10000 2.02 22.57 06:21 11.09.2019
2121 Clouds 9 1033 57 10000 1.5 310 05:34 11.09.2019
2122 Clouds 11 1033 53 10000 2.02 22.57 04:52 11.09.2019
2123 Clouds 11 1033 53 10000 2.02 22.57 04:18 11.09.2019
2124 Clouds 13 1032 47 10000 4.6 340 03:26 11.09.2019
2125 Rain 13 1031 47 10000 3.1 350 02:32 11.09.2019
2126 Clouds 14 1030 56 10000 4.6 290 01:32 11.09.2019
2127 Clouds 17 1029 29 10000 3.1 360 00:37 11.09.2019
2128 Clouds 17 1029 29 10000 4.6 300 00:19 11.09.2019
2129 Clouds 18 1029 27 10000 5.1 340 23:40 10.09.2019
2130 Clouds 18 1029 27 10000 5.1 340 23:21 10.09.2019
2131 Clouds 18 1029 27 10000 6.7 290 22:55 10.09.2019
2132 Clouds 18 1029 27 10000 6.7 300 22:37 10.09.2019
2133 Clouds 18 1029 27 10000 6.7 300 22:18 10.09.2019
2134 Clouds 18 1030 25 10000 3.1 290 21:54 10.09.2019
2135 Clouds 18 1030 27 10000 6.2 300 21:36 10.09.2019
2136 Clouds 18 1030 27 10000 6.2 300 21:18 10.09.2019
2137 Clouds 18 1030 27 10000 6.2 300 21:18 10.09.2019
2138 Clouds 18 1030 27 10000 7.7 290 20:54 10.09.2019
2139 Clouds 19 1030 25 10000 7.2 290 20:54 10.09.2019
2140 Clouds 19 1030 25 10000 7.2 290 20:36 10.09.2019
2141 Clouds 19 1030 25 10000 7.2 290 20:18 10.09.2019
2142 Clouds 18 1031 25 10000 6.2 290 19:55 10.09.2019
2143 Clouds 18 1031 34 10000 5.7 270 19:36 10.09.2019
2144 Clouds 18 1032 27 10000 1.5 250 19:18 10.09.2019
2145 Clouds 18 1032 31 10000 2.1 180 18:43 10.09.2019
2146 Clouds 17 1033 41 10000 1 100 18:22 10.09.2019
2147 Clouds 17 1033 41 10000 1 100 17:57 10.09.2019
2148 Clouds 16 1034 36 10000 2.6 40 17:39 10.09.2019
2149 Clouds 16 1034 36 10000 2.6 40 17:19 10.09.2019
2150 Clouds 15 1034 38 10000 1 260 16:57 10.09.2019
2151 Clouds 13 1034 47 10000 2.6 80 16:38 10.09.2019
2152 Clouds 13 1034 47 10000 2.6 80 16:19 10.09.2019
2153 Clouds 16 1034 53 10000 1.5 50 15:43 10.09.2019
2154 Clouds 10 1034 53 10000 1.5 50 15:23 10.09.2019
2155 Clouds 9 1034 57 10000 0.5 80 14:57 10.09.2019
2156 Haze 6 1034 70 10000 1 290 14:39 10.09.2019
2157 Haze 6 1034 70 10000 1 290 14:20 10.09.2019
2158 Clouds 3 1033 74 10000 0.5 110 13:47 10.09.2019
2159 Clouds 3 1033 74 10000 0.5 110 13:23 10.09.2019
2160 Clouds 3 1033 72 10000 1.09 301.144 12:53 10.09.2019
2161 Clouds 3 1033 74 10000 1.09 301.144 12:28 10.09.2019
2162 Clouds 4 1032 79 10000 1.12 290.79 11:59 10.09.2019
2163 Clouds 4 1032 79 10000 1.12 290.79 11:40 10.09.2019
2164 Clouds 4 1032 79 10000 1.12 290.79 11:22 10.09.2019
2165 Clouds 5 1032 65 10000 1.12 290.79 10:54 10.09.2019
2166 Clouds 5 1032 65 10000 1.12 290.79 10:36 10.09.2019
2167 Clouds 5 1032 79 10000 1.5 290 10:18 10.09.2019
2168 Clouds 5 1032 79 10000 1.5 290 09:43 10.09.2019
2169 Clouds 6 1033 74 10000 1 0 09:20 10.09.2019
2170 Clouds 6 1033 72 10000 1 0 08:48 10.09.2019
2171 Clouds 6 1033 72 10000 1 0 08:29 10.09.2019
2172 Clouds 6 1033 72 10000 1 0 08:29 10.09.2019
2173 Clouds 7 1033 72 10000 1.13 310.388 07:59 10.09.2019
2174 Clouds 7 1033 72 10000 1.13 310.388 07:41 10.09.2019
2175 Clouds 7 1033 72 10000 1.13 310.388 07:41 10.09.2019
2176 Clouds 7 1033 72 10000 1.13 310.388 07:41 10.09.2019
2177 Clouds 7 1033 72 10000 1.13 310.388 07:23 10.09.2019
2178 Clouds 8 1034 61 10000 0.5 0 06:42 10.09.2019
2179 Clouds 10 1034 53 10000 1.5 110 06:21 10.09.2019
2180 Clouds 11 1033 50 10000 3.6 280 04:24 10.09.2019
2181 Clouds 14 1032 41 10000 4.6 290 02:40 10.09.2019
2182 Clouds 14 1032 41 10000 3.1 280 02:21 10.09.2019
2183 Clouds 14 1032 41 10000 3.1 280 02:21 10.09.2019
2184 Clouds 14 1032 41 10000 3.1 280 02:21 10.09.2019
2185 Clouds 15 1031 57 10000 4.1 320 01:50 10.09.2019
2186 Clouds 16 1030 31 10000 4.6 300 01:23 10.09.2019
2187 Clouds 16 1030 31 10000 4.6 300 00:42 10.09.2019
2188 Clouds 18 1030 27 10000 7.2 280 00:22 10.09.2019
2189 Clouds 19 1029 22 10000 8.2 290 23:40 09.09.2019
2190 Clouds 20 1029 24 10000 7.7 290 23:19 09.09.2019
2191 Clouds 20 1029 24 10000 7.7 290 22:55 09.09.2019
2192 Clouds 20 1029 24 10000 7.7 290 22:55 09.09.2019
2193 Clouds 20 1029 24 10000 7.7 290 22:55 09.09.2019
2194 Clouds 20 1030 24 10000 7.7 280 22:36 09.09.2019
2195 Clouds 20 1030 24 10000 7.7 280 22:36 09.09.2019
2196 Clouds 21 1030 21 10000 7.2 300 22:18 09.09.2019
2197 Clouds 21 1030 21 10000 7.2 300 21:55 09.09.2019
2198 Clouds 20 1030 20 10000 6.7 290 21:37 09.09.2019
2199 Clouds 20 1031 20 10000 7.2 290 21:18 09.09.2019
2200 Clouds 20 1031 20 10000 7.2 290 20:55 09.09.2019
2201 Clouds 18 1032 25 10000 2.6 120 20:36 09.09.2019
2202 Clouds 18 1032 25 10000 1 30 20:18 09.09.2019
2203 Clouds 18 1032 25 10000 1 30 19:56 09.09.2019
2204 Clouds 18 1032 25 10000 1 30 19:37 09.09.2019
2205 Rain 18 1034 27 10000 3.1 0 19:19 09.09.2019
2206 Clouds 24 1034 27 10000 5.7 270 18:55 09.09.2019
2207 Clouds 24 1034 27 10000 5.7 270 18:36 09.09.2019
2208 Clouds 17 1035 38 10000 0.5 250 18:18 09.09.2019
2209 Clouds 17 1035 38 10000 0.5 250 17:56 09.09.2019
2210 Clouds 15 1036 38 10000 1 0 17:37 09.09.2019
2211 Clouds 15 1036 38 10000 2.1 0 17:19 09.09.2019
2212 Clouds 21 1036 38 10000 2.1 0 16:40 09.09.2019
2213 Clouds 17 1036 38 10000 2.1 0 16:21 09.09.2019
2214 Clouds 16 1036 38 10000 2.1 0 15:56 09.09.2019
2215 Clouds 16 1036 38 10000 2.1 0 15:38 09.09.2019
2216 Clouds 9 1036 49 10000 1 0 15:20 09.09.2019
2217 Clouds 9 1036 49 10000 1 0 14:57 09.09.2019
2218 Clouds 7 1036 56 10000 0.64 328.558 14:39 09.09.2019
2219 Clouds 3 1035 69 10000 1 50 14:20 09.09.2019
2220 Clouds 3 1035 69 10000 1 50 13:54 09.09.2019
2221 Clouds 3 1035 69 10000 1 50 13:36 09.09.2019
2222 Clouds 2 1035 74 10000 0.5 90 13:18 09.09.2019
2223 Clouds 2 1035 74 10000 0.5 90 12:41 09.09.2019
2224 Clouds 4 1035 69 10000 1.5 280 12:21 09.09.2019
2225 Clouds 4 1035 69 10000 1.5 280 11:58 09.09.2019
2226 Clouds 4 1035 69 10000 1.5 280 11:40 09.09.2019
2227 Clouds 4 1034 64 10000 1 290 11:18 09.09.2019
2228 Clouds 4 1034 64 10000 1 290 10:42 09.09.2019
2229 Clouds 4 1034 64 10000 1 290 10:23 09.09.2019
2230 Clouds 5 1034 65 10000 1 70 09:58 09.09.2019
2231 Clouds 5 1034 65 10000 1 70 09:39 09.09.2019
2232 Clouds 7 1035 56 10000 0.92 357.125 09:21 09.09.2019
2233 Clouds 7 1035 56 10000 0.88 354.529 08:39 09.09.2019
2234 Clouds 8 1035 52 10000 1 30 08:21 09.09.2019
2235 Clouds 8 1035 52 10000 1 30 07:58 09.09.2019
2236 Clouds 8 1035 52 10000 1 30 07:39 09.09.2019
2237 Clouds 9 1036 75 10000 1 80 07:20 09.09.2019
2238 Clouds 9 1036 75 10000 1 80 06:46 09.09.2019
2239 Clouds 9 1036 49 10000 2.1 290 05:37 09.09.2019
2240 Clouds 13 1034 35 10000 2.6 280 02:59 09.09.2019
2241 Clouds 13 1034 35 10000 2.6 280 02:41 09.09.2019
2242 Clouds 14 1034 33 10000 4.6 290 01:22 09.09.2019
2243 Clouds 16 1033 26 10000 5.1 300 00:24 09.09.2019
2244 Clouds 18 1032 22 10000 6.2 310 23:47 08.09.2019
2245 Clouds 18 1032 22 10000 6.2 310 23:29 08.09.2019
2246 Clouds 20 1032 18 10000 5.74 338.727 22:59 08.09.2019
2247 Clouds 20 1032 18 10000 5.74 338.727 22:38 08.09.2019
2248 Clouds 20 1034 16 10000 7.2 340 22:20 08.09.2019
2249 Clouds 20 1034 16 10000 7.2 340 21:57 08.09.2019
2250 Clouds 20 1034 16 10000 7.2 340 21:39 08.09.2019
2251 Clouds 20 1034 18 10000 8.2 300 21:21 08.09.2019
2252 Clouds 20 1034 18 10000 8.2 300 20:41 08.09.2019
2253 Clouds 20 1034 18 10000 8.2 300 20:22 08.09.2019
2254 Clouds 21 1034 18 10000 6.7 310 19:59 08.09.2019
2255 Clouds 21 1034 18 10000 6.7 310 19:39 08.09.2019
2256 Clouds 18 1036 25 10000 3.1 270 19:21 08.09.2019
2257 Clouds 18 1036 25 10000 3.1 270 18:58 08.09.2019
2258 Clouds 18 1036 25 10000 3.1 270 18:39 08.09.2019
2259 Clouds 16 1037 31 10000 2.6 360 18:19 08.09.2019
2260 Clouds 16 1037 31 10000 2.6 360 17:57 08.09.2019
2261 Clouds 16 1037 31 10000 2.6 360 17:37 08.09.2019
2262 Clouds 13 1038 36 10000 2.6 20 17:18 08.09.2019
2263 Clouds 11 1039 50 10000 2.1 60 16:54 08.09.2019
2264 Clouds 11 1039 50 10000 2.1 60 16:36 08.09.2019
2265 Clouds 16 1039 57 10000 1 330 16:18 08.09.2019
2266 Clouds 15 1039 57 10000 1 330 15:41 08.09.2019
2267 Clouds 9 1039 57 10000 1 330 15:22 08.09.2019
2268 Clouds 7 1038 65 10000 1.13 41.848 14:59 08.09.2019
2269 Clouds 5 1038 59 10000 1.13 41.848 14:39 08.09.2019
2270 Clouds 3 1037 59 10000 1.13 41.848 14:20 08.09.2019
2271 Clouds 3 1037 59 10000 1.13 41.848 13:57 08.09.2019
2272 Clouds 3 1037 59 10000 1.13 41.848 13:38 08.09.2019
2273 Clouds 3 1036 61 10000 2.1 120 13:20 08.09.2019
2274 Clouds 4 1036 61 10000 1.5 80 12:44 08.09.2019
2275 Clouds 4 1036 71 10000 1.5 80 12:24 08.09.2019
2276 Clouds 2 1036 80 10000 0.92 358.385 11:59 08.09.2019
2277 Clouds 2 1036 80 10000 0.92 358.385 11:41 08.09.2019
2278 Clouds 2 1035 80 10000 1 300 11:20 08.09.2019
2279 Clouds 2 1035 80 10000 1 300 10:59 08.09.2019
2280 Clouds 2 1035 80 10000 1 300 10:41 08.09.2019
2281 Clouds 3 1035 71 10000 1 100 10:22 08.09.2019
2282 Clouds 3 1035 71 10000 1 100 10:22 08.09.2019
2283 Clouds 3 1035 71 10000 1 100 09:55 08.09.2019
2284 Clouds 3 1035 71 10000 1 100 09:37 08.09.2019
2285 Clouds 3 1035 73 10000 1.5 290 09:18 08.09.2019
2286 Clear 3 1035 74 10000 1.5 290 08:39 08.09.2019
2287 Clouds 5 1036 75 10000 1.05 357.544 08:18 08.09.2019
2288 Clouds 5 1036 75 10000 1.05 357.544 07:41 08.09.2019
2289 Clouds 4 1036 69 10000 1 0 07:21 08.09.2019
2290 Clouds 4 1036 69 10000 1 0 06:54 08.09.2019
2291 Clouds 4 1036 69 10000 1 0 06:34 08.09.2019
2292 Clouds 6 1036 70 10000 1.5 280 05:39 08.09.2019
2293 Clouds 6 1035 70 10000 2.18 19.668 04:27 08.09.2019
2294 Clouds 8 1034 65 10000 2.6 110 03:19 08.09.2019
2295 Clouds 8 1034 65 10000 2.6 110 02:36 08.09.2019
2296 Clouds 10 1032 61 10000 6.2 110 01:53 08.09.2019
2297 Clouds 10 1032 61 10000 6.2 110 01:25 08.09.2019
2298 Clouds 15 1031 38 10000 1 0 00:46 08.09.2019
2299 Clouds 15 1031 38 10000 1 0 00:28 08.09.2019
2300 Rain 14 1031 47 10000 5.7 110 23:39 07.09.2019
2301 Clouds 14 1031 47 10000 5.1 110 23:21 07.09.2019
2302 Clouds 14 1031 47 10000 5.1 110 22:59 07.09.2019
2303 Rain 15 1031 38 10000 5.7 110 22:40 07.09.2019
2304 Rain 15 1031 38 10000 5.7 110 22:22 07.09.2019
2305 Clouds 16 1031 36 10000 4.1 100 21:54 07.09.2019
2306 Clouds 16 1032 51 10000 2.6 90 21:36 07.09.2019
2307 Clouds 16 1032 50 10000 1.5 0 21:18 07.09.2019
2308 Clouds 15 1033 38 10000 1 0 20:39 07.09.2019
2309 Clouds 14 1034 50 10000 2.1 120 20:20 07.09.2019
2310 Clouds 14 1034 50 10000 2.1 120 20:20 07.09.2019
2311 Clouds 14 1034 50 10000 2.1 120 19:56 07.09.2019
2312 Clouds 14 1034 50 10000 2.1 120 19:37 07.09.2019
2313 Clouds 14 1035 41 10000 0.5 170 19:19 07.09.2019
2314 Clouds 13 1035 43 10000 0.5 40 18:56 07.09.2019
2315 Clouds 13 1035 43 10000 0.5 40 18:37 07.09.2019
2316 Clouds 13 1036 43 10000 1 70 18:18 07.09.2019
2317 Clouds 13 1036 43 10000 1 70 17:56 07.09.2019
2318 Clouds 12 1036 50 10000 0.5 90 17:38 07.09.2019
2319 Clouds 11 1037 53 10000 2.1 100 17:18 07.09.2019
2320 Clouds 11 1036 53 10000 1.5 130 16:43 07.09.2019
2321 Clouds 11 1036 53 10000 1.5 130 16:43 07.09.2019
2322 Clouds 11 1036 53 10000 1.5 130 16:23 07.09.2019
2323 Clouds 18 1036 50 10000 0.5 0 15:58 07.09.2019
2324 Clouds 15 1036 57 10000 0.5 0 15:39 07.09.2019
2325 Clouds 9 1036 57 10000 0.5 0 15:21 07.09.2019
2326 Clouds 8 1036 61 10000 1 90 14:55 07.09.2019
2327 Clouds 8 1035 61 10000 0.5 0 14:36 07.09.2019
2328 Clouds 7 1035 65 10000 1 100 14:18 07.09.2019
2329 Clouds 7 1035 65 10000 1 100 14:18 07.09.2019
2330 Clouds 6 1034 70 10000 1 90 13:44 07.09.2019
2331 Clouds 6 1034 70 10000 0.5 100 13:25 07.09.2019
2332 Clouds 6 1034 70 10000 0.5 100 12:54 07.09.2019
2333 Clouds 6 1034 70 10000 0.5 100 12:36 07.09.2019
2334 Clouds 6 1034 70 10000 0.5 100 12:36 07.09.2019
2335 Clouds 5 1034 75 10000 1.33 9.406 12:18 07.09.2019
2336 Clouds 5 1034 75 10000 1.33 9.406 11:40 07.09.2019
2337 Clouds 5 1034 75 10000 1.33 9.406 11:21 07.09.2019
2338 Clouds 5 1020 75 0 1.33 9.406 10:42 07.09.2019
2339 Clouds 4 1034 69 10000 1.33 9.406 10:23 07.09.2019
2340 Clouds 4 1034 69 10000 1.33 9.406 09:59 07.09.2019
2341 Clouds 4 1034 69 10000 1.33 9.406 09:41 07.09.2019
2342 Clouds 6 1035 74 10000 1.22 346.588 09:21 07.09.2019
2343 Clouds 6 1035 74 10000 1.22 346.588 08:49 07.09.2019
2344 Clouds 6 1035 71 10000 1.57 343.179 08:30 07.09.2019
2345 Clouds 6 1035 71 10000 2.6 290 07:57 07.09.2019
2346 Clouds 6 1035 71 10000 2.6 290 07:38 07.09.2019
2347 Clouds 1 1035 71 10000 2.6 300 07:20 07.09.2019
2348 Clouds 1 1035 71 10000 2.6 300 06:42 07.09.2019
2349 Clouds 9 1035 61 10000 0.5 30 05:39 07.09.2019
2350 Clouds 11 1034 50 10000 2.6 260 04:26 07.09.2019
2351 Clouds 12 1034 50 10000 2.6 50 03:31 07.09.2019
2352 Clouds 12 1034 50 10000 3.1 290 02:22 07.09.2019
2353 Clouds 14 1032 41 10000 3.6 0 01:27 07.09.2019
2354 Clouds 14 1032 41 10000 4.1 20 00:54 07.09.2019
2355 Clouds 15 1032 38 10000 3.6 10 00:23 07.09.2019
2356 Clouds 15 1032 38 10000 3.6 10 23:59 06.09.2019
2357 Clouds 16 1032 36 10000 4.1 20 23:38 06.09.2019
2358 Clouds 16 1031 50 10000 4.1 10 23:19 06.09.2019
2359 Clouds 16 1031 50 10000 4.1 10 23:19 06.09.2019
2360 Clouds 16 1031 50 10000 4.1 10 22:55 06.09.2019
2361 Clouds 17 1031 50 10000 3.6 20 22:36 06.09.2019
2362 Clouds 17 1031 50 10000 3.1 340 22:18 06.09.2019
2363 Clouds 17 1032 50 10000 1.5 360 21:42 06.09.2019
2364 Clouds 17 1032 51 10000 1.5 360 21:23 06.09.2019
2365 Clouds 17 1032 51 10000 2.6 320 21:00 06.09.2019
2366 Clouds 16 1033 36 10000 2.1 240 20:41 06.09.2019
2367 Clouds 16 1034 49 10000 1.5 0 20:21 06.09.2019
2368 Clouds 16 1034 49 10000 1.5 0 19:58 06.09.2019
2369 Clouds 16 1034 36 10000 2.1 290 19:40 06.09.2019
2370 Clouds 15 1035 38 10000 3.22 6.057 19:21 06.09.2019
2371 Clouds 15 1036 38 10000 1.5 0 18:50 06.09.2019
2372 Clouds 15 1036 38 10000 1.5 0 18:50 06.09.2019
2373 Clouds 15 1036 38 10000 1.5 0 18:32 06.09.2019
2374 Clouds 15 1036 41 10000 1.5 0 17:59 06.09.2019
2375 Clouds 13 1037 47 10000 1 340 17:39 06.09.2019
2376 Clouds 12 1037 50 10000 1.5 20 17:20 06.09.2019
2377 Clouds 11 1037 53 10000 1.5 80 16:43 06.09.2019
2378 Clouds 16 1037 53 10000 1 130 16:20 06.09.2019
2379 Clouds 16 1037 53 10000 1 130 15:59 06.09.2019
2380 Clouds 14 1036 57 10000 1 0 15:41 06.09.2019
2381 Clouds 10 1036 57 10000 1 0 15:22 06.09.2019
2382 Clouds 9 1036 61 10000 0.5 340 14:46 06.09.2019
2383 Clouds 8 1036 65 10000 1.3 18.185 14:19 06.09.2019
2384 Clouds 8 1035 65 10000 2.1 80 13:44 06.09.2019
2385 Clouds 8 1035 65 10000 2.1 100 13:23 06.09.2019
2386 Clouds 8 1035 65 10000 2.1 100 12:57 06.09.2019
2387 Clouds 8 1035 65 10000 1.5 130 12:37 06.09.2019
2388 Clouds 8 1034 65 10000 0.92 20.142 12:18 06.09.2019
2389 Clouds 8 1034 65 10000 0.92 20.142 11:41 06.09.2019
2390 Clouds 8 1034 65 10000 0.92 20.142 11:23 06.09.2019
2391 Clouds 8 1035 65 10000 0.92 20.142 10:56 06.09.2019
2392 Clouds 8 1035 65 10000 0.92 20.142 10:56 06.09.2019
2393 Clouds 8 1035 65 10000 0.92 20.142 10:38 06.09.2019
2394 Clouds 7 1035 65 10000 0.92 2.94 10:18 06.09.2019
2395 Clouds 7 1035 65 10000 0.92 2.94 09:38 06.09.2019
2396 Clouds 7 1035 65 10000 0.5 290 09:20 06.09.2019
2397 Clouds 7 1035 65 10000 0.5 290 08:56 06.09.2019
2398 Clouds 7 1035 65 10000 0.5 290 08:37 06.09.2019
2399 Clouds 5 1035 78 10000 0.5 290 08:19 06.09.2019
2400 Clouds 5 1035 78 10000 0.5 290 07:44 06.09.2019
2401 Clouds 5 1035 78 10000 0.5 290 07:25 06.09.2019
2402 Clouds 5 1035 78 10000 0.5 290 07:25 06.09.2019
2403 Clouds 5 1035 75 10000 1 90 06:53 06.09.2019
2404 Clouds 7 1035 65 10000 0.5 290 05:58 06.09.2019
2405 Clouds 7 1035 65 10000 2.1 290 04:58 06.09.2019
2406 Clouds 7 1035 65 10000 2.1 290 04:38 06.09.2019
2407 Clouds 9 1034 61 10000 3.1 280 03:39 06.09.2019
2408 Clouds 15 1033 41 10000 4.1 280 01:50 06.09.2019
2409 Clouds 15 1032 38 10000 5.7 290 00:32 06.09.2019
2410 Clouds 15 1032 38 10000 1.5 270 23:44 05.09.2019
2411 Clouds 15 1032 38 10000 1.5 270 23:24 05.09.2019
2412 Clouds 15 1033 38 10000 3.1 360 22:54 05.09.2019
2413 Clouds 15 1033 38 10000 3.1 360 22:54 05.09.2019
2414 Clouds 15 1033 38 10000 3.1 360 22:36 05.09.2019
2415 Clouds 14 1033 41 10000 3.1 10 22:18 05.09.2019
2416 Clouds 14 1033 41 10000 3.1 10 21:55 05.09.2019
2417 Clouds 14 1033 59 10000 2.6 30 21:37 05.09.2019
2418 Clouds 15 1034 52 10000 1.5 0 21:19 05.09.2019
2419 Clouds 15 1034 55 10000 1.5 0 20:54 05.09.2019
2420 Clouds 15 1034 55 10000 1.5 0 20:36 05.09.2019
2421 Clouds 15 1034 55 10000 1.5 0 20:36 05.09.2019
2422 Clouds 14 1035 55 10000 0.5 280 20:18 05.09.2019
2423 Clouds 14 1035 35 10000 2.1 150 19:41 05.09.2019
2424 Clouds 14 1035 35 10000 2.1 150 19:22 05.09.2019
2425 Clouds 14 1036 35 10000 1 0 18:57 05.09.2019
2426 Clouds 14 1036 35 10000 1 0 18:57 05.09.2019
2427 Clouds 14 1036 35 10000 1 0 18:38 05.09.2019
2428 Clouds 14 1036 35 10000 1 0 18:19 05.09.2019
2429 Clouds 14 1036 35 10000 2.1 120 17:41 05.09.2019
2430 Clouds 14 1036 35 10000 2.1 120 17:22 05.09.2019
2431 Clouds 14 1036 35 10000 1 0 16:58 05.09.2019
2432 Clouds 12 1037 53 10000 2.6 90 16:40 05.09.2019
2433 Clouds 13 1036 62 10000 1.5 0 16:20 05.09.2019
2434 Clouds 13 1036 62 10000 1.5 0 15:55 05.09.2019
2435 Clouds 11 1036 53 10000 1.5 100 15:37 05.09.2019
2436 Clouds 11 1036 53 10000 1.5 100 15:37 05.09.2019
2437 Clouds 10 1036 57 10000 1.5 0 15:18 05.09.2019
2438 Clouds 10 1036 57 10000 0.5 0 14:42 05.09.2019
2439 Clouds 9 1036 61 10000 0.5 300 14:20 05.09.2019
2440 Clouds 8 1035 65 10000 2.1 290 13:44 05.09.2019
2441 Clouds 8 1035 65 10000 2.1 290 13:23 05.09.2019
2442 Clouds 8 1035 65 10000 2.1 290 12:58 05.09.2019
2443 Clouds 9 1034 61 10000 1.66 33.096 12:38 05.09.2019
2444 Clouds 9 1034 61 10000 2.1 110 12:20 05.09.2019
2445 Clouds 9 1034 61 10000 2.1 110 11:43 05.09.2019
2446 Clouds 9 1034 61 10000 2.6 80 11:20 05.09.2019
2447 Clouds 9 1034 61 10000 2.6 80 10:43 05.09.2019
2448 Clouds 10 1035 57 10000 3.1 130 10:23 05.09.2019
2449 Clouds 9 1034 61 10000 2.6 80 10:23 05.09.2019
2450 Clouds 9 1034 61 10000 2.6 80 10:23 05.09.2019
2451 Clouds 10 1035 57 10000 3.1 130 09:59 05.09.2019
2452 Clouds 10 1035 57 10000 3.1 130 09:40 05.09.2019
2453 Clouds 10 1035 57 10000 2.06 31.929 09:19 05.09.2019
2454 Clouds 10 1035 57 10000 2.06 31.929 08:46 05.09.2019
2455 Clouds 10 1035 57 10000 2.06 31.929 08:27 05.09.2019
2456 Clouds 10 1035 53 10000 2.06 31.929 07:48 05.09.2019
2457 Clouds 10 1035 53 10000 2.06 31.929 07:29 05.09.2019
2458 Clouds 11 1036 53 10000 2.06 31.929 06:58 05.09.2019
2459 Clouds 11 1036 53 10000 2.06 31.929 06:33 05.09.2019
2460 Clouds 11 1036 53 10000 2.06 31.929 06:33 05.09.2019
2461 Clouds 11 1036 53 10000 1.5 240 05:59 05.09.2019
2462 Clouds 11 1036 53 10000 1.5 240 05:37 05.09.2019
2463 Clouds 11 1036 53 10000 1.5 160 05:19 05.09.2019
2464 Clouds 11 1036 57 10000 1 0 04:29 05.09.2019
2465 Clouds 11 1035 57 10000 3.6 110 03:41 05.09.2019
2466 Clouds 12 1034 54 10000 3.1 120 02:54 05.09.2019
2467 Clouds 13 1033 50 10000 1.5 0 02:27 05.09.2019
2468 Clouds 13 1032 47 10000 6.2 20 01:42 05.09.2019
2469 Clouds 14 1031 44 10000 5.1 30 00:51 05.09.2019
2470 Clouds 15 1030 44 10000 4.6 20 00:23 05.09.2019
2471 Clouds 17 1029 33 10000 4.6 120 23:57 04.09.2019
2472 Clouds 17 1029 33 10000 4.6 120 23:39 04.09.2019
2473 Clouds 18 1029 63 10000 5.7 110 23:18 04.09.2019
2474 Clouds 18 1029 63 10000 5.7 110 23:18 04.09.2019
2475 Clouds 18 1029 63 10000 5.7 110 23:18 04.09.2019
2476 Clouds 18 1029 63 10000 5.7 110 22:47 04.09.2019
2477 Rain 10 1016 63 0 3.73 30.377 22:19 04.09.2019
2478 Clouds 18 1031 57 10000 2.1 0 21:41 04.09.2019
2479 Clouds 18 1031 39 10000 0.5 240 21:21 04.09.2019
2480 Clouds 18 1031 39 10000 0.5 240 20:58 04.09.2019
2481 Clouds 17 1032 39 10000 1.5 0 20:40 04.09.2019
2482 Clouds 17 1033 39 10000 1.5 0 20:20 04.09.2019
2483 Clouds 17 1033 39 10000 1.5 0 19:59 04.09.2019
2484 Clouds 17 1033 39 10000 1.5 0 19:39 04.09.2019
2485 Clouds 16 1034 39 10000 2.1 300 19:20 04.09.2019
2486 Clouds 15 1034 38 10000 0.5 210 18:41 04.09.2019
2487 Clouds 14 1035 41 10000 1.5 0 18:23 04.09.2019
2488 Clouds 14 1035 44 10000 1.5 80 17:56 04.09.2019
2489 Clouds 14 1035 44 10000 1.5 80 17:56 04.09.2019
2490 Clouds 14 1035 44 10000 1.5 80 17:38 04.09.2019
2491 Clouds 19 1036 32 10000 2.1 80 17:20 04.09.2019
2492 Clouds 12 1036 54 10000 2.1 90 16:48 04.09.2019
2493 Clouds 12 1036 58 10000 0.5 0 16:28 04.09.2019
2494 Clouds 12 1036 58 10000 0.5 0 15:59 04.09.2019
2495 Clouds 12 1036 58 10000 0.5 0 15:39 04.09.2019
2496 Clouds 12 1036 58 10000 0.5 0 15:39 04.09.2019
2497 Clouds 9 1035 70 10000 1.5 80 15:21 04.09.2019
2498 Clouds 9 1035 70 10000 1.5 80 14:58 04.09.2019
2499 Clouds 9 1035 70 10000 1.5 80 14:37 04.09.2019
2500 Clouds 8 1034 70 10000 2.1 90 14:19 04.09.2019
2501 Clouds 8 1034 70 10000 2.1 90 13:55 04.09.2019
2502 Clouds 8 1034 70 10000 2.1 90 13:36 04.09.2019
2503 Clouds 8 1034 70 10000 1.5 120 13:18 04.09.2019
2504 Clouds 8 1034 70 10000 1 80 12:40 04.09.2019
2505 Clouds 7 1033 70 10000 1.1 357.809 12:22 04.09.2019
2506 Clouds 7 1033 70 10000 1.1 357.809 11:55 04.09.2019
2507 Clouds 7 1033 70 10000 1.1 357.809 11:37 04.09.2019
2508 Clouds 6 1033 81 10000 1.1 357.809 11:19 04.09.2019
2509 Clouds 6 1033 81 10000 1.1 357.809 10:44 04.09.2019
2510 Clouds 6 1033 81 10000 1.1 357.809 10:25 04.09.2019
2511 Clouds 7 1033 75 10000 0.93 15.481 09:57 04.09.2019
2512 Clouds 7 1033 75 10000 0.93 15.481 09:39 04.09.2019
2513 Clouds 7 1033 75 10000 1.44 25.154 09:18 04.09.2019
2514 Clouds 7 1033 75 10000 1.44 25.154 08:41 04.09.2019
2515 Clouds 7 1033 75 10000 1.44 25.154 08:23 04.09.2019
2516 Clouds 7 1034 75 10000 1.5 0 07:56 04.09.2019
2517 Clouds 7 1034 75 10000 1.5 0 07:33 04.09.2019
2518 Clouds 7 1034 75 10000 0.5 0 06:49 04.09.2019
2519 Clouds 9 1033 66 10000 1 100 06:21 04.09.2019
2520 Clouds 9 1033 66 10000 3.6 100 04:53 04.09.2019
2521 Clouds 10 1033 61 10000 2.6 120 04:20 04.09.2019
2522 Clouds 12 1032 62 10000 2.1 60 02:21 04.09.2019
2523 Clouds 13 1029 58 10000 4.1 100 00:56 04.09.2019
2524 Clouds 13 1029 58 10000 4.1 100 00:35 04.09.2019
2525 Clouds 16 1028 41 10000 2.6 10 00:00 04.09.2019
2526 Clouds 16 1028 41 10000 2.6 10 23:38 03.09.2019
2527 Clouds 17 1028 36 10000 3.1 10 23:20 03.09.2019
2528 Clouds 17 1028 36 10000 3.1 10 22:40 03.09.2019
2529 Rain 18 1028 31 10000 3.1 360 22:22 03.09.2019
2530 Rain 18 1028 31 10000 3.1 360 21:56 03.09.2019
2531 Clouds 18 1028 27 10000 2.6 300 21:38 03.09.2019
2532 Clouds 18 1028 27 10000 2.1 220 21:20 03.09.2019
2533 Clouds 18 1028 27 10000 2.1 220 20:44 03.09.2019
2534 Clouds 18 1028 27 10000 2.1 220 20:25 03.09.2019
2535 Clouds 17 1029 33 10000 3.6 290 19:58 03.09.2019
2536 Clouds 17 1029 33 10000 2.6 310 19:39 03.09.2019
2537 Clouds 18 1032 44 10000 3.1 250 19:19 03.09.2019
2538 Clouds 16 1031 36 10000 2.6 270 18:56 03.09.2019
2539 Clouds 16 1031 36 10000 2.6 270 18:38 03.09.2019
2540 Clouds 16 1031 36 10000 2.6 270 18:38 03.09.2019
2541 Clouds 16 1032 36 10000 1.5 0 18:18 03.09.2019
2542 Clouds 17 1032 33 10000 2.6 80 17:43 03.09.2019
2543 Clouds 16 1033 38 10000 2.6 70 17:21 03.09.2019
2544 Clouds 16 1033 38 10000 2.6 70 17:00 03.09.2019
2545 Clouds 15 1033 41 10000 1 0 16:41 03.09.2019
2546 Clouds 13 1033 50 10000 1.5 0 16:22 03.09.2019
2547 Clouds 11 1034 57 10000 1.5 0 15:42 03.09.2019
2548 Clouds 11 1034 57 10000 1.5 0 15:42 03.09.2019
2549 Clouds 11 1034 57 10000 1.5 0 15:22 03.09.2019
2550 Clouds 11 1033 57 10000 2.1 100 14:59 03.09.2019
2551 Clouds 11 1033 57 10000 2.1 100 14:41 03.09.2019
2552 Clouds 8 1032 65 10000 1 270 14:22 03.09.2019
2553 Clouds 8 1032 65 10000 1 270 13:58 03.09.2019
2554 Clouds 8 1032 65 10000 1 270 13:38 03.09.2019
2555 Clouds 8 1032 65 10000 1 90 13:20 03.09.2019
2556 Clouds 8 1032 65 10000 1 90 13:20 03.09.2019
2557 Clouds 8 1032 65 10000 1 90 12:57 03.09.2019
2558 Clouds 9 1032 66 10000 2.1 140 12:39 03.09.2019
2559 Clouds 9 1032 66 10000 2.1 140 12:39 03.09.2019
2560 Clear 8 1031 65 10000 2.6 290 12:21 03.09.2019
2561 Clear 8 1031 65 10000 2.6 290 11:43 03.09.2019
2562 Clear 8 1031 65 10000 2.6 290 11:23 03.09.2019
2563 Clear 8 1031 65 10000 2.6 290 11:23 03.09.2019
2564 Clear 7 1030 70 10000 1.08 311.335 10:57 03.09.2019
2565 Clear 7 1030 70 10000 1.08 311.335 10:39 03.09.2019
2566 Clear 8 1030 61 10000 2.1 290 10:20 03.09.2019
2567 Clear 8 1030 61 10000 2.1 290 09:48 03.09.2019
2568 Clear 8 1030 61 10000 2.1 290 09:30 03.09.2019
2569 Clear 8 1031 61 10000 1 80 08:56 03.09.2019
2570 Clear 8 1031 61 10000 1 80 08:37 03.09.2019
2571 Clear 9 1031 57 10000 1 100 08:19 03.09.2019
2572 Clear 9 1031 57 10000 1 100 07:42 03.09.2019
2573 Clear 11 1030 53 10000 1 270 07:23 03.09.2019
2574 Clear 11 1030 53 10000 1 270 06:45 03.09.2019
2575 Clear 11 1030 53 10000 1 270 06:18 03.09.2019
2576 Clear 14 1028 69 10000 2.6 280 03:43 03.09.2019
2577 Rain 14 1028 61 10000 2.6 290 02:47 03.09.2019
2578 Rain 14 1028 61 10000 2.6 290 02:25 03.09.2019
2579 Rain 16 1027 31 10000 4.1 290 01:51 03.09.2019
2580 Rain 16 1027 31 10000 4.1 290 01:32 03.09.2019
2581 Clouds 20 1025 22 10000 7.2 300 00:44 03.09.2019
2582 Clouds 21 1025 21 10000 6.2 300 00:25 03.09.2019
2583 Clouds 22 1025 19 10000 5.7 300 23:40 02.09.2019
2584 Clouds 22 1025 17 10000 6.2 290 23:20 02.09.2019
2585 Clouds 22 1025 17 10000 6.2 290 22:56 02.09.2019
2586 Clouds 22 1025 19 10000 2.6 0 22:38 02.09.2019
2587 Clouds 22 1025 19 10000 2.6 0 22:38 02.09.2019
2588 Clouds 22 1025 17 10000 4.1 310 22:19 02.09.2019
2589 Clouds 22 1025 17 10000 4.1 310 21:57 02.09.2019
2590 Clouds 22 1025 17 10000 4.1 310 21:39 02.09.2019
2591 Clouds 23 1026 16 10000 1.5 340 21:20 02.09.2019
2592 Clouds 23 1026 16 10000 1.5 340 20:58 02.09.2019
2593 Clouds 21 1027 19 10000 2.6 0 20:39 02.09.2019
2594 Clouds 20 1028 24 10000 2.39 290.873 20:18 02.09.2019
2595 -273 0 0 0 0 0 19:56 02.09.2019
2596 Clouds 20 1028 24 10000 2.39 290.873 19:38 02.09.2019
2597 Clouds 19 1029 22 10000 3.1 0 19:19 02.09.2019
2598 Clouds 20 1030 31 10000 2.6 0 18:40 02.09.2019
2599 Clouds 20 1031 47 10000 3.6 340 18:22 02.09.2019
2600 Clouds 17 1032 33 10000 1 140 17:57 02.09.2019
2601 Clouds 17 1032 33 10000 1 140 17:57 02.09.2019
2602 Clouds 17 1032 33 10000 1 140 17:39 02.09.2019
2603 Clouds 16 1032 38 10000 2.6 40 17:19 02.09.2019
2604 Clouds 14 1033 44 10000 1 0 16:42 02.09.2019
2605 Clouds 20 1033 44 10000 1 0 16:23 02.09.2019
2606 Clouds 19 1033 47 10000 2.1 80 15:59 02.09.2019
2607 Haze 17 1033 54 10000 0.5 10 15:41 02.09.2019
2608 Haze 11 1033 53 10000 0.5 0 15:21 02.09.2019
2609 Haze 11 1033 53 10000 0.5 0 14:56 02.09.2019
2610 Haze 8 1033 65 10000 1.1 299.151 14:37 02.09.2019
2611 Clouds 7 1033 70 10000 1 0 14:19 02.09.2019
2612 Clouds 7 1032 70 10000 2.1 300 13:45 02.09.2019
2613 Clouds 8 1032 65 10000 1 300 13:25 02.09.2019
2614 Clouds 8 1032 65 10000 1 300 13:25 02.09.2019
2615 Clouds 8 1032 65 10000 1 300 12:57 02.09.2019
2616 Clouds 8 1032 65 10000 1 300 12:38 02.09.2019
2617 Clouds 8 1031 65 10000 0.5 60 12:18 02.09.2019
2618 Clouds 8 1031 65 10000 0.5 60 11:55 02.09.2019
2619 Clouds 8 1031 65 10000 0.5 60 11:36 02.09.2019
2620 Clouds 8 1031 65 10000 1.5 70 11:18 02.09.2019
2621 Clouds 8 1031 65 10000 1.5 70 10:42 02.09.2019
2622 Clouds 7 1032 65 10000 2.6 280 10:22 02.09.2019
2623 Clouds 7 1032 65 10000 2.6 280 09:58 02.09.2019
2624 Clouds 7 1032 65 10000 2.6 280 09:58 02.09.2019
2625 Clouds 7 1032 65 10000 2.6 280 09:38 02.09.2019
2626 Clouds 8 1032 65 10000 2.1 280 09:20 02.09.2019
2627 Clouds 8 1032 65 10000 2.1 280 08:42 02.09.2019
2628 Clouds 9 1033 61 10000 1 290 08:22 02.09.2019
2629 Clouds 9 1033 61 10000 1 290 07:56 02.09.2019
2630 Clouds 9 1033 61 10000 1 290 07:37 02.09.2019
2631 Clouds 9 1033 61 10000 1 290 07:18 02.09.2019
2632 Clouds 10 1033 57 10000 2.1 100 06:41 02.09.2019
2633 Clouds 12 1033 54 10000 1 90 05:53 02.09.2019
2634 Clouds 12 1033 54 10000 1 90 05:53 02.09.2019
2635 Clouds 12 1033 54 10000 1 90 05:24 02.09.2019
2636 Clouds 13 1032 50 10000 4.1 340 04:48 02.09.2019
2637 Clouds 14 1029 44 10000 3.6 360 01:59 02.09.2019
2638 Clouds 15 1029 41 10000 5.1 360 01:28 02.09.2019
2639 Clouds 17 1028 33 10000 3.1 20 00:36 02.09.2019
2640 Clouds 17 1028 33 10000 3.1 20 00:18 02.09.2019
2641 Clouds 20 1027 45 10000 6.2 20 23:39 01.09.2019
2642 Clouds 20 1027 45 10000 6.7 20 23:19 01.09.2019
2643 Clouds 20 1027 45 10000 6.7 20 22:56 01.09.2019
2644 Clouds 21 1027 21 10000 5.1 10 22:38 01.09.2019
2645 Clouds 21 1027 21 10000 5.1 10 22:38 01.09.2019
2646 Clouds 22 1028 13 10000 4.6 40 22:18 01.09.2019
2647 Clouds 22 1028 14 10000 0.5 0 21:42 01.09.2019
2648 Clouds 22 1028 14 10000 0.5 0 21:23 01.09.2019
2649 Clouds 21 1029 16 10000 1 0 20:58 01.09.2019
2650 Clouds 19 1030 19 10000 1.5 50 20:39 01.09.2019
2651 Clouds 20 1031 19 10000 4.1 320 20:19 01.09.2019
2652 Clouds 20 1031 19 10000 4.1 320 19:59 01.09.2019
2653 Clouds 20 1031 19 10000 4.1 320 19:59 01.09.2019
2654 Clouds 20 1031 19 10000 4.1 320 19:59 01.09.2019
2655 Clouds 20 1031 19 10000 4.1 320 19:40 01.09.2019
2656 Clouds 18 1032 23 10000 2.1 290 19:21 01.09.2019
2657 Clouds 18 1033 23 10000 1.5 80 18:45 01.09.2019
2658 Clouds 18 1033 23 10000 1.5 80 18:45 01.09.2019
2659 Clouds 17 1034 27 10000 2.1 20 18:27 01.09.2019
2660 Clouds 14 1035 43 10000 2.1 120 17:59 01.09.2019
2661 Clouds 14 1035 43 10000 2.1 120 17:39 01.09.2019
2662 Clouds 14 1035 43 10000 2.1 120 17:39 01.09.2019
2663 Clouds 13 1036 43 10000 3.1 80 17:20 01.09.2019
2664 Clouds 13 1036 43 10000 3.1 80 16:41 01.09.2019
2665 Clouds 13 1036 43 10000 3.1 80 16:41 01.09.2019
2666 Clouds 13 1036 43 10000 3.1 80 16:41 01.09.2019
2667 Clouds 9 1036 43 10000 0.5 20 16:21 01.09.2019
2668 Clouds 9 1036 43 10000 0.5 20 15:59 01.09.2019
2669 Clouds 8 1036 43 10000 0.87 290.186 15:41 01.09.2019
2670 Clouds 8 1036 67 10000 0.73 2.191 15:22 01.09.2019
2671 Clouds 5 1035 67 10000 1 110 14:44 01.09.2019
2672 Clouds 5 1035 67 10000 1 110 14:26 01.09.2019
2673 Clouds 4 1035 69 10000 1.5 80 13:59 01.09.2019
2674 Clouds 3 1034 74 10000 0.5 280 13:40 01.09.2019
2675 Clouds 2 1034 74 10000 2.1 290 13:21 01.09.2019
2676 Clouds 2 1034 74 10000 2.1 290 12:43 01.09.2019
2677 Clouds 2 1034 74 10000 2.1 290 12:25 01.09.2019
2678 Clouds 2 1034 74 10000 2.1 290 12:25 01.09.2019
2679 Clouds 3 1033 69 10000 1 120 11:56 01.09.2019
2680 Clouds 3 1033 69 10000 1 120 11:38 01.09.2019
2681 Clouds 4 1032 69 10000 0.5 110 11:18 01.09.2019
2682 Clouds 4 1032 69 10000 0.5 110 10:44 01.09.2019
2683 Clouds 4 1032 69 10000 0.5 110 10:44 01.09.2019
2684 Clouds 7 1033 76 10000 2.1 280 10:23 01.09.2019
2685 Clouds 7 1033 76 10000 2.1 280 09:47 01.09.2019
2686 Clouds 7 1033 72 10000 2.1 280 09:26 01.09.2019
2687 Clouds 5 1033 65 10000 1 28.533 08:56 01.09.2019
2688 Clouds 5 1033 65 10000 1 28.533 08:37 01.09.2019
2689 Clouds 6 1033 60 10000 1 28.533 08:19 01.09.2019
2690 Clouds 6 1033 60 10000 1 28.533 07:41 01.09.2019
2691 Clouds 6 1033 60 10000 1 28.533 07:41 01.09.2019
2692 Clouds 7 1034 52 10000 0.5 50 07:19 01.09.2019
2693 Clouds 7 1034 52 10000 0.5 50 06:38 01.09.2019
2694 Rain 7 1033 63 10000 2.1 280 05:58 01.09.2019
2695 Rain 7 1033 63 10000 2.1 280 05:58 01.09.2019
2696 Rain 7 1033 56 10000 1.5 300 04:40 01.09.2019
2697 Rain 11 1033 43 10000 1.99 31.834 03:44 01.09.2019
2698 Rain 12 1032 60 10000 2.1 260 03:19 01.09.2019
2699 Rain 12 1032 60 10000 2.1 260 02:30 01.09.2019
2700 Clouds 13 1031 32 10000 1.5 110 01:58 01.09.2019
2701 Clouds 13 1031 32 10000 1.5 110 01:26 01.09.2019
2702 Clouds 15 1030 30 10000 1.5 90 00:47 01.09.2019
2703 Clouds 16 1029 29 10000 3.1 70 00:23 01.09.2019
2704 Clouds 16 1029 29 10000 3.1 70 23:59 31.08.2019
2705 Clouds 17 1029 27 10000 4.1 0 23:39 31.08.2019
2706 Clouds 18 1029 23 10000 3.1 10 23:19 31.08.2019
2707 Clouds 18 1029 23 10000 3.1 10 23:19 31.08.2019
2708 Clouds 18 1029 23 10000 3.1 10 22:54 31.08.2019
2709 Rain 18 1028 25 10000 3.1 300 22:36 31.08.2019
2710 Rain 19 1028 25 10000 4.6 30 22:18 31.08.2019
2711 Rain 19 1028 25 10000 4.6 30 21:41 31.08.2019
2712 Clouds 20 1029 20 10000 1 0 21:21 31.08.2019
2713 Clouds 20 1029 20 10000 1 0 20:50 31.08.2019
2714 Clouds 20 1029 20 10000 1 0 20:31 31.08.2019
2715 Clouds 22 1030 15 10000 3.6 350 19:59 31.08.2019
2716 Clouds 22 1030 15 10000 3.6 350 19:40 31.08.2019
2717 Smoke 20 1031 20 10000 2.1 80 19:21 31.08.2019
2718 Smoke 20 1032 19 10000 1.5 60 18:41 31.08.2019
2719 Smoke 17 1034 33 10000 1.5 120 18:21 31.08.2019
2720 Smoke 17 1034 33 10000 1.5 120 17:58 31.08.2019
2721 Clouds 16 1034 36 10000 3.1 290 17:37 31.08.2019
2722 Smoke 14 1035 44 10000 1 360 17:19 31.08.2019
2723 Haze 12 1035 46 10000 1.5 0 16:59 31.08.2019
2724 Haze 12 1035 46 10000 1.5 0 16:41 31.08.2019
2725 Haze 11 1035 50 10000 2.1 110 16:21 31.08.2019
2726 Haze 11 1035 50 10000 2.1 110 15:59 31.08.2019
2727 Haze 10 1035 45 10000 1.5 100 15:38 31.08.2019
2728 Haze 8 1035 71 10000 1.5 80 15:18 31.08.2019
2729 Haze 7 1034 71 10000 0.24 231.569 14:42 31.08.2019
2730 Haze 7 1034 71 10000 0.24 231.569 14:23 31.08.2019
2731 Haze 4 1034 69 10000 0.5 120 13:42 31.08.2019
2732 Clouds 3 1033 74 10000 1 0 13:23 31.08.2019
2733 Clouds 3 1033 74 10000 1 0 13:23 31.08.2019
2734 Clouds 3 1033 74 10000 1 0 12:59 31.08.2019
2735 Clouds 4 1033 69 10000 0.5 0 12:40 31.08.2019
2736 Clear 4 1032 69 10000 1.5 80 12:21 31.08.2019
2737 Clear 4 1032 69 10000 1.5 80 12:21 31.08.2019
2738 Clear 4 1032 69 10000 1.5 80 11:57 31.08.2019
2739 Clear 4 1032 69 10000 1.5 80 11:39 31.08.2019
2740 Clear 5 1032 77 10000 0.74 255.382 11:20 31.08.2019
2741 Clear 5 1032 77 10000 0.74 255.382 10:43 31.08.2019
2742 Clear 7 1033 77 10000 1 280 10:19 31.08.2019
2743 Clear 7 1033 77 10000 1 280 10:00 31.08.2019
2744 Clear 7 1033 77 10000 1 280 09:39 31.08.2019
2745 Clear 6 1033 74 10000 0.5 0 09:21 31.08.2019
2746 Clear 6 1033 74 10000 0.5 0 08:44 31.08.2019
2747 Clear 6 1033 74 10000 0.5 0 08:26 31.08.2019
2748 Clear 7 1034 74 10000 2.1 290 07:42 31.08.2019
2749 Clear 7 1034 74 10000 2.1 290 07:23 31.08.2019
2750 Clear 8 1034 74 10000 1 0 06:49 31.08.2019
2751 Smoke 9 1033 67 10000 2.1 110 06:21 31.08.2019
2752 Smoke 9 1033 67 10000 2.1 110 05:34 31.08.2019
2753 Smoke 10 1032 67 10000 1.44 30.021 04:39 31.08.2019
2754 Smoke 13 1031 67 10000 1 0 03:50 31.08.2019
2755 Smoke 13 1031 37 10000 1 0 02:59 31.08.2019
2756 Smoke 15 1029 33 10000 2.1 0 01:59 31.08.2019
2757 Smoke 16 1029 31 10000 2.6 360 01:41 31.08.2019
2758 Smoke 17 1028 29 10000 3.6 20 01:22 31.08.2019
2759 Smoke 17 1028 29 10000 3.6 20 00:42 31.08.2019
2760 Smoke 18 1028 25 10000 5.1 20 00:24 31.08.2019
2761 Smoke 20 1028 19 10000 4.6 10 23:47 30.08.2019
2762 Smoke 20 1028 16 10000 5.1 20 23:18 30.08.2019
2763 Smoke 20 1028 16 10000 5.1 20 22:55 30.08.2019
2764 Smoke 20 1028 16 10000 5.1 20 22:55 30.08.2019
2765 Smoke 21 1028 12 10000 6.2 20 22:37 30.08.2019
2766 Clouds 21 1028 13 10000 5.7 10 22:18 30.08.2019
2767 Clouds 21 1028 13 10000 5.7 10 21:54 30.08.2019
2768 Clouds 22 1028 12 10000 2.1 80 21:36 30.08.2019
2769 Clouds 21 1029 12 10000 2.1 80 21:18 30.08.2019
2770 Clouds 21 1030 12 10000 3.1 170 20:42 30.08.2019
2771 Clouds 20 1031 13 10000 3.1 150 20:22 30.08.2019
2772 Clouds 20 1031 13 10000 3.1 150 19:59 30.08.2019
2773 Clouds 20 1031 13 10000 3.1 150 19:40 30.08.2019
2774 Clouds 21 1031 14 10000 0.5 260 19:21 30.08.2019
2775 Clouds 19 1033 15 10000 1.5 0 18:58 30.08.2019
2776 Clouds 19 1033 15 10000 1.5 0 18:39 30.08.2019
2777 Clouds 19 1033 15 10000 1 140 18:18 30.08.2019
2778 -273 0 0 0 0 0 17:56 30.08.2019
2779 Clouds 17 1034 18 10000 0.5 110 17:37 30.08.2019
2780 Clouds 17 1034 18 10000 0.5 110 17:37 30.08.2019
2781 Clear 15 1035 22 10000 1.5 0 17:18 30.08.2019
2782 Clear 13 1035 26 10000 1 0 16:43 30.08.2019
2783 Clear 13 1035 26 10000 1 0 16:25 30.08.2019
2784 Clear 11 1035 37 10000 1 0 15:45 30.08.2019
2785 Clear 11 1035 37 10000 1 0 15:25 30.08.2019
2786 Clear 8 1035 42 10000 0.5 0 14:59 30.08.2019
2787 Clear 5 1034 48 10000 0.22 184.635 14:41 30.08.2019
2788 Clear 5 1034 48 10000 0.22 184.635 14:23 30.08.2019
2789 Clear 2 1034 59 10000 1 100 13:45 30.08.2019
2790 Clear 2 1034 59 10000 1 100 13:23 30.08.2019
2791 Clear 1 1033 64 10000 1.5 290 12:59 30.08.2019
2792 Clear 1 1033 69 10000 0.29 205.942 12:41 30.08.2019
2793 Clear 3 1032 55 10000 1 0 12:22 30.08.2019
2794 Clear 3 1032 55 10000 1 0 11:43 30.08.2019
2795 Clear 3 1032 55 10000 1 0 11:24 30.08.2019
2796 Clear 3 1032 64 10000 2.1 0 10:57 30.08.2019
2797 Clear 3 1032 64 10000 2.1 0 10:36 30.08.2019
2798 Clear 3 1033 59 10000 2.1 300 10:18 30.08.2019
2799 Clear 3 1033 59 10000 2.1 300 09:42 30.08.2019
2800 Clouds 5 1033 48 10000 2.1 100 09:19 30.08.2019
2801 Clouds 5 1033 48 10000 2.1 100 08:57 30.08.2019
2802 Clouds 5 1033 48 10000 2.1 100 08:57 30.08.2019
2803 Clouds 5 1033 48 10000 2.1 100 08:38 30.08.2019
2804 Clouds 6 1034 52 10000 1.3 337.911 08:20 30.08.2019
2805 Clouds 6 1034 52 10000 1.3 337.911 07:42 30.08.2019
2806 Clouds 7 1034 39 10000 1.3 337.911 07:23 30.08.2019
2807 Clouds 7 1034 39 10000 1.3 337.911 06:47 30.08.2019
2808 Clouds 7 1034 39 10000 1.3 337.911 06:29 30.08.2019
2809 Clouds 7 1033 48 10000 1.5 290 05:46 30.08.2019
2810 Clouds 11 1032 27 10000 1 0 04:20 30.08.2019
2811 Clouds 12 1032 27 10000 2.6 280 03:38 30.08.2019
2812 Clouds 12 1032 27 10000 2.6 280 03:38 30.08.2019
2813 Clouds 12 1032 27 10000 2.6 280 03:38 30.08.2019
2814 Rain 14 1032 22 10000 2.1 0 03:18 30.08.2019
2815 Rain 14 1032 22 10000 2.1 0 03:18 30.08.2019
2816 Rain 15 1031 21 10000 4.1 320 02:29 30.08.2019
2817 Rain 17 1030 17 10000 5.1 20 01:30 30.08.2019
2818 Rain 17 1029 17 10000 4.6 30 00:45 30.08.2019
2819 Clouds 19 1029 22 10000 6.2 20 00:18 30.08.2019
2820 Clouds 21 1029 18 10000 4.1 10 23:41 29.08.2019
2821 Clouds 20 1028 19 10000 4.1 360 23:21 29.08.2019
2822 Clouds 20 1028 19 10000 4.1 360 23:21 29.08.2019
2823 Clouds 20 1028 19 10000 4.1 360 22:44 29.08.2019
2824 Clouds 20 1028 19 10000 4.1 360 22:25 29.08.2019
2825 Clouds 22 1028 14 10000 3.6 20 21:57 29.08.2019
2826 Clouds 22 1028 14 10000 3.6 20 21:38 29.08.2019
2827 Clouds 23 1029 13 10000 1 240 21:20 29.08.2019
2828 Clouds 23 1029 13 10000 1 240 20:54 29.08.2019
2829 Clouds 21 1030 13 10000 1 0 20:36 29.08.2019
2830 Clouds 21 1030 13 10000 1 0 20:18 29.08.2019
2831 Clouds 21 1031 18 10000 3.1 130 19:46 29.08.2019
2832 Clouds 20 1031 20 10000 2.1 0 19:25 29.08.2019
2833 Clouds 18 1033 23 10000 1 0 18:45 29.08.2019
2834 Clouds 18 1033 23 10000 1 0 18:21 29.08.2019
2835 Clouds 17 1034 44 10000 2.1 0 17:58 29.08.2019
2836 Clouds 16 1035 36 10000 0.5 0 17:39 29.08.2019
2837 Clouds 16 1035 36 10000 0.5 0 17:20 29.08.2019
2838 Clouds 16 1035 36 10000 0.5 0 17:20 29.08.2019
2839 Clear 14 1035 44 10000 1.5 60 16:59 29.08.2019
2840 Clear 13 1020 44 0 0.75 178.935 16:40 29.08.2019
2841 Clear 10 1036 44 10000 0.75 178.935 16:22 29.08.2019
2842 Clear 10 1036 44 10000 0.75 178.935 16:22 29.08.2019
2843 Clear 10 1036 44 10000 0.75 178.935 15:40 29.08.2019
2844 Haze 8 1036 75 10000 1 0 15:21 29.08.2019
2845 Haze 8 1036 75 10000 1 0 14:56 29.08.2019
2846 Haze 6 1035 75 10000 0.5 212.951 14:37 29.08.2019
2847 Clear 3 1035 74 10000 1 310 14:19 29.08.2019
2848 Haze 2 1035 80 10000 0.5 212.951 13:54 29.08.2019
2849 Haze 2 1035 80 10000 0.5 212.951 13:36 29.08.2019
2850 Clouds 2 1034 74 10000 1 100 13:18 29.08.2019
2851 Clouds 2 1034 74 10000 1.5 310 12:55 29.08.2019
2852 Clouds 2 1034 74 10000 1.5 310 12:36 29.08.2019
2853 Mist 3 1034 74 10000 1.38 199.065 12:18 29.08.2019
2854 Mist 3 1034 74 10000 1.38 199.065 11:40 29.08.2019
2855 Clouds 4 1034 69 10000 0.5 360 11:20 29.08.2019
2856 Clouds 4 1034 69 10000 0.5 360 10:56 29.08.2019
2857 Clouds 4 1034 69 10000 0.5 360 10:38 29.08.2019
2858 Clouds 6 1034 60 10000 1 90 10:19 29.08.2019
2859 Clouds 6 1034 60 10000 1 90 09:41 29.08.2019
2860 Clouds 5 1034 65 10000 2.1 280 09:18 29.08.2019
2861 Clouds 5 1034 65 10000 2.1 280 08:45 29.08.2019
2862 Clouds 5 1034 65 10000 2.1 280 08:25 29.08.2019
2863 Clouds 5 1035 65 10000 2.1 300 07:54 29.08.2019
2864 Clouds 5 1035 65 10000 2.1 300 07:34 29.08.2019
2865 Clouds 6 1035 60 10000 1.5 290 06:59 29.08.2019
2866 Clouds 6 1035 60 10000 1.5 290 06:38 29.08.2019
2867 Clouds 9 1035 63 10000 1 130 05:52 29.08.2019
2868 Clouds 9 1035 63 10000 1 130 05:29 29.08.2019
2869 Clouds 10 1034 63 10000 2.6 100 04:48 29.08.2019
2870 Clouds 10 1034 63 10000 2.6 100 04:27 29.08.2019
2871 Clouds 14 1032 41 10000 2.6 320 01:54 29.08.2019
2872 Clouds 15 1031 33 10000 2.1 20 01:35 29.08.2019
2873 Clouds 16 1030 31 10000 2.6 40 00:47 29.08.2019
2874 Clouds 16 1030 31 10000 6.2 290 00:23 29.08.2019
2875 Clouds 17 1030 27 10000 6.7 300 23:58 28.08.2019
2876 Clouds 17 1030 27 10000 6.7 300 23:38 28.08.2019
2877 Clouds 18 1030 25 10000 4.1 10 23:20 28.08.2019
2878 Clouds 18 1030 25 10000 4.1 10 22:56 28.08.2019
2879 Clouds 19 1030 22 10000 4.1 20 22:37 28.08.2019
2880 Clouds 19 1030 20 10000 4.6 20 22:18 28.08.2019
2881 Clouds 20 1031 20 10000 4.6 20 21:41 28.08.2019
2882 Clouds 20 1031 20 10000 4.6 20 21:23 28.08.2019
2883 Clouds 19 1031 22 10000 4.1 40 20:56 28.08.2019
2884 Clouds 19 1031 22 10000 4.1 40 20:38 28.08.2019
2885 Clouds 20 1034 24 10000 2.6 130 20:20 28.08.2019
2886 Clouds 20 1034 24 10000 2.6 130 19:42 28.08.2019
2887 Clouds 20 1034 22 10000 2.1 140 19:22 28.08.2019
2888 Clouds 18 1034 25 10000 2.6 140 18:57 28.08.2019
2889 Clouds 18 1034 25 10000 2.6 140 18:37 28.08.2019
2890 Clouds 16 1036 31 10000 0.5 0 18:19 28.08.2019
2891 Clouds 15 1037 33 10000 2.1 20 17:38 28.08.2019
2892 Clouds 14 1037 35 10000 2.6 360 17:19 28.08.2019
2893 Clouds 12 1038 46 10000 2.1 50 16:45 28.08.2019
2894 Clouds 11 1038 35 10000 2.1 80 16:23 28.08.2019
2895 Clouds 11 1038 35 10000 2.1 80 15:59 28.08.2019
2896 Clouds 9 1037 35 10000 0.66 351.747 15:38 28.08.2019
2897 Clouds 8 1038 66 10000 1.5 100 15:19 28.08.2019
2898 Clouds 8 1038 66 10000 1.5 100 14:57 28.08.2019
2899 Haze 6 1037 66 10000 1.5 300 14:38 28.08.2019
2900 Clouds 4 1036 69 10000 1.5 290 14:20 28.08.2019
2901 Clouds 4 1036 69 10000 1.5 290 13:58 28.08.2019
2902 Haze 2 1036 74 10000 0.5 60 13:38 28.08.2019
2903 Clouds 3 1036 69 10000 1 80 13:19 28.08.2019
2904 Clouds 3 1035 69 10000 1.5 290 12:42 28.08.2019
2905 Clouds 3 1035 69 10000 1 290 12:23 28.08.2019
2906 Clouds 3 1035 69 10000 1 290 11:57 28.08.2019
2907 Clouds 3 1035 69 10000 1 290 11:38 28.08.2019
2908 Clouds 4 1035 69 10000 1.5 80 11:20 28.08.2019
2909 Clouds 4 1035 69 10000 1.5 80 10:41 28.08.2019
2910 Clouds 4 1035 69 10000 1.5 80 10:22 28.08.2019
2911 Clouds 5 1035 65 10000 2.1 280 09:59 28.08.2019
2912 Clouds 5 1035 65 10000 2.1 280 09:41 28.08.2019
2913 Clouds 5 1036 60 10000 1.53 42.775 09:19 28.08.2019
2914 Clouds 5 1036 60 10000 1.53 42.775 08:39 28.08.2019
2915 Clouds 7 1036 56 10000 1.5 250 08:21 28.08.2019
2916 Clouds 7 1036 56 10000 1.5 250 07:45 28.08.2019
2917 Clouds 7 1036 56 10000 1.5 250 07:25 28.08.2019
2918 Clouds 7 1036 56 10000 0.5 360 06:59 28.08.2019
2919 Clouds 7 1036 56 10000 0.5 360 06:40 28.08.2019
2920 Clouds 9 1035 49 10000 0.5 110 05:44 28.08.2019
2921 Clouds 11 1033 43 10000 2.1 90 03:32 28.08.2019
2922 Clouds 14 1031 33 10000 2.6 40 01:50 28.08.2019
2923 Clouds 14 1031 33 10000 2.6 40 01:29 28.08.2019
2924 Clouds 16 1030 29 10000 3.1 10 00:41 28.08.2019
2925 Clouds 17 1029 25 10000 2.6 360 23:59 27.08.2019
2926 Clouds 18 1029 22 10000 5.1 30 23:40 27.08.2019
2927 Clouds 18 1029 22 10000 5.1 30 23:40 27.08.2019
2928 Clouds 18 1030 20 10000 5.7 10 23:21 27.08.2019
2929 Clouds 18 1030 20 10000 5.7 10 22:56 27.08.2019
2930 Clouds 19 1030 16 10000 5.7 360 22:38 27.08.2019
2931 Clouds 19 1030 14 10000 4.1 70 22:19 27.08.2019
2932 Clouds 19 1030 14 10000 4.1 70 21:55 27.08.2019
2933 Clouds 19 1030 14 10000 4.1 70 21:55 27.08.2019
2934 Clouds 19 1031 17 10000 6.2 40 21:36 27.08.2019
2935 Clouds 19 1031 17 10000 5.7 30 21:18 27.08.2019
2936 Clouds 19 1032 17 10000 5.1 20 20:41 27.08.2019
2937 Clouds 18 1033 20 10000 5.1 10 20:21 27.08.2019
2938 Clouds 18 1033 20 10000 5.1 10 19:58 27.08.2019
2939 Clouds 18 1033 20 10000 5.1 10 19:40 27.08.2019
2940 Clouds 17 1034 25 10000 2.1 330 19:22 27.08.2019
2941 Clouds 17 1034 25 10000 2.6 10 18:43 27.08.2019
2942 Clear 16 1035 29 10000 3.1 180 18:19 27.08.2019
2943 Clear 16 1035 29 10000 3.1 180 17:59 27.08.2019
2944 Clear 15 1035 33 10000 2.1 270 17:41 27.08.2019
2945 Clear 15 1035 33 10000 2.1 270 17:22 27.08.2019
2946 Clear 12 1037 40 10000 2.6 90 16:47 27.08.2019
2947 Clear 12 1037 40 10000 2.6 90 16:28 27.08.2019
2948 Clear 11 1037 50 10000 1.5 110 15:58 27.08.2019
2949 Clear 11 1037 50 10000 1.5 110 15:40 27.08.2019
2950 Clear 8 1036 73 10000 0.5 0 15:21 27.08.2019
2951 Clear 8 1036 73 10000 0.5 0 14:57 27.08.2019
2952 Clear 8 1036 73 10000 0.5 0 14:37 27.08.2019
2953 Clear 3 1036 73 10000 1 280 14:18 27.08.2019
2954 Clouds 6 1035 70 10000 0.5 100 13:41 27.08.2019
2955 Clear 3 1035 74 10000 0.52 123.478 13:21 27.08.2019
2956 Clear 3 1034 74 10000 0.52 123.478 12:42 27.08.2019
2957 Clear 4 1034 69 10000 1.5 280 12:21 27.08.2019
2958 Clear 4 1034 69 10000 1.5 280 11:58 27.08.2019
2959 Clear 4 1034 69 10000 1.5 280 11:40 27.08.2019
2960 Clear 5 1034 75 10000 0.5 0 11:21 27.08.2019
2961 Clear 5 1034 75 10000 0.5 0 10:41 27.08.2019
2962 Clear 7 1034 65 10000 1.5 120 10:20 27.08.2019
2963 Clear 7 1034 65 10000 1.5 120 09:57 27.08.2019
2964 Clear 7 1034 65 10000 1.5 120 09:37 27.08.2019
2965 Clear 6 1034 70 10000 1.3 35.445 09:19 27.08.2019
2966 Clear 6 1034 70 10000 1.3 35.445 08:46 27.08.2019
2967 Clear 6 1034 70 10000 1.3 35.445 08:24 27.08.2019
2968 Clear 8 1035 61 10000 1.5 330 07:55 27.08.2019
2969 Clear 8 1035 61 10000 1.5 330 07:37 27.08.2019
2970 Clear 9 1035 57 10000 1.5 120 07:18 27.08.2019
2971 Clear 9 1035 57 10000 1.5 120 06:45 27.08.2019
2972 Clear 8 1035 61 10000 1.5 70 06:19 27.08.2019
2973 Clear 8 1035 61 10000 1.5 70 05:28 27.08.2019
2974 Clear 11 1033 50 10000 1.5 290 03:44 27.08.2019
2975 Clear 12 1031 46 10000 2.1 250 02:55 27.08.2019
2976 Clouds 14 1029 35 10000 6.7 40 01:46 27.08.2019
2977 Clouds 15 1029 33 10000 7.2 30 01:25 27.08.2019
2978 Clouds 15 1029 33 10000 7.2 30 00:49 27.08.2019
2979 Clouds 15 1029 33 10000 7.2 30 00:28 27.08.2019
2980 Clouds 21 1027 15 10000 2.1 330 23:44 26.08.2019
2981 Clouds 21 1027 15 10000 2.1 330 23:25 26.08.2019
2982 Clouds 21 1027 15 10000 3.1 350 22:59 26.08.2019
2983 Clouds 21 1027 15 10000 3.1 350 22:37 26.08.2019
2984 Clouds 21 1028 14 10000 4.1 100 22:18 26.08.2019
2985 Clouds 20 1029 15 10000 3.1 10 21:40 26.08.2019
2986 Clouds 20 1029 15 10000 3.1 10 21:22 26.08.2019
2987 Clouds 20 1030 14 10000 2.1 260 20:59 26.08.2019
2988 Clouds 20 1031 16 10000 2.1 230 20:40 26.08.2019
2989 Clouds 20 1031 16 10000 2.1 230 20:20 26.08.2019
2990 Clouds 19 1032 17 10000 3.1 230 19:58 26.08.2019
2991 Clouds 18 1033 22 10000 1.5 150 19:39 26.08.2019
2992 Clouds 18 1033 22 10000 1.5 150 19:18 26.08.2019
2993 Clouds 16 1034 26 10000 3.1 30 18:39 26.08.2019
2994 Clouds 16 1034 26 10000 3.1 30 18:21 26.08.2019
2995 Clouds 14 1035 30 10000 2.6 0 17:59 26.08.2019
2996 Clouds 14 1036 33 10000 1.5 0 17:41 26.08.2019
2997 Clouds 13 1036 37 10000 1.5 0 17:19 26.08.2019
2998 Clouds 13 1036 37 10000 1.5 0 16:56 26.08.2019
2999 Clouds 11 1037 50 10000 0.5 80 16:38 26.08.2019
3000 Clouds 11 1037 50 10000 0.5 80 16:18 26.08.2019
3001 Clouds 8 1037 61 10000 0.58 135.556 15:42 26.08.2019
3002 Clouds 8 1037 61 10000 0.89 163.807 15:22 26.08.2019
3003 Haze 6 1036 70 10000 1 240 14:56 26.08.2019
3004 Clouds 5 1036 73 10000 1 190 14:37 26.08.2019
3005 Clouds 5 1036 73 10000 1 190 14:18 26.08.2019
3006 Haze 2 1035 80 10000 1.5 110 13:42 26.08.2019
3007 Haze 2 1035 80 10000 1.5 110 13:21 26.08.2019
3008 Clouds 2 1035 80 10000 0.54 179.894 12:46 26.08.2019
3009 Clouds 2 1035 80 10000 0.54 122.186 12:28 26.08.2019
3010 Clouds 3 1034 74 10000 0.54 122.186 11:59 26.08.2019
3011 Clouds 3 1034 74 10000 0.54 122.186 11:38 26.08.2019
3012 Clouds 3 1034 74 10000 0.54 122.186 11:19 26.08.2019
3013 Clear 4 1034 81 10000 1 90 10:55 26.08.2019
3014 Clear 4 1034 81 10000 1 90 10:55 26.08.2019
3015 Clear 4 1034 81 10000 1 90 10:36 26.08.2019
3016 Clear 4 1034 81 10000 1 90 10:18 26.08.2019
3017 Clear 4 1034 69 10000 0.5 0 09:41 26.08.2019
3018 Clear 4 1034 69 10000 0.5 0 09:23 26.08.2019
3019 Clear 5 1034 74 10000 0.57 307.27 08:56 26.08.2019
3020 Clear 5 1034 74 10000 0.57 307.27 08:37 26.08.2019
3021 Clear 5 1034 74 10000 0.57 307.27 08:19 26.08.2019
3022 Clear 7 1034 65 10000 1 0 07:42 26.08.2019
3023 Clear 7 1034 65 10000 1 0 07:24 26.08.2019
3024 Clear 6 1034 74 10000 2.6 300 06:50 26.08.2019
3025 Clear 6 1034 74 10000 2.6 300 06:25 26.08.2019
3026 Clear 8 1034 68 10000 2.1 310 05:56 26.08.2019
3027 Clear 11 1033 53 10000 2.1 130 04:35 26.08.2019
3028 Clear 11 1032 53 10000 4.1 100 03:30 26.08.2019
3029 Clouds 14 1029 41 10000 3.1 330 01:41 26.08.2019
3030 Clouds 14 1029 41 10000 3.1 330 01:21 26.08.2019
3031 Clouds 17 1028 27 10000 7.2 340 00:42 26.08.2019
3032 Clouds 17 1028 27 10000 7.2 340 00:24 26.08.2019
3033 Clouds 19 1028 14 10000 5.7 250 23:43 25.08.2019
3034 Clouds 19 1028 14 10000 5.7 250 23:20 25.08.2019
3035 Clouds 19 1027 14 10000 5.1 280 22:58 25.08.2019
3036 Clouds 20 1028 12 10000 3.6 300 22:39 25.08.2019
3037 Clouds 20 1028 12 10000 3.6 300 22:20 25.08.2019
3038 Clouds 19 1028 13 10000 3.1 300 21:58 25.08.2019
3039 Clouds 19 1028 13 10000 3.1 300 21:58 25.08.2019
3040 Clouds 20 1028 12 10000 3.6 190 21:38 25.08.2019
3041 Clouds 21 1029 13 10000 5.1 310 21:18 25.08.2019
3042 Clouds 20 1030 19 10000 1.5 130 20:40 25.08.2019
3043 Clouds 20 1030 19 10000 1.5 130 20:20 25.08.2019
3044 Clouds 19 1031 20 10000 1.5 290 19:58 25.08.2019
3045 Clouds 19 1032 22 10000 1.5 210 19:39 25.08.2019
3046 Clouds 19 1032 22 10000 1.5 210 19:20 25.08.2019
3047 Clouds 18 1032 22 10000 2.6 240 18:58 25.08.2019
3048 Clouds 18 1032 22 10000 2.6 240 18:39 25.08.2019
3049 Clouds 17 1034 29 10000 1 150 18:21 25.08.2019
3050 Clouds 15 1034 41 10000 2.1 90 17:45 25.08.2019
3051 Clouds 15 1034 41 10000 2.1 90 17:25 25.08.2019
3052 Haze 14 1035 44 10000 2.1 70 16:59 25.08.2019
3053 Haze 12 1035 50 10000 1 340 16:37 25.08.2019
3054 Haze 12 1035 50 10000 1 340 16:18 25.08.2019
3055 Haze 9 1035 57 10000 1 360 15:43 25.08.2019
3056 Haze 9 1035 57 10000 1 360 15:25 25.08.2019
3057 Haze 6 1035 70 10000 1.5 90 14:43 25.08.2019
3058 Haze 6 1035 70 10000 1.5 90 14:25 25.08.2019
3059 Clouds 4 1035 76 10000 0.5 360 13:57 25.08.2019
3060 Haze 4 1034 76 10000 0.44 332.618 13:38 25.08.2019
3061 Haze 4 1034 77 10000 0.42 284.365 13:19 25.08.2019
3062 Clouds 3 1034 74 10000 0.42 284.365 12:48 25.08.2019
3063 Clouds 3 1034 74 10000 2.1 310 12:26 25.08.2019
3064 Clouds 5 1033 75 10000 0.75 288.678 11:59 25.08.2019
3065 Clouds 5 1033 75 10000 0.75 288.678 11:40 25.08.2019
3066 Clouds 5 1033 75 10000 0.75 288.678 11:21 25.08.2019
3067 Clouds 4 1033 82 10000 0.75 288.678 10:57 25.08.2019
3068 Clouds 4 1033 82 10000 0.75 288.678 10:39 25.08.2019
3069 Clouds 4 1033 82 10000 0.75 288.678 10:19 25.08.2019
3070 Clouds 5 1033 75 10000 3.1 260 09:44 25.08.2019
3071 Clear 5 1033 75 10000 3.1 260 09:25 25.08.2019
3072 Clear 5 1033 76 10000 1.5 250 08:48 25.08.2019
3073 Clear 5 1033 76 10000 1.5 250 08:30 25.08.2019
3074 Clear 8 1034 65 10000 1 0 07:55 25.08.2019
3075 Clear 8 1034 65 10000 1 0 07:34 25.08.2019
3076 Clear 8 1034 65 10000 1.47 312.623 06:45 25.08.2019
3077 Clouds 10 1034 57 10000 1.71 331.387 05:42 25.08.2019
3078 Clear 11 1034 57 10000 3.6 130 04:23 25.08.2019
3079 Rain 11 1032 57 10000 5.7 110 02:58 25.08.2019
3080 Rain 12 1031 54 10000 4.6 110 02:38 25.08.2019
3081 Clouds 14 1030 44 10000 5.7 120 01:20 25.08.2019
3082 Clouds 18 1028 31 10000 3.6 40 00:38 25.08.2019
3083 Clouds 19 1028 19 10000 7.2 290 00:20 25.08.2019
3084 Clouds 19 1028 19 10000 7.2 290 23:47 24.08.2019
3085 Clouds 20 1028 15 10000 5.7 300 23:22 24.08.2019
3086 Clouds 22 1028 12 10000 6.7 300 22:55 24.08.2019
3087 Clouds 23 1028 12 10000 5.1 290 22:37 24.08.2019
3088 Clouds 23 1028 12 10000 5.1 290 22:18 24.08.2019
3089 Clouds 22 1028 12 10000 1 300 21:55 24.08.2019
3090 Clouds 21 1029 14 10000 3.1 280 21:36 24.08.2019
3091 Clouds 21 1029 14 10000 3.1 280 21:18 24.08.2019
3092 Clouds 20 1031 16 10000 1.5 270 20:41 24.08.2019
3093 Clouds 20 1031 16 10000 1.5 270 20:20 24.08.2019
3094 Clouds 20 1032 18 10000 2.1 310 19:59 24.08.2019
3095 Clouds 19 1033 24 10000 1.5 0 19:40 24.08.2019
3096 Clouds 19 1033 24 10000 1.5 0 19:22 24.08.2019
3097 Clouds 18 1034 27 10000 1.5 0 18:57 24.08.2019
3098 Clouds 16 1035 27 10000 1.5 0 18:37 24.08.2019
3099 Clouds 16 1035 36 10000 1.5 340 18:19 24.08.2019
3100 Clouds 14 1036 41 10000 1.5 0 17:43 24.08.2019
3101 Clouds 14 1036 41 10000 1.5 0 17:24 24.08.2019
3102 Haze 11 1037 50 10000 1 30 16:44 24.08.2019
3103 Haze 11 1037 50 10000 1 30 16:20 24.08.2019
3104 Haze 10 1037 53 10000 0.5 200 15:57 24.08.2019
3105 Haze 8 1037 53 10000 0.5 0 15:38 24.08.2019
3106 Haze 8 1037 75 10000 0.5 0 15:20 24.08.2019
3107 Haze 4 1037 69 10000 1 90 14:42 24.08.2019
3108 Haze 4 1037 69 10000 1 90 14:22 24.08.2019
3109 Haze 3 1037 74 10000 1.05 256.734 13:56 24.08.2019
3110 Clouds 2 1037 74 10000 0.5 340 13:37 24.08.2019
3111 Clouds 2 1037 74 10000 0.5 340 13:18 24.08.2019
3112 Clouds 3 1036 74 10000 1.12 266.783 12:42 24.08.2019
3113 Clouds 3 1036 74 10000 1.35 287.056 12:24 24.08.2019
3114 Clouds 4 1035 69 10000 1.35 287.056 11:57 24.08.2019
3115 Clouds 4 1035 69 10000 1.35 287.056 11:38 24.08.2019
3116 Clouds 4 1035 69 10000 1.35 287.056 11:19 24.08.2019
3117 Clouds 3 1035 69 10000 1 290 10:43 24.08.2019
3118 Clouds 3 1035 69 10000 1 290 10:23 24.08.2019
3119 Clouds 4 1035 69 10000 1.35 287.056 09:44 24.08.2019
3120 Clouds 4 1035 69 10000 1.33 289.965 09:20 24.08.2019
3121 Clouds 5 1035 65 10000 1 100 08:56 24.08.2019
3122 Clouds 5 1035 65 10000 1 100 08:37 24.08.2019
3123 Clouds 5 1035 65 10000 1 100 08:18 24.08.2019
3124 Clouds 6 1035 56 10000 0.5 340 07:44 24.08.2019
3125 Clouds 6 1035 56 10000 0.5 340 07:24 24.08.2019
3126 Clouds 7 1036 56 10000 1.5 80 06:24 24.08.2019
3127 Clouds 8 1036 52 10000 1 100 05:40 24.08.2019
3128 Clouds 10 1035 68 10000 1.5 120 03:56 24.08.2019
3129 Clouds 11 1034 68 10000 2.1 100 03:35 24.08.2019
3130 Clouds 12 1033 40 10000 4.1 90 02:25 24.08.2019
3131 Clouds 12 1033 40 10000 4.1 90 02:25 24.08.2019
3132 Smoke 15 1032 33 10000 2.6 20 01:30 24.08.2019
3133 Smoke 16 1031 31 10000 3.1 10 00:52 24.08.2019
3134 Clouds 17 1031 23 10000 3.1 10 00:25 24.08.2019
3135 Clouds 19 1031 19 10000 1.5 0 23:57 23.08.2019
3136 Clouds 19 1032 15 10000 1.5 350 23:37 23.08.2019
3137 Clouds 19 1032 15 10000 1.5 350 23:18 23.08.2019
3138 Clouds 19 1032 15 10000 1 130 22:41 23.08.2019
3139 Clouds 19 1032 15 10000 1 130 22:23 23.08.2019
3140 Clouds 19 1034 17 10000 1.5 190 21:38 23.08.2019
3141 Clouds 19 1034 17 10000 1.5 190 21:20 23.08.2019
3142 Clouds 18 1034 17 10000 1 0 20:55 23.08.2019
3143 Clouds 18 1035 20 10000 2.6 0 20:37 23.08.2019
3144 Clouds 18 1035 20 10000 2.6 0 20:18 23.08.2019
3145 Clouds 16 1036 25 10000 3.1 0 19:42 23.08.2019
3146 Clouds 16 1036 25 10000 3.1 0 19:18 23.08.2019
3147 Clouds 15 1037 28 10000 2.1 0 18:44 23.08.2019
3148 Clouds 15 1037 28 10000 2.1 0 18:26 23.08.2019
3149 Clouds 15 1038 30 10000 1 80 17:47 23.08.2019
3150 Clouds 13 1039 35 10000 0.5 170 17:28 23.08.2019
3151 Clouds 13 1039 35 10000 1 80 16:59 23.08.2019
3152 Clouds 11 1039 43 10000 1.5 0 16:40 23.08.2019
3153 Clouds 11 1039 43 10000 1.5 0 16:22 23.08.2019
3154 Clouds 9 1039 49 10000 1.5 0 15:41 23.08.2019
3155 Clouds 9 1039 49 10000 1.5 0 15:22 23.08.2019
3156 Clouds 8 1039 49 10000 0.5 0 14:59 23.08.2019
3157 Haze 6 1038 60 10000 1.5 290 14:40 23.08.2019
3158 Haze 6 1038 60 10000 1.5 290 14:20 23.08.2019
3159 Clouds 5 1038 65 10000 1 0 13:56 23.08.2019
3160 Clouds 5 1038 65 10000 1 0 13:56 23.08.2019
3161 Haze 4 1037 64 10000 1 270 13:38 23.08.2019
3162 Haze 4 1037 64 10000 1 270 13:19 23.08.2019
3163 Clouds 3 1037 69 10000 0.5 290 12:57 23.08.2019
3164 Clouds 4 1037 64 10000 1 310 12:38 23.08.2019
3165 Clouds 4 1037 64 10000 1 310 12:20 23.08.2019
3166 Clouds 4 1037 64 10000 1.5 290 11:54 23.08.2019
3167 Clouds 4 1037 64 10000 1.5 290 11:36 23.08.2019
3168 Clouds 4 1037 64 10000 1.5 290 11:18 23.08.2019
3169 Clouds 5 1036 65 10000 1 90 10:42 23.08.2019
3170 Clouds 5 1036 65 10000 1 90 10:21 23.08.2019
3171 Clouds 5 1036 65 10000 1.41 29.484 09:48 23.08.2019
3172 Clouds 5 1036 65 10000 1.41 29.484 09:30 23.08.2019
3173 Clouds 5 1036 65 10000 2.1 290 08:59 23.08.2019
3174 Clouds 5 1036 65 10000 2.1 290 08:39 23.08.2019
3175 Clouds 5 1036 65 10000 2.1 290 08:19 23.08.2019
3176 Clouds 7 1037 56 10000 2.1 280 07:42 23.08.2019
3177 Clouds 7 1037 56 10000 2.1 280 07:24 23.08.2019
3178 Clouds 8 1037 52 10000 0.5 360 06:57 23.08.2019
3179 Clouds 8 1037 52 10000 0.5 360 06:37 23.08.2019
3180 Clouds 8 1037 52 10000 0.5 360 06:19 23.08.2019
3181 Clouds 10 1036 46 10000 2.1 290 05:33 23.08.2019
3182 Clouds 10 1036 46 10000 0.5 260 04:45 23.08.2019
3183 Clouds 12 1034 40 10000 2.1 30 02:58 23.08.2019
3184 Clouds 12 1034 37 10000 3.6 20 02:23 23.08.2019
3185 Clouds 13 1033 35 10000 5.1 30 01:40 23.08.2019
3186 Clouds 15 1032 30 10000 5.7 30 00:45 23.08.2019
3187 Clouds 15 1032 30 10000 5.7 30 00:19 23.08.2019
3188 Clouds 15 1032 33 10000 6.7 30 23:47 22.08.2019
3189 Clouds 17 1031 29 10000 6.7 30 23:25 22.08.2019
3190 Clouds 18 1031 27 10000 6.7 20 22:56 22.08.2019
3191 Clouds 19 1030 25 10000 6.2 20 22:38 22.08.2019
3192 Clouds 19 1030 25 10000 6.2 20 22:19 22.08.2019
3193 Clouds 18 1030 27 10000 7.2 10 21:55 22.08.2019
3194 Clouds 20 1031 22 10000 7.2 30 21:37 22.08.2019
3195 Clouds 20 1031 22 10000 7.2 30 21:19 22.08.2019
3196 Clouds 20 1031 19 10000 5.1 350 20:56 22.08.2019
3197 Clouds 20 1032 24 10000 6.2 20 20:38 22.08.2019
3198 Clouds 20 1032 24 10000 6.2 20 20:18 22.08.2019
3199 Clouds 20 1033 35 10000 2.1 210 19:40 22.08.2019
3200 Clouds 20 1033 35 10000 2.1 210 19:22 22.08.2019
3201 Clouds 18 1034 35 10000 2.6 260 18:59 22.08.2019
3202 Clouds 17 1035 33 10000 1 260 18:41 22.08.2019
3203 Clouds 17 1035 33 10000 1 260 18:20 22.08.2019
3204 Clouds 17 1035 47 10000 2.6 340 17:59 22.08.2019
3205 Clouds 17 1035 47 10000 2.6 340 17:41 22.08.2019
3206 Clouds 15 1037 38 10000 2.6 310 17:20 22.08.2019
3207 Clouds 15 1037 38 10000 2.6 310 16:57 22.08.2019
3208 Clouds 13 1037 47 10000 0.5 0 16:38 22.08.2019
3209 Clouds 13 1037 47 10000 0.5 0 16:20 22.08.2019
3210 Clouds 13 1037 47 10000 0.5 0 16:20 22.08.2019
3211 Clouds 13 1037 47 10000 0.5 0 16:20 22.08.2019
3212 Clouds 13 1037 47 10000 0.5 0 16:20 22.08.2019
3213 Clouds 13 1037 47 10000 1 0 15:55 22.08.2019
3214 Clouds 11 1037 50 10000 1.5 30 15:36 22.08.2019
3215 Clouds 11 1037 50 10000 1.5 30 15:18 22.08.2019
3216 Clouds 11 1037 50 10000 1.5 30 15:18 22.08.2019
3217 Clouds 11 1037 50 10000 1.5 30 15:18 22.08.2019
3218 Clouds 11 1037 50 10000 1.5 30 15:18 22.08.2019
3219 Clouds 8 1037 61 10000 1 290 14:41 22.08.2019
3220 Clouds 7 1037 65 10000 0.17 122.675 14:22 22.08.2019
3221 Clouds 7 1037 65 10000 0.17 122.675 13:59 22.08.2019
3222 Clouds 6 1036 70 10000 1 100 13:41 22.08.2019
3223 Clouds 6 1036 70 10000 1 100 13:21 22.08.2019
3224 Clouds 6 1036 69 10000 1.5 110 12:57 22.08.2019
3225 Clouds 6 1036 70 10000 1 300 12:38 22.08.2019
3226 Clouds 6 1036 70 10000 1 300 12:38 22.08.2019
3227 Clouds 5 1035 71 10000 0.9 95.217 12:19 22.08.2019
3228 Clouds 5 1035 71 10000 0.9 95.217 11:42 22.08.2019
3229 Clouds 5 1035 71 10000 0.9 95.217 11:21 22.08.2019
3230 Clouds 5 1035 71 10000 0.9 95.217 10:58 22.08.2019
3231 Clouds 5 1035 71 10000 0.9 95.217 10:40 22.08.2019
3232 Clouds 5 1035 71 10000 0.9 95.217 10:22 22.08.2019
3233 Clouds 6 1035 70 10000 3.1 280 09:57 22.08.2019
3234 Clouds 6 1035 70 10000 3.1 280 09:39 22.08.2019
3235 Clouds 6 1035 70 10000 3.1 280 09:20 22.08.2019
3236 Clouds 7 1035 65 10000 3.1 110 08:54 22.08.2019
3237 Clouds 7 1035 65 10000 3.1 110 08:36 22.08.2019
3238 Clouds 7 1035 65 10000 3.1 110 08:18 22.08.2019
3239 Clouds 8 1036 74 10000 1.5 70 07:39 22.08.2019
3240 Clouds 7 1036 74 10000 0.5 290 07:19 22.08.2019
3241 Clouds 7 1036 74 10000 0.5 290 06:48 22.08.2019
3242 Clouds 7 1036 72 10000 0.5 290 06:23 22.08.2019
3243 Clouds 7 1036 72 10000 2.1 90 05:36 22.08.2019
3244 Clouds 9 1035 72 10000 0.5 0 04:20 22.08.2019
3245 Clouds 13 1034 61 10000 2.6 30 02:38 22.08.2019
3246 Clouds 14 1032 61 10000 3.1 10 01:45 22.08.2019
3247 Clouds 15 1031 60 10000 4.6 10 01:22 22.08.2019
3248 Clouds 15 1031 60 10000 4.6 10 00:44 22.08.2019
3249 Clouds 15 1031 38 10000 4.6 10 00:25 22.08.2019
3250 Clouds 18 1031 27 10000 4.6 20 23:50 21.08.2019
3251 Clouds 20 1031 24 10000 1 350 23:30 21.08.2019
3252 Clouds 20 1031 22 10000 1 0 22:59 21.08.2019
3253 Clouds 21 1031 21 10000 2.6 360 22:41 21.08.2019
3254 Clouds 21 1031 21 10000 2.6 360 22:21 21.08.2019
3255 Clouds 21 1032 22 10000 1 0 21:58 21.08.2019
3256 Clouds 18 1032 25 10000 3.6 290 21:38 21.08.2019
3257 Clouds 18 1032 25 10000 3.6 290 21:20 21.08.2019
3258 Clouds 18 1032 27 10000 5.1 280 20:58 21.08.2019
3259 Clouds 17 1033 29 10000 3.1 10 20:39 21.08.2019
3260 Clouds 17 1033 29 10000 3.1 10 20:39 21.08.2019
3261 Clouds 17 1033 29 10000 3.1 10 20:20 21.08.2019
3262 Clouds 16 1035 31 10000 1.5 220 19:44 21.08.2019
3263 Clouds 16 1035 31 10000 1.5 220 19:25 21.08.2019
3264 Clouds 15 1037 34 10000 1.5 290 18:59 21.08.2019
3265 Clouds 17 1035 29 10000 3.1 270 18:59 21.08.2019
3266 Clouds 15 1037 34 10000 1.5 290 18:40 21.08.2019
3267 Clouds 15 1037 49 10000 1.5 290 18:22 21.08.2019
3268 Clouds 14 1037 49 10000 1 20 17:45 21.08.2019
3269 Clouds 14 1037 49 10000 1 20 17:25 21.08.2019
3270 Clouds 14 1037 49 10000 1 20 17:25 21.08.2019
3271 Clouds 13 1038 43 10000 2.1 70 16:59 21.08.2019
3272 Clouds 12 1038 46 10000 1.5 60 16:40 21.08.2019
3273 Clouds 12 1038 46 10000 1.5 60 16:21 21.08.2019
3274 Clouds 13 1038 47 10000 1.5 360 15:58 21.08.2019
3275 Clouds 13 1038 47 10000 1.5 360 15:58 21.08.2019
3276 -273 0 0 0 0 0 15:39 21.08.2019
3277 Haze 10 1038 57 10000 1 270 15:20 21.08.2019
3278 Haze 10 1037 53 10000 1 310 14:57 21.08.2019
3279 Haze 8 1037 61 10000 1.5 70 14:38 21.08.2019
3280 Haze 8 1037 61 10000 1.5 70 14:19 21.08.2019
3281 Haze 8 1037 61 10000 1.5 70 14:19 21.08.2019
3282 Haze 6 1036 75 10000 1.5 100 13:44 21.08.2019
3283 Haze 6 1036 69 10000 1.5 100 13:21 21.08.2019
3284 Clouds 6 1036 69 10000 1.5 100 12:59 21.08.2019
3285 Clouds 6 1036 69 10000 1.5 100 12:59 21.08.2019
3286 Clouds 6 1035 69 10000 1 280 12:40 21.08.2019
3287 Clouds 6 1035 77 10000 1 280 12:21 21.08.2019
3288 Clouds 5 1035 77 10000 1.5 300 11:57 21.08.2019
3289 Clouds 5 1035 77 10000 1.5 300 11:39 21.08.2019
3290 Clouds 5 1035 77 10000 1.5 300 11:20 21.08.2019
3291 Clouds 4 1035 69 10000 1.5 300 10:56 21.08.2019
3292 Clouds 4 1035 69 10000 1.5 300 10:37 21.08.2019
3293 Clouds 4 1035 69 10000 1.5 300 10:19 21.08.2019
3294 Clouds 6 1035 77 10000 1.24 45.262 09:42 21.08.2019
3295 Clouds 6 1035 76 10000 1.3 26.486 09:23 21.08.2019
3296 Clouds 5 1035 76 10000 1.3 26.486 08:58 21.08.2019
3297 Clouds 5 1035 76 10000 1.3 26.486 08:39 21.08.2019
3298 Clouds 5 1035 76 10000 1.3 26.486 08:20 21.08.2019
3299 Clouds 7 1035 76 10000 0.5 0 07:40 21.08.2019
3300 Clouds 7 1035 76 10000 0.5 0 07:20 21.08.2019
3301 Clouds 8 1036 76 10000 2.1 90 06:48 21.08.2019
3302 Clouds 8 1036 68 10000 2.1 90 06:21 21.08.2019
3303 Clouds 10 1035 53 10000 2.1 250 05:41 21.08.2019
3304 Clouds 10 1035 53 10000 2.1 250 05:19 21.08.2019
3305 Clouds 11 1034 50 10000 2.89 35.545 03:28 21.08.2019
3306 Clouds 15 1032 30 10000 1.5 120 01:42 21.08.2019
3307 Clouds 16 1030 31 10000 7.7 30 00:44 21.08.2019
3308 Clouds 16 1030 31 10000 7.7 30 00:24 21.08.2019
3309 Clouds 17 1030 29 10000 4.1 10 23:57 20.08.2019
3310 Clouds 18 1030 48 10000 5.7 20 23:38 20.08.2019
3311 Clouds 19 1030 25 10000 5.7 10 23:18 20.08.2019
3312 Clouds 18 1030 48 10000 5.7 20 23:18 20.08.2019
3313 Clouds 19 1030 25 10000 5.7 10 22:55 20.08.2019
3314 Clouds 19 1030 25 10000 5.7 10 22:36 20.08.2019
3315 Clouds 20 1030 48 10000 6.2 30 22:18 20.08.2019
3316 Clouds 20 1030 48 10000 6.2 30 21:56 20.08.2019
3317 Clouds 19 1031 29 10000 8.2 20 21:37 20.08.2019
3318 Clouds 19 1031 29 10000 8.2 20 21:18 20.08.2019
3319 Clouds 19 1031 29 10000 4.6 360 20:42 20.08.2019
3320 Clouds 19 1031 29 10000 4.6 360 20:24 20.08.2019
3321 Clouds 19 1032 34 10000 4.6 20 19:54 20.08.2019
3322 Clouds 19 1033 34 10000 2.6 30 19:36 20.08.2019
3323 Clouds 19 1033 34 10000 2.6 30 19:36 20.08.2019
3324 Clouds 19 1033 34 10000 2.6 30 19:18 20.08.2019
3325 Clouds 18 1034 31 10000 1 100 19:18 20.08.2019
3326 Clouds 18 1034 31 10000 1 100 18:54 20.08.2019
3327 Clouds 18 1034 31 10000 1 100 18:54 20.08.2019
3328 Clouds 14 1035 44 10000 1.5 30 18:36 20.08.2019
3329 Clouds 14 1035 44 10000 1.5 30 18:18 20.08.2019
3330 Clouds 14 1035 44 10000 1.5 30 17:39 20.08.2019
3331 Haze 14 1035 44 10000 1 340 17:20 20.08.2019
3332 Haze 12 1035 54 10000 3.6 100 16:48 20.08.2019
3333 Haze 12 1035 54 10000 3.6 100 16:28 20.08.2019
3334 Haze 12 1035 54 10000 1.5 70 15:59 20.08.2019
3335 Haze 11 1035 57 10000 1 170 15:41 20.08.2019
3336 Haze 10 1035 61 10000 1 100 15:18 20.08.2019
3337 Haze 10 1035 61 10000 1 100 15:18 20.08.2019
3338 -273 0 0 0 0 0 14:44 20.08.2019
3339 Haze 9 1035 66 10000 0.5 20 14:22 20.08.2019
3340 Haze 9 1034 66 10000 1.5 120 13:59 20.08.2019
3341 Haze 8 1034 70 10000 2.1 100 13:40 20.08.2019
3342 Clouds 8 1034 70 10000 1 0 13:22 20.08.2019
3343 Clouds 8 1034 70 10000 1 0 13:22 20.08.2019
3344 Clouds 8 1034 70 10000 1 0 12:59 20.08.2019
3345 Clouds 8 1033 70 10000 1 270 12:40 20.08.2019
3346 Clouds 6 1033 75 10000 0.5 0 12:22 20.08.2019
3347 Clouds 6 1033 75 10000 0.5 0 11:42 20.08.2019
3348 Clouds 5 1033 75 10000 0.5 280 11:22 20.08.2019
3349 Clouds 5 1033 75 10000 0.5 280 10:58 20.08.2019
3350 Clouds 5 1033 75 10000 0.5 280 10:40 20.08.2019
3351 Clouds 6 1033 75 10000 1.5 290 10:22 20.08.2019
3352 Clouds 6 1033 75 10000 1.5 290 09:59 20.08.2019
3353 Clouds 6 1033 75 10000 1.5 290 09:40 20.08.2019
3354 Clouds 8 1033 65 10000 0.87 2.041 09:21 20.08.2019
3355 Clouds 8 1033 65 10000 0.87 2.041 08:42 20.08.2019
3356 Clouds 9 1034 66 10000 0.87 2.041 08:24 20.08.2019
3357 Clouds 9 1034 66 10000 0.87 2.041 07:58 20.08.2019
3358 Clouds 9 1034 66 10000 0.87 2.041 07:39 20.08.2019
3359 Clouds 9 1034 66 10000 1.5 290 07:20 20.08.2019
3360 Clouds 9 1034 66 10000 1.5 290 06:44 20.08.2019
3361 Clouds 9 1034 66 10000 1.5 280 06:20 20.08.2019
3362 Clouds 9 1034 66 10000 1.5 280 05:42 20.08.2019
3363 Clouds 11 1034 62 10000 0.5 0 04:30 20.08.2019
3364 Clouds 12 1031 58 10000 4.6 100 02:51 20.08.2019
3365 Clouds 15 1029 44 10000 3.6 360 01:58 20.08.2019
3366 Clouds 16 1028 38 10000 5.1 30 01:21 20.08.2019
3367 Clouds 16 1028 38 10000 5.1 30 00:45 20.08.2019
3368 Rain 16 1028 38 10000 5.1 30 00:25 20.08.2019
3369 Clouds 21 1027 16 10000 1 70 23:50 19.08.2019
3370 Clouds 21 1027 16 10000 2.6 0 23:19 19.08.2019
3371 Clouds 21 1027 16 10000 2.6 0 22:59 19.08.2019
3372 Clouds 21 1027 16 10000 2.6 0 22:41 19.08.2019
3373 Clouds 21 1028 19 10000 1 210 22:21 19.08.2019
3374 Clouds 21 1028 19 10000 1 210 21:57 19.08.2019
3375 Clouds 21 1028 19 10000 1 210 21:57 19.08.2019
3376 Clouds 21 1028 19 10000 1 210 21:38 19.08.2019
3377 Clouds 21 1030 19 10000 1.64 334.838 21:19 19.08.2019
3378 Clouds 21 1030 19 10000 1.64 334.838 20:55 19.08.2019
3379 Clouds 21 1031 21 10000 1.5 0 20:37 19.08.2019
3380 Clouds 19 1032 24 10000 2.1 0 20:19 19.08.2019
3381 Clouds 19 1032 24 10000 2.1 0 19:54 19.08.2019
3382 Clouds 19 1032 24 10000 2.1 0 19:36 19.08.2019
3383 Clouds 18 1033 34 10000 2.6 300 19:18 19.08.2019
3384 Clouds 16 1034 34 10000 1 200 18:41 19.08.2019
3385 Clouds 16 1035 48 10000 2.6 230 18:22 19.08.2019
3386 Clouds 16 1035 48 10000 2.6 230 17:56 19.08.2019
3387 Haze 14 1036 41 10000 1.5 0 17:38 19.08.2019
3388 Haze 13 1036 47 10000 1.5 330 17:19 19.08.2019
3389 Haze 13 1036 47 10000 1.5 330 16:54 19.08.2019
3390 Haze 13 1036 47 10000 1.5 330 16:36 19.08.2019
3391 Haze 10 1036 57 10000 1 0 16:18 19.08.2019
3392 Haze 8 1036 65 10000 1.5 290 15:44 19.08.2019
3393 Haze 8 1036 65 10000 1.5 290 15:19 19.08.2019
3394 Haze 6 1035 70 10000 1.54 331.601 14:44 19.08.2019
3395 Haze 6 1035 70 10000 1.54 331.601 14:24 19.08.2019
3396 Haze 5 1035 64 10000 1.54 331.601 13:59 19.08.2019
3397 Clouds 5 1034 64 10000 1 110 13:40 19.08.2019
3398 Clouds 5 1034 63 10000 1 110 13:20 19.08.2019
3399 Clouds 5 1034 63 10000 1 70 12:58 19.08.2019
3400 Clouds 5 1034 63 10000 1 70 12:58 19.08.2019
3401 Clouds 4 1030 63 10000 1 80 12:40 19.08.2019
3402 Clouds 4 1030 69 10000 1 80 12:20 19.08.2019
3403 Clouds 3 1033 74 10000 0.5 290 11:42 19.08.2019
3404 Clouds 3 1033 74 10000 0.5 290 11:24 19.08.2019
3405 Clouds 5 1033 69 10000 1.5 90 10:59 19.08.2019
3406 Clouds 5 1033 69 10000 1.5 90 10:39 19.08.2019
3407 Clouds 5 1033 69 10000 1.5 90 10:19 19.08.2019
3408 Clouds 5 1033 69 10000 1.5 290 09:54 19.08.2019
3409 Clouds 5 1033 69 10000 1.5 290 09:36 19.08.2019
3410 Clouds 5 1033 71 10000 1.5 290 09:18 19.08.2019
3411 Clouds 6 1034 70 10000 2.1 300 08:41 19.08.2019
3412 Clouds 6 1034 70 10000 2.1 300 08:21 19.08.2019
3413 Clouds 7 1034 65 10000 2.1 300 07:52 19.08.2019
3414 Clouds 7 1034 65 10000 2.1 300 07:32 19.08.2019
3415 Clouds 8 1034 61 10000 1 280 06:59 19.08.2019
3416 Clouds 8 1034 61 10000 1 280 06:36 19.08.2019
3417 Clear 8 1033 65 10000 2.1 300 05:26 19.08.2019
3418 Clear 11 1033 57 10000 3.1 110 04:33 19.08.2019
3419 Clear 12 1032 54 10000 4.1 110 03:25 19.08.2019
3420 Rain 12 1030 54 10000 3.6 110 02:30 19.08.2019
3421 Rain 15 1029 44 10000 3.1 110 01:37 19.08.2019
3422 Clouds 19 1028 29 10000 3.1 40 00:46 19.08.2019
3423 Clouds 19 1028 29 10000 3.1 40 00:23 19.08.2019
3424 Clouds 20 1027 28 10000 5.1 20 23:43 18.08.2019
3425 Clouds 20 1027 28 10000 5.1 20 23:22 18.08.2019
3426 Clouds 20 1027 28 10000 5.1 20 23:22 18.08.2019
3427 Clouds 22 1027 19 10000 3.6 30 22:59 18.08.2019
3428 Clouds 23 1027 12 10000 3.1 300 22:39 18.08.2019
3429 Clouds 23 1027 12 10000 3.1 300 22:21 18.08.2019
3430 Clouds 24 1028 13 10000 3.1 0 21:56 18.08.2019
3431 Clouds 23 1028 11 10000 2.6 0 21:38 18.08.2019
3432 Clouds 23 1028 11 10000 2.6 0 21:20 18.08.2019
3433 Clouds 23 1029 11 10000 1.5 0 20:45 18.08.2019
3434 Clouds 23 1029 11 10000 1.5 0 20:45 18.08.2019
3435 Clear 23 1030 11 10000 0.5 220 20:26 18.08.2019
3436 Clear 22 1030 12 10000 0.5 20 19:59 18.08.2019
3437 Clear 21 1031 13 10000 2.6 0 19:40 18.08.2019
3438 Clear 21 1031 13 10000 2.6 0 19:22 18.08.2019
3439 Haze 21 1032 16 10000 1.5 40 18:56 18.08.2019
3440 Haze 19 1033 22 10000 1.5 0 18:38 18.08.2019
3441 Haze 19 1033 22 10000 1.5 0 18:19 18.08.2019
3442 Haze 15 1034 47 9000 0.5 0 17:43 18.08.2019
3443 Haze 15 1034 47 9000 0.5 0 17:19 18.08.2019
3444 Haze 15 1034 47 9000 0.5 0 17:19 18.08.2019
3445 Haze 15 1035 38 9000 1 0 16:59 18.08.2019
3446 Haze 12 1035 46 9000 1 30 16:41 18.08.2019
3447 Haze 12 1035 46 9000 1 30 16:21 18.08.2019
3448 Haze 10 1035 53 9000 1.5 0 15:59 18.08.2019
3449 Haze 8 1035 47 9000 1 0 15:39 18.08.2019
3450 Haze 8 1035 79 9000 1 0 15:20 18.08.2019
3451 Haze 8 1035 79 9000 1 0 15:20 18.08.2019
3452 Haze 7 1035 79 9000 1.5 70 14:56 18.08.2019
3453 Haze 5 1034 79 10000 1.5 90 14:37 18.08.2019
3454 Haze 3 1034 74 10000 0.91 228.802 14:19 18.08.2019
3455 Haze 3 1034 74 10000 0.91 228.802 13:55 18.08.2019
3456 Haze 3 1034 74 10000 0.91 228.802 13:36 18.08.2019
3457 Haze 3 1034 74 10000 0.91 228.802 13:18 18.08.2019
3458 Mist 3 1033 74 10000 0.5 290 12:40 18.08.2019
3459 Mist 3 1033 74 10000 0.5 290 12:22 18.08.2019
3460 Mist 5 1033 65 10000 1.5 60 11:54 18.08.2019
3461 Mist 5 1033 65 10000 1.5 60 11:36 18.08.2019
3462 Mist 5 1033 65 10000 1.5 60 11:18 18.08.2019
3463 Mist 4 1032 80 10000 0.73 263.643 10:41 18.08.2019
3464 Clouds 5 1033 80 10000 0.5 110 10:19 18.08.2019
3465 Clouds 5 1033 80 10000 0.5 110 09:48 18.08.2019
3466 Clouds 5 1033 72 10000 0.5 110 09:21 18.08.2019
3467 Clouds 6 1033 72 10000 0.5 320 08:54 18.08.2019
3468 Clouds 6 1033 72 10000 0.5 320 08:36 18.08.2019
3469 Clouds 6 1033 72 10000 0.5 320 08:18 18.08.2019
3470 Mist 6 1033 72 10000 2.1 290 07:42 18.08.2019
3471 Mist 8 1033 72 10000 2.1 80 07:23 18.08.2019
3472 Clear 9 1033 57 10000 0.5 290 05:47 18.08.2019
3473 Clear 10 1032 57 10000 1.5 140 04:52 18.08.2019
3474 Rain 12 1031 46 10000 2.6 120 03:23 18.08.2019
3475 Rain 14 1030 59 10000 2.6 260 02:46 18.08.2019
3476 Rain 15 1029 59 10000 4.1 280 02:23 18.08.2019
3477 Clouds 17 1029 27 10000 2.6 310 01:30 18.08.2019
3478 Clouds 18 1028 22 10000 4.1 30 00:56 18.08.2019
3479 Clouds 20 1028 18 10000 4.6 20 00:37 18.08.2019
3480 Clouds 20 1028 18 10000 4.6 20 00:18 18.08.2019
3481 Clouds 21 1027 16 10000 5.1 20 23:56 17.08.2019
3482 Clouds 22 1027 12 10000 4.6 30 23:36 17.08.2019
3483 Clouds 22 1027 12 10000 4.6 30 23:18 17.08.2019
3484 Clouds 22 1027 12 10000 4.6 30 23:18 17.08.2019
3485 Clouds 24 1027 11 10000 3.6 310 22:41 17.08.2019
3486 Clouds 24 1027 11 10000 3.6 310 22:23 17.08.2019
3487 Clouds 24 1028 12 10000 2.6 330 21:59 17.08.2019
3488 Clouds 23 1028 11 10000 2.6 280 21:40 17.08.2019
3489 Clouds 23 1028 11 10000 2.6 280 21:21 17.08.2019
3490 Haze 22 1030 13 10000 3.6 300 20:40 17.08.2019
3491 Haze 22 1030 13 10000 3.6 300 20:21 17.08.2019
3492 Haze 22 1030 15 10000 2.6 0 19:58 17.08.2019
3493 Clouds 21 1031 18 10000 2.1 330 19:39 17.08.2019
3494 Clouds 21 1031 18 10000 2.1 330 19:20 17.08.2019
3495 Haze 18 1033 20 10000 2.6 320 18:41 17.08.2019
3496 Haze 14 1035 26 10000 1.5 0 18:19 17.08.2019
3497 Haze 14 1035 26 10000 1.5 0 17:58 17.08.2019
3498 Haze 15 1034 22 10000 1.5 90 17:40 17.08.2019
3499 Haze 15 1034 22 10000 1.5 90 17:21 17.08.2019
3500 Haze 15 1034 22 10000 1.5 90 17:21 17.08.2019
3501 Haze 12 1035 30 10000 1 160 16:45 17.08.2019
3502 Haze 12 1035 30 10000 1 160 16:26 17.08.2019
3503 Haze 10 1035 37 10000 0.5 0 15:59 17.08.2019
3504 Clouds 8 1035 42 10000 0.5 60 15:40 17.08.2019
3505 Clouds 8 1035 42 10000 0.5 60 15:21 17.08.2019
3506 Clouds 5 1035 52 10000 1 110 14:43 17.08.2019
3507 Clouds 5 1035 52 10000 1 110 14:24 17.08.2019
3508 Clouds 1 1035 64 10000 1.06 191.067 13:56 17.08.2019
3509 Clouds 0 1034 76 10000 1.06 191.067 13:37 17.08.2019
3510 Clouds 0 1034 77 10000 0.95 185.807 13:18 17.08.2019
3511 Clouds 1 1034 64 10000 0.95 185.807 12:42 17.08.2019
3512 Clouds 1 1034 64 10000 0.81 260.098 12:19 17.08.2019
3513 Clouds 2 1033 59 10000 0.81 260.098 11:57 17.08.2019
3514 Clouds 2 1033 59 10000 0.81 260.098 11:36 17.08.2019
3515 Clouds 2 1033 59 10000 0.81 260.098 11:18 17.08.2019
3516 Clouds 2 1033 59 10000 0.81 260.098 10:39 17.08.2019
3517 Clouds 2 1033 59 10000 0.81 260.098 10:19 17.08.2019
3518 Clouds 3 1032 55 10000 0.81 260.098 09:50 17.08.2019
3519 Clouds 3 1032 55 10000 0.81 260.098 09:31 17.08.2019
3520 Clouds 4 1034 51 10000 1.1 329.627 08:54 17.08.2019
3521 Clouds 4 1034 51 10000 1.1 329.627 08:26 17.08.2019
3522 Clouds 4 1034 51 10000 1.1 329.627 07:53 17.08.2019
3523 Clouds 4 1034 51 10000 1.1 329.627 07:22 17.08.2019
3524 Clouds 4 1034 51 10000 1.1 329.627 07:22 17.08.2019
3525 Clouds 5 1034 44 10000 1.1 329.627 06:55 17.08.2019
3526 Clear 6 1034 41 10000 2.1 300 05:55 17.08.2019
3527 Clear 10 1034 31 10000 1 110 04:30 17.08.2019
3528 Clear 11 1033 27 10000 4.6 100 03:36 17.08.2019
3529 Clouds 15 1031 14 10000 1 190 01:48 17.08.2019
3530 Rain 17 1030 13 10000 5.1 40 01:29 17.08.2019
3531 Rain 18 1030 13 10000 4.6 20 00:55 17.08.2019
3532 Rain 19 1029 13 10000 3.6 30 00:31 17.08.2019
3533 Clouds 20 1029 12 10000 6.2 30 23:52 16.08.2019
3534 Clouds 22 1029 10 10000 6.2 20 23:30 16.08.2019
3535 Clouds 22 1029 9 10000 6.2 20 22:58 16.08.2019
3536 Clouds 23 1029 10 10000 3.1 220 22:39 16.08.2019
3537 Clouds 23 1029 10 10000 3.1 220 22:19 16.08.2019
3538 Clouds 23 1030 10 10000 4.1 310 21:42 16.08.2019
3539 Clouds 23 1030 10 10000 4.1 310 21:21 16.08.2019
3540 Clear 23 1031 10 10000 3.1 280 20:58 16.08.2019
3541 Clear 22 1031 11 10000 1.5 350 20:39 16.08.2019
3542 Clear 22 1031 11 10000 1.5 350 20:19 16.08.2019
3543 Clouds 20 1033 14 10000 1.5 270 19:44 16.08.2019
3544 Clear 20 1034 15 10000 2.1 230 19:23 16.08.2019
3545 Clear 20 1034 15 10000 2.1 230 18:55 16.08.2019
3546 Clear 18 1035 16 10000 2.1 10 18:36 16.08.2019
3547 Clear 18 1035 16 10000 2.1 10 18:18 16.08.2019
3548 Clear 15 1036 13 10000 1 50 17:44 16.08.2019
3549 Clear 15 1036 13 10000 1 50 17:25 16.08.2019
3550 Clear 13 1037 13 10000 1.5 70 16:56 16.08.2019
3551 Haze 11 1037 20 10000 1.5 100 16:37 16.08.2019
3552 Haze 11 1037 20 10000 1.5 100 16:18 16.08.2019
3553 Clear 7 1037 26 10000 0.5 40 15:41 16.08.2019
3554 Clear 7 1037 26 10000 0.5 40 15:22 16.08.2019
3555 Clear 3 1036 34 10000 1 100 14:58 16.08.2019
3556 Clear 3 1036 34 10000 1 100 14:39 16.08.2019
3557 Clear 3 1036 34 10000 1 100 14:19 16.08.2019
3558 Clear 0 1036 77 10000 1 110 13:57 16.08.2019
3559 Clear 0 1036 77 10000 1 270 13:37 16.08.2019
3560 Clear 0 1036 77 10000 1 270 13:37 16.08.2019
3561 Clear 0 1036 82 10000 1 270 13:19 16.08.2019
3562 Clear 1 1035 37 10000 1.5 80 12:39 16.08.2019
3563 Clear 1 1035 37 10000 1.5 80 12:20 16.08.2019
3564 Clear 1 1035 34 10000 2.1 290 11:42 16.08.2019
3565 Clear 1 1035 34 10000 2.1 290 11:24 16.08.2019
3566 Clear 1 1035 34 10000 2.1 290 11:24 16.08.2019
3567 Clear 2 1035 34 10000 2.1 100 10:54 16.08.2019
3568 Clear 2 1035 34 10000 2.1 100 10:36 16.08.2019
3569 Clear 2 1035 34 10000 2.1 100 10:36 16.08.2019
3570 Clear 2 1035 34 10000 2.1 100 10:18 16.08.2019
3571 Clear 2 1035 29 10000 0.5 0 09:38 16.08.2019
3572 Clear 2 1035 29 10000 0.5 0 09:18 16.08.2019
3573 Clear 3 1035 25 10000 1.5 310 08:56 16.08.2019
3574 Clear 3 1035 25 10000 1.5 310 08:37 16.08.2019
3575 Clear 3 1035 25 10000 1.5 310 08:18 16.08.2019
3576 Clear 4 1035 23 10000 1.5 80 07:42 16.08.2019
3577 Clear 4 1035 23 10000 1.5 80 07:24 16.08.2019
3578 Clear 5 1035 20 10000 1.5 300 06:33 16.08.2019
3579 Clear 6 1035 18 10000 1 90 05:58 16.08.2019
3580 Clear 6 1035 18 10000 1 90 05:32 16.08.2019
3581 Clear 14 1033 7 10000 2.1 0 03:19 16.08.2019
3582 Clear 15 1031 6 10000 5.1 20 01:44 16.08.2019
3583 Clear 15 1031 6 10000 5.1 20 01:24 16.08.2019
3584 Clear 17 1030 8 10000 6.7 30 00:43 16.08.2019
3585 Clear 17 1030 8 10000 6.7 30 00:22 16.08.2019
3586 Clear 18 1030 8 10000 6.7 30 23:46 15.08.2019
3587 Clear 19 1029 9 10000 7.2 40 23:22 15.08.2019
3588 Clear 20 1029 8 10000 5.7 60 22:59 15.08.2019
3589 Clear 21 1029 8 10000 4.6 40 22:40 15.08.2019
3590 Clear 21 1029 8 10000 4.6 40 22:21 15.08.2019
3591 Clear 21 1029 8 10000 4.6 20 21:56 15.08.2019
3592 Clear 21 1030 8 10000 5.1 30 21:38 15.08.2019
3593 Clouds 21 1030 8 10000 5.1 30 21:18 15.08.2019
3594 Clouds 21 1031 9 10000 1 120 20:43 15.08.2019
3595 Clouds 21 1031 9 10000 1 120 20:22 15.08.2019
3596 Clouds 21 1032 9 10000 3.1 140 19:58 15.08.2019
3597 Clouds 20 1032 9 10000 2.6 170 19:39 15.08.2019
3598 Clouds 20 1032 9 10000 2.6 170 19:21 15.08.2019
3599 Clouds 19 1033 17 10000 0.5 30 18:47 15.08.2019
3600 Clouds 17 1034 25 10000 1 20 18:23 15.08.2019
3601 Clouds 14 1035 35 10000 1 80 17:58 15.08.2019
3602 Clouds 14 1035 35 10000 1 80 17:38 15.08.2019
3603 Clouds 14 1035 35 10000 1 80 17:19 15.08.2019
3604 Clouds 12 1036 51 10000 1.5 80 16:57 15.08.2019
3605 Clouds 12 1036 51 10000 1.5 80 16:57 15.08.2019
3606 Clouds 10 1036 46 10000 1.5 0 16:38 15.08.2019
3607 Clouds 10 1036 46 10000 1.5 0 16:20 15.08.2019
3608 Clouds 7 1037 52 10000 1 70 15:38 15.08.2019
3609 Clouds 7 1037 52 10000 1 70 15:20 15.08.2019
3610 Clouds 6 1037 60 10000 1 90 14:56 15.08.2019
3611 Clouds 5 1036 60 10000 1.2 13.18 14:37 15.08.2019
3612 Clouds 5 1036 60 10000 1.2 13.18 14:18 15.08.2019
3613 Clouds 1 1036 74 10000 1 90 13:55 15.08.2019
3614 Clouds 1 1036 80 10000 1 0 13:37 15.08.2019
3615 Clouds 1 1036 80 10000 1 0 13:19 15.08.2019
3616 Clouds 1 1036 80 10000 1 0 13:19 15.08.2019
3617 Clouds 1 1035 74 10000 1.5 90 12:40 15.08.2019
3618 Clouds 1 1035 74 10000 1.5 90 12:20 15.08.2019
3619 Clouds 2 1035 64 10000 0.5 230 11:58 15.08.2019
3620 Clouds 2 1035 64 10000 0.5 230 11:38 15.08.2019
3621 Clouds 2 1035 64 10000 0.5 230 11:38 15.08.2019
3622 Clouds 2 1035 64 10000 0.5 230 11:20 15.08.2019
3623 Clouds 1 1035 74 10000 0.5 0 10:58 15.08.2019
3624 Clouds 1 1035 74 10000 0.5 0 10:37 15.08.2019
3625 Clouds 1 1035 74 10000 0.5 0 10:18 15.08.2019
3626 Clouds 3 1035 69 10000 0.75 310.11 09:44 15.08.2019
3627 Clear 3 1035 69 10000 0.66 354.046 09:22 15.08.2019
3628 Clear 3 1035 64 10000 0.5 0 08:39 15.08.2019
3629 Clear 3 1035 64 10000 0.5 0 08:21 15.08.2019
3630 Clear 4 1035 64 10000 1.5 280 07:59 15.08.2019
3631 Clear 4 1035 64 10000 1.5 280 07:40 15.08.2019
3632 Clear 4 1035 64 10000 1.5 280 07:21 15.08.2019
3633 Clear 6 1035 56 10000 0.66 354.046 06:48 15.08.2019
3634 Clear 6 1035 56 10000 0.66 354.046 06:26 15.08.2019
3635 Clear 7 1035 56 10000 1.51 4.906 05:31 15.08.2019
3636 Clear 8 1035 49 10000 0.5 0 04:58 15.08.2019
3637 Clear 9 1035 49 10000 1.5 350 04:19 15.08.2019
3638 Clear 10 1035 46 10000 1.5 80 03:26 15.08.2019
3639 Clear 11 1033 43 10000 2.43 15.307 02:35 15.08.2019
3640 Clear 15 1031 28 10000 2.1 130 01:45 15.08.2019
3641 Clouds 16 1030 21 10000 2.61 14.722 00:59 15.08.2019
3642 Clouds 18 1029 12 10000 2.61 14.722 00:37 15.08.2019
3643 Clouds 18 1029 12 10000 4.12 349.481 00:19 15.08.2019
3644 Clouds 18 1029 12 10000 4.12 349.481 00:19 15.08.2019
3645 Clouds 19 1029 13 10000 8.2 30 23:56 14.08.2019
3646 Clouds 20 1029 11 10000 6.2 30 23:37 14.08.2019
3647 Clouds 20 1029 11 10000 6.2 30 23:19 14.08.2019
3648 Clouds 21 1029 13 10000 5.1 30 22:42 14.08.2019
3649 Clouds 21 1029 13 10000 5.1 30 22:23 14.08.2019
3650 Clouds 22 1029 12 10000 5.1 20 21:57 14.08.2019
3651 Clouds 21 1030 18 10000 5.7 10 21:39 14.08.2019
3652 Clouds 21 1030 18 10000 5.7 10 21:21 14.08.2019
3653 Clouds 22 1030 21 10000 3.6 30 20:57 14.08.2019
3654 Clouds 20 1031 24 10000 2.1 130 20:39 14.08.2019
3655 Clouds 20 1031 24 10000 2.1 130 20:19 14.08.2019
3656 Clouds 20 1032 24 10000 2.1 150 19:54 14.08.2019
3657 Clouds 20 1032 24 10000 2.1 150 19:36 14.08.2019
3658 Clouds 18 1034 24 10000 1.5 200 19:18 14.08.2019
3659 Clouds 18 1034 24 10000 1.5 200 19:18 14.08.2019
3660 Clouds 17 1035 33 10000 2.6 310 18:43 14.08.2019
3661 Clouds 17 1035 33 10000 2.6 310 18:24 14.08.2019
3662 Clouds 16 1035 43 10000 1.5 330 17:59 14.08.2019
3663 Clouds 14 1036 41 10000 2.6 20 17:40 14.08.2019
3664 Clouds 14 1036 41 10000 2.6 20 17:22 14.08.2019
3665 Clouds 14 1036 41 10000 2.6 20 17:22 14.08.2019
3666 Clouds 15 1036 38 10000 1.5 50 16:57 14.08.2019
3667 Clouds 15 1036 38 10000 1.5 50 16:57 14.08.2019
3668 Clouds 13 1037 43 10000 1.5 0 16:39 14.08.2019
3669 Clouds 13 1037 43 10000 1.5 0 16:19 14.08.2019
3670 Clouds 9 1037 57 10000 2.1 90 15:43 14.08.2019
3671 Clouds 9 1037 57 10000 2.1 90 15:43 14.08.2019
3672 Clouds 9 1037 57 10000 2.1 90 15:19 14.08.2019
3673 Clouds 9 1037 57 10000 2.1 90 15:19 14.08.2019
3674 Clouds 8 1037 61 10000 2.1 110 14:57 14.08.2019
3675 Clouds 7 1036 74 10000 1 80 14:39 14.08.2019
3676 Clouds 7 1036 74 10000 1 80 14:19 14.08.2019
3677 Clouds 6 1036 74 10000 1.5 110 13:44 14.08.2019
3678 Clouds 6 1036 75 10000 1.5 110 13:24 14.08.2019
3679 Clouds 6 1036 75 10000 1.5 90 12:59 14.08.2019
3680 Clouds 6 1035 75 10000 0.98 170.972 12:40 14.08.2019
3681 Clouds 6 1035 77 10000 1.18 229.958 12:22 14.08.2019
3682 Clouds 5 1035 77 10000 1.18 229.958 11:57 14.08.2019
3683 Clouds 5 1035 77 10000 1.18 229.958 11:57 14.08.2019
3684 Clouds 5 1035 77 10000 1.18 229.958 11:39 14.08.2019
3685 Clouds 5 1035 77 10000 1.18 229.958 11:21 14.08.2019
3686 Clouds 4 1036 77 10000 1 130 10:45 14.08.2019
3687 Clouds 4 1036 77 10000 1 130 10:25 14.08.2019
3688 Clouds 3 1036 74 10000 1.18 229.958 09:58 14.08.2019
3689 Clouds 3 1036 74 10000 1.18 229.958 09:39 14.08.2019
3690 Clouds 3 1036 74 10000 1.16 329.537 09:19 14.08.2019
3691 Clouds 4 1036 79 10000 0.89 7.71 08:40 14.08.2019
3692 Clouds 4 1036 79 10000 0.89 7.71 08:21 14.08.2019
3693 Clouds 3 1037 74 10000 2.1 310 07:53 14.08.2019
3694 Clouds 3 1037 74 10000 2.1 310 07:33 14.08.2019
3695 Clouds 5 1037 79 10000 2.6 270 06:47 14.08.2019
3696 Clouds 7 1037 71 10000 2.05 31.29 05:54 14.08.2019
3697 Clouds 7 1037 71 10000 2.05 31.29 05:28 14.08.2019
3698 Clouds 9 1035 71 10000 2.1 60 03:38 14.08.2019
3699 Clouds 12 1034 59 10000 2.1 10 02:34 14.08.2019
3700 Clouds 12 1034 59 10000 4.1 30 01:54 14.08.2019
3701 Clouds 13 1033 58 10000 4.1 20 01:19 14.08.2019
3702 Clouds 16 1032 44 10000 2.6 20 23:55 13.08.2019
3703 Clouds 16 1032 44 10000 3.6 340 23:37 13.08.2019
3704 Clouds 16 1032 44 10000 3.6 340 23:18 13.08.2019
3705 Clouds 15 1032 38 10000 2.1 0 22:42 13.08.2019
3706 Clouds 15 1032 38 10000 2.1 0 22:24 13.08.2019
3707 Clouds 16 1033 36 10000 0.5 0 21:59 13.08.2019
3708 Clouds 16 1033 44 10000 3.1 0 21:39 13.08.2019
3709 Clouds 16 1033 24 10000 3.1 0 21:19 13.08.2019
3710 Clouds 15 1034 38 10000 3.6 50 20:57 13.08.2019
3711 Clouds 15 1034 24 10000 3.1 40 20:37 13.08.2019
3712 Clouds 15 1034 24 10000 3.1 40 20:18 13.08.2019
3713 Clouds 15 1035 24 10000 3.6 30 19:43 13.08.2019
3714 Clouds 15 1035 24 10000 3.6 30 19:22 13.08.2019
3715 Clouds 15 1035 33 10000 3.1 10 18:59 13.08.2019
3716 Clouds 16 1035 24 10000 1.5 0 18:41 13.08.2019
3717 Clouds 16 1035 33 10000 1.5 0 18:20 13.08.2019
3718 Clouds 12 1036 33 10000 1.5 0 17:43 13.08.2019
3719 Clouds 12 1036 33 10000 1.5 0 17:22 13.08.2019
3720 Clouds 12 1036 33 10000 1 90 16:57 13.08.2019
3721 Clouds 12 1037 46 10000 1.5 70 16:39 13.08.2019
3722 Clouds 12 1037 46 10000 1.5 70 16:21 13.08.2019
3723 Clear 10 1037 53 10000 1 0 15:59 13.08.2019
3724 Haze 9 1037 33 10000 0.5 80 15:38 13.08.2019
3725 Haze 8 1037 61 10000 0.5 0 15:19 13.08.2019
3726 Haze 9 1037 75 10000 0.5 80 15:19 13.08.2019
3727 Haze 5 1037 75 10000 0.5 0 14:42 13.08.2019
3728 Haze 5 1037 75 10000 0.5 0 14:20 13.08.2019
3729 Clouds 3 1036 74 10000 1 0 13:56 13.08.2019
3730 Clouds 1 1035 80 10000 0.5 60 13:37 13.08.2019
3731 Clouds 1 1035 80 10000 0.5 60 13:18 13.08.2019
3732 Haze 2 1034 80 10000 1.61 29.093 12:41 13.08.2019
3733 Haze 2 1034 80 10000 1.18 18.527 12:23 13.08.2019
3734 Mist 2 1034 80 10000 1.18 18.527 11:59 13.08.2019
3735 Mist 2 1034 80 10000 1.18 18.527 11:40 13.08.2019
3736 Mist 3 1034 74 10000 0.5 90 11:21 13.08.2019
3737 Mist 2 1034 80 10000 1.18 18.527 11:21 13.08.2019
3738 Mist 3 1034 74 10000 0.5 90 10:57 13.08.2019
3739 Mist 3 1034 74 10000 0.5 90 10:37 13.08.2019
3740 Mist 5 1034 75 10000 1 110 10:19 13.08.2019
3741 Mist 5 1034 75 10000 1 110 09:44 13.08.2019
3742 Mist 5 1034 75 10000 1 110 09:23 13.08.2019
3743 Mist 5 1034 75 10000 0.5 360 08:55 13.08.2019
3744 Mist 5 1034 75 10000 0.5 360 08:37 13.08.2019
3745 Mist 5 1034 75 10000 0.5 360 08:18 13.08.2019
3746 Clear 5 1034 76 10000 1 300 07:40 13.08.2019
3747 Clear 5 1034 76 10000 1 300 07:20 13.08.2019
3748 Clear 6 1035 76 10000 2.1 280 06:43 13.08.2019
3749 Clouds 7 1034 65 10000 0.5 90 05:46 13.08.2019
3750 Clouds 11 1034 53 10000 2.6 100 03:46 13.08.2019
3751 Clouds 14 1032 44 10000 1.5 40 02:22 13.08.2019
3752 Clear 16 1031 38 10000 3.6 10 01:26 13.08.2019
3753 Clear 17 1030 36 10000 2.6 350 00:47 13.08.2019
3754 Clear 18 1029 31 10000 3.6 20 00:19 13.08.2019
3755 Clear 22 1028 21 10000 5.1 20 23:43 12.08.2019
3756 Clear 22 1028 21 10000 5.1 20 23:21 12.08.2019
3757 Clear 23 1028 12 10000 2.1 130 22:40 12.08.2019
3758 Clear 23 1028 12 10000 2.1 130 22:20 12.08.2019
3759 Clear 23 1028 13 10000 2.6 260 21:57 12.08.2019
3760 Clear 22 1029 15 10000 1 0 21:38 12.08.2019
3761 Clear 22 1029 15 10000 1 0 21:19 12.08.2019
3762 Clear 22 1029 18 10000 5.1 290 20:58 12.08.2019
3763 Clear 22 1029 18 10000 5.1 290 20:58 12.08.2019
3764 Clouds 21 1030 18 10000 1 0 20:39 12.08.2019
3765 Clouds 21 1030 18 10000 1 0 20:20 12.08.2019
3766 Clouds 20 1031 20 10000 1.5 310 19:57 12.08.2019
3767 Clouds 19 1032 22 10000 2.1 310 19:38 12.08.2019
3768 Clouds 19 1032 22 10000 2.1 310 19:20 12.08.2019
3769 Clouds 18 1033 25 10000 1 240 18:56 12.08.2019
3770 Clouds 17 1034 27 10000 1.5 70 18:38 12.08.2019
3771 Clouds 17 1034 27 10000 1.5 70 18:19 12.08.2019
3772 Clouds 14 1035 35 10000 1 130 17:48 12.08.2019
3773 Clouds 14 1035 35 10000 1 130 17:29 12.08.2019
3774 Clouds 13 1035 32 10000 2.1 50 16:58 12.08.2019
3775 Clouds 11 1036 43 10000 1.5 60 16:39 12.08.2019
3776 Clouds 11 1036 43 10000 1.5 60 16:20 12.08.2019
3777 Clouds 9 1036 32 10000 0.5 0 15:59 12.08.2019
3778 Clouds 6 1036 60 10000 1 60 15:41 12.08.2019
3779 Clouds 6 1036 60 10000 1 60 15:41 12.08.2019
3780 Clouds 6 1036 60 10000 1 60 15:21 12.08.2019
3781 -273 0 0 0 0 0 14:57 12.08.2019
3782 Clouds 3 1035 69 10000 2.1 90 14:39 12.08.2019
3783 Clouds 3 1035 69 10000 2.1 90 14:39 12.08.2019
3784 Clouds 3 1035 69 10000 2.1 90 14:20 12.08.2019
3785 Clouds 3 1035 69 10000 2.1 90 14:20 12.08.2019
3786 Clouds 2 1035 74 10000 0.15 214.104 13:47 12.08.2019
3787 Clouds 1 1034 80 10000 1 310 13:24 12.08.2019
3788 Clear 2 1034 74 10000 0.36 260.141 12:59 12.08.2019
3789 Clear 1 1033 74 10000 0.36 260.141 12:41 12.08.2019
3790 Clear 1 1033 74 10000 0.65 289.277 12:19 12.08.2019
3791 -273 0 0 0 0 0 11:43 12.08.2019
3792 Clear 2 1033 74 10000 0.65 289.277 11:42 12.08.2019
3793 Clear 2 1033 74 10000 0.65 289.277 11:23 12.08.2019
3794 Clear 2 1034 74 10000 0.65 289.277 10:43 12.08.2019
3795 Clear 2 1034 74 10000 0.65 289.277 10:23 12.08.2019
3796 Clear 3 1033 69 10000 6.2 300 09:57 12.08.2019
3797 Clear 3 1033 69 10000 6.2 300 09:38 12.08.2019
3798 Clear 3 1033 69 10000 6.2 300 09:20 12.08.2019
3799 Clear 3 1034 64 10000 1.5 280 08:58 12.08.2019
3800 Clear 3 1034 64 10000 1.5 280 08:39 12.08.2019
3801 Clear 3 1034 64 10000 1.5 280 08:20 12.08.2019
3802 Clear 3 1034 64 10000 1.5 280 08:20 12.08.2019
3803 Clear 6 1034 60 10000 0.5 280 07:52 12.08.2019
3804 Clear 6 1034 60 10000 0.5 280 07:28 12.08.2019
3805 Clear 8 1034 73 10000 1 250 06:52 12.08.2019
3806 Clear 8 1034 73 10000 3.1 290 05:40 12.08.2019
3807 Clear 14 1032 33 10000 5.1 270 02:44 12.08.2019
3808 Clear 14 1032 33 10000 4.1 270 01:55 12.08.2019
3809 Clear 16 1030 26 10000 5.7 290 01:22 12.08.2019
3810 Clear 16 1030 26 10000 5.7 290 00:58 12.08.2019
3811 Clouds 18 1030 23 10000 7.2 290 00:39 12.08.2019
3812 Clouds 18 1030 23 10000 7.2 290 00:20 12.08.2019
3813 Clouds 19 1030 22 10000 7.7 290 23:56 11.08.2019
3814 Clouds 20 1029 20 10000 8.2 290 23:37 11.08.2019
3815 Clouds 20 1029 20 10000 8.2 290 23:18 11.08.2019
3816 Clouds 21 1029 19 10000 10.3 290 22:40 11.08.2019
3817 Clouds 21 1029 19 10000 10.3 290 22:20 11.08.2019
3818 Clouds 22 1029 17 10000 7.7 290 22:20 11.08.2019
3819 Clouds 22 1029 17 10000 7.7 290 21:59 11.08.2019
3820 Clouds 21 1030 18 10000 5.1 270 21:41 11.08.2019
3821 Clouds 21 1030 18 10000 5.1 270 21:22 11.08.2019
3822 Clear 21 1030 18 10000 2.6 0 20:58 11.08.2019
3823 Clouds 20 1032 19 10000 2.1 330 20:40 11.08.2019
3824 Clouds 20 1032 19 10000 2.1 330 20:22 11.08.2019
3825 Clouds 18 1033 23 10000 4.6 290 19:45 11.08.2019
3826 Clouds 18 1033 23 10000 4.6 290 19:20 11.08.2019
3827 Clear 18 1034 23 10000 2.1 360 18:54 11.08.2019
3828 Clear 16 1035 26 10000 1 20 18:36 11.08.2019
3829 Clear 16 1035 26 10000 1 20 18:18 11.08.2019
3830 Clear 13 1036 35 10000 2.1 310 17:41 11.08.2019
3831 Clear 13 1036 35 10000 2.1 310 17:20 11.08.2019
3832 Clear 11 1037 43 10000 1.5 30 16:57 11.08.2019
3833 Clear 10 1037 46 10000 2.1 50 16:38 11.08.2019
3834 Clear 10 1037 46 10000 2.1 50 16:20 11.08.2019
3835 Haze 7 1037 52 10000 0.5 40 15:44 11.08.2019
3836 Haze 7 1037 52 10000 0.5 40 15:44 11.08.2019
3837 Haze 7 1037 52 10000 0.5 40 15:25 11.08.2019
3838 Haze 6 1037 56 10000 1 120 14:59 11.08.2019
3839 Clear 2 1037 74 10000 0.5 300 14:39 11.08.2019
3840 Clear 2 1037 74 10000 0.5 300 14:21 11.08.2019
3841 Clear 0 1036 67 10000 0.5 350 13:45 11.08.2019
3842 Clear 0 1036 62 10000 0.59 250.183 13:26 11.08.2019
3843 Clear -1 1035 86 10000 1 90 12:58 11.08.2019
3844 Clear 1 1035 69 10000 0.59 250.183 12:38 11.08.2019
3845 Clear 1 1035 69 10000 0.33 298.695 12:19 11.08.2019
3846 Clear 1 1035 69 10000 0.33 298.695 11:40 11.08.2019
3847 Clear 1 1035 69 10000 0.33 298.695 11:40 11.08.2019
3848 Clear 1 1035 69 10000 0.33 298.695 11:22 11.08.2019
3849 Clear 2 1035 69 10000 0.33 298.695 10:56 11.08.2019
3850 Clear 2 1035 69 10000 0.33 298.695 10:56 11.08.2019
3851 Clear 2 1035 69 10000 0.33 298.695 10:37 11.08.2019
3852 Clear 2 1035 69 10000 0.33 298.695 10:19 11.08.2019
3853 Clear 2 1035 69 10000 0.33 298.695 09:43 11.08.2019
3854 Clear 2 1035 69 10000 0.92 16.432 09:24 11.08.2019
3855 Clear 3 1035 64 10000 0.77 8.162 08:56 11.08.2019
3856 Clear 3 1035 64 10000 0.77 8.162 08:38 11.08.2019
3857 Clear 3 1035 64 10000 0.77 8.162 08:20 11.08.2019
3858 Clear 3 1036 64 10000 1.5 310 07:32 11.08.2019
3859 Clear 4 1035 55 10000 2.6 300 06:52 11.08.2019
3860 Clear 4 1035 55 10000 2.6 300 06:31 11.08.2019
3861 Clear 6 1035 48 10000 1.5 80 04:46 11.08.2019
3862 Clear 11 1033 34 10000 2.6 310 02:53 11.08.2019
3863 Clear 13 1032 30 10000 5.7 280 01:58 11.08.2019
3864 Clouds 14 1031 26 10000 3.6 310 01:32 11.08.2019
3865 Clouds 14 1031 26 10000 6.2 300 00:56 11.08.2019
3866 Clouds 14 1031 26 10000 6.2 300 00:56 11.08.2019
3867 Clouds 16 1030 25 10000 6.2 310 00:36 11.08.2019
3868 Clouds 17 1030 23 10000 7.2 310 23:55 10.08.2019
3869 Clouds 18 1030 20 10000 8.2 300 23:34 10.08.2019
3870 Clouds 19 1030 20 10000 8.7 290 22:57 10.08.2019
3871 Clouds 19 1030 20 10000 7.7 290 22:38 10.08.2019
3872 Clouds 19 1030 20 10000 7.7 290 22:19 10.08.2019
3873 Clouds 19 1030 20 10000 2.6 320 21:41 10.08.2019
3874 Clouds 19 1030 20 10000 2.6 320 21:22 10.08.2019
3875 Clouds 19 1030 20 10000 2.6 320 21:22 10.08.2019
3876 Clouds 19 1031 20 10000 2.6 50 20:59 10.08.2019
3877 Clouds 19 1031 20 10000 2.6 50 20:59 10.08.2019
3878 Clouds 20 1031 20 10000 1 160 20:40 10.08.2019
3879 Clouds 20 1031 20 10000 1 160 20:20 10.08.2019
3880 Clouds 18 1032 23 10000 2.6 290 19:54 10.08.2019
3881 Clouds 18 1033 25 10000 3.1 0 19:36 10.08.2019
3882 Clouds 18 1033 25 10000 3.1 0 19:18 10.08.2019
3883 Clouds 16 1034 29 10000 1 0 18:38 10.08.2019
3884 Clouds 16 1034 29 10000 1 0 18:20 10.08.2019
3885 Clouds 13 1036 33 10000 1.5 30 17:40 10.08.2019
3886 Clouds 13 1036 33 10000 1.5 30 17:21 10.08.2019
3887 Clouds 10 1037 33 10000 1.5 90 16:43 10.08.2019
3888 Clouds 10 1037 33 10000 1.5 90 16:25 10.08.2019
3889 Clouds 9 1037 33 10000 1 30 15:51 10.08.2019
3890 Clear 7 1037 49 10000 1 70 15:23 10.08.2019
3891 Clear 3 1037 74 10000 1 80 14:44 10.08.2019
3892 Clear 3 1037 74 10000 1 80 14:21 10.08.2019
3893 Clear 3 1037 74 10000 1 80 14:21 10.08.2019
3894 Clear 1 1035 80 10000 0.66 38.524 13:42 10.08.2019
3895 Clear 1 1035 80 10000 0.66 38.428 13:21 10.08.2019
3896 Clear 0 1035 47 10000 0.66 38.428 12:57 10.08.2019
3897 Clear 1 1035 80 10000 0.66 38.428 12:39 10.08.2019
3898 Clear 1 1035 80 10000 0.23 323.881 12:21 10.08.2019
3899 Clear 1 1034 74 10000 1.5 290 11:42 10.08.2019
3900 Clear 1 1034 74 10000 1.5 290 11:23 10.08.2019
3901 Clear 1 1034 74 10000 1.5 290 11:23 10.08.2019
3902 Clear 2 1034 74 10000 0.5 110 10:58 10.08.2019
3903 Clear 2 1034 74 10000 0.5 110 10:38 10.08.2019
3904 Clear 2 1034 74 10000 0.5 110 10:19 10.08.2019
3905 Clear 2 1035 74 10000 0.23 323.881 09:43 10.08.2019
3906 Clear 2 1035 74 10000 1.35 20.952 09:24 10.08.2019
3907 Clear 4 1035 69 10000 1.27 17.083 08:56 10.08.2019
3908 Clear 4 1035 69 10000 1.27 17.083 08:37 10.08.2019
3909 Clear 4 1035 69 10000 1.27 17.083 08:18 10.08.2019
3910 Clear 5 1035 65 10000 0.5 0 07:46 10.08.2019
3911 Clear 5 1035 65 10000 0.5 0 07:22 10.08.2019
3912 Clear 6 1035 60 10000 3.1 290 06:46 10.08.2019
3913 Clear 8 1034 52 10000 1.89 11.084 05:46 10.08.2019
3914 Clear 8 1034 52 10000 1.89 11.084 05:20 10.08.2019
3915 Clear 11 1033 50 10000 1.5 0 03:54 10.08.2019
3916 Clear 12 1033 37 10000 3.1 300 02:48 10.08.2019
3917 Clear 13 1032 32 10000 2.6 300 01:56 10.08.2019
3918 Clouds 14 1031 33 10000 3.6 330 01:36 10.08.2019
3919 Clouds 16 1030 31 10000 3.6 340 01:18 10.08.2019
3920 Clouds 17 1030 20 10000 0.5 300 00:41 10.08.2019
3921 Clouds 17 1030 20 10000 0.5 300 00:19 10.08.2019
3922 Clear 20 1029 13 10000 5.1 320 23:39 09.08.2019
3923 Clear 20 1029 13 10000 5.1 320 23:21 09.08.2019
3924 Clear 20 1029 12 10000 1.5 0 22:55 09.08.2019
3925 Clear 20 1030 12 10000 3.1 0 22:37 09.08.2019
3926 Clear 20 1030 12 10000 1.5 0 22:18 09.08.2019
3927 Clear 19 1030 13 10000 1.5 0 21:41 09.08.2019
3928 Clouds 19 1030 13 10000 1.5 0 21:22 09.08.2019
3929 Clear 19 1031 13 10000 2.05 311.654 20:58 09.08.2019
3930 Clear 18 1032 16 10000 1.5 0 20:39 09.08.2019
3931 Clear 18 1032 16 10000 1.5 0 20:20 09.08.2019
3932 Clouds 17 1033 16 10000 1 0 19:43 09.08.2019
3933 Clouds 17 1033 16 10000 1 0 19:23 09.08.2019
3934 Clear 16 1034 19 10000 1.5 0 18:59 09.08.2019
3935 Clear 15 1035 28 10000 1.5 0 18:38 09.08.2019
3936 Clear 15 1035 28 10000 1.5 0 18:19 09.08.2019
3937 Clear 13 1036 30 10000 1 30 17:45 09.08.2019
3938 Clear 13 1036 30 10000 1 30 17:25 09.08.2019
3939 -273 0 0 0 0 0 16:56 09.08.2019
3940 Clear 10 1037 43 10000 1 0 16:37 09.08.2019
3941 Clear 10 1037 43 10000 1 0 16:18 09.08.2019
3942 Haze 6 1037 56 10000 1 0 15:42 09.08.2019
3943 Haze 6 1037 56 10000 1 0 15:22 09.08.2019
3944 Haze 5 1037 60 10000 0.5 0 14:58 09.08.2019
3945 Haze 4 1036 64 10000 0.59 292.449 14:40 09.08.2019
3946 Haze 4 1036 64 10000 0.59 292.449 14:21 09.08.2019
3947 Haze 0 1036 48 10000 1 0 13:46 09.08.2019
3948 Clear 0 1035 46 10000 0.59 291.783 13:23 09.08.2019
3949 Clear -1 1035 80 10000 2.1 290 12:58 09.08.2019
3950 Clear 0 1035 46 10000 1 100 12:40 09.08.2019
3951 Clear 0 1035 56 10000 1 100 12:21 09.08.2019
3952 Clear 0 1035 56 10000 1 70 11:41 09.08.2019
3953 Clear 0 1035 56 10000 1 70 11:21 09.08.2019
3954 Clear 2 1035 69 10000 1.5 300 10:57 09.08.2019
3955 Clear 2 1035 69 10000 1.5 300 10:38 09.08.2019
3956 Clear 2 1035 69 10000 1.5 300 10:20 09.08.2019
3957 Clear 2 1035 74 10000 2.1 280 09:41 09.08.2019
3958 Clouds 2 1035 74 10000 2.1 280 09:19 09.08.2019
3959 Clouds 3 1036 74 10000 1.28 332.189 08:45 09.08.2019
3960 Clouds 3 1036 74 10000 1.22 327.597 08:25 09.08.2019
3961 Clouds 6 1036 61 10000 1 280 07:58 09.08.2019
3962 Clouds 6 1036 61 10000 1 280 07:40 09.08.2019
3963 Clouds 6 1036 61 10000 1 280 07:40 09.08.2019
3964 Clouds 6 1036 61 10000 1 280 07:20 09.08.2019
3965 Clouds 6 1036 61 10000 1 280 06:44 09.08.2019
3966 Clear 6 1036 62 10000 1 280 06:21 09.08.2019
3967 Clear 8 1035 61 10000 1.5 270 05:37 09.08.2019
3968 Clouds 12 1033 46 10000 2.1 20 02:29 09.08.2019
3969 Clouds 14 1032 51 10000 2.6 20 01:26 09.08.2019
3970 Clouds 17 1031 29 10000 4.1 20 00:42 09.08.2019
3971 Clouds 17 1031 29 10000 4.1 20 00:23 09.08.2019
3972 Clouds 18 1031 27 10000 4.6 20 23:57 08.08.2019
3973 Clouds 20 1030 20 10000 4.1 30 23:37 08.08.2019
3974 Clouds 20 1030 20 10000 4.1 30 23:19 08.08.2019
3975 Clouds 20 1030 18 10000 4.1 10 22:55 08.08.2019
3976 Clouds 21 1030 13 10000 6.2 90 22:36 08.08.2019
3977 Clouds 21 1030 13 10000 6.2 90 22:18 08.08.2019
3978 Clouds 20 1031 13 10000 3.6 290 21:42 08.08.2019
3979 Clouds 20 1031 13 10000 3.6 290 21:42 08.08.2019
3980 Clouds 20 1031 13 10000 3.6 290 21:23 08.08.2019
3981 Clouds 20 1032 14 10000 1 120 20:58 08.08.2019
3982 Clouds 19 1033 14 10000 2.1 260 20:40 08.08.2019
3983 Clouds 19 1033 14 10000 2.1 260 20:19 08.08.2019
3984 Clouds 19 1033 15 10000 2.1 310 19:49 08.08.2019
3985 Clouds 18 1034 16 10000 1.5 270 19:29 08.08.2019
3986 Clouds 17 1035 21 10000 2.1 20 18:59 08.08.2019
3987 Clouds 17 1035 21 10000 2.1 20 18:40 08.08.2019
3988 Clouds 17 1035 21 10000 2.1 20 18:19 08.08.2019
3989 Clouds 12 1037 30 10000 1.5 360 17:42 08.08.2019
3990 Clouds 12 1037 30 10000 1.5 360 17:24 08.08.2019
3991 Clouds 10 1037 34 10000 1 60 16:59 08.08.2019
3992 Clouds 9 1038 34 10000 2.1 50 16:41 08.08.2019
3993 Clouds 9 1038 34 10000 2.1 50 16:23 08.08.2019
3994 Clouds 8 1038 39 10000 1 80 15:57 08.08.2019
3995 Clouds 6 1038 45 10000 1 60 15:38 08.08.2019
3996 Clouds 6 1038 45 10000 1 60 15:20 08.08.2019
3997 Clouds 1 1037 59 10000 1 110 14:38 08.08.2019
3998 Clouds 1 1037 59 10000 1 110 14:19 08.08.2019
3999 Clouds -2 1036 74 10000 0.76 335.156 13:43 08.08.2019
4000 Clouds -2 1036 74 10000 0.78 319.399 13:24 08.08.2019
4001 Clouds -1 1036 74 10000 0.5 50 12:58 08.08.2019
4002 Clouds -1 1036 74 10000 0.5 50 12:58 08.08.2019
4003 Clouds -1 1036 68 10000 0.5 80 12:38 08.08.2019
4004 Clear -1 1036 68 10000 0.5 80 12:18 08.08.2019
4005 Clear 0 1035 70 10000 1.21 278.204 11:43 08.08.2019
4006 Clear 0 1035 70 10000 1.21 278.204 11:24 08.08.2019
4007 Clear 0 1035 70 10000 1.5 110 10:42 08.08.2019
4008 Clear 0 1035 70 10000 1.5 110 10:22 08.08.2019
4009 Clear 2 1035 59 10000 0.5 100 09:58 08.08.2019
4010 Clear 2 1035 59 10000 0.5 100 09:39 08.08.2019
4011 Clear 2 1035 59 10000 0.5 100 09:20 08.08.2019
4012 Clear 2 1035 59 10000 2.1 290 08:42 08.08.2019
4013 Clear 2 1035 59 10000 2.1 290 08:21 08.08.2019
4014 Clear 3 1036 59 10000 2.1 280 07:56 08.08.2019
4015 Clear 3 1036 59 10000 2.1 280 07:37 08.08.2019
4016 Clear 3 1036 59 10000 2.1 280 07:18 08.08.2019
4017 Clear 5 1035 48 10000 1.5 100 06:41 08.08.2019
4018 Clear 5 1035 48 10000 2.6 300 05:58 08.08.2019
4019 Clear 5 1035 48 10000 2.6 300 05:39 08.08.2019
4020 Haze 6 1034 45 10000 1 270 04:18 08.08.2019
4021 Smoke 10 1033 31 10000 1.5 110 03:41 08.08.2019
4022 Clear 13 1032 20 10000 4.1 290 01:47 08.08.2019
4023 Smoke 17 1031 8 10000 3.1 360 00:59 08.08.2019
4024 Smoke 19 1030 8 10000 4.6 40 00:22 08.08.2019
4025 Smoke 20 1030 8 10000 5.1 60 23:38 07.08.2019
4026 Smoke 20 1030 8 10000 5.1 60 23:18 07.08.2019
4027 Smoke 21 1030 3 10000 5.7 20 22:41 07.08.2019
4028 Smoke 21 1030 3 10000 5.7 20 22:21 07.08.2019
4029 Clear 21 1030 6 10000 5.1 20 21:58 07.08.2019
4030 Clear 22 1030 6 10000 1.5 0 21:40 07.08.2019
4031 Clear 21 1031 8 10000 2.1 240 21:21 07.08.2019
4032 Clear 22 1030 6 10000 1.5 0 21:21 07.08.2019
4033 Clear 21 1031 8 10000 2.1 240 20:59 07.08.2019
4034 Clear 21 1032 9 10000 2.1 0 20:41 07.08.2019
4035 Clear 21 1033 9 10000 1.5 200 20:20 07.08.2019
4036 Clear 21 1033 9 10000 1.5 200 19:55 07.08.2019
4037 Clear 21 1033 9 10000 2.31 308.501 19:36 07.08.2019
4038 Clear 21 1033 9 10000 2.31 308.501 19:36 07.08.2019
4039 Clear 21 1033 9 10000 2.31 308.501 19:36 07.08.2019
4040 Clear 21 1033 9 10000 2.31 308.501 19:18 07.08.2019
4041 Haze 15 1035 14 10000 0.5 0 18:40 07.08.2019
4042 Haze 15 1035 14 10000 0.5 0 18:20 07.08.2019
4043 Haze 12 1037 18 10000 2.1 70 17:56 07.08.2019
4044 Haze 12 1037 18 10000 2.1 70 17:38 07.08.2019
4045 Haze 12 1037 18 10000 2.1 70 17:19 07.08.2019
4046 Haze 11 1037 18 10000 1.5 10 16:56 07.08.2019
4047 Haze 8 1037 26 10000 4.1 90 16:38 07.08.2019
4048 Haze 8 1037 26 10000 4.1 90 16:19 07.08.2019
4049 Haze 5 1038 32 10000 1 60 15:43 07.08.2019
4050 Haze 5 1038 32 10000 1 60 15:21 07.08.2019
4051 Haze 3 1037 40 10000 1.5 90 14:57 07.08.2019
4052 Haze 0 1037 55 10000 0.5 100 14:38 07.08.2019
4053 Haze 0 1037 55 10000 0.5 100 14:20 07.08.2019
4054 Clouds -1 1036 58 10000 1 90 13:40 07.08.2019
4055 Clouds -1 1036 54 10000 2.1 300 13:19 07.08.2019
4056 Clouds -1 1036 54 10000 2.1 300 12:57 07.08.2019
4057 Clouds -1 1035 54 10000 2.1 230 12:38 07.08.2019
4058 Clouds -1 1035 54 10000 2.1 230 12:19 07.08.2019
4059 Clouds -1 1035 54 10000 0.5 100 11:58 07.08.2019
4060 Clouds -1 1035 54 10000 0.5 100 11:40 07.08.2019
4061 Clouds -1 1035 54 10000 0.5 100 11:18 07.08.2019
4062 Clouds 0 1035 65 10000 0.89 285.804 10:41 07.08.2019
4063 Clouds 0 1035 65 10000 0.89 285.804 10:20 07.08.2019
4064 Clouds 1 1035 43 10000 1 80 09:59 07.08.2019
4065 Clouds 1 1035 43 10000 1 80 09:39 07.08.2019
4066 Clear 1 1035 43 10000 1 80 09:18 07.08.2019
4067 Clear 2 1035 40 10000 1 80 08:45 07.08.2019
4068 Clear 2 1035 40 10000 1 80 08:25 07.08.2019
4069 Clear 3 1035 37 10000 0.96 276.532 07:51 07.08.2019
4070 Clear 3 1035 37 10000 0.96 276.532 07:30 07.08.2019
4071 Clear 4 1035 32 10000 0.96 276.532 06:47 07.08.2019
4072 Clear 4 1035 32 10000 1.41 342.142 06:22 07.08.2019
4073 Clear 7 1022 56 0 1.41 342.142 05:42 07.08.2019
4074 Clear 7 1022 56 0 1.41 342.142 04:40 07.08.2019
4075 Clear 12 1033 16 10000 0.5 0 02:58 07.08.2019
4076 Clear 14 1032 14 10000 4.1 320 02:38 07.08.2019
4077 Clear 14 1032 11 10000 3.6 310 01:52 07.08.2019
4078 Clear 16 1031 11 10000 1 200 01:22 07.08.2019
4079 Clear 20 1030 5 10000 3.1 10 00:24 07.08.2019
4080 Clear 21 1030 4 10000 4.6 20 23:59 06.08.2019
4081 Clear 21 1029 2 10000 6.2 20 23:38 06.08.2019
4082 Clear 21 1029 2 10000 6.2 20 23:20 06.08.2019
4083 Clear 22 1030 4 10000 4.1 350 22:41 06.08.2019
4084 Clear 22 1030 4 10000 4.1 350 22:22 06.08.2019
4085 Clear 22 1030 4 10000 5.7 340 21:57 06.08.2019
4086 Clear 22 1030 6 10000 1.5 330 21:39 06.08.2019
4087 Clear 21 1031 7 10000 4.1 250 21:19 06.08.2019
4088 Clear 21 1031 7 10000 4.1 250 21:19 06.08.2019
4089 Clear 21 1031 7 10000 4.1 250 20:46 06.08.2019
4090 Clear 21 1032 8 10000 3.1 260 20:28 06.08.2019
4091 Clear 21 1033 9 10000 3.6 240 19:57 06.08.2019
4092 Clear 20 1033 11 10000 1 130 19:38 06.08.2019
4093 Clear 20 1033 11 10000 1 130 19:19 06.08.2019
4094 Clear 16 1035 12 10000 1.5 30 18:43 06.08.2019
4095 Clear 16 1035 12 10000 1.5 30 18:25 06.08.2019
4096 Clear 15 1036 9 10000 1.5 40 17:58 06.08.2019
4097 Clear 13 1037 11 10000 2.6 80 17:38 06.08.2019
4098 Clear 11 1037 13 10000 1 350 17:19 06.08.2019
4099 Clear 11 1037 13 10000 1 350 16:48 06.08.2019
4100 Clear 9 1037 15 10000 2.1 70 16:25 06.08.2019
4101 Haze 8 1037 19 10000 1.5 50 15:59 06.08.2019
4102 Haze 6 1038 22 10000 1.5 50 15:41 06.08.2019
4103 Haze 6 1038 22 10000 1.5 50 15:22 06.08.2019
4104 Haze 5 1037 25 10000 1 100 14:59 06.08.2019
4105 Haze 1 1037 34 10000 0.5 360 14:38 06.08.2019
4106 Haze 1 1037 34 10000 0.5 360 14:20 06.08.2019
4107 Clear -2 1037 42 10000 0.5 40 13:55 06.08.2019
4108 Clear -2 1036 46 10000 0.21 102.23 13:36 06.08.2019
4109 Clear -2 1036 46 10000 0.21 65.624 13:18 06.08.2019
4110 Clear -2 1036 42 10000 0.21 65.624 12:40 06.08.2019
4111 Clear -2 1036 42 10000 0.45 252.615 12:22 06.08.2019
4112 Clear 4 1022 79 0 0.45 252.615 11:46 06.08.2019
4113 Clear 4 1022 79 0 0.45 252.615 11:22 06.08.2019
4114 Clear 4 1022 79 0 0.45 252.615 10:59 06.08.2019
4115 Clear 4 1022 79 0 0.45 252.615 10:40 06.08.2019
4116 Clear 4 1022 79 0 0.45 252.615 10:22 06.08.2019
4117 Clear 4 1022 79 0 0.45 252.615 09:43 06.08.2019
4118 Clear 6 1023 69 0 0.82 299.9 09:23 06.08.2019
4119 Clear 6 1023 69 0 0.82 299.9 08:55 06.08.2019
4120 Clear 6 1022 73 0 0.87 276.767 08:36 06.08.2019
4121 Clear 6 1022 73 0 0.87 276.767 08:18 06.08.2019
4122 Clear 6 1022 73 0 0.87 276.767 07:31 06.08.2019
4123 Clear 6 1022 73 0 0.87 276.767 06:45 06.08.2019
4124 Clear 8 1023 69 0 1.4 354.147 06:24 06.08.2019
4125 Clear 8 1023 69 0 1.4 354.147 05:46 06.08.2019
4126 Clear 12 1033 11 10000 1.5 130 02:58 06.08.2019
4127 Clear 17 1031 7 10000 4.1 30 01:26 06.08.2019
4128 Clear 18 1030 7 10000 6.7 40 00:55 06.08.2019
4129 Clouds 20 1030 6 10000 5.1 30 00:23 06.08.2019
4130 Clouds 22 1029 6 10000 5.1 50 23:21 05.08.2019
4131 Clouds 23 1029 4 10000 2.6 50 22:58 05.08.2019
4132 Clouds 22 1030 5 10000 1 80 22:39 05.08.2019
4133 Clouds 22 1030 5 10000 1 80 22:20 05.08.2019
4134 Clouds 22 1031 5 10000 1.5 190 21:42 05.08.2019
4135 Clouds 22 1031 5 10000 1.5 190 21:21 05.08.2019
4136 Clear 22 1031 6 10000 2.6 240 20:58 05.08.2019
4137 Clear 21 1032 7 10000 2.1 140 20:39 05.08.2019
4138 Clear 21 1032 7 10000 2.1 140 20:21 05.08.2019
4139 Clear 20 1033 8 10000 2.6 320 19:57 05.08.2019
4140 Clear 19 1034 10 10000 2.1 10 19:38 05.08.2019
4141 Clear 19 1034 10 10000 2.1 10 19:19 05.08.2019
4142 Clear 17 1035 9 10000 2.6 50 18:41 05.08.2019
4143 Clear 17 1035 9 10000 2.6 50 18:20 05.08.2019
4144 Clear 17 1035 9 10000 2.6 50 18:20 05.08.2019
4145 Clear 15 1036 6 10000 1.5 340 17:50 05.08.2019
4146 Clear 12 1037 12 10000 1.5 30 17:30 05.08.2019
4147 Clear 11 1037 13 10000 1.5 360 16:59 05.08.2019
4148 Clear 9 1037 10 10000 0.5 0 16:41 05.08.2019
4149 Clear 9 1037 10 10000 0.5 0 16:22 05.08.2019
4150 Clear 5 1037 18 10000 1 60 15:41 05.08.2019
4151 Clear 5 1037 18 10000 1 60 15:20 05.08.2019
4152 Clear -1 1037 33 10000 1 310 14:42 05.08.2019
4153 Clear -1 1037 33 10000 1 310 14:22 05.08.2019
4154 Clear -4 1037 38 10000 1 310 13:49 05.08.2019
4155 Clear -3 1036 35 10000 1 110 13:24 05.08.2019
4156 Clear -3 1036 35 10000 1.5 80 12:56 05.08.2019
4157 Clear -3 1036 32 10000 1 0 12:37 05.08.2019
4158 Clear -3 1036 32 10000 1 0 12:18 05.08.2019
4159 Clear -2 1035 30 10000 1 290 11:42 05.08.2019
4160 Clear -2 1035 30 10000 1 290 11:24 05.08.2019
4161 Clear -2 1035 30 10000 1.5 290 10:46 05.08.2019
4162 Clear -2 1035 30 10000 1.5 290 10:28 05.08.2019
4163 Clear -1 1035 30 10000 0.5 0 09:56 05.08.2019
4164 Clear -1 1035 30 10000 0.5 0 09:56 05.08.2019
4165 Clear -1 1035 30 10000 0.5 0 09:37 05.08.2019
4166 Clear -1 1035 30 10000 0.5 0 09:19 05.08.2019
4167 Clear 0 1036 65 10000 1 290 08:43 05.08.2019
4168 Clear 0 1036 65 10000 1 290 08:23 05.08.2019
4169 Clear 1 1036 20 10000 1 290 07:47 05.08.2019
4170 Clear 1 1036 20 10000 1 290 07:27 05.08.2019
4171 Clear 2 1036 17 10000 1.5 290 06:51 05.08.2019
4172 Clear 5 1036 15 10000 1.5 280 05:53 05.08.2019
4173 Clear 5 1036 15 10000 1.5 280 05:23 05.08.2019
4174 Haze 7 1035 12 10000 0.5 280 04:35 05.08.2019
4175 Clear 8 1035 12 10000 2.1 320 03:47 05.08.2019
4176 Clouds 13 1033 7 10000 0.5 0 02:37 05.08.2019
4177 Clouds 15 1032 4 10000 5.7 20 01:40 05.08.2019
4178 Clouds 15 1032 4 10000 5.7 20 01:40 05.08.2019
4179 Clouds 16 1032 5 10000 4.1 10 00:56 05.08.2019
4180 Clouds 17 1031 7 10000 6.7 20 00:37 05.08.2019
4181 Clouds 17 1031 7 10000 6.7 20 00:18 05.08.2019
4182 Clouds 19 1031 8 10000 8.2 30 23:41 04.08.2019
4183 Clouds 19 1031 8 10000 8.2 30 23:21 04.08.2019
4184 Smoke 20 1031 8 10000 5.1 40 22:57 04.08.2019
4185 Clouds 14 1017 34 0 2.9 348.702 22:37 04.08.2019
4186 Clouds 14 1017 34 0 2.9 348.702 22:19 04.08.2019
4187 Clouds 22 1031 10 10000 3.6 30 21:45 04.08.2019
4188 Clouds 22 1031 10 10000 3.6 30 21:23 04.08.2019
4189 Clouds 21 1031 11 10000 4.6 20 20:56 04.08.2019
4190 Clouds 20 1032 18 10000 2.6 180 20:37 04.08.2019
4191 Clouds 20 1032 18 10000 2.6 180 20:18 04.08.2019
4192 Clouds 19 1034 20 10000 0.5 0 19:43 04.08.2019
4193 Clouds 19 1034 20 10000 0.5 0 19:24 04.08.2019
4194 Clouds 17 1036 29 10000 1.5 0 18:42 04.08.2019
4195 Clouds 17 1036 29 10000 1.5 0 18:21 04.08.2019
4196 Clouds 15 1036 33 10000 2.1 270 17:58 04.08.2019
4197 Clouds 14 1037 41 10000 1.5 300 17:40 04.08.2019
4198 Clouds 14 1037 41 10000 1.5 300 17:20 04.08.2019
4199 Clouds 11 1038 50 10000 2.1 70 16:42 04.08.2019
4200 Clouds 11 1038 50 10000 2.1 70 16:24 04.08.2019
4201 Clouds 8 1037 61 10000 1 0 15:45 04.08.2019
4202 Clouds 8 1037 61 10000 1 0 15:23 04.08.2019
4203 Haze 7 1037 65 10000 1.5 90 14:55 04.08.2019
4204 Haze 3 1037 70 10000 0.67 259.264 14:37 04.08.2019
4205 Haze 3 1037 70 10000 0.67 259.264 14:19 04.08.2019
4206 Clouds 2 1036 80 10000 1 70 13:42 04.08.2019
4207 Clouds 2 1036 80 10000 1 70 13:22 04.08.2019
4208 Clouds 2 1035 80 10000 0.94 291.994 12:45 04.08.2019
4209 Clouds 2 1035 80 10000 0.94 291.994 12:27 04.08.2019
4210 Clouds 3 1035 70 10000 1 80 11:57 04.08.2019
4211 Clouds 3 1035 70 10000 1 80 11:37 04.08.2019
4212 Clouds 3 1035 70 10000 1 80 11:19 04.08.2019
4213 Clouds 3 1035 70 10000 0.9 334.061 10:41 04.08.2019
4214 Clouds 3 1035 70 10000 0.9 334.061 10:20 04.08.2019
4215 Clouds 4 1034 70 10000 0.9 334.061 09:45 04.08.2019
4216 Clouds 4 1034 75 10000 1.44 352.563 09:22 04.08.2019
4217 Clouds 4 1035 74 10000 2.1 300 08:47 04.08.2019
4218 Clouds 4 1035 74 10000 2.1 300 08:26 04.08.2019
4219 Clouds 7 1035 70 10000 0.5 250 07:52 04.08.2019
4220 Clouds 6 1034 70 10000 2.1 290 06:57 04.08.2019
4221 Clouds 6 1034 70 10000 2.1 290 06:28 04.08.2019
4222 Clear 10 1033 61 10000 1 170 04:29 04.08.2019
4223 Clear 12 1031 54 10000 5.1 110 02:43 04.08.2019
4224 Clear 15 1029 41 10000 5.7 110 01:39 04.08.2019
4225 Clear 15 1029 41 10000 5.7 110 01:18 04.08.2019
4226 Clear 21 1028 18 10000 3.6 290 00:41 04.08.2019
4227 Clear 21 1028 18 10000 3.6 290 00:19 04.08.2019
4228 Clouds 21 1028 16 10000 2.1 0 23:41 03.08.2019
4229 Clouds 22 1028 15 10000 2.1 270 23:18 03.08.2019
4230 Clouds 22 1029 15 10000 2.6 320 22:45 03.08.2019
4231 Clouds 22 1029 15 10000 2.6 320 22:22 03.08.2019
4232 Clouds 21 1029 16 10000 1.5 0 21:59 03.08.2019
4233 Clouds 21 1030 16 10000 1 0 21:37 03.08.2019
4234 Clouds 21 1030 16 10000 1 0 21:19 03.08.2019
4235 Clouds 20 1032 20 10000 1.5 0 20:42 03.08.2019
4236 Clouds 20 1032 20 10000 1.5 0 20:22 03.08.2019
4237 Clouds 19 1033 24 10000 4.6 340 19:42 03.08.2019
4238 Clouds 19 1033 24 10000 4.6 340 19:24 03.08.2019
4239 Clouds 19 1033 24 10000 4.6 340 19:24 03.08.2019
4240 Clouds 18 1033 34 10000 3.6 10 18:56 03.08.2019
4241 Clouds 18 1034 25 10000 2.6 0 18:27 03.08.2019
4242 Clouds 17 1034 36 10000 1.5 120 17:50 03.08.2019
4243 Clouds 16 1035 31 10000 0.5 0 17:22 03.08.2019
4244 Clouds 15 1035 44 10000 1 0 16:57 03.08.2019
4245 Haze 12 1036 54 10000 1.5 80 16:37 03.08.2019
4246 Haze 12 1036 54 10000 1.5 80 16:19 03.08.2019
4247 Haze 9 1036 61 10000 2.1 90 15:43 03.08.2019
4248 Haze 9 1036 61 10000 2.1 90 15:23 03.08.2019
4249 Clouds 7 1035 70 10000 1 0 14:42 03.08.2019
4250 Clouds 7 1035 70 10000 1 0 14:21 03.08.2019
4251 Clouds 6 1035 75 10000 1.5 270 13:52 03.08.2019
4252 Clouds 6 1035 75 10000 1.5 270 13:52 03.08.2019
4253 Clouds 6 1035 75 10000 0.5 90 13:25 03.08.2019
4254 Clouds 6 1035 75 10000 1 120 12:58 03.08.2019
4255 Clouds 4 1034 80 10000 1 90 12:39 03.08.2019
4256 Clouds 4 1034 80 10000 1 90 12:21 03.08.2019
4257 Clouds 4 1034 80 10000 1.5 110 11:49 03.08.2019
4258 Clouds 4 1034 80 10000 1.5 110 11:27 03.08.2019
4259 Clouds 4 1034 80 10000 2.6 300 10:42 03.08.2019
4260 Clouds 4 1034 80 10000 2.6 300 10:22 03.08.2019
4261 Clouds 5 1034 80 10000 0.5 160 09:44 03.08.2019
4262 Clouds 5 1034 80 10000 0.5 160 09:22 03.08.2019
4263 Clouds 4 1035 80 10000 1 300 08:52 03.08.2019
4264 Clouds 5 1035 75 10000 0.5 320 07:55 03.08.2019
4265 Clouds 5 1035 75 10000 0.5 320 07:32 03.08.2019
4266 Clouds 7 1035 70 10000 2.6 330 06:39 03.08.2019
4267 Clouds 7 1034 65 10000 2.1 300 04:52 03.08.2019
4268 Clouds 12 1032 50 10000 2.6 110 02:39 03.08.2019
4269 Clouds 13 1032 47 10000 3.1 120 01:50 03.08.2019
4270 Clouds 15 1030 38 10000 5.7 130 00:49 03.08.2019
4271 Clouds 16 1030 38 10000 5.1 30 23:59 02.08.2019
4272 Clouds 16 1029 43 10000 5.7 20 23:40 02.08.2019
4273 Clouds 16 1029 43 10000 5.7 20 23:19 02.08.2019
4274 Clouds 17 1030 29 10000 4.6 30 22:57 02.08.2019
4275 Clouds 17 1029 43 10000 4.6 20 22:38 02.08.2019
4276 Clouds 17 1029 43 10000 4.6 20 22:19 02.08.2019
4277 Clouds 21 1029 21 10000 4.1 10 21:43 02.08.2019
4278 Clouds 21 1029 21 10000 4.1 10 21:25 02.08.2019
4279 Clouds 21 1029 18 10000 1.5 0 20:59 02.08.2019
4280 Clouds 22 1030 18 10000 2.6 80 20:40 02.08.2019
4281 Clouds 22 1030 18 10000 2.6 80 20:20 02.08.2019
4282 Clouds 20 1031 20 10000 2.1 190 19:46 02.08.2019
4283 Clouds 20 1031 20 10000 2.1 190 19:26 02.08.2019
4284 Haze 17 1032 28 10000 2.1 360 18:45 02.08.2019
4285 Haze 17 1032 48 10000 2.1 360 18:26 02.08.2019
4286 Haze 16 1033 36 10000 1.5 350 17:48 02.08.2019
4287 Haze 14 1033 41 10000 1.5 360 17:25 02.08.2019
4288 Haze 13 1034 43 10000 1 0 16:58 02.08.2019
4289 Clear 11 1034 53 10000 2.6 70 16:38 02.08.2019
4290 Clear 11 1034 53 10000 2.6 70 16:19 02.08.2019
4291 Clear 8 1034 61 10000 2.1 80 15:39 02.08.2019
4292 Clear 8 1034 61 10000 2.1 80 15:19 02.08.2019
4293 Clear 7 1034 65 10000 1 130 14:46 02.08.2019
4294 Clear 2 1033 80 10000 0.5 80 14:19 02.08.2019
4295 Clear 2 1033 80 10000 1.5 110 13:49 02.08.2019
4296 Clear 2 1033 80 10000 1.5 110 13:27 02.08.2019
4297 Clear 3 1032 84 10000 0.36 229.745 12:46 02.08.2019
4298 Clear 3 1032 87 10000 0.93 256.187 12:23 02.08.2019
4299 Clear 3 1032 74 10000 2.1 290 11:55 02.08.2019
4300 Clear 3 1032 74 10000 2.1 290 11:37 02.08.2019
4301 Clear 3 1032 74 10000 2.1 290 11:18 02.08.2019
4302 Clear 4 1032 87 10000 1.5 90 10:41 02.08.2019
4303 Clear 4 1032 87 10000 1.5 90 10:23 02.08.2019
4304 Clear 5 1032 87 10000 1 310 09:52 02.08.2019
4305 Clear 5 1032 87 10000 1 310 09:26 02.08.2019
4306 Clear 6 1032 80 10000 2.1 280 08:50 02.08.2019
4307 Clear 6 1032 80 10000 2.1 280 08:23 02.08.2019
4308 Clear 6 1033 80 10000 1.5 280 07:51 02.08.2019
4309 Clear 6 1033 80 10000 1.5 280 07:31 02.08.2019
4310 Clear 7 1032 80 10000 2.6 280 06:51 02.08.2019
4311 Clear 10 1032 53 10000 2.1 110 06:24 02.08.2019
4312 Clear 10 1032 53 10000 2.1 110 05:26 02.08.2019
4313 Clear 13 1030 73 10000 3.1 120 03:29 02.08.2019
4314 Clear 15 1029 62 10000 1 350 02:35 02.08.2019
4315 Clear 20 1027 18 10000 5.1 310 00:47 02.08.2019
4316 Clear 21 1026 14 10000 5.1 290 00:18 02.08.2019
4317 Clear 22 1026 13 10000 4.1 300 23:43 01.08.2019
4318 Clear 23 1026 11 10000 5.1 270 23:19 01.08.2019
4319 Clear 22 1027 11 10000 1.5 350 22:40 01.08.2019
4320 Clear 22 1027 11 10000 1.5 350 22:21 01.08.2019
4321 Clear 22 1028 11 10000 1 0 21:44 01.08.2019
4322 Clear 22 1028 11 10000 1 0 21:24 01.08.2019
4323 Clear 21 1028 13 10000 3.1 310 20:59 01.08.2019
4324 Clear 21 1029 13 10000 2.6 30 20:40 01.08.2019
4325 Clear 21 1029 13 10000 2.6 30 20:21 01.08.2019
4326 Clouds 20 1031 15 10000 3.1 40 19:44 01.08.2019
4327 Clouds 20 1031 15 10000 3.1 40 19:22 01.08.2019
4328 Clear 18 1032 20 10000 3.1 10 18:46 01.08.2019
4329 Clear 18 1032 20 10000 3.1 10 18:25 01.08.2019
4330 Clear 17 1033 23 10000 1.5 340 17:57 01.08.2019
4331 Clear 14 1034 26 10000 1.5 30 17:39 01.08.2019
4332 Clear 13 1034 24 10000 1.5 350 17:20 01.08.2019
4333 Clear 11 1035 27 10000 1 60 16:44 01.08.2019
4334 Clear 11 1035 27 10000 1 60 16:21 01.08.2019
4335 Haze 7 1035 39 10000 1 40 15:45 01.08.2019
4336 Haze 7 1035 39 10000 1 40 15:20 01.08.2019
4337 Clear 3 1034 51 10000 1 90 14:44 01.08.2019
4338 Clear 3 1034 51 10000 1 90 14:21 01.08.2019
4339 Clear 0 1034 79 10000 0.77 190.743 13:59 01.08.2019
4340 Clear 0 1033 79 10000 0.77 190.743 13:40 01.08.2019
4341 Clear 0 1033 81 10000 0.79 191.636 13:21 01.08.2019
4342 Clear 0 1033 81 10000 0.5 280 12:49 01.08.2019
4343 Clear 0 1033 84 10000 0.61 239.663 12:28 01.08.2019
4344 Clear 1 1032 55 10000 0.61 239.663 11:58 01.08.2019
4345 Clear 1 1032 55 10000 0.61 239.663 11:40 01.08.2019
4346 Clear 1 1032 55 10000 0.61 239.663 11:22 01.08.2019
4347 Clear 1 1032 55 10000 0.5 280 10:41 01.08.2019
4348 Clear 1 1032 55 10000 0.5 280 10:23 01.08.2019
4349 Clear 2 1033 55 10000 0.61 239.663 09:50 01.08.2019
4350 Clear 2 1033 55 10000 0.91 248.908 09:24 01.08.2019
4351 Clear 4 1033 51 10000 0.89 247.459 08:57 01.08.2019
4352 Clear 4 1033 51 10000 0.89 247.459 08:39 01.08.2019
4353 Clear 4 1033 51 10000 0.89 247.459 08:18 01.08.2019
4354 Clear 4 1034 44 10000 0.89 247.459 07:42 01.08.2019
4355 Clear 4 1034 44 10000 0.89 247.459 07:18 01.08.2019
4356 Clear 4 1034 48 10000 0.89 247.459 06:39 01.08.2019
4357 Rain 7 1034 42 10000 1.29 343.407 05:32 01.08.2019
4358 Rain 7 1034 42 10000 1.29 343.407 05:32 01.08.2019
4359 Clear 14 1031 26 10000 3.6 40 02:36 01.08.2019
4360 Clouds 15 1030 22 10000 3.1 20 01:41 01.08.2019
4361 Clouds 18 1029 20 10000 5.1 10 00:27 01.08.2019
4362 Clouds 19 1028 19 10000 4.6 10 23:59 31.07.2019
4363 Clouds 21 1028 9 10000 3.1 40 23:41 31.07.2019
4364 Clouds 21 1028 9 10000 3.1 40 23:20 31.07.2019
4365 Clouds 21 1029 10 10000 2.1 150 22:45 31.07.2019
4366 Clouds 21 1029 10 10000 2.1 150 22:25 31.07.2019
4367 Clouds 21 1030 11 10000 2.6 110 21:45 31.07.2019
4368 Clouds 21 1030 11 10000 2.6 110 21:23 31.07.2019
4369 Clouds 20 1031 11 10000 1 360 20:51 31.07.2019
4370 Clouds 20 1031 11 10000 2.6 110 20:25 31.07.2019
4371 Clouds 20 1032 11 10000 1.5 260 19:58 31.07.2019
4372 Clear 19 1033 11 10000 1.5 40 19:39 31.07.2019
4373 Clear 19 1033 11 10000 1.5 40 19:19 31.07.2019
4374 Clear 16 1034 17 10000 0.5 0 18:40 31.07.2019
4375 -273 0 0 0 0 0 18:40 31.07.2019
4376 Clear 16 1034 17 10000 0.5 0 18:22 31.07.2019
4377 Clear 13 1036 24 10000 2.1 110 17:45 31.07.2019
4378 Clear 13 1036 24 10000 2.1 110 17:20 31.07.2019
4379 -273 0 0 0 0 0 16:56 31.07.2019
4380 Clear 10 1037 29 10000 2.1 180 16:37 31.07.2019
4381 Clear 10 1037 29 10000 2.1 180 16:18 31.07.2019
4382 Clear 6 1037 45 10000 0.5 50 15:42 31.07.2019
4383 Clear 6 1037 45 10000 0.5 50 15:23 31.07.2019
4384 Clear 1 1036 64 10000 1 110 14:42 31.07.2019
4385 Clear 1 1036 64 10000 1 110 14:20 31.07.2019
4386 Clear -1 1036 68 10000 0.45 296.105 13:56 31.07.2019
4387 Clear -1 1035 68 10000 0.45 296.105 13:37 31.07.2019
4388 Clear -1 1035 68 10000 0.54 283.857 13:19 31.07.2019
4389 Clear 1 1035 64 10000 1.5 90 12:43 31.07.2019
4390 Clear 1 1035 64 10000 1.5 90 12:25 31.07.2019
4391 Clear 1 1034 59 10000 0.62 260.583 11:40 31.07.2019
4392 Clear 1 1034 59 10000 0.62 260.583 11:21 31.07.2019
4393 Clear 2 1034 55 10000 0.62 260.583 10:57 31.07.2019
4394 Clear 2 1034 55 10000 0.62 260.583 10:39 31.07.2019
4395 Clear 2 1034 55 10000 0.62 260.583 10:20 31.07.2019
4396 Clear 2 1034 55 10000 0.62 260.583 09:43 31.07.2019
4397 Clear 2 1034 55 10000 0.77 327.234 09:24 31.07.2019
4398 Clear 3 1035 55 10000 0.68 322.61 08:44 31.07.2019
4399 Clear 3 1035 55 10000 0.68 322.61 08:24 31.07.2019
4400 Clear 3 1035 51 10000 0.68 322.61 07:53 31.07.2019
4401 Clear 3 1035 51 10000 0.68 322.61 07:33 31.07.2019
4402 Clear 6 1035 41 10000 1.61 5.352 05:24 31.07.2019
4403 Clear 8 1034 36 10000 1.5 290 04:21 31.07.2019
4404 Clouds 17 1030 14 10000 4.6 10 00:41 31.07.2019
4405 Clouds 18 1030 13 10000 4.1 30 23:51 30.07.2019
4406 Clouds 20 1030 12 10000 5.7 50 23:30 30.07.2019
4407 Clouds 20 1030 12 10000 6.2 40 22:59 30.07.2019
4408 Clouds 21 1030 11 10000 3.6 80 22:40 30.07.2019
4409 Clouds 22 1030 11 10000 4.1 20 22:21 30.07.2019
4410 Clouds 21 1031 12 10000 1 0 21:38 30.07.2019
4411 Clouds 21 1031 12 10000 4.6 40 21:19 30.07.2019
4412 Clouds 21 1031 12 10000 4.6 40 20:56 30.07.2019
4413 Clouds 21 1032 12 10000 0.5 0 20:38 30.07.2019
4414 Clouds 21 1033 10 10000 3.1 50 20:19 30.07.2019
4415 Clouds 24 1033 10 10000 3.1 50 19:47 30.07.2019
4416 Clear 20 1033 12 10000 1.5 100 19:28 30.07.2019
4417 Clear 24 1033 13 10000 1.5 150 18:48 30.07.2019
4418 Clear 18 1035 17 10000 1 40 18:25 30.07.2019
4419 Clear 15 1035 21 10000 2.1 360 17:58 30.07.2019
4420 Clear 13 1036 26 10000 1.5 80 17:40 30.07.2019
4421 Clear 13 1036 24 10000 2.1 0 17:18 30.07.2019
4422 Haze 11 1036 32 10000 1 50 16:44 30.07.2019
4423 Haze 9 1037 39 10000 1 0 16:19 30.07.2019
4424 Haze 15 1037 45 10000 1 0 15:40 30.07.2019
4425 Haze 7 1037 45 10000 1 0 15:22 30.07.2019
4426 Haze 1 1036 64 10000 0.45 97.662 14:43 30.07.2019
4427 Haze 1 1036 64 10000 0.45 97.662 14:23 30.07.2019
4428 Haze -1 1036 74 10000 0.45 97.662 13:56 30.07.2019
4429 Clear 0 1035 68 10000 0.45 97.662 13:37 30.07.2019
4430 Clear 0 1035 70 10000 0.47 94.389 13:19 30.07.2019
4431 Clear 0 1034 70 10000 1 310 12:43 30.07.2019
4432 Clear 0 1034 71 10000 1 310 12:24 30.07.2019
4433 Clear 0 1034 71 10000 1 310 12:24 30.07.2019
4434 Clear 0 1034 71 10000 0.5 300 11:46 30.07.2019
4435 Clear 0 1034 71 10000 0.5 300 11:23 30.07.2019
4436 Clear 2 1033 59 10000 2.1 290 10:56 30.07.2019
4437 Clear 2 1033 59 10000 2.1 290 10:38 30.07.2019
4438 Clear 2 1033 59 10000 2.1 290 10:20 30.07.2019
4439 Clear 3 1033 59 10000 1.5 280 09:46 30.07.2019
4440 Clear 3 1033 59 10000 1.5 280 09:27 30.07.2019
4441 Clear 3 1034 59 10000 1 310 08:39 30.07.2019
4442 Clear 3 1034 59 10000 1 310 08:18 30.07.2019
4443 Clear 4 1034 55 10000 1.5 290 07:40 30.07.2019
4444 Clear 4 1034 55 10000 1.5 290 07:22 30.07.2019
4445 Clear 5 1034 52 10000 1.5 280 06:43 30.07.2019
4446 Clear 6 1034 52 10000 2.1 310 05:35 30.07.2019
4447 Clear 10 1033 39 10000 1.37 357.565 04:42 30.07.2019
4448 Clouds 16 1030 26 10000 3.6 310 01:23 30.07.2019
4449 Clouds 19 1029 17 10000 3.1 360 00:27 30.07.2019
4450 Clouds 19 1029 17 10000 3.1 360 00:27 30.07.2019
4451 Clouds 19 1029 17 10000 1.5 0 23:59 29.07.2019
4452 Clouds 19 1029 17 10000 3.1 30 23:40 29.07.2019
4453 Clouds 19 1029 19 10000 3.1 360 23:21 29.07.2019
4454 Clouds 19 1029 19 10000 3.1 360 22:55 29.07.2019
4455 Clouds 20 1029 15 10000 3.1 300 22:37 29.07.2019
4456 Clouds 20 1029 15 10000 3.6 320 22:18 29.07.2019
4457 Clouds 21 1029 15 10000 3.1 290 21:41 29.07.2019
4458 Clouds 21 1029 15 10000 3.1 290 21:23 29.07.2019
4459 Clouds 22 1030 13 10000 1.5 300 20:57 29.07.2019
4460 Clouds 22 1030 13 10000 1.5 300 20:57 29.07.2019
4461 Clouds 21 1031 15 10000 2.1 0 20:38 29.07.2019
4462 Clouds 21 1031 15 10000 2.1 0 20:19 29.07.2019
4463 Clouds 20 1032 16 10000 0.5 0 19:45 29.07.2019
4464 Clouds 20 1032 16 10000 0.5 0 19:23 29.07.2019
4465 Clouds 19 1033 17 10000 2.1 220 18:57 29.07.2019
4466 Clear 18 1034 23 10000 1 0 18:38 29.07.2019
4467 Clear 18 1034 23 10000 1 0 18:19 29.07.2019
4468 Clear 16 1035 29 10000 0.5 0 17:47 29.07.2019
4469 Clear 16 1035 29 10000 0.5 0 17:27 29.07.2019
4470 Clear 14 1035 35 10000 1 0 16:47 29.07.2019
4471 Clear 12 1035 40 10000 1.5 60 16:29 29.07.2019
4472 Clear 11 1036 43 10000 1.5 40 15:54 29.07.2019
4473 Clear 17 1035 49 10000 1 0 15:36 29.07.2019
4474 Clear 7 1035 56 10000 1 0 14:59 29.07.2019
4475 Haze 5 1035 65 10000 1 0 14:40 29.07.2019
4476 Haze 5 1035 65 10000 1 0 14:21 29.07.2019
4477 Clear 2 1034 69 10000 0.7 169.982 13:45 29.07.2019
4478 Clear 2 1034 69 10000 0.68 174.623 13:24 29.07.2019
4479 Clear 2 1034 74 10000 0.68 174.623 12:45 29.07.2019
4480 Clear 2 1034 74 10000 0.68 215.391 12:26 29.07.2019
4481 Clear 3 1033 69 10000 1.5 300 11:59 29.07.2019
4482 Clear 3 1033 69 10000 1.5 300 11:39 29.07.2019
4483 Clear 5 1034 65 10000 1.5 100 11:18 29.07.2019
4484 Clear 5 1034 65 10000 1.5 100 10:42 29.07.2019
4485 Clear 5 1034 65 10000 1.5 100 10:21 29.07.2019
4486 Clear 5 1033 65 10000 0.68 215.391 09:43 29.07.2019
4487 Clear 5 1033 65 10000 1.23 231.885 09:21 29.07.2019
4488 Clear 5 1033 65 10000 1.23 231.885 09:21 29.07.2019
4489 Clear 5 1034 60 10000 1.19 232.184 08:43 29.07.2019
4490 Clear 5 1034 60 10000 1.19 232.184 08:24 29.07.2019
4491 Clear 5 1035 60 10000 2.6 320 07:46 29.07.2019
4492 Clear 5 1035 60 10000 2.6 320 07:26 29.07.2019
4493 Clear 8 1034 52 10000 1.5 160 06:37 29.07.2019
4494 Clear 10 1034 43 10000 1 150 05:32 29.07.2019
4495 Clouds 15 1031 28 10000 3.1 260 02:49 29.07.2019
4496 Clouds 15 1030 28 10000 2.1 300 01:48 29.07.2019
4497 Clouds 17 1029 25 10000 3.6 310 01:27 29.07.2019
4498 Clouds 17 1029 21 10000 3.1 270 00:56 29.07.2019
4499 Clouds 18 1029 18 10000 4.6 260 00:23 29.07.2019
4500 Clouds 20 1029 14 10000 3.1 240 23:41 28.07.2019
4501 Clouds 20 1029 14 10000 3.1 240 23:22 28.07.2019
4502 Clouds 20 1029 14 10000 3.1 240 23:22 28.07.2019
4503 Clouds 21 1029 12 10000 2.1 40 22:43 28.07.2019
4504 Clouds 21 1029 12 10000 2.1 40 22:24 28.07.2019
4505 Clouds 21 1029 40 10000 2.6 20 21:50 28.07.2019
4506 Clouds 21 1030 14 10000 2.1 300 21:20 28.07.2019
4507 Clouds 21 1030 40 10000 4.1 310 20:49 28.07.2019
4508 Clouds 21 1031 15 10000 1.5 320 20:30 28.07.2019
4509 Clouds 20 1032 37 10000 3.1 100 19:57 28.07.2019
4510 Clouds 19 1033 20 10000 2.6 60 19:38 28.07.2019
4511 Clouds 19 1033 20 10000 2.6 60 19:20 28.07.2019
4512 Clouds 16 1035 26 10000 1.5 100 18:45 28.07.2019
4513 Clouds 16 1035 46 10000 1.5 100 18:25 28.07.2019
4514 Clouds 15 1036 46 10000 1.5 80 17:55 28.07.2019
4515 Clouds 13 1036 43 10000 1.5 20 17:55 28.07.2019
4516 Clouds 13 1036 43 10000 1.5 20 17:37 28.07.2019
4517 Clouds 13 1036 43 10000 1.5 20 17:19 28.07.2019
4518 Clouds 10 1037 53 10000 2.1 340 16:41 28.07.2019
4519 Clouds 10 1037 53 10000 2.1 340 16:41 28.07.2019
4520 Clouds 10 1037 53 10000 2.1 340 16:22 28.07.2019
4521 Clouds 6 1037 70 10000 1.5 100 15:44 28.07.2019
4522 Clouds 6 1037 70 10000 1.5 100 15:25 28.07.2019
4523 Clouds 5 1036 74 10000 1.5 110 14:39 28.07.2019
4524 Clouds 5 1036 74 10000 1.5 110 14:20 28.07.2019
4525 Clouds 4 1036 74 10000 1.5 100 13:56 28.07.2019
4526 Clouds 5 1035 74 10000 2.1 80 13:37 28.07.2019
4527 Clouds 5 1035 71 10000 2.1 80 13:19 28.07.2019
4528 Clouds 5 1035 80 10000 1 100 12:42 28.07.2019
4529 Clouds 5 1035 80 10000 1 100 12:23 28.07.2019
4530 Clear 4 1034 75 10000 2.1 100 11:50 28.07.2019
4531 Clear 4 1034 75 10000 2.1 100 11:28 28.07.2019
4532 Clear 4 1034 75 10000 1.5 80 10:56 28.07.2019
4533 Clear 4 1034 75 10000 1.5 80 10:37 28.07.2019
4534 Clear 4 1034 75 10000 1.5 80 10:18 28.07.2019
4535 Clear 4 1034 75 10000 0.92 277.537 09:40 28.07.2019
4536 Clear 4 1034 74 10000 1.21 302.377 09:20 28.07.2019
4537 Clear 4 1035 72 10000 1.11 299.764 08:41 28.07.2019
4538 Clear 4 1035 72 10000 1.5 90 08:21 28.07.2019
4539 Clear 4 1035 72 10000 1.5 90 07:40 28.07.2019
4540 Clear 6 1035 72 10000 2.6 280 06:59 28.07.2019
4541 Clear 6 1035 72 10000 2.6 280 06:33 28.07.2019
4542 Clear 9 1034 57 10000 2.6 90 05:19 28.07.2019
4543 Rain 12 1032 50 10000 3.6 110 02:37 28.07.2019
4544 Clouds 14 1031 41 10000 3.1 340 01:32 28.07.2019
4545 Clouds 16 1035 31 10000 3.6 360 00:52 28.07.2019
4546 Clouds 17 1030 29 10000 4.1 20 00:30 28.07.2019
4547 Clouds 18 1030 27 10000 3.6 20 23:53 27.07.2019
4548 Clouds 18 1029 25 10000 3.1 20 23:28 27.07.2019
4549 Clouds 18 1029 20 10000 3.1 50 22:46 27.07.2019
4550 Clouds 20 1030 18 10000 1 0 22:28 27.07.2019
4551 Clouds 20 1030 19 10000 1 0 21:47 27.07.2019
4552 Clouds 20 1030 19 10000 1 0 21:24 27.07.2019
4553 Clouds 19 1031 20 10000 1.5 140 20:57 27.07.2019
4554 Clear 19 1032 19 10000 3.1 320 20:39 27.07.2019
4555 Clear 19 1032 19 10000 3.1 320 20:19 27.07.2019
4556 Clear 18 1034 17 10000 1 0 19:40 27.07.2019
4557 Clear 18 1034 17 10000 1 0 19:21 27.07.2019
4558 Clear 15 1035 24 10000 1 310 18:47 27.07.2019
4559 Clear 15 1035 24 10000 1 310 18:29 27.07.2019
4560 Clear 14 1036 28 10000 2.1 0 17:50 27.07.2019
4561 Clear 13 1036 32 10000 0.5 0 17:32 27.07.2019
4562 Clear 12 1037 37 10000 1.5 360 16:56 27.07.2019
4563 Clear 10 1037 46 10000 1 0 16:37 27.07.2019
4564 Haze 9 1038 49 10000 1 0 15:56 27.07.2019
4565 Haze 8 1038 49 10000 1 0 15:38 27.07.2019
4566 Haze 8 1038 49 10000 1 0 15:18 27.07.2019
4567 Haze 2 1037 74 10000 0.58 330.658 14:45 27.07.2019
4568 Haze 2 1037 74 10000 0.58 330.658 14:25 27.07.2019
4569 Clear 0 1036 60 10000 0.58 330.658 13:48 27.07.2019
4570 Clear 0 1036 60 10000 0.79 352.261 13:23 27.07.2019
4571 Clear 1 1035 74 10000 1 100 12:50 27.07.2019
4572 Clear 1 1035 74 10000 1.5 100 12:27 27.07.2019
4573 Clear 0 1034 68 10000 0.9 344.309 11:56 27.07.2019
4574 Clear 0 1034 68 10000 0.9 344.309 11:37 27.07.2019
4575 Clear 1 1034 80 10000 0.9 344.309 11:19 27.07.2019
4576 Clear 1 1034 80 10000 0.9 344.309 10:40 27.07.2019
4577 Clear 1 1034 80 10000 0.9 344.309 10:21 27.07.2019
4578 Clear 2 1034 69 10000 1 100 09:41 27.07.2019
4579 Clear 2 1034 69 10000 1 100 09:22 27.07.2019
4580 Clear 3 1035 69 10000 1.06 358.809 08:48 27.07.2019
4581 Clear 3 1035 69 10000 1.06 358.809 08:29 27.07.2019
4582 Clear 4 1035 64 10000 1.5 90 07:54 27.07.2019
4583 Clear 4 1035 64 10000 1.5 90 07:27 27.07.2019
4584 Clear 4 1035 60 10000 1.5 300 06:56 27.07.2019
4585 Clear 4 1035 60 10000 1.5 300 06:31 27.07.2019
4586 Clear 6 1034 56 10000 1.5 270 05:51 27.07.2019
4587 Clear 7 1034 45 10000 0.5 0 05:18 27.07.2019
4588 Clear 8 1034 39 10000 1.5 90 04:31 27.07.2019
4589 Rain 12 1032 27 10000 0.5 0 02:58 27.07.2019
4590 Rain 13 1031 22 10000 3.1 320 02:32 27.07.2019
4591 Rain 16 1030 15 10000 3.1 20 01:47 27.07.2019
4592 Rain 16 1030 15 10000 3.1 20 01:21 27.07.2019
4593 Clouds 18 1028 17 10000 4.6 20 00:32 27.07.2019
4594 Clouds 19 1028 15 10000 4.6 20 23:54 26.07.2019
4595 Clouds 19 1028 16 10000 5.7 40 23:33 26.07.2019
4596 Clouds 21 1028 11 10000 4.1 250 22:57 26.07.2019
4597 Clouds 21 1028 12 10000 1.5 250 22:38 26.07.2019
4598 Clouds 21 1028 12 10000 1.5 250 22:20 26.07.2019
4599 Clouds 21 1028 9 10000 3.1 270 21:49 26.07.2019
4600 Clouds 20 1029 10 10000 3.1 280 21:19 26.07.2019
4601 Clear 19 1030 11 10000 1 300 20:43 26.07.2019
4602 Clear 19 1030 11 10000 1 300 20:24 26.07.2019
4603 Clear 17 1032 14 10000 1 360 19:44 26.07.2019
4604 Clear 17 1032 14 10000 1 360 19:25 26.07.2019
4605 Clear 17 1033 14 10000 1 100 18:58 26.07.2019
4606 Clear 15 1034 18 10000 2.6 50 18:38 26.07.2019
4607 Clear 14 1035 20 10000 0.5 0 18:19 26.07.2019
4608 Clear 12 1036 32 10000 2.6 90 17:46 26.07.2019
4609 Clear 12 1036 32 10000 2.6 90 17:19 26.07.2019
4610 Clear 11 1036 34 10000 1 140 16:57 26.07.2019
4611 Clear 9 1036 42 10000 0.5 0 16:39 26.07.2019
4612 Clear 9 1036 42 10000 0.5 0 16:20 26.07.2019
4613 Clear 8 1036 45 10000 1.5 80 15:56 26.07.2019
4614 Clear 6 1036 52 10000 1.5 110 15:38 26.07.2019
4615 Clear 5 1036 56 10000 1 30 15:18 26.07.2019
4616 Clear 1 1036 74 10000 1.5 120 14:42 26.07.2019
4617 Clear 1 1036 74 10000 1.5 120 14:22 26.07.2019
4618 Clear -1 1035 86 10000 0.2 166.594 13:44 26.07.2019
4619 Clear -1 1035 86 10000 0.35 160.937 13:26 26.07.2019
4620 Clear -1 1035 80 10000 0.35 160.937 12:49 26.07.2019
4621 Clear -1 1035 80 10000 1 0 12:22 26.07.2019
4622 Clear 0 1034 86 10000 1.5 110 11:47 26.07.2019
4623 Clear 0 1034 86 10000 1.5 110 11:22 26.07.2019
4624 Clear 1 1034 69 10000 1.5 280 10:58 26.07.2019
4625 Clear 1 1034 69 10000 1.5 280 10:39 26.07.2019
4626 Clear 1 1034 69 10000 1.5 280 10:18 26.07.2019
4627 Clear 3 1034 74 10000 0.71 227.395 09:42 26.07.2019
4628 Clear 3 1034 74 10000 0.91 292.745 09:24 26.07.2019
4629 Clear 3 1034 59 10000 1 0 08:40 26.07.2019
4630 Clear 3 1034 59 10000 1 0 08:20 26.07.2019
4631 Clear 4 1034 51 10000 0.99 290.826 07:39 26.07.2019
4632 Clear 4 1034 51 10000 0.99 290.826 07:18 26.07.2019
4633 Clear 5 1033 38 10000 1.46 346.766 05:44 26.07.2019
4634 Clear 6 1033 38 10000 2.6 290 04:30 26.07.2019
4635 Clear 9 1031 29 10000 1 0 03:50 26.07.2019
4636 Clear 14 1029 20 10000 3.1 300 01:45 26.07.2019
4637 Clear 14 1029 20 10000 3.1 300 01:18 26.07.2019
4638 Clear 18 1029 12 10000 5.1 300 00:28 26.07.2019
4639 Clear 19 1028 12 10000 7.2 290 23:44 25.07.2019
4640 Clear 19 1028 12 10000 7.2 290 23:20 25.07.2019
4641 Clear 19 1029 13 10000 1 0 22:41 25.07.2019
4642 Clear 19 1029 13 10000 1 0 22:21 25.07.2019
4643 Clear 18 1030 11 10000 3.6 290 21:48 25.07.2019
4644 Clear 18 1030 11 10000 3.6 290 21:23 25.07.2019
4645 Clear 18 1030 11 10000 2.1 250 20:57 25.07.2019
4646 Clear 18 1031 11 10000 1 0 20:38 25.07.2019
4647 Clear 17 1032 14 10000 2.1 250 20:18 25.07.2019
4648 Clear 16 1033 19 10000 2.1 320 19:40 25.07.2019
4649 Clear 16 1033 19 10000 2.1 320 19:21 25.07.2019
4650 Clear 14 1034 28 10000 2.6 20 18:42 25.07.2019
4651 Clear 13 1035 30 10000 2.1 40 18:23 25.07.2019
4652 Clear 13 1035 30 10000 2.1 40 17:50 25.07.2019
4653 Clouds 12 1035 34 10000 1 0 17:31 25.07.2019
4654 Clouds 12 1036 53 10000 1 50 16:56 25.07.2019
4655 Clear 9 1036 57 10000 1 0 16:37 25.07.2019
4656 Clear 9 1036 57 10000 1 0 16:19 25.07.2019
4657 Haze 6 1036 70 10000 1 0 15:43 25.07.2019
4658 Haze 5 1036 81 10000 1 0 15:19 25.07.2019
4659 Mist 2 1035 81 10000 0.5 0 14:42 25.07.2019
4660 Mist 2 1035 81 10000 0.5 0 14:23 25.07.2019
4661 Clouds 1 1035 80 10000 2.6 310 13:45 25.07.2019
4662 Clouds 1 1035 80 10000 2.6 310 13:26 25.07.2019
4663 Clouds 2 1034 80 10000 1.5 200 12:58 25.07.2019
4664 Clouds 0 1034 81 10000 1 80 12:29 25.07.2019
4665 Clouds 1 1033 86 10000 0.76 310.967 11:47 25.07.2019
4666 Clouds 1 1033 80 10000 1.5 80 11:25 25.07.2019
4667 Clouds 1 1033 80 10000 1.5 80 10:59 25.07.2019
4668 Clouds 1 1033 80 10000 1.5 80 10:37 25.07.2019
4669 Clouds 1 1033 80 10000 1.5 80 10:18 25.07.2019
4670 Clouds 2 1033 74 10000 1.5 290 09:42 25.07.2019
4671 Clear 2 1033 74 10000 1.5 290 09:24 25.07.2019
4672 Clear 3 1034 81 10000 1 80 08:42 25.07.2019
4673 Clear 3 1034 81 10000 2.6 300 07:56 25.07.2019
4674 Clear 3 1034 81 10000 2.6 300 07:34 25.07.2019
4675 Clear 4 1034 81 10000 1.5 300 06:43 25.07.2019
4676 Clear 6 1034 70 10000 1.5 280 05:39 25.07.2019
4677 Clear 6 1034 70 10000 1.5 280 05:20 25.07.2019
4678 Clear 8 1033 61 10000 2.1 110 04:36 25.07.2019
4679 Clouds 12 1031 46 10000 3.1 270 01:46 25.07.2019
4680 Clouds 14 1029 64 10000 3.6 290 01:18 25.07.2019
4681 Clouds 16 1029 43 10000 5.7 320 00:20 25.07.2019
4682 Clouds 16 1029 43 10000 5.7 320 23:47 24.07.2019
4683 Clouds 17 1029 33 10000 5.1 310 23:29 24.07.2019
4684 Rain 17 1029 36 10000 1.5 310 22:55 24.07.2019
4685 Rain 16 1029 41 10000 1.5 0 22:36 24.07.2019
4686 Drizzle 14 1029 47 10000 3.6 200 22:18 24.07.2019
4687 Clouds 17 1030 36 10000 4.6 290 21:43 24.07.2019
4688 Clouds 17 1030 36 10000 4.6 290 21:22 24.07.2019
4689 Clouds 17 1030 39 10000 1.5 290 20:56 24.07.2019
4690 Clouds 14 1031 47 10000 1 0 20:37 24.07.2019
4691 Clouds 14 1031 47 10000 1 0 20:19 24.07.2019
4692 Rain 13 1033 47 10000 2.1 110 19:42 24.07.2019
4693 Rain 13 1033 47 10000 2.1 110 19:22 24.07.2019
4694 Clouds 13 1033 47 10000 1.5 60 18:58 24.07.2019
4695 Clouds 12 1034 50 10000 2.1 0 18:37 24.07.2019
4696 Clouds 12 1034 50 10000 2.1 150 18:19 24.07.2019
4697 Rain 12 1034 50 10000 2.1 0 17:42 24.07.2019
4698 Clouds 10 1034 57 10000 1 60 17:19 24.07.2019
4699 Rain 10 1034 57 10000 1 0 16:41 24.07.2019
4700 Rain 10 1034 57 10000 1 0 16:21 24.07.2019
4701 Clouds 8 1034 65 10000 1 0 15:40 24.07.2019
4702 Clouds 8 1034 65 10000 1 0 15:21 24.07.2019
4703 Clouds 8 1034 65 10000 1.74 315.699 14:50 24.07.2019
4704 Clouds 7 1033 70 10000 1 0 14:23 24.07.2019
4705 Clouds 7 1033 65 10000 1 0 13:59 24.07.2019
4706 Clouds 7 1032 65 10000 1 160 13:36 24.07.2019
4707 Clouds 7 1032 65 10000 1 160 13:18 24.07.2019
4708 Clouds 7 1032 65 10000 1.53 271.425 12:46 24.07.2019
4709 Clouds 7 1032 65 10000 2.46 265.341 12:24 24.07.2019
4710 Clouds 6 1031 92 10000 1.5 100 11:38 24.07.2019
4711 Clouds 6 1031 92 10000 1.5 100 11:19 24.07.2019
4712 Rain 6 1032 70 10000 2.46 265.341 10:43 24.07.2019
4713 Rain 6 1032 70 10000 2.46 265.341 10:24 24.07.2019
4714 Rain 6 1032 92 10000 1 0 09:45 24.07.2019
4715 Rain 6 1032 89 10000 1 0 09:24 24.07.2019
4716 Rain 5 1032 65 10000 1.5 120 08:56 24.07.2019
4717 Rain 5 1032 65 10000 1.5 120 08:30 24.07.2019
4718 Rain 5 1020 86 0 1.92 359.047 07:51 24.07.2019
4719 Rain 5 1020 86 0 1.92 359.047 07:24 24.07.2019
4720 Rain 5 1020 86 0 1.92 359.047 06:29 24.07.2019
4721 Rain 6 1021 79 0 2.1 7.542 05:40 24.07.2019
4722 Clouds 11 1030 43 10000 3.1 310 02:45 24.07.2019
4723 Clouds 12 1030 37 10000 3.1 290 01:29 24.07.2019
4724 Clouds 13 1029 32 10000 3.1 320 00:57 24.07.2019
4725 Clouds 15 1029 28 10000 4.6 290 00:22 24.07.2019
4726 Clouds 16 1029 29 10000 5.7 290 23:42 23.07.2019
4727 Clouds 16 1029 29 10000 5.7 290 23:23 23.07.2019
4728 Clouds 16 1030 29 10000 8.2 300 22:40 23.07.2019
4729 Clouds 16 1030 29 10000 8.2 300 22:20 23.07.2019
4730 Clouds 15 1030 30 10000 10.3 290 21:58 23.07.2019
4731 Clouds 15 1030 33 10000 8.7 280 21:40 23.07.2019
4732 Clouds 15 1030 33 10000 8.7 280 21:21 23.07.2019
4733 Clouds 15 1031 33 10000 7.2 280 20:47 23.07.2019
4734 Clouds 16 1031 31 10000 7.7 300 20:21 23.07.2019
4735 Clouds 15 1032 38 10000 5.7 290 19:42 23.07.2019
4736 Clouds 15 1032 38 10000 5.7 290 19:19 23.07.2019
4737 Clouds 13 1033 47 10000 2.1 290 18:52 23.07.2019
4738 Clouds 12 1034 50 10000 1.5 260 18:24 23.07.2019
4739 Clouds 10 1035 61 10000 3.1 280 17:45 23.07.2019
4740 Clouds 10 1035 61 10000 3.1 280 17:27 23.07.2019
4741 Clouds 9 1035 66 10000 4.1 290 16:58 23.07.2019
4742 Drizzle 9 1035 61 9000 2.6 270 16:40 23.07.2019
4743 Drizzle 9 1035 61 9000 2.6 270 16:19 23.07.2019
4744 Haze 8 1035 65 10000 1 50 15:46 23.07.2019
4745 Haze 8 1035 65 10000 1 50 15:24 23.07.2019
4746 Clouds 5 1034 75 10000 1.11 314.304 14:40 23.07.2019
4747 Clouds 5 1034 75 10000 1.11 314.304 14:21 23.07.2019
4748 Clouds 5 1033 75 10000 1 130 13:58 23.07.2019
4749 Clouds 4 1033 76 10000 1.5 80 13:39 23.07.2019
4750 Clouds 4 1033 83 10000 1.5 80 13:20 23.07.2019
4751 Clouds 4 1033 83 10000 1.35 327.747 12:48 23.07.2019
4752 Clouds 4 1033 79 10000 1 70 12:26 23.07.2019
4753 Clear 4 1032 93 10000 2.1 80 11:50 23.07.2019
4754 Clear 4 1032 93 10000 2.1 80 11:32 23.07.2019
4755 Clear 5 1032 80 10000 0.5 250 10:59 23.07.2019
4756 Clear 5 1032 80 10000 0.5 250 10:40 23.07.2019
4757 Clear 5 1032 75 10000 1 90 10:20 23.07.2019
4758 Clear 5 1032 75 10000 1 90 09:41 23.07.2019
4759 Clear 5 1032 75 10000 1 90 09:19 23.07.2019
4760 Clear 4 1033 69 10000 1 280 08:43 23.07.2019
4761 Clear 4 1033 77 10000 0.5 0 08:19 23.07.2019
4762 Clear 4 1033 77 10000 0.5 0 07:55 23.07.2019
4763 Clear 4 1033 77 10000 0.5 0 07:34 23.07.2019
4764 Clear 6 1033 77 10000 2.1 280 06:46 23.07.2019
4765 Clear 6 1033 77 10000 2.1 280 06:28 23.07.2019
4766 Rain 11 1031 57 10000 2.1 80 02:57 23.07.2019
4767 Clouds 15 1029 30 10000 4.1 310 01:32 23.07.2019
4768 Clouds 18 1028 22 10000 3.1 300 00:31 23.07.2019
4769 Rain 20 1027 15 10000 7.2 290 23:43 22.07.2019
4770 Rain 20 1027 15 10000 7.2 290 23:22 22.07.2019
4771 Clouds 20 1027 16 10000 7.7 300 22:59 22.07.2019
4772 Rain 13 1013 36 0 3.25 327.41 22:41 22.07.2019
4773 Rain 13 1013 36 0 3.25 327.41 22:20 22.07.2019
4774 Clouds 20 1028 20 10000 8.2 300 21:43 22.07.2019
4775 Clouds 20 1028 20 10000 8.2 300 21:22 22.07.2019
4776 Clouds 18 1030 25 10000 1 0 20:49 22.07.2019
4777 Clouds 18 1030 25 10000 1 0 20:31 22.07.2019
4778 Clouds 18 1030 25 10000 1 0 19:57 22.07.2019
4779 Clouds 19 1031 25 10000 1 0 19:37 22.07.2019
4780 Clouds 19 1031 25 10000 1 0 19:18 22.07.2019
4781 Clouds 17 1033 35 10000 2.1 70 18:44 22.07.2019
4782 Clouds 17 1033 35 10000 2.1 70 18:26 22.07.2019
4783 Clear 13 1034 47 10000 1.5 80 17:44 22.07.2019
4784 Clear 13 1034 47 10000 1.5 80 17:26 22.07.2019
4785 Clear 12 1034 47 10000 2.6 70 16:58 22.07.2019
4786 Clear 10 1035 47 10000 1 0 16:38 22.07.2019
4787 Clear 10 1035 47 10000 1 0 16:18 22.07.2019
4788 Haze 7 1035 56 10000 1 0 15:44 22.07.2019
4789 Haze 7 1035 56 10000 1 0 15:19 22.07.2019
4790 Haze 3 1034 74 10000 0.54 224.698 14:44 22.07.2019
4791 Haze 3 1034 74 10000 0.54 224.698 14:22 22.07.2019
4792 Clear 1 1034 74 10000 0.54 224.698 13:50 22.07.2019
4793 Clear 1 1034 74 10000 2.1 70 13:30 22.07.2019
4794 Clear 1 1033 86 10000 1 130 12:51 22.07.2019
4795 Clear 0 1033 74 10000 1.5 310 12:31 22.07.2019
4796 Clear 2 1032 80 10000 1 80 11:55 22.07.2019
4797 Clear 2 1032 80 10000 1 80 11:36 22.07.2019
4798 Clear 2 1032 80 10000 1 80 11:18 22.07.2019
4799 Clear 1 1032 80 10000 0.5 0 10:34 22.07.2019
4800 Clear 2 1032 74 10000 1 290 09:46 22.07.2019
4801 Clear 2 1032 74 10000 1 290 09:26 22.07.2019
4802 Clear 4 1033 69 10000 1.12 312.564 08:59 22.07.2019
4803 Clear 4 1033 69 10000 1.12 312.564 08:38 22.07.2019
4804 Clear 4 1033 86 10000 1.12 312.564 08:19 22.07.2019
4805 Clear 4 1033 86 10000 1.12 312.564 07:47 22.07.2019
4806 Clear 4 1033 86 10000 1.12 312.564 07:27 22.07.2019
4807 Clear 6 1033 60 10000 1.5 100 05:20 22.07.2019
4808 Clouds 12 1031 65 10000 3.1 250 02:59 22.07.2019
4809 Clouds 14 1029 33 10000 6.2 290 00:59 22.07.2019
4810 Clouds 17 1029 27 10000 5.1 300 00:39 22.07.2019
4811 Clouds 17 1029 27 10000 5.1 300 00:20 22.07.2019
4812 Clouds 18 1029 27 10000 8.2 280 23:46 21.07.2019
4813 Clouds 17 1029 29 10000 4.6 240 22:58 21.07.2019
4814 Clouds 18 1028 23 10000 6.7 280 22:39 21.07.2019
4815 Clouds 18 1028 23 10000 6.7 280 22:20 21.07.2019
4816 Clouds 19 1029 24 10000 5.1 280 21:49 21.07.2019
4817 Clouds 19 1029 24 10000 5.1 280 21:26 21.07.2019
4818 Clouds 19 1030 22 10000 6.7 290 20:59 21.07.2019
4819 Clouds 17 1031 27 10000 5.7 300 20:41 21.07.2019
4820 Clouds 17 1031 27 10000 5.7 300 20:22 21.07.2019
4821 Clouds 18 1031 25 10000 5.7 280 19:49 21.07.2019
4822 Clouds 16 1032 31 10000 3.1 0 19:29 21.07.2019
4823 Clouds 17 1033 29 10000 3.1 260 18:51 21.07.2019
4824 Clouds 16 1033 38 10000 1.5 0 18:28 21.07.2019
4825 Clouds 15 1034 43 10000 2.1 60 17:56 21.07.2019
4826 Clouds 13 1034 43 10000 0.5 350 17:38 21.07.2019
4827 Clouds 11 1035 43 10000 1.5 0 17:18 21.07.2019
4828 Clear 8 1035 43 10000 1 0 16:41 21.07.2019
4829 Clear 9 1035 49 10000 0.5 0 16:22 21.07.2019
4830 Clear 7 1035 56 10000 1 0 15:41 21.07.2019
4831 Clear 5 1034 65 10000 1 90 15:21 21.07.2019
4832 Clear 5 1034 65 10000 1 90 15:21 21.07.2019
4833 Clear 2 1034 74 10000 1 90 14:44 21.07.2019
4834 Clear 2 1034 74 10000 1 90 14:25 21.07.2019
4835 Clear 1 1033 80 10000 1.5 100 13:53 21.07.2019
4836 Clear 1 1033 80 10000 0.54 263.321 13:34 21.07.2019
4837 Clear 1 1033 74 10000 0.35 290.249 12:57 21.07.2019
4838 Clear 1 1033 80 10000 1.5 300 12:39 21.07.2019
4839 Clear 1 1033 80 10000 1.5 300 12:20 21.07.2019
4840 Clear 1 1033 74 10000 0.78 263.104 11:45 21.07.2019
4841 Clear 1 1033 74 10000 0.78 263.104 11:25 21.07.2019
4842 Clear 2 1032 74 10000 0.78 263.104 10:43 21.07.2019
4843 Clear 2 1032 74 10000 0.78 263.104 10:23 21.07.2019
4844 Clear 3 1033 69 10000 0.78 263.104 09:49 21.07.2019
4845 Clear 3 1033 69 10000 0.78 263.104 09:30 21.07.2019
4846 Clear 3 1033 69 10000 1.03 304.769 08:47 21.07.2019
4847 Clear 3 1033 69 10000 1.03 304.769 08:27 21.07.2019
4848 Clear 4 1034 64 10000 1.03 304.769 07:39 21.07.2019
4849 Clear 4 1033 64 10000 2.6 290 06:54 21.07.2019
4850 Clear 6 1033 56 10000 0.5 290 05:54 21.07.2019
4851 Rain 12 1031 37 10000 2.1 260 02:59 21.07.2019
4852 Clouds 14 1030 30 10000 4.6 310 01:33 21.07.2019
4853 Clouds 17 1029 23 10000 5.7 310 00:42 21.07.2019
4854 Clouds 17 1029 23 10000 5.7 310 00:19 21.07.2019
4855 Smoke 18 1029 20 10000 6.2 320 23:43 20.07.2019
4856 Smoke 18 1029 20 10000 6.2 320 23:21 20.07.2019
4857 Clouds 19 1029 20 10000 5.7 310 22:48 20.07.2019
4858 Clouds 19 1029 20 10000 7.7 290 22:23 20.07.2019
4859 Clouds 20 1029 18 10000 6.2 300 21:57 20.07.2019
4860 Clouds 19 1029 20 10000 6.7 290 21:39 20.07.2019
4861 Clouds 18 1030 22 10000 1.5 240 21:20 20.07.2019
4862 Clouds 18 1031 23 10000 2.1 0 20:41 20.07.2019
4863 Clouds 17 1032 27 10000 1.5 20 20:19 20.07.2019
4864 Clouds 17 1032 27 10000 1.5 20 19:46 20.07.2019
4865 Clouds 14 1034 32 10000 0.5 290 19:21 20.07.2019
4866 Clouds 13 1034 32 10000 1 0 18:44 20.07.2019
4867 Clouds 13 1034 47 10000 1 0 18:22 20.07.2019
4868 Clouds 13 1034 43 10000 1.5 250 17:55 20.07.2019
4869 Clouds 11 1035 50 10000 1.5 0 17:25 20.07.2019
4870 Clouds 7 1036 47 10000 0.5 330 16:45 20.07.2019
4871 Clouds 7 1036 47 10000 0.5 330 16:27 20.07.2019
4872 Clouds 7 1036 47 10000 1 0 15:58 20.07.2019
4873 Haze 6 1036 47 10000 0.62 263.996 15:39 20.07.2019
4874 Haze 6 1036 80 10000 0.41 313.216 15:20 20.07.2019
4875 Haze 4 1036 80 10000 0.41 313.216 14:48 20.07.2019
4876 Haze 2 1035 80 10000 0.41 313.216 14:28 20.07.2019
4877 Clouds 1 1035 80 10000 1.5 80 13:40 20.07.2019
4878 Clouds 1 1035 80 10000 1.5 80 13:21 20.07.2019
4879 Clear 0 1034 78 10000 0.5 20 12:59 20.07.2019
4880 Clear 0 1034 78 10000 1.5 320 12:26 20.07.2019
4881 Clear 0 1033 79 10000 1 100 11:59 20.07.2019
4882 Clear 0 1033 79 10000 1 100 11:37 20.07.2019
4883 Clear 0 1033 79 10000 1 100 11:19 20.07.2019
4884 Clear 1 1034 86 10000 0.9 352.549 10:37 20.07.2019
4885 Clear 1 1034 86 10000 0.9 352.549 10:18 20.07.2019
4886 Clear 1 1034 80 10000 2.1 290 09:45 20.07.2019
4887 Clear 1 1034 80 10000 2.1 290 09:24 20.07.2019
4888 Clear 2 1034 74 10000 1.34 11.436 08:47 20.07.2019
4889 Clear 2 1034 74 10000 1.34 11.436 08:20 20.07.2019
4890 Clear 5 1034 65 10000 1 100 07:26 20.07.2019
4891 Clear 3 1034 74 10000 1.5 310 06:43 20.07.2019
4892 Clear 6 1034 80 10000 1.5 300 04:57 20.07.2019
4893 Clear 6 1034 80 10000 1.5 300 04:30 20.07.2019
4894 Clouds 11 1032 69 10000 3.1 100 01:21 20.07.2019
4895 Clouds 13 1031 69 10000 2.6 140 00:49 20.07.2019
4896 Clouds 12 1031 46 10000 5.7 40 00:26 20.07.2019
4897 Clouds 13 1031 54 10000 6.2 40 23:49 19.07.2019
4898 Clouds 15 1030 54 10000 4.6 10 23:27 19.07.2019
4899 Clouds 15 1030 54 10000 4.6 40 22:52 19.07.2019
4900 Clouds 17 1030 33 10000 4.1 10 22:26 19.07.2019
4901 Clouds 17 1030 54 10000 3.1 360 21:59 19.07.2019
4902 Clouds 16 1031 31 10000 2.1 360 21:39 19.07.2019
4903 Clouds 16 1031 31 10000 2.1 360 21:21 19.07.2019
4904 Clouds 16 1032 51 10000 1.5 0 20:42 19.07.2019
4905 Clouds 16 1032 51 10000 1.5 0 20:23 19.07.2019
4906 Clouds 16 1033 36 10000 3.6 290 19:39 19.07.2019
4907 Clouds 16 1034 38 10000 0.5 0 18:55 19.07.2019
4908 Clouds 16 1034 38 10000 0.5 0 18:37 19.07.2019
4909 Clouds 13 1035 47 10000 3.1 110 18:18 19.07.2019
4910 Clouds 13 1036 47 10000 1.5 30 17:41 19.07.2019
4911 Clouds 13 1036 47 10000 1.5 30 17:23 19.07.2019
4912 Clouds 10 1036 53 10000 1 0 16:47 19.07.2019
4913 Clouds 10 1036 53 10000 1 0 16:25 19.07.2019
4914 Clouds 8 1036 61 10000 1.5 40 15:47 19.07.2019
4915 Clouds 7 1036 65 10000 1 0 15:29 19.07.2019
4916 Haze 7 1036 65 10000 0.5 0 14:55 19.07.2019
4917 Haze 5 1035 80 10000 0.5 0 14:37 19.07.2019
4918 Haze 5 1035 80 10000 0.5 0 14:19 19.07.2019
4919 Mist 2 1035 80 10000 2.1 310 13:43 19.07.2019
4920 Mist 2 1035 80 10000 2.1 310 13:22 19.07.2019
4921 Clouds 3 1034 81 10000 0.88 298.771 12:49 19.07.2019
4922 Clouds 3 1034 81 10000 1 0 12:29 19.07.2019
4923 Clear 3 1034 86 10000 1 80 11:47 19.07.2019
4924 Clear 3 1034 86 10000 1 80 11:20 19.07.2019
4925 Clear 3 1033 74 10000 1 70 10:58 19.07.2019
4926 Clear 3 1033 74 10000 1 70 10:39 19.07.2019
4927 Clear 3 1033 74 10000 1 70 10:18 19.07.2019
4928 Clear 3 1034 86 10000 0.98 281.63 09:43 19.07.2019
4929 Clear 3 1034 81 10000 1.06 304.291 09:22 19.07.2019
4930 Clear 4 1034 80 10000 0.5 0 08:50 19.07.2019
4931 Clear 4 1034 80 10000 0.5 0 08:28 19.07.2019
4932 Clear 5 1034 80 10000 0.5 0 07:33 19.07.2019
4933 Clear 6 1034 70 10000 1.5 270 06:37 19.07.2019
4934 Clear 7 1034 65 10000 1 0 05:26 19.07.2019
4935 Clouds 13 1031 43 10000 4.6 290 01:45 19.07.2019
4936 Clouds 15 1031 41 10000 5.1 310 00:58 19.07.2019
4937 Clouds 15 1031 41 10000 5.1 310 00:21 19.07.2019
4938 Clouds 18 1030 27 10000 5.7 300 23:41 18.07.2019
4939 Clouds 18 1030 27 10000 5.7 300 23:23 18.07.2019
4940 Clouds 18 1030 27 10000 6.2 310 22:55 18.07.2019
4941 Clouds 18 1030 31 10000 4.1 310 22:36 18.07.2019
4942 Clouds 18 1030 31 10000 7.2 290 22:18 18.07.2019
4943 Clouds 18 1031 31 10000 1.5 300 21:39 18.07.2019
4944 Clouds 18 1031 31 10000 1.5 300 21:19 18.07.2019
4945 Clouds 15 1033 38 10000 1.5 0 20:46 18.07.2019
4946 Clouds 15 1033 38 10000 1.5 0 20:25 18.07.2019
4947 Clouds 14 1034 44 10000 2.1 120 19:50 18.07.2019
4948 Clouds 14 1034 44 10000 2.1 120 19:27 18.07.2019
4949 Clouds 13 1035 47 10000 2.1 100 18:52 18.07.2019
4950 Clouds 13 1035 47 10000 1.5 0 18:23 18.07.2019
4951 Clouds 12 1036 54 10000 1.5 0 17:57 18.07.2019
4952 Clouds 11 1036 57 10000 1.5 120 17:37 18.07.2019
4953 Clouds 11 1036 57 10000 1.5 120 17:19 18.07.2019
4954 Clouds 10 1036 61 10000 2.1 70 16:49 18.07.2019
4955 Clouds 10 1036 61 10000 2.1 70 16:25 18.07.2019
4956 Clouds 9 1036 61 10000 1 350 15:57 18.07.2019
4957 Clouds 8 1036 70 10000 1.5 90 15:36 18.07.2019
4958 Clouds 7 1036 70 10000 0.5 0 14:56 18.07.2019
4959 Clouds 6 1035 75 10000 1.5 100 14:38 18.07.2019
4960 Clouds 6 1035 75 10000 0.5 0 14:19 18.07.2019
4961 Clouds 6 1035 75 10000 0.5 0 13:38 18.07.2019
4962 Clouds 6 1035 75 10000 0.5 110 13:19 18.07.2019
4963 Clouds 6 1034 75 10000 1 120 12:44 18.07.2019
4964 Clouds 5 1034 107 10000 1.5 90 12:21 18.07.2019
4965 Clouds 5 1034 107 10000 1.5 90 11:51 18.07.2019
4966 Clouds 5 1034 107 10000 1.5 90 11:33 18.07.2019
4967 Clouds 4 1034 80 10000 1 270 10:52 18.07.2019
4968 Clouds 4 1034 80 10000 1 270 10:23 18.07.2019
4969 Clouds 9 1031 57 10000 1.5 220 09:45 18.07.2019
4970 Clouds 5 1035 80 10000 0.5 170 09:23 18.07.2019
4971 Rain 5 1035 80 10000 0.5 170 08:47 18.07.2019
4972 Clouds 5 1035 75 10000 2.6 290 08:20 18.07.2019
4973 Clouds 5 1035 75 10000 2.6 290 07:39 18.07.2019
4974 Clouds 5 1035 75 10000 2.6 290 07:20 18.07.2019
4975 Clouds 6 1035 75 10000 2.6 290 06:36 18.07.2019
4976 Clouds 9 1035 66 10000 1.5 290 05:33 18.07.2019
4977 Clouds 10 1033 61 10000 1 0 02:55 18.07.2019
4978 Clouds 12 1032 54 10000 2.1 70 01:50 18.07.2019
4979 Clouds 13 1031 50 10000 1 0 00:35 18.07.2019
4980 Clouds 14 1031 47 10000 4.1 140 23:49 17.07.2019
4981 Clouds 14 1031 47 10000 4.1 100 23:19 17.07.2019
4982 Clouds 14 1031 47 10000 4.1 100 22:55 17.07.2019
4983 Clouds 14 1031 44 10000 3.6 100 22:36 17.07.2019
4984 Clouds 14 1031 44 10000 3.6 120 22:18 17.07.2019
4985 Rain 15 1032 44 10000 2.1 0 21:43 17.07.2019
4986 Rain 15 1032 44 10000 2.1 0 21:25 17.07.2019
4987 Clouds 13 1033 58 10000 1.5 110 20:58 17.07.2019
4988 Rain 13 1033 62 10000 2.6 90 20:39 17.07.2019
4989 Clouds 13 1034 50 10000 2.6 110 20:20 17.07.2019
4990 Clouds 13 1034 50 10000 2.6 110 19:43 17.07.2019
4991 Clouds 13 1034 54 10000 3.1 110 19:22 17.07.2019
4992 Clouds 13 1034 54 10000 3.6 90 18:59 17.07.2019
4993 Clouds 13 1034 54 10000 3.6 90 18:40 17.07.2019
4994 Clouds 11 1035 62 10000 1.86 22.425 18:20 17.07.2019
4995 Clouds 11 1035 62 10000 1.86 22.425 17:49 17.07.2019
4996 Clouds 11 1035 62 10000 1.86 22.425 17:25 17.07.2019
4997 Clouds 10 1036 71 10000 1 0 16:45 17.07.2019
4998 Clouds 10 1035 66 10000 1 0 16:23 17.07.2019
4999 Clouds 10 1035 66 10000 1 0 15:52 17.07.2019
5000 Clouds 9 1035 76 10000 0.5 0 15:32 17.07.2019
5001 Clouds 9 1035 76 10000 0.5 0 15:32 17.07.2019
5002 Clouds 9 1035 76 10000 0.5 0 15:32 17.07.2019
5003 Clouds 9 1035 76 10000 1 0 14:59 17.07.2019
5004 Clouds 8 1034 81 10000 1 0 14:41 17.07.2019
5005 Clouds 8 1034 81 10000 1 0 14:21 17.07.2019
5006 Clouds 8 1034 81 10000 1.5 100 13:59 17.07.2019
5007 Mist 8 1034 81 10000 1 0 13:40 17.07.2019
5008 Mist 8 1033 81 10000 1.5 80 13:19 17.07.2019
5009 Mist 8 1033 81 10000 1.15 356.704 12:39 17.07.2019
5010 Drizzle 8 1033 81 10000 1 100 12:20 17.07.2019
5011 Drizzle 8 1033 81 10000 1 100 11:44 17.07.2019
5012 Clouds 8 1033 75 10000 1.5 110 11:21 17.07.2019
5013 Clouds 8 1033 75 10000 1.5 110 10:50 17.07.2019
5014 Clouds 8 1033 75 10000 1.5 110 10:29 17.07.2019
5015 Clouds 9 1033 70 10000 0.5 0 09:55 17.07.2019
5016 Clouds 9 1033 70 10000 0.5 0 09:55 17.07.2019
5017 Clouds 9 1033 70 10000 0.5 0 09:55 17.07.2019
5018 Clouds 9 1033 70 10000 0.5 0 09:37 17.07.2019
5019 Drizzle 9 1034 70 10000 1 80 09:18 17.07.2019
5020 Drizzle 9 1034 70 10000 1 80 08:41 17.07.2019
5021 Drizzle 9 1034 70 10000 1 80 08:21 17.07.2019
5022 Clouds 9 1034 76 10000 0.5 330 07:47 17.07.2019
5023 Clouds 9 1034 76 10000 1.65 42.666 07:23 17.07.2019
5024 Clouds 9 1034 76 10000 1.65 42.666 07:23 17.07.2019
5025 Clouds 9 1034 76 10000 1.65 42.666 06:46 17.07.2019
5026 Clouds 9 1034 76 10000 1.65 42.666 06:46 17.07.2019
5027 Clouds 9 1034 76 10000 1.65 42.666 06:28 17.07.2019
5028 Drizzle 9 1034 76 10000 1.5 100 05:43 17.07.2019
5029 Clouds 9 1034 76 10000 1.5 80 05:23 17.07.2019
5030 Clouds 9 1034 76 10000 1 120 04:29 17.07.2019
5031 Clouds 9 1032 76 10000 2.13 31.674 02:47 17.07.2019
5032 Clouds 10 1032 71 10000 1 0 01:59 17.07.2019
5033 Clouds 10 1031 71 10000 1.5 50 01:24 17.07.2019
5034 Clouds 10 1031 76 10000 2.6 100 00:44 17.07.2019
5035 Drizzle 11 1030 71 9000 2.1 130 00:23 17.07.2019
5036 Drizzle 11 1030 71 9000 2.1 130 23:55 16.07.2019
5037 Rain 10 1030 71 9000 2.6 310 23:29 16.07.2019
5038 Rain 13 1029 54 9000 6.7 280 22:58 16.07.2019
5039 Clouds 16 1029 38 10000 5.7 10 22:39 16.07.2019
5040 Clouds 17 1029 36 10000 5.7 20 22:19 16.07.2019
5041 Clouds 18 1029 31 10000 3.6 100 21:45 16.07.2019
5042 Clouds 17 1030 39 10000 3.1 100 21:21 16.07.2019
5043 Clouds 17 1030 38 10000 3.1 100 20:58 16.07.2019
5044 Clouds 17 1031 38 10000 2.1 360 20:38 16.07.2019
5045 Clouds 17 1031 33 10000 2.1 60 20:20 16.07.2019
5046 Clouds 16 1032 36 10000 3.6 100 19:46 16.07.2019
5047 Clouds 16 1032 36 10000 3.6 100 19:27 16.07.2019
5048 Clouds 15 1033 38 10000 2.6 40 18:46 16.07.2019
5049 Clouds 15 1034 41 10000 2.1 0 18:21 16.07.2019
5050 Clouds 15 1034 41 10000 2.1 0 17:58 16.07.2019
5051 Clouds 15 1034 41 10000 2.1 0 17:58 16.07.2019
5052 Clouds 14 1034 44 10000 2.1 0 17:39 16.07.2019
5053 Clouds 13 1034 47 10000 1.5 0 17:20 16.07.2019
5054 Clouds 11 1034 57 10000 2.1 80 16:42 16.07.2019
5055 Clouds 12 1034 54 10000 2.1 70 16:20 16.07.2019
5056 Clouds 11 1034 57 10000 1 0 15:41 16.07.2019
5057 Clouds 10 1034 61 10000 0.5 0 15:21 16.07.2019
5058 Clouds 10 1034 61 10000 0.5 0 14:58 16.07.2019
5059 Clouds 8 1034 70 10000 2.1 270 14:40 16.07.2019
5060 Clouds 8 1034 70 10000 2.1 270 14:22 16.07.2019
5061 Clouds 8 1033 70 10000 2.6 280 13:45 16.07.2019
5062 Clouds 8 1033 70 10000 2.6 280 13:24 16.07.2019
5063 Clouds 6 1032 75 10000 2.6 280 12:54 16.07.2019
5064 Clouds 6 1032 75 10000 2.6 280 12:36 16.07.2019
5065 Clouds 6 1032 70 10000 1.73 293.747 12:18 16.07.2019
5066 Clouds 6 1032 70 10000 1.73 293.747 11:42 16.07.2019
5067 Clouds 6 1032 70 10000 1.73 293.747 11:22 16.07.2019
5068 Clouds 8 1032 65 10000 1.5 80 10:47 16.07.2019
5069 Clouds 8 1032 65 10000 1.5 80 10:22 16.07.2019
5070 Clouds 8 1032 70 10000 2.1 100 09:59 16.07.2019
5071 Clouds 8 1032 70 10000 2.1 100 09:40 16.07.2019
5072 Clouds 7 1033 70 10000 1.5 300 09:19 16.07.2019
5073 Clouds 7 1033 70 10000 1.5 300 08:42 16.07.2019
5074 Clouds 7 1033 70 10000 2.6 300 08:20 16.07.2019
5075 Clouds 7 1033 70 10000 2.6 300 07:48 16.07.2019
5076 Clouds 7 1033 70 10000 2.6 300 07:30 16.07.2019
5077 Clouds 6 1032 70 10000 1.53 3.822 06:49 16.07.2019
5078 Clouds 6 1032 70 10000 1.53 3.822 06:31 16.07.2019
5079 Clear 8 1032 70 10000 2.26 8.091 05:39 16.07.2019
5080 Clear 8 1032 70 10000 2.26 8.091 05:21 16.07.2019
5081 Clear 11 1031 57 10000 1 0 04:19 16.07.2019
5082 Rain 11 1031 57 10000 1.5 80 03:21 16.07.2019
5083 Rain 13 1029 50 10000 2.1 280 02:31 16.07.2019
5084 Clouds 16 1028 38 10000 2.6 350 01:49 16.07.2019
5085 Clouds 18 1027 31 10000 5.7 10 00:49 16.07.2019
5086 Clouds 20 1027 24 10000 3.6 360 00:22 16.07.2019
5087 Clouds 20 1027 24 10000 3.6 360 23:53 15.07.2019
5088 Clouds 22 1027 13 10000 0.5 0 23:34 15.07.2019
5089 Clouds 20 1027 16 10000 3.1 300 22:55 15.07.2019
5090 Clouds 21 1027 15 10000 4.1 300 22:36 15.07.2019
5091 Clouds 21 1028 16 10000 3.1 250 22:18 15.07.2019
5092 Clouds 21 1028 16 10000 3.1 250 22:18 15.07.2019
5093 Clouds 21 1028 16 10000 3.1 310 21:42 15.07.2019
5094 Clouds 21 1029 18 10000 2.1 0 21:20 15.07.2019
5095 Clouds 21 1029 18 10000 2.1 0 20:57 15.07.2019
5096 Clouds 21 1029 18 10000 2.1 0 20:57 15.07.2019
5097 Clouds 21 1030 16 10000 1.5 0 20:38 15.07.2019
5098 Clouds 20 1031 19 10000 1 0 20:20 15.07.2019
5099 Clouds 19 1032 19 10000 1.5 0 19:43 15.07.2019
5100 Clouds 19 1032 19 10000 1 40 19:22 15.07.2019
5101 Clouds 19 1032 19 10000 1 40 18:57 15.07.2019
5102 Clouds 17 1033 29 10000 1.5 0 18:38 15.07.2019
5103 Clouds 16 1034 55 10000 1 0 18:19 15.07.2019
5104 Clear 14 1034 44 10000 1 0 17:44 15.07.2019
5105 Clear 14 1034 44 10000 1 0 17:26 15.07.2019
5106 Clear 13 1034 47 10000 1 0 16:59 15.07.2019
5107 Clear 10 1035 57 10000 1.5 50 16:39 15.07.2019
5108 Clear 10 1035 57 10000 1.5 50 16:20 15.07.2019
5109 Haze 9 1035 61 10000 1.5 70 15:56 15.07.2019
5110 Haze 8 1035 65 10000 1 0 15:37 15.07.2019
5111 Haze 8 1035 65 10000 1 0 15:37 15.07.2019
5112 Haze 6 1034 70 10000 1.5 80 15:19 15.07.2019
5113 Mist 3 1034 82 10000 0.63 294.074 14:44 15.07.2019
5114 Mist 3 1034 82 10000 0.63 294.074 14:25 15.07.2019
5115 Mist 2 1034 80 10000 1.5 310 13:55 15.07.2019
5116 Clouds 2 1033 84 10000 1.5 90 13:36 15.07.2019
5117 Clouds 2 1033 84 10000 1.5 110 13:18 15.07.2019
5118 Clouds 2 1032 80 10000 0.5 200 12:41 15.07.2019
5119 Clear 3 1032 86 10000 0.5 80 12:21 15.07.2019
5120 Clear 3 1032 86 10000 0.5 80 11:43 15.07.2019
5121 Clear 3 1032 86 10000 0.5 80 11:25 15.07.2019
5122 Clear 3 1032 74 10000 2.6 300 10:47 15.07.2019
5123 Clear 3 1032 74 10000 2.6 300 10:28 15.07.2019
5124 Clear 4 1032 80 10000 1 290 09:48 15.07.2019
5125 Clear 4 1032 80 10000 1 290 09:28 15.07.2019
5126 Clear 6 1032 70 10000 1 120 08:59 15.07.2019
5127 Clear 6 1032 70 10000 1 120 08:41 15.07.2019
5128 Clear 6 1032 70 10000 1 120 08:23 15.07.2019
5129 Clear 6 1032 80 10000 2.6 290 07:39 15.07.2019
5130 Clear 6 1032 80 10000 2.6 290 07:19 15.07.2019
5131 Clear 6 1032 80 10000 2.6 290 06:39 15.07.2019
5132 Clear 8 1032 61 10000 2.1 280 05:44 15.07.2019
5133 Clear 8 1032 61 10000 2.1 280 05:26 15.07.2019
5134 Clear 9 1031 61 10000 1.5 50 04:41 15.07.2019
5135 Clear 12 1030 50 10000 2.1 120 03:48 15.07.2019
5136 Clouds 13 1029 43 10000 2.6 290 02:44 15.07.2019
5137 Clouds 15 1028 38 10000 3.1 330 01:43 15.07.2019
5138 Clouds 15 1028 38 10000 3.1 330 01:24 15.07.2019
5139 Clouds 18 1027 70 10000 3.1 20 00:51 15.07.2019
5140 Clouds 19 1027 25 10000 3.6 20 00:19 15.07.2019
5141 Clouds 19 1027 25 10000 3.6 20 23:55 14.07.2019
5142 Clouds 20 1027 19 10000 3.1 290 23:36 14.07.2019
5143 Clouds 20 1027 18 10000 5.1 300 23:18 14.07.2019
5144 Clouds 18 1028 22 10000 4.1 280 22:40 14.07.2019
5145 Clouds 18 1028 22 10000 4.1 280 22:40 14.07.2019
5146 Clouds 18 1028 22 10000 4.1 280 22:22 14.07.2019
5147 Clouds 18 1028 22 10000 6.2 290 21:58 14.07.2019
5148 Clouds 20 1028 16 10000 2.6 0 21:40 14.07.2019
5149 Clouds 20 1029 20 10000 2.6 50 21:18 14.07.2019
5150 Clouds 20 1029 20 10000 2.6 50 20:54 14.07.2019
5151 Clouds 19 1030 24 10000 2.1 0 20:36 14.07.2019
5152 Clouds 19 1030 20 10000 3.1 0 20:18 14.07.2019
5153 Clouds 19 1031 22 10000 0.5 0 19:42 14.07.2019
5154 Clouds 19 1031 22 10000 0.5 0 19:24 14.07.2019
5155 Clouds 17 1032 29 10000 1.5 0 18:56 14.07.2019
5156 Clouds 16 1032 31 10000 1 0 18:37 14.07.2019
5157 Clouds 15 1033 38 10000 2.6 40 18:18 14.07.2019
5158 Clouds 13 1034 43 10000 1.5 60 17:42 14.07.2019
5159 Clouds 13 1034 43 10000 1.5 30 17:19 14.07.2019
5160 Clouds 11 1034 50 10000 2.1 50 16:46 14.07.2019
5161 Clouds 11 1034 50 10000 2.1 50 16:24 14.07.2019
5162 Haze 8 1035 61 10000 1 0 15:50 14.07.2019
5163 Haze 8 1035 61 10000 1 0 15:27 14.07.2019
5164 Haze 3 1034 74 10000 0.5 0 14:48 14.07.2019
5165 Haze 3 1034 74 10000 0.5 0 14:21 14.07.2019
5166 Clouds 1 1033 86 10000 1 80 13:49 14.07.2019
5167 Clouds 1 1033 86 10000 1 80 13:25 14.07.2019
5168 Clouds 1 1033 86 10000 1.5 90 12:58 14.07.2019
5169 Clouds 2 1032 74 10000 1.5 290 12:40 14.07.2019
5170 Clouds 3 1032 74 10000 1.04 305.091 12:19 14.07.2019
5171 Clouds 3 1032 74 10000 1.04 305.091 11:51 14.07.2019
5172 Clouds 3 1032 74 10000 1.04 305.091 11:22 14.07.2019
5173 Clouds 3 1032 74 10000 1.04 305.091 10:49 14.07.2019
5174 Clouds 4 1033 69 10000 0.5 360 10:23 14.07.2019
5175 Clouds 4 1033 69 10000 0.5 360 09:51 14.07.2019
5176 Clouds 4 1033 69 10000 0.5 360 09:30 14.07.2019
5177 Clear 4 1033 69 10000 1 50 08:57 14.07.2019
5178 Clear 4 1033 69 10000 1 50 08:39 14.07.2019
5179 Clear 5 1033 65 10000 0.5 300 07:47 14.07.2019
5180 Clear 5 1033 65 10000 0.5 300 07:22 14.07.2019
5181 Clear 6 1032 60 10000 2.1 300 05:47 14.07.2019
5182 Clear 6 1032 60 10000 2.1 300 05:25 14.07.2019
5183 Mist 11 1030 77 10000 0.5 270 03:44 14.07.2019
5184 Mist 11 1030 66 10000 0.5 270 03:25 14.07.2019
5185 Rain 12 1030 66 10000 2.6 300 02:38 14.07.2019
5186 Rain 13 1029 66 10000 3.6 280 02:20 14.07.2019
5187 Rain 15 1029 33 10000 2.6 350 01:30 14.07.2019
5188 Rain 16 1028 31 10000 3.1 360 00:55 14.07.2019
5189 Clouds 18 1028 25 10000 3.1 350 00:36 14.07.2019
5190 Clouds 18 1027 25 10000 4.1 20 00:18 14.07.2019
5191 Clouds 19 1027 22 10000 5.1 10 23:41 13.07.2019
5192 Clouds 18 1027 20 10000 4.6 20 23:22 13.07.2019
5193 Clouds 20 1027 16 10000 5.1 10 22:43 13.07.2019
5194 Clouds 20 1027 16 10000 5.1 10 22:22 13.07.2019
5195 Clouds 21 1028 10 10000 3.1 170 21:49 13.07.2019
5196 Clouds 21 1028 10 10000 3.1 170 21:22 13.07.2019
5197 Clouds 21 1028 10 10000 2.6 60 20:53 13.07.2019
5198 Clear 20 1029 11 10000 1.5 0 20:34 13.07.2019
5199 Clear 20 1030 12 10000 0.5 0 19:54 13.07.2019
5200 Clear 19 1030 16 10000 1.5 170 19:31 13.07.2019
5201 Clear 17 1031 21 10000 3.1 30 18:59 13.07.2019
5202 Clear 16 1032 26 10000 1 0 18:39 13.07.2019
5203 Clear 15 1033 33 10000 2.6 60 18:19 13.07.2019
5204 Clear 12 1034 40 10000 2.1 50 17:38 13.07.2019
5205 Clear 11 1034 40 10000 1.5 20 17:19 13.07.2019
5206 Clear 9 1035 49 10000 1 60 16:44 13.07.2019
5207 Clear 9 1035 49 10000 1 60 16:26 13.07.2019
5208 Clear 7 1035 56 10000 1 0 15:48 13.07.2019
5209 Clear 5 1034 60 10000 1 110 15:24 13.07.2019
5210 Clear 5 1034 60 10000 1 110 14:57 13.07.2019
5211 Clear 1 1034 80 10000 0.25 280.491 14:38 13.07.2019
5212 Clear 1 1034 74 10000 0.25 280.491 14:19 13.07.2019
5213 Clear 1 1033 80 10000 0.5 100 13:43 13.07.2019
5214 Clear 0 1033 76 10000 1 80 13:19 13.07.2019
5215 Clear 9 1032 42 10000 2.1 260 12:41 13.07.2019
5216 Clear 1 1032 74 10000 1.17 343.009 12:23 13.07.2019
5217 Clear 1 1032 74 10000 1.17 343.009 11:57 13.07.2019
5218 Clear 1 1032 74 10000 1.17 343.009 11:36 13.07.2019
5219 Clear 2 1031 69 10000 1.17 343.009 11:18 13.07.2019
5220 Clear 2 1031 69 10000 1.17 343.009 10:39 13.07.2019
5221 Clear 2 1031 69 10000 1.17 343.009 10:21 13.07.2019
5222 Clear 12 1029 34 10000 1 120 09:42 13.07.2019
5223 Clear 12 1029 34 10000 1 120 09:24 13.07.2019
5224 Clear 12 1029 34 10000 1 120 08:48 13.07.2019
5225 Clear 5 1020 81 0 1.26 353.367 08:27 13.07.2019
5226 Clear 4 1029 60 10000 2.1 270 07:42 13.07.2019
5227 Clear 6 1031 56 10000 1 270 07:20 13.07.2019
5228 Clear 6 1031 56 10000 1 270 06:29 13.07.2019
5229 Clear 8 1031 49 10000 2.1 90 05:43 13.07.2019
5230 Clear 9 1030 45 10000 2.6 280 04:39 13.07.2019
5231 Clear 11 1030 40 10000 1.5 360 04:18 13.07.2019
5232 Clear 11 1029 40 10000 1.69 12.54 03:40 13.07.2019
5233 Clear 13 1029 32 10000 3.1 280 02:52 13.07.2019
5234 Clear 15 1028 28 10000 2.1 260 01:52 13.07.2019
5235 Clouds 18 1027 22 10000 3.6 10 01:21 13.07.2019
5236 Clouds 18 1027 22 10000 3.6 10 00:58 13.07.2019
5237 Clear 21 1026 12 10000 3.6 300 00:21 13.07.2019
5238 Clouds 21 1026 11 10000 2.6 10 23:49 12.07.2019
5239 Clouds 21 1026 11 10000 2.6 10 23:30 12.07.2019
5240 Clouds 22 1026 10 10000 2.6 350 22:57 12.07.2019
5241 Clear 22 1026 10 10000 2.6 350 22:38 12.07.2019
5242 Clouds 22 1027 10 10000 2.1 280 22:20 12.07.2019
5243 Clear 21 1027 9 10000 2.1 60 21:41 12.07.2019
5244 Clear 21 1028 9 10000 2.6 50 21:19 12.07.2019
5245 Clear 21 1029 10 10000 3.1 60 20:44 12.07.2019
5246 Clear 21 1029 10 10000 3.1 60 20:23 12.07.2019
5247 Clear 20 1030 13 10000 5.1 80 19:43 12.07.2019
5248 Clear 20 1030 13 10000 5.1 80 19:25 12.07.2019
5249 Clear 19 1031 14 10000 1 360 18:56 12.07.2019
5250 Clear 17 1032 18 10000 1 210 18:36 12.07.2019
5251 Clear 16 1032 19 10000 1 290 18:18 12.07.2019
5252 Clear 13 1033 26 10000 2.1 70 17:42 12.07.2019
5253 Clear 13 1033 26 10000 2.1 70 17:23 12.07.2019
5254 Haze 10 1034 31 10000 2.1 30 16:37 12.07.2019
5255 Haze 10 1034 31 10000 2.1 30 16:37 12.07.2019
5256 Haze 9 1034 39 10000 0.5 40 16:18 12.07.2019
5257 Haze 6 1034 45 10000 1 30 15:39 12.07.2019
5258 Haze 5 1034 48 10000 1 80 15:19 12.07.2019
5259 Clear 1 1033 64 10000 0.5 60 14:45 12.07.2019
5260 Clear 1 1033 64 10000 0.5 60 14:21 12.07.2019
5261 Clear 0 1033 75 10000 0.5 50 13:53 12.07.2019
5262 Clear -1 1033 74 10000 0.44 238.812 13:32 12.07.2019
5263 Clear 0 1032 74 10000 1 100 12:44 12.07.2019
5264 Clear 0 1032 79 10000 0.78 217.546 12:24 12.07.2019
5265 Clear 0 1032 79 10000 0.78 217.546 11:58 12.07.2019
5266 Clear 0 1032 79 10000 0.78 217.546 11:39 12.07.2019
5267 Clear 2 1032 59 10000 0.78 217.546 11:19 12.07.2019
5268 Clear 2 1032 59 10000 0.78 217.546 10:41 12.07.2019
5269 Clear 2 1032 59 10000 0.78 217.546 10:23 12.07.2019
5270 Clear 2 1032 55 10000 0.78 217.546 09:53 12.07.2019
5271 Clear 2 1032 55 10000 0.78 217.546 09:29 12.07.2019
5272 Clear 2 1032 55 10000 0.78 217.546 09:29 12.07.2019
5273 Clear 3 1032 55 10000 1 0 08:52 12.07.2019
5274 Clear 3 1032 55 10000 1 0 08:25 12.07.2019
5275 Clear 4 1032 51 10000 0.76 296.295 07:54 12.07.2019
5276 Clear 4 1032 51 10000 0.76 296.295 07:32 12.07.2019
5277 Clear 5 1032 52 10000 1.5 270 06:44 12.07.2019
5278 Clear 5 1032 52 10000 1.5 270 06:25 12.07.2019
5279 Clear 9 1031 31 10000 1 0 04:55 12.07.2019
5280 Clear 13 1029 24 10000 3.1 300 03:20 12.07.2019
5281 Clear 16 1028 14 10000 3.1 320 01:38 12.07.2019
5282 Clouds 19 1027 10 10000 3.6 350 00:49 12.07.2019
5283 Clear 20 1026 8 10000 5.1 20 00:20 12.07.2019
5284 Clear 21 1026 9 10000 2.6 350 23:43 11.07.2019
5285 Clear 21 1026 9 10000 2.6 350 23:24 11.07.2019
5286 Clear 22 1026 7 10000 1.5 320 22:52 11.07.2019
5287 Clear 21 1027 9 10000 1 20 22:26 11.07.2019
5288 Clear 21 1027 8 10000 1 120 21:57 11.07.2019
5289 Clear 22 1028 7 10000 4.6 290 21:38 11.07.2019
5290 Clouds 21 1028 9 10000 3.6 200 21:18 11.07.2019
5291 Clouds 21 1012 56 10000 1 190 20:42 11.07.2019
5292 Rain 21 1012 56 10000 1 190 20:23 11.07.2019
5293 Clouds 21 1030 9 10000 1.5 340 19:57 11.07.2019
5294 Rain 20 1031 12 10000 2.1 30 19:39 11.07.2019
5295 Rain 20 1032 13 10000 0.5 0 19:20 11.07.2019
5296 Rain 19 1033 13 10000 1 50 18:42 11.07.2019
5297 Clouds 17 1033 13 10000 1 50 18:24 11.07.2019
5298 Clouds 12 1034 17 10000 1.5 0 17:49 11.07.2019
5299 Clouds 12 1034 17 10000 1.5 0 17:31 11.07.2019
5300 Clouds 11 1034 18 10000 1.5 70 16:56 11.07.2019
5301 Clouds 8 1035 28 10000 1.5 30 16:37 11.07.2019
5302 Clouds 7 1035 30 10000 1 110 16:18 11.07.2019
5303 Clouds 5 1035 35 10000 1 90 15:40 11.07.2019
5304 Clear 5 1035 35 10000 1 90 15:21 11.07.2019
5305 Clear -2 1035 58 10000 0.45 337.676 14:45 11.07.2019
5306 Clear -2 1035 58 10000 0.45 337.676 14:25 11.07.2019
5307 Clear -2 1034 58 10000 0.45 337.676 13:59 11.07.2019
5308 Clear -2 1034 58 10000 1.5 80 13:40 11.07.2019
5309 Clouds -2 1034 58 10000 0.42 338.148 13:22 11.07.2019
5310 Clouds -3 1034 63 10000 1 0 12:38 11.07.2019
5311 Clear 0 1033 88 10000 1 0 12:19 11.07.2019
5312 Clear 0 1033 88 10000 1 0 11:45 11.07.2019
5313 Clear 0 1033 88 10000 1 0 11:27 11.07.2019
5314 Clear 0 1033 88 10000 1.5 80 10:52 11.07.2019
5315 Clear 0 1034 88 10000 1.5 290 10:20 11.07.2019
5316 Clear 0 1034 88 10000 1.5 290 10:20 11.07.2019
5317 Clear 0 1034 88 10000 1.5 290 09:53 11.07.2019
5318 Clear 0 1034 80 10000 1.5 290 09:32 11.07.2019
5319 Clear 0 1034 84 10000 1.07 290.325 08:59 11.07.2019
5320 Clear 0 1034 84 10000 1.07 290.325 08:39 11.07.2019
5321 Clear 1 1034 47 10000 1.07 290.325 08:19 11.07.2019
5322 Clear 1 1034 47 10000 1.07 290.325 07:43 11.07.2019
5323 Clear 3 1034 40 10000 1.07 290.325 06:55 11.07.2019
5324 Clear 3 1033 34 10000 1.46 336.972 06:18 11.07.2019
5325 Clear 3 1033 34 10000 1.46 336.972 05:32 11.07.2019
5326 Clear 5 1033 30 10000 1.46 336.972 04:56 11.07.2019
5327 Clear 8 1033 17 10000 2.6 290 03:57 11.07.2019
5328 Clear 12 1031 8 10000 3.1 280 02:25 11.07.2019
5329 Clouds 16 1030 5 10000 5.7 20 00:35 11.07.2019
5330 Clouds 19 1029 8 10000 6.2 20 23:51 10.07.2019
5331 Clouds 19 1029 8 10000 6.2 20 23:27 10.07.2019
5332 Clouds 20 1029 7 10000 6.2 10 22:57 10.07.2019
5333 Clouds 20 1029 8 10000 6.2 20 22:26 10.07.2019
5334 Clouds 21 1030 10 10000 1.5 0 21:57 10.07.2019
5335 Clouds 21 1030 10 10000 1.5 0 21:39 10.07.2019
5336 Clouds 21 1030 10 10000 3.1 250 21:21 10.07.2019
5337 Clouds 20 1032 11 10000 1 0 20:47 10.07.2019
5338 Clouds 20 1032 11 10000 1 0 20:26 10.07.2019
5339 Clouds 19 1032 12 10000 2.1 160 19:58 10.07.2019
5340 Clouds 19 1033 12 10000 0.5 0 19:40 10.07.2019
5341 Clouds 18 1034 18 10000 1.5 0 19:20 10.07.2019
5342 Clouds 16 1035 23 10000 2.1 120 18:46 10.07.2019
5343 Clouds 16 1035 23 10000 2.1 120 18:24 10.07.2019
5344 Clouds 12 1033 30 10000 1 0 17:49 10.07.2019
5345 Clouds 12 1033 30 10000 1 0 17:30 10.07.2019
5346 Haze 10 1037 31 10000 1 0 16:48 10.07.2019
5347 Haze 10 1037 31 10000 1 0 16:22 10.07.2019
5348 Haze 6 1037 45 10000 1 0 15:47 10.07.2019
5349 Haze 6 1037 45 10000 1 0 15:26 10.07.2019
5350 -273 0 0 0 0 0 15:26 10.07.2019
5351 Haze 4 1037 48 10000 1 0 14:59 10.07.2019
5352 Haze 1 1037 59 10000 0.5 0 14:37 10.07.2019
5353 Clouds -1 1036 68 10000 0.5 0 14:19 10.07.2019
5354 Clouds -1 1036 68 10000 1 80 13:38 10.07.2019
5355 Clouds -1 1036 68 10000 1 90 13:18 10.07.2019
5356 Clouds -1 1036 63 10000 2.1 310 12:41 10.07.2019
5357 Clear 2 1035 55 10000 1.5 110 12:21 10.07.2019
5358 Clear 2 1035 55 10000 1.5 110 11:50 10.07.2019
5359 Clear 1 1035 50 10000 0.79 237.595 11:22 10.07.2019
5360 Clear 1 1035 50 10000 0.79 237.595 10:58 10.07.2019
5361 Clear 1 1035 50 10000 0.79 237.595 10:24 10.07.2019
5362 Clear 2 1036 47 10000 0.5 270 09:59 10.07.2019
5363 Clear 2 1036 47 10000 0.5 270 09:41 10.07.2019
5364 Clear 1 1036 50 10000 2.1 300 09:20 10.07.2019
5365 Clear 1 1036 50 10000 2.1 300 08:49 10.07.2019
5366 Clear 1 1036 50 10000 2.1 300 08:26 10.07.2019
5367 Clear 2 1036 43 10000 0.5 90 07:51 10.07.2019
5368 Clear 2 1036 43 10000 0.5 90 07:24 10.07.2019
5369 Clear 3 1036 37 10000 2.1 290 06:41 10.07.2019
5370 Clear 4 1036 35 10000 2.6 280 05:42 10.07.2019
5371 Clear 5 1035 30 10000 1.5 300 04:33 10.07.2019
5372 Rain 14 1032 10 10000 1.5 0 02:38 10.07.2019
5373 Clear 17 1030 9 10000 6.2 20 00:44 10.07.2019
5374 Rain 18 1030 6 10000 7.2 30 23:57 09.07.2019
5375 Rain 19 1030 6 10000 7.2 20 23:37 09.07.2019
5376 Rain 20 1030 7 10000 6.7 30 23:19 09.07.2019
5377 Clouds 20 1030 8 10000 5.7 20 22:40 09.07.2019
5378 Clouds 20 1030 8 10000 5.7 20 22:21 09.07.2019
5379 Clouds 21 1030 14 10000 2.6 0 21:47 09.07.2019
5380 Clouds 21 1030 14 10000 2.6 0 21:27 09.07.2019
5381 Clouds 21 1031 14 10000 1.5 0 20:57 09.07.2019
5382 Clouds 21 1031 14 10000 2.1 240 20:39 09.07.2019
5383 Clouds 20 1032 18 10000 2.6 30 20:21 09.07.2019
5384 Clouds 20 1033 19 10000 2.1 120 19:39 09.07.2019
5385 Clouds 19 1034 20 10000 2.1 330 19:19 09.07.2019
5386 Clouds 18 1034 25 10000 1 0 18:40 09.07.2019
5387 Clouds 16 1035 29 10000 1.5 10 18:22 09.07.2019
5388 Clouds 14 1036 61 10000 1.5 50 17:44 09.07.2019
5389 Clouds 14 1036 61 10000 1.5 50 17:22 09.07.2019
5390 Clouds 12 1036 40 10000 1 0 16:59 09.07.2019
5391 Clouds 10 1037 43 10000 1.5 50 16:41 09.07.2019
5392 Clouds 10 1037 43 10000 1.5 50 16:22 09.07.2019
5393 Haze 7 1037 56 10000 1 0 15:44 09.07.2019
5394 Haze 7 1037 56 10000 1 0 15:25 09.07.2019
5395 Haze 3 1036 69 10000 1.5 80 14:45 09.07.2019
5396 Haze 3 1036 69 10000 1.5 80 14:24 09.07.2019
5397 Clouds 1 1036 74 10000 1.5 110 13:57 09.07.2019
5398 Clouds 1 1036 74 10000 1 270 13:39 09.07.2019
5399 Clouds 1 1036 74 10000 1 80 13:20 09.07.2019
5400 Clouds 2 1035 69 10000 1 100 12:39 09.07.2019
5401 Clouds 3 1035 69 10000 0.64 274.95 12:19 09.07.2019
5402 Clouds 3 1035 69 10000 0.64 274.95 11:56 09.07.2019
5403 Clouds 3 1035 69 10000 0.64 274.95 11:37 09.07.2019
5404 Clouds 3 1035 69 10000 1.5 100 11:19 09.07.2019
5405 Clouds 3 1035 69 10000 1.5 100 10:47 09.07.2019
5406 Clouds 3 1035 69 10000 1.5 100 10:26 09.07.2019
5407 Clouds 4 1035 60 10000 0.64 274.95 09:39 09.07.2019
5408 Clear 3 1036 64 10000 0.5 290 09:20 09.07.2019
5409 Clear 3 1036 64 10000 0.5 290 08:45 09.07.2019
5410 Clear 3 1036 64 10000 0.5 290 08:45 09.07.2019
5411 Clear 5 1035 52 10000 1.5 80 08:21 09.07.2019
5412 Clear 13 1030 37 10000 1 90 03:52 05.07.2019
5413 Clear 14 1029 47 10000 4.1 280 03:24 05.07.2019
5414 Clear 14 1029 47 10000 4.1 280 02:52 05.07.2019
5415 Clear 15 1028 28 10000 5.1 300 02:34 05.07.2019
5416 Clear 17 1027 16 10000 4.6 300 01:37 05.07.2019
5417 Clear 21 1026 13 10000 5.7 310 00:52 05.07.2019
5418 Clear 21 1026 13 10000 5.7 310 00:32 05.07.2019
5419 Clear 23 1026 13 10000 4.1 330 23:47 04.07.2019
5420 Clear 23 1026 13 10000 4.6 300 23:19 04.07.2019
5421 Clear 23 1027 13 10000 3.1 340 22:43 04.07.2019
5422 Clear 23 1027 15 10000 3.6 0 22:24 04.07.2019
5423 Clear 22 1027 17 10000 1 350 21:45 04.07.2019
5424 Clear 22 1027 17 10000 1 350 21:26 04.07.2019
5425 Clear 22 1028 17 10000 2.1 300 20:59 04.07.2019
5426 Clear 21 1029 22 10000 2.1 0 20:38 04.07.2019
5427 Clear 21 1029 22 10000 2.6 0 20:20 04.07.2019
5428 Clear 19 1030 29 10000 1 310 19:42 04.07.2019
5429 Clear 18 1031 31 10000 1.5 0 19:22 04.07.2019
5430 Clear 18 1031 31 10000 1.5 0 19:22 04.07.2019
5431 Clear 18 1031 31 10000 1.5 0 18:56 04.07.2019
5432 Clear 17 1032 33 10000 1 0 18:37 04.07.2019
5433 Clear 16 1032 36 10000 1.5 280 18:18 04.07.2019
5434 Clear 14 1033 44 10000 2.1 0 17:43 04.07.2019
5435 Clouds 14 1033 44 10000 1 120 17:19 04.07.2019
5436 Clouds 10 1033 61 10000 1.5 90 15:57 04.07.2019
5437 Clouds 9 1033 66 10000 2.1 110 15:39 04.07.2019
5438 Clouds 9 1032 66 10000 2.1 100 15:19 04.07.2019
5439 Clouds 8 1032 70 10000 1.5 90 14:44 04.07.2019
5440 Clouds 8 1032 70 10000 1.5 90 14:25 04.07.2019
5441 Clouds 8 1032 70 10000 0.5 0 13:58 04.07.2019
5442 Clouds 8 1031 70 10000 1 0 13:40 04.07.2019
5443 Clouds 7 1031 70 10000 1.01 309.733 13:22 04.07.2019
5444 Clouds 7 1031 75 10000 0.5 360 12:40 04.07.2019
5445 Clouds 5 1030 75 10000 1 70 12:21 04.07.2019
5446 Clouds 5 1030 75 10000 1 70 11:57 04.07.2019
5447 Clouds 5 1030 75 10000 1 70 11:37 04.07.2019
5448 Clouds 4 1030 80 10000 0.5 360 11:19 04.07.2019
5449 Clouds 4 1030 80 10000 0.5 360 10:40 04.07.2019
5450 Clouds 4 1030 80 10000 1.5 310 10:19 04.07.2019
5451 Clouds 4 1030 80 10000 1.5 310 09:41 04.07.2019
5452 Clouds 4 1030 80 10000 1.5 310 09:21 04.07.2019
5453 Clear 6 1030 75 10000 1 100 08:56 04.07.2019
5454 Clear 6 1030 75 10000 1 100 08:56 04.07.2019
5455 Clear 6 1030 75 10000 1 100 08:22 04.07.2019
5456 Clear 7 1030 70 10000 2.1 290 07:43 04.07.2019
5457 Clear 8 1030 65 10000 3.6 290 07:22 04.07.2019
5458 Clear 8 1030 65 10000 3.6 290 06:45 04.07.2019
5459 Clear 8 1030 61 10000 3.1 280 05:51 04.07.2019
5460 Clear 8 1030 61 10000 3.1 280 05:32 04.07.2019
5461 Rain 15 1027 44 10000 3.1 100 02:42 04.07.2019
5462 Rain 18 1025 22 10000 3.6 340 01:41 04.07.2019
5463 Rain 19 1025 15 10000 3.1 320 01:21 04.07.2019
5464 Clear 23 1024 8 10000 3.6 290 23:56 03.07.2019
5465 Clear 24 1024 8 10000 3.6 310 23:37 03.07.2019
5466 Clear 24 1024 6 10000 2.1 260 23:18 03.07.2019
5467 Clear 24 1025 5 10000 2.61 303.159 22:42 03.07.2019
5468 Clear 24 1025 5 10000 2.44 286.29 22:24 03.07.2019
5469 Clear 24 1025 5 10000 2.1 310 21:59 03.07.2019
5470 Clear 23 1026 6 10000 2.6 30 21:39 03.07.2019
5471 Clear 23 1026 10 10000 2.1 280 21:20 03.07.2019
5472 Clear 23 1027 11 10000 1.49 271.157 20:43 03.07.2019
5473 Clear 23 1027 11 10000 1.49 271.157 20:23 03.07.2019
5474 Clear 21 1029 12 10000 2.6 20 19:50 03.07.2019
5475 Clear 21 1029 12 10000 2.6 20 19:50 03.07.2019
5476 Clear 21 1029 12 10000 2.6 20 19:32 03.07.2019
5477 Clear 18 1030 22 10000 0.5 0 18:48 03.07.2019
5478 Clear 18 1030 22 10000 0.5 0 18:29 03.07.2019
5479 -273 0 0 0 0 0 17:57 03.07.2019
5480 Clear 14 1032 35 10000 0.5 0 17:37 03.07.2019
5481 Clear 13 1032 38 10000 0.5 0 17:18 03.07.2019
5482 Clear 11 1033 50 10000 2.1 50 16:43 03.07.2019
5483 Clear 11 1033 50 10000 2.1 50 16:21 03.07.2019
5484 Clear 8 1033 38 10000 1 110 15:49 03.07.2019
5485 Clear 8 1033 38 10000 1 110 15:31 03.07.2019
5486 Clear 7 1032 81 10000 1 60 14:56 03.07.2019
5487 Clear 1 1032 80 10000 1.06 179.025 14:37 03.07.2019
5488 Clear 1 1031 80 10000 1 290 14:18 03.07.2019
5489 Clear 1 1031 80 10000 1 290 13:35 03.07.2019
5490 Clear 2 1031 80 10000 1 0 12:55 03.07.2019
5491 Clear 2 1030 80 10000 0.93 188.305 12:22 03.07.2019
5492 Clear 2 1030 80 10000 0.93 188.305 11:59 03.07.2019
5493 Clear 2 1030 80 10000 0.93 188.305 11:40 03.07.2019
5494 Clear 2 1030 80 10000 0.93 188.305 11:21 03.07.2019
5495 Clear 4 1030 69 10000 0.93 188.305 10:42 03.07.2019
5496 Clear 4 1030 69 10000 0.93 188.305 10:23 03.07.2019
5497 Clear 4 1031 69 10000 0.93 188.305 09:43 03.07.2019
5498 Clear 4 1031 85 10000 0.5 0 09:22 03.07.2019
5499 Clear 4 1031 85 10000 0.5 0 08:57 03.07.2019
5500 Clear 4 1031 85 10000 0.5 0 08:38 03.07.2019
5501 Clear 6 1031 85 10000 0.5 0 08:18 03.07.2019
5502 Clear 6 1031 85 10000 0.5 0 07:37 03.07.2019
5503 Clear 6 1031 85 10000 2.6 280 06:55 03.07.2019
5504 Clear 9 1031 84 10000 0.5 0 05:57 03.07.2019
5505 Clear 9 1031 84 10000 0.5 0 05:27 03.07.2019
5506 Clear 10 1030 84 10000 2.6 270 03:58 03.07.2019
5507 Clear 15 1029 33 10000 3.1 320 02:55 03.07.2019
5508 Clear 16 1028 59 10000 3.6 290 01:39 03.07.2019
5509 Clear 16 1028 59 10000 3.6 290 01:21 03.07.2019
5510 Clear 19 1027 59 10000 5.1 280 00:40 03.07.2019
5511 Clear 20 1027 26 10000 6.2 310 23:55 02.07.2019
5512 Clear 20 1027 26 10000 6.2 310 23:37 02.07.2019
5513 Clear 21 1027 21 10000 5.1 310 23:18 02.07.2019
5514 Clear 22 1027 21 10000 1.5 290 22:41 02.07.2019
5515 Clear 22 1027 21 10000 1.5 290 22:23 02.07.2019
5516 Clear 22 1027 26 10000 1.5 210 21:58 02.07.2019
5517 Clear 22 1027 26 10000 1.5 210 21:39 02.07.2019
5518 Clouds 21 1028 26 10000 1.5 320 21:20 02.07.2019
5519 Clouds 21 1029 32 10000 1.5 30 20:42 02.07.2019
5520 Clouds 20 1030 28 10000 2.6 20 20:24 02.07.2019
5521 Clouds 19 1030 29 10000 4.1 300 19:59 02.07.2019
5522 Clouds 19 1030 29 10000 4.1 300 19:40 02.07.2019
5523 Clouds 18 1032 31 10000 1.5 80 19:21 02.07.2019
5524 Clouds 16 1032 38 10000 2.1 40 18:45 02.07.2019
5525 Clouds 16 1032 38 10000 2.1 40 18:18 02.07.2019
5526 Clouds 14 1034 44 10000 1 160 17:41 02.07.2019
5527 Clouds 13 1034 47 10000 2.1 60 17:22 02.07.2019
5528 Haze 11 1034 53 10000 2.1 340 16:49 02.07.2019
5529 Haze 11 1034 53 10000 2.1 340 16:31 02.07.2019
5530 Haze 7 1034 65 10000 1 360 15:45 02.07.2019
5531 Haze 7 1034 65 10000 1 360 15:25 02.07.2019
5532 Haze 7 1034 65 10000 0.5 330 14:54 02.07.2019
5533 Clouds 1 1033 86 10000 0.5 270 14:36 02.07.2019
5534 Clouds 1 1033 86 10000 0.5 270 13:56 02.07.2019
5535 Clouds 1 1033 86 10000 0.5 270 13:36 02.07.2019
5536 Clouds 2 1033 80 10000 0.63 285.607 13:18 02.07.2019
5537 Clouds 1 1033 86 10000 0.63 285.607 12:43 02.07.2019
5538 Clear 2 1033 80 10000 0.5 0 12:21 02.07.2019
5539 Clear 2 1032 80 10000 2.1 290 11:42 02.07.2019
5540 Clear 3 1032 74 10000 1 310 11:22 02.07.2019
5541 Clear 3 1032 74 10000 1 310 10:47 02.07.2019
5542 Clear 3 1032 74 10000 1 310 10:26 02.07.2019
5543 Clear 4 1033 90 10000 0.86 233.661 09:49 02.07.2019
5544 Clouds 4 1033 69 10000 2.1 290 09:22 02.07.2019
5545 Clouds 4 1033 69 10000 2.1 290 08:52 02.07.2019
5546 Clouds 4 1033 69 10000 2.1 290 08:34 02.07.2019
5547 Clouds 5 1033 85 10000 0.5 100 07:55 02.07.2019
5548 Clouds 5 1033 85 10000 0.5 100 07:21 02.07.2019
5549 Clouds 6 1033 85 10000 1.5 290 06:54 02.07.2019
5550 Clouds 6 1033 81 10000 1.5 290 06:35 02.07.2019
5551 Clouds 7 1033 81 10000 2.6 290 04:59 02.07.2019
5552 Clouds 13 1031 37 10000 3.1 280 02:28 02.07.2019
5553 Clouds 19 1029 25 10000 3.1 360 00:23 02.07.2019
5554 Clouds 20 1029 24 10000 3.6 250 23:24 01.07.2019
5555 Clouds 19 1029 24 10000 4.6 290 22:48 01.07.2019
5556 Clouds 19 1029 24 10000 4.6 290 22:28 01.07.2019
5557 Clouds 21 1030 24 10000 2.6 300 21:49 01.07.2019
5558 Clouds 21 1030 24 10000 2.6 300 21:28 01.07.2019
5559 Clouds 21 1031 22 10000 2.1 150 20:57 01.07.2019
5560 Clouds 20 1031 28 10000 1.5 250 20:39 01.07.2019
5561 Clouds 18 1032 31 10000 1.5 310 20:19 01.07.2019
5562 Clouds 18 1032 31 10000 1.5 310 19:42 01.07.2019
5563 Clouds 18 1033 34 10000 2.6 20 19:24 01.07.2019
5564 Clear 16 1034 38 10000 1.5 50 18:55 01.07.2019
5565 Clear 16 1034 38 10000 1.5 50 18:37 01.07.2019
5566 Clear 15 1035 41 10000 2.1 330 18:18 01.07.2019
5567 Clear 15 1035 41 10000 2.1 330 17:42 01.07.2019
5568 Clouds 13 1036 50 10000 1 0 17:22 01.07.2019
5569 Clear 11 1036 53 10000 1.5 60 16:47 01.07.2019
5570 Clear 11 1036 53 10000 1.5 60 16:26 01.07.2019
5571 Clear 10 1036 57 10000 1 0 15:55 01.07.2019
5572 Clear 9 1036 61 10000 0.5 0 15:36 01.07.2019
5573 Clouds 7 1036 65 10000 0.44 157.28 15:18 01.07.2019
5574 Clouds 2 1035 80 10000 0.44 157.28 14:42 01.07.2019
5575 Clouds 1 1035 86 10000 1 280 14:20 01.07.2019
5576 Clouds 2 1035 84 10000 0.44 157.28 13:42 01.07.2019
5577 Clouds 2 1035 85 10000 0.43 206.862 13:22 01.07.2019
5578 Clouds 2 1034 80 10000 0.43 206.862 12:51 01.07.2019
5579 Clouds 2 1034 80 10000 0.43 206.862 12:32 01.07.2019
5580 Clouds 2 1034 80 10000 0.49 178.946 11:59 01.07.2019
5581 Clouds 2 1034 80 10000 0.49 178.946 11:39 01.07.2019
5582 Clouds 4 1034 84 10000 0.49 178.946 11:19 01.07.2019
5583 Clouds 4 1034 84 10000 0.49 178.946 10:47 01.07.2019
5584 Clouds 4 1034 84 10000 0.49 178.946 10:23 01.07.2019
5585 Clouds 4 1034 84 10000 0.49 178.946 09:45 01.07.2019
5586 Clear 4 1034 82 10000 0.46 17.167 09:27 01.07.2019
5587 Clear 4 1034 82 10000 1 0 08:59 01.07.2019
5588 Clear 4 1034 79 10000 1 0 08:37 01.07.2019
5589 Clear 5 1034 79 10000 0.5 330 07:39 01.07.2019
5590 Clear 6 1034 79 10000 2.1 300 06:52 01.07.2019
5591 Clear 7 1034 79 10000 2.1 280 05:39 01.07.2019
5592 Clouds 16 1030 31 10000 4.6 80 01:28 01.07.2019
5593 Clouds 18 1029 27 10000 2.6 360 00:46 01.07.2019
5594 Clouds 18 1029 27 10000 2.6 340 00:24 01.07.2019
5595 Clouds 20 1029 24 10000 2.6 40 23:39 30.06.2019
5596 Clouds 20 1029 24 10000 4.6 300 23:19 30.06.2019
5597 Clouds 20 1029 22 10000 2.1 210 22:43 30.06.2019
5598 Clouds 20 1029 22 10000 1.5 350 22:20 30.06.2019
5599 Clouds 19 1030 24 10000 2.6 270 21:42 30.06.2019
5600 Clouds 18 1031 40 10000 1.5 20 21:20 30.06.2019
5601 Clouds 18 1031 40 10000 1.5 20 20:55 30.06.2019
5602 Clouds 18 1032 34 10000 2.6 20 20:36 30.06.2019
5603 Clouds 16 1034 41 10000 3.1 310 20:18 30.06.2019
5604 Clouds 16 1034 38 10000 2.1 240 19:43 30.06.2019
5605 Clouds 16 1034 38 10000 2.1 240 19:24 30.06.2019
5606 Clouds 13 1035 50 10000 1.5 360 18:26 30.06.2019
5607 Clouds 13 1036 50 10000 1 0 17:59 30.06.2019
5608 Clouds 12 1036 54 10000 1.5 80 17:38 30.06.2019
5609 Clouds 12 1036 54 10000 1.5 110 17:18 30.06.2019
5610 Clouds 11 1036 62 10000 1.5 100 16:46 30.06.2019
5611 Clouds 11 1036 62 10000 1.5 100 16:26 30.06.2019
5612 Clouds 10 1035 61 10000 1 0 15:38 30.06.2019
5613 Clouds 9 1035 66 10000 1.5 90 15:19 30.06.2019
5614 Clouds 9 1035 66 10000 1.5 90 14:51 30.06.2019
5615 Clouds 8 1034 70 10000 1 100 14:30 30.06.2019
5616 Clouds 8 1034 70 10000 0.43 298.664 13:48 30.06.2019
5617 Clouds 8 1034 70 10000 0.38 313.4 13:29 30.06.2019
5618 Clouds 8 1033 70 10000 0.38 313.4 12:53 30.06.2019
5619 Clouds 7 1033 70 10000 1 100 12:31 30.06.2019
5620 Clouds 7 1032 70 10000 2.1 90 11:59 30.06.2019
5621 Clouds 7 1032 70 10000 2.1 90 11:59 30.06.2019
5622 Clouds 7 1032 70 10000 2.1 90 11:41 30.06.2019
5623 Clouds 7 1032 70 10000 2.1 90 11:20 30.06.2019
5624 Clouds 6 1032 75 10000 0.79 270.219 10:54 30.06.2019
5625 Clouds 6 1032 75 10000 0.79 270.219 10:36 30.06.2019
5626 Clouds 5 1033 80 10000 0.5 130 10:18 30.06.2019
5627 Clouds 5 1033 80 10000 0.5 130 09:42 30.06.2019
5628 Clear 5 1033 80 10000 0.5 130 09:20 30.06.2019
5629 Clear 4 1033 84 10000 0.5 290 08:40 30.06.2019
5630 Clear 5 1033 75 10000 0.5 240 08:21 30.06.2019
5631 Clear 5 1033 75 10000 0.5 240 07:50 30.06.2019
5632 Clear 6 1033 75 10000 0.5 80 07:24 30.06.2019
5633 Clear 6 1033 75 10000 0.5 80 06:37 30.06.2019
5634 Clear 11 1032 53 10000 0.5 0 03:33 30.06.2019
5635 Rain 14 1030 44 10000 2.6 290 01:53 30.06.2019
5636 Clouds 18 1029 31 10000 5.1 310 00:48 30.06.2019
5637 Clouds 18 1029 31 10000 5.1 310 00:24 30.06.2019
5638 Clouds 19 1028 29 10000 3.1 340 23:53 29.06.2019
5639 Clouds 20 1028 54 10000 6.2 320 23:23 29.06.2019
5640 Clouds 21 1028 26 10000 2.1 360 22:48 29.06.2019
5641 Clouds 21 1028 26 10000 2.1 360 22:25 29.06.2019
5642 Clouds 20 1029 28 10000 3.1 20 21:56 29.06.2019
5643 Clouds 18 1029 43 10000 1.5 340 21:25 29.06.2019
5644 Clouds 18 1029 43 10000 1.5 340 21:25 29.06.2019
5645 Clouds 20 1030 28 10000 3.1 340 20:57 29.06.2019
5646 Clouds 18 1031 43 10000 3.6 270 20:36 29.06.2019
5647 Clouds 17 1032 33 10000 5.1 300 20:18 29.06.2019
5648 Clouds 17 1032 36 10000 1.5 0 19:42 29.06.2019
5649 Clouds 17 1032 36 10000 1.5 0 19:21 29.06.2019
5650 Clouds 17 1033 36 10000 2.6 50 18:47 29.06.2019
5651 Clouds 17 1033 36 10000 2.6 50 18:24 29.06.2019
5652 Clouds 15 1034 41 10000 1.5 20 17:39 29.06.2019
5653 Clouds 15 1034 41 10000 1.5 20 17:20 29.06.2019
5654 Clouds 13 1035 50 10000 1 0 16:44 29.06.2019
5655 Clouds 13 1035 50 10000 1 0 16:25 29.06.2019
5656 Haze 10 1034 61 10000 1 0 15:33 29.06.2019
5657 Haze 9 1034 66 10000 1 0 14:59 29.06.2019
5658 Haze 6 1034 75 10000 1 0 14:40 29.06.2019
5659 Haze 6 1034 75 10000 1 0 14:21 29.06.2019
5660 Clouds 4 1033 80 10000 2.1 80 13:43 29.06.2019
5661 Clouds 4 1033 80 10000 2.1 80 13:24 29.06.2019
5662 Clouds 6 1033 75 10000 0.5 360 12:42 29.06.2019
5663 Clouds 7 1032 75 10000 1 270 12:23 29.06.2019
5664 Clouds 7 1032 75 10000 1 270 11:48 29.06.2019
5665 Clouds 7 1032 75 10000 1 270 11:28 29.06.2019
5666 Clouds 8 1032 70 10000 1.5 80 10:52 29.06.2019
5667 Clouds 8 1032 70 10000 1.5 80 10:26 29.06.2019
5668 Clouds 7 1032 70 10000 1 310 09:58 29.06.2019
5669 Clouds 7 1032 70 10000 1 310 09:22 29.06.2019
5670 Clouds 8 1033 70 10000 0.5 90 08:36 29.06.2019
5671 Clouds 7 1033 75 10000 1.5 90 07:46 29.06.2019
5672 Clouds 8 1033 70 10000 1 300 07:18 29.06.2019
5673 Clouds 8 1033 70 10000 1 300 06:41 29.06.2019
5674 Clouds 9 1033 70 10000 1 300 06:20 29.06.2019
5675 Rain 13 1032 54 9000 2.1 270 02:26 29.06.2019
5676 Clouds 14 1030 47 10000 1 0 00:57 29.06.2019
5677 Clouds 14 1030 44 10000 3.6 360 23:58 28.06.2019
5678 Clouds 15 1030 41 10000 4.1 290 23:23 28.06.2019
5679 Clouds 14 1030 47 10000 4.1 340 22:52 28.06.2019
5680 Clouds 14 1030 47 10000 4.1 340 22:27 28.06.2019
5681 Clouds 16 1030 36 10000 6.2 290 21:46 28.06.2019
5682 Clouds 16 1030 36 10000 6.2 290 21:20 28.06.2019
5683 Clouds 18 1030 31 10000 3.6 280 20:44 28.06.2019
5684 Clouds 17 1031 36 10000 5.7 300 20:21 28.06.2019
5685 Clouds 18 1031 34 10000 1 190 19:45 28.06.2019
5686 Clouds 18 1031 34 10000 1 190 19:27 28.06.2019
5687 Clouds 17 1033 36 10000 3.1 330 18:43 28.06.2019
5688 Clouds 17 1033 36 10000 3.1 330 18:22 28.06.2019
5689 Clouds 16 1033 38 10000 1.5 0 17:56 28.06.2019
5690 Clouds 16 1033 38 10000 1.5 0 17:56 28.06.2019
5691 Clouds 15 1034 41 10000 1.5 240 17:29 28.06.2019
5692 Clouds 12 1034 54 10000 2.1 20 16:49 28.06.2019
5693 Clouds 12 1034 54 10000 2.1 20 16:24 28.06.2019
5694 Clouds 9 1034 57 10000 1.01 250.152 15:48 28.06.2019
5695 Clouds 7 1034 65 10000 1 110 15:22 28.06.2019
5696 Drizzle 7 1034 81 10000 0.75 252.459 14:43 28.06.2019
5697 Drizzle 7 1034 81 10000 0.75 252.459 14:43 28.06.2019
5698 Drizzle 7 1034 81 10000 0.75 252.459 14:22 28.06.2019
5699 Drizzle 6 1033 81 10000 0.5 150 13:51 28.06.2019
5700 Clouds 5 1032 83 10000 0.99 271.214 13:30 28.06.2019
5701 Clouds 5 1032 83 10000 1.5 90 12:58 28.06.2019
5702 Clear 5 1032 83 10000 1 160 12:40 28.06.2019
5703 Clear 5 1032 84 10000 1 260 11:50 28.06.2019
5704 Clear 5 1032 84 10000 1 260 11:22 28.06.2019
5705 Clear 4 1031 69 10000 0.92 313.286 10:44 28.06.2019
5706 Clear 4 1031 69 10000 0.92 313.286 10:44 28.06.2019
5707 Clear 4 1031 69 10000 0.92 313.286 10:21 28.06.2019
5708 Clear 4 1031 69 10000 0.92 313.286 09:47 28.06.2019
5709 Clear 4 1031 69 10000 0.92 313.286 09:29 28.06.2019
5710 Clear 6 1032 60 10000 1.2 358.096 08:45 28.06.2019
5711 Clear 6 1032 60 10000 1.2 358.096 08:25 28.06.2019
5712 Clear 4 1032 64 10000 2.6 300 07:46 28.06.2019
5713 Clear 6 1032 60 10000 1 10 06:58 28.06.2019
5714 Clear 5 1020 78 0 1.66 5.625 05:55 28.06.2019
5715 Clear 14 1028 33 10000 4.1 290 01:22 28.06.2019
5716 Clear 17 1027 25 10000 4.6 310 00:33 28.06.2019
5717 Clouds 19 1027 20 10000 6.2 290 23:48 27.06.2019
5718 Clouds 19 1027 20 10000 6.2 290 23:25 27.06.2019
5719 Clouds 19 1027 22 10000 7.7 320 22:55 27.06.2019
5720 Clouds 20 1027 18 10000 7.7 300 22:36 27.06.2019
5721 Clouds 20 1027 19 10000 4.1 310 22:18 27.06.2019
5722 Clouds 19 1028 22 10000 4.1 290 21:47 27.06.2019
5723 Clouds 19 1028 22 10000 4.1 290 21:29 27.06.2019
5724 Clouds 19 1029 22 10000 4.6 280 20:55 27.06.2019
5725 Clear 19 1029 22 10000 4.1 270 20:36 27.06.2019
5726 Clouds 19 1029 24 10000 5.7 310 20:18 27.06.2019
5727 Clouds 18 1030 25 10000 7.2 290 19:41 27.06.2019
5728 Clouds 18 1030 25 10000 7.2 290 19:23 27.06.2019
5729 Clouds 15 1032 29 10000 2.1 260 18:42 27.06.2019
5730 Clouds 15 1032 38 10000 2.6 310 18:19 27.06.2019
5731 Clouds 12 1033 46 10000 1 280 17:43 27.06.2019
5732 Clouds 12 1033 46 10000 2.6 90 17:22 27.06.2019
5733 Clouds 10 1034 46 10000 1 80 16:39 27.06.2019
5734 Clouds 10 1034 46 10000 1 80 16:19 27.06.2019
5735 Haze 9 1034 46 10000 1 80 15:51 27.06.2019
5736 Haze 7 1034 56 10000 1 100 15:31 27.06.2019
5737 Haze 7 1033 56 10000 0.5 360 14:57 27.06.2019
5738 Clouds 2 1033 74 10000 0.5 80 14:36 27.06.2019
5739 Clouds 1 1033 80 10000 0.5 100 14:18 27.06.2019
5740 Clouds 1 1032 80 10000 1 0 13:42 27.06.2019
5741 Clouds 1 1032 80 10000 1 0 13:24 27.06.2019
5742 Clouds 1 1031 74 10000 0.5 0 12:43 27.06.2019
5743 Clouds 1 1031 74 10000 0.5 0 12:23 27.06.2019
5744 Clouds 2 1031 80 10000 0.75 289.308 11:45 27.06.2019
5745 Clouds 2 1031 80 10000 0.75 289.308 11:22 27.06.2019
5746 Clouds 1 1031 80 10000 0.5 0 10:56 27.06.2019
5747 Clouds 1 1031 80 10000 0.5 0 10:36 27.06.2019
5748 Clouds 3 1031 74 10000 1.5 270 10:18 27.06.2019
5749 Clouds 3 1031 74 10000 1.5 270 10:18 27.06.2019
5750 Clouds 3 1031 74 10000 1.5 270 09:38 27.06.2019
5751 Clouds 3 1031 74 10000 1.5 270 09:20 27.06.2019
5752 Clouds 5 1032 65 10000 1.5 110 08:46 27.06.2019
5753 Clouds 5 1032 65 10000 1.5 110 08:46 27.06.2019
5754 Clouds 5 1032 65 10000 1.5 110 08:46 27.06.2019
5755 Clouds 5 1032 65 10000 1.5 110 08:26 27.06.2019
5756 Clouds 5 1032 65 10000 2.1 280 07:40 27.06.2019
5757 Clouds 6 1032 56 10000 1.11 300.857 06:56 27.06.2019
5758 Clouds 6 1032 56 10000 1.64 336.934 06:30 27.06.2019
5759 Haze 11 1030 43 10000 3.1 280 03:50 27.06.2019
5760 Clouds 12 1029 37 10000 2.1 280 02:41 27.06.2019
5761 Clouds 15 1027 28 10000 4.6 310 01:19 27.06.2019
5762 Clouds 16 1027 26 10000 6.2 300 00:48 27.06.2019
5763 Clouds 16 1027 26 10000 6.2 300 00:26 27.06.2019
5764 Clouds 19 1026 22 10000 6.7 310 23:48 26.06.2019
5765 Clouds 19 1026 22 10000 6.7 310 23:22 26.06.2019
5766 Clouds 19 1026 20 10000 7.2 310 22:57 26.06.2019
5767 Clouds 20 1026 16 10000 5.1 330 22:38 26.06.2019
5768 Clouds 20 1027 15 10000 5.7 310 22:18 26.06.2019
5769 Clouds 20 1027 15 10000 5.7 290 21:41 26.06.2019
5770 Clouds 20 1027 15 10000 5.7 290 21:20 26.06.2019
5771 Clouds 20 1027 16 10000 6.2 280 20:51 26.06.2019
5772 Clouds 19 1028 15 10000 5.1 280 20:31 26.06.2019
5773 Clouds 20 1028 14 10000 7.7 290 20:00 26.06.2019
5774 Clouds 18 1029 25 10000 1.5 80 19:40 26.06.2019
5775 Clouds 17 1030 27 10000 2.1 240 19:22 26.06.2019
5776 Clouds 15 1031 30 10000 1.5 0 18:45 26.06.2019
5777 Clouds 14 1032 33 10000 1.5 0 18:22 26.06.2019
5778 Clouds 14 1032 33 10000 1.5 0 17:54 26.06.2019
5779 Clouds 12 1033 40 10000 3.1 60 17:27 26.06.2019
5780 Clouds 11 1033 40 10000 1.5 70 16:53 26.06.2019
5781 Clouds 10 1034 46 10000 1 20 16:30 26.06.2019
5782 Clouds 9 1034 49 10000 1.5 30 15:58 26.06.2019
5783 Clouds 7 1034 52 10000 1 60 15:30 26.06.2019
5784 Clouds 7 1034 52 10000 0.66 287.665 14:58 26.06.2019
5785 -273 0 0 0 0 0 14:37 26.06.2019
5786 -273 0 0 0 0 0 14:37 26.06.2019
5787 Clouds 0 1033 76 10000 1 80 14:19 26.06.2019
5788 Clouds 0 1032 76 10000 1 0 13:41 26.06.2019
5789 Clouds 0 1032 76 10000 0.98 284.107 13:19 26.06.2019
5790 Clouds 1 1032 74 10000 0.98 284.107 12:41 26.06.2019
5791 Clouds 1 1032 74 10000 0.98 284.107 12:41 26.06.2019
5792 Clouds 1 1032 74 10000 1.18 313.148 12:21 26.06.2019
5793 Clouds 2 1031 69 10000 1 70 11:42 26.06.2019
5794 Clouds 2 1031 69 10000 1 350 11:19 26.06.2019
5795 Clouds 2 1031 69 10000 1 350 10:41 26.06.2019
5796 Clouds 2 1031 69 10000 1 350 10:21 26.06.2019
5797 Clouds 3 1032 64 10000 1 290 09:37 26.06.2019
5798 Clear 4 1032 60 10000 1.22 354.546 09:18 26.06.2019
5799 Clear 4 1032 60 10000 1.22 354.546 08:39 26.06.2019
5800 Clouds 5 1032 56 10000 1.01 3.516 08:19 26.06.2019
5801 Clouds 5 1032 56 10000 1.01 3.516 07:43 26.06.2019
5802 Clouds 7 1031 48 10000 1.01 3.516 06:34 26.06.2019
5803 Clouds 7 1031 45 10000 1 0 05:55 26.06.2019
5804 Clouds 17 1026 16 10000 5.7 310 00:57 26.06.2019
5805 Clouds 19 1026 11 10000 4.1 310 00:19 26.06.2019
5806 Clouds 20 1026 10 10000 5.7 320 23:41 25.06.2019
5807 Clouds 20 1026 10 10000 5.7 320 23:23 25.06.2019
5808 Clouds 20 1026 8 10000 5.7 330 22:55 25.06.2019
5809 Clouds 21 1026 11 10000 3.6 280 22:37 25.06.2019
5810 Clouds 20 1026 11 10000 3.1 330 22:18 25.06.2019
5811 Clouds 20 1027 10 10000 5.1 280 21:37 25.06.2019
5812 Clear 20 1028 10 10000 6.2 270 21:19 25.06.2019
5813 Clear 20 1029 12 10000 4.1 270 20:38 25.06.2019
5814 Clear 20 1029 12 10000 4.1 270 20:38 25.06.2019
5815 Clear 19 1029 12 10000 2.1 50 20:19 25.06.2019
5816 Clear 18 1030 16 10000 3.6 40 19:45 25.06.2019
5817 Clear 18 1031 16 10000 2.6 0 19:22 25.06.2019
5818 Clear 18 1032 18 10000 1 0 18:43 25.06.2019
5819 Clear 18 1032 18 10000 1 0 18:25 25.06.2019
5820 -273 0 0 0 0 0 17:51 25.06.2019
5821 -273 0 0 0 0 0 17:51 25.06.2019
5822 -273 0 0 0 0 0 17:51 25.06.2019
5823 -273 0 0 0 0 0 17:51 25.06.2019
5824 -273 0 0 0 0 0 17:29 25.06.2019
5825 Clear 13 1033 35 10000 1 0 16:57 25.06.2019
5826 Haze 10 1034 43 10000 1.5 0 16:38 25.06.2019
5827 Haze 10 1034 43 10000 1.5 0 16:19 25.06.2019
5828 Haze 7 1034 52 10000 1 0 15:40 25.06.2019
5829 Haze 7 1034 52 10000 1 0 15:21 25.06.2019
5830 Haze 1 1032 74 10000 0.85 193.066 14:53 25.06.2019
5831 Haze 1 1032 74 10000 0.85 193.066 14:33 25.06.2019
5832 Clouds 0 1032 76 10000 1 290 13:45 25.06.2019
5833 Clear 0 1032 78 10000 1 290 13:26 25.06.2019
5834 Clear 1 1031 74 10000 1 50 12:43 25.06.2019
5835 Clear 1 1031 74 10000 1 50 12:24 25.06.2019
5836 Clear 2 1031 69 10000 0.5 300 11:48 25.06.2019
5837 Clear 2 1031 69 10000 0.5 300 11:26 25.06.2019
5838 Clear 2 1031 69 10000 1.5 300 10:59 25.06.2019
5839 Clear 2 1031 69 10000 1.5 300 10:39 25.06.2019
5840 Clear 2 1032 64 10000 1.5 290 10:21 25.06.2019
5841 Clear 2 1032 64 10000 1.5 290 09:40 25.06.2019
5842 Clear 4 1032 60 10000 1.42 284.144 09:22 25.06.2019
5843 Clear 4 1032 60 10000 1.42 284.144 09:00 25.06.2019
5844 Clear 4 1032 60 10000 1.42 284.144 08:32 25.06.2019
5845 Clear 5 1032 56 10000 0.5 110 07:58 25.06.2019
5846 Clear 5 1032 56 10000 0.5 110 07:36 25.06.2019
5847 Clear 6 1032 52 10000 0.5 50 06:52 25.06.2019
5848 Clear 8 1031 45 10000 2.1 280 06:25 25.06.2019
5849 Clear 14 1029 28 10000 4.1 270 02:45 25.06.2019
5850 Clear 15 1028 24 10000 4.1 280 01:38 25.06.2019
5851 Clear 19 1027 14 10000 4.6 310 00:35 25.06.2019
5852 Clear 20 1028 10 10000 3.6 0 23:53 24.06.2019
5853 Clear 20 1028 10 10000 3.6 0 23:33 24.06.2019
5854 Clear 21 1028 11 10000 1 0 22:59 24.06.2019
5855 Clear 21 1028 15 10000 2.6 0 22:38 24.06.2019
5856 Clear 21 1028 15 10000 4.1 320 22:18 24.06.2019
5857 Clear 21 1029 11 10000 3.1 0 21:38 24.06.2019
5858 Clear 21 1030 11 10000 2.6 0 21:18 24.06.2019
5859 Clear 20 1031 14 10000 2.1 0 20:54 24.06.2019
5860 Clear 20 1031 14 10000 2.1 0 20:36 24.06.2019
5861 Clear 19 1031 16 10000 1.5 0 20:18 24.06.2019
5862 Clear 18 1032 20 10000 3.6 80 19:41 24.06.2019
5863 Clear 18 1032 20 10000 3.6 80 19:21 24.06.2019
5864 Clear 16 1034 26 10000 1 0 18:43 24.06.2019
5865 Clear 16 1034 26 10000 1 0 18:24 24.06.2019
5866 Clear 12 1035 27 10000 2.1 40 17:38 24.06.2019
5867 Clear 10 1036 29 10000 1.5 70 17:19 24.06.2019
5868 Clear 9 1036 34 10000 0.5 0 16:45 24.06.2019
5869 Clear 9 1036 34 10000 0.5 0 16:20 24.06.2019
5870 Haze 6 1037 45 10000 0.5 0 15:46 24.06.2019
5871 Haze 4 1037 51 10000 1 0 15:25 24.06.2019
5872 Haze 2 1036 59 10000 1.5 90 14:39 24.06.2019
5873 Haze 2 1036 59 10000 1.5 90 14:21 24.06.2019
5874 Clear 0 1035 85 10000 1 90 13:44 24.06.2019
5875 Clear 0 1035 85 10000 1 90 13:23 24.06.2019
5876 Clear -1 1035 68 10000 1 70 12:42 24.06.2019
5877 Clear -1 1035 68 10000 1 70 12:21 24.06.2019
5878 Clear 1 1034 59 10000 0.5 360 11:45 24.06.2019
5879 Clear 1 1034 59 10000 0.5 360 11:27 24.06.2019
5880 Clear 0 1034 87 10000 1 290 10:53 24.06.2019
5881 Clear 0 1034 87 10000 1 290 10:53 24.06.2019
5882 Clear 0 1034 87 10000 1 290 10:34 24.06.2019
5883 Clear 1 1034 59 10000 1.5 300 09:58 24.06.2019
5884 Clear 1 1034 59 10000 1.5 300 09:58 24.06.2019
5885 Clear 1 1034 59 10000 1.5 300 09:39 24.06.2019
5886 Clear 1 1034 55 10000 1 290 09:18 24.06.2019
5887 Clear 1 1034 55 10000 1 290 08:41 24.06.2019
5888 Clear 3 1034 47 10000 0.5 250 07:59 24.06.2019
5889 Clear 3 1034 47 10000 0.5 250 07:40 24.06.2019
5890 Clear 3 1034 47 10000 0.5 250 07:21 24.06.2019
5891 Clear 4 1034 48 10000 1 290 06:23 24.06.2019
5892 Clear 6 1034 38 10000 0.5 70 05:40 24.06.2019
5893 Clear 6 1033 38 10000 1.5 310 04:43 24.06.2019
5894 Clear 7 1032 36 10000 2.1 280 03:48 24.06.2019
5895 Clear 13 1031 20 10000 2.6 270 02:47 24.06.2019
5896 Clear 13 1031 20 10000 1.5 270 01:55 24.06.2019
5897 Clear 15 1031 18 10000 3.6 310 01:33 24.06.2019
5898 Clear 16 1031 19 10000 1.5 0 00:50 24.06.2019
5899 Clear 19 1030 13 10000 3.6 30 00:20 24.06.2019
5900 Clear 21 1030 9 10000 0.5 0 23:48 23.06.2019
5901 Clear 21 1030 9 10000 0.5 0 23:48 23.06.2019
5902 Clear 21 1030 9 10000 0.5 0 23:28 23.06.2019
5903 Clear 21 1030 9 10000 0.5 0 23:28 23.06.2019
5904 Clear 21 1030 9 10000 1 0 22:58 23.06.2019
5905 Clear 21 1031 9 10000 2.6 290 22:39 23.06.2019
5906 Clear 20 1031 9 10000 1.5 250 22:19 23.06.2019
5907 Clear 20 1032 11 10000 4.1 330 21:41 23.06.2019
5908 Clouds 20 1032 11 10000 4.1 330 21:22 23.06.2019
5909 Clouds 20 1033 12 10000 3.1 310 20:51 23.06.2019
5910 Clouds 19 1034 11 10000 2.6 340 20:29 23.06.2019
5911 Clouds 19 1034 12 10000 1.5 0 19:54 23.06.2019
5912 Clouds 18 1035 12 10000 1.5 60 19:36 23.06.2019
5913 Clouds 16 1036 13 10000 1.5 80 19:18 23.06.2019
5914 Clouds 15 1037 16 10000 1.5 0 18:41 23.06.2019
5915 Clouds 13 1037 24 10000 1.5 10 18:19 23.06.2019
5916 Clouds 12 1038 18 10000 2.1 30 17:41 23.06.2019
5917 Clouds 11 1038 20 10000 2.1 60 17:21 23.06.2019
5918 Clouds 8 1039 24 10000 1.5 70 16:44 23.06.2019
5919 Clouds 8 1039 24 10000 1.5 70 16:44 23.06.2019
5920 Clouds 8 1039 24 10000 1.5 70 16:24 23.06.2019
5921 Clouds 5 1039 32 10000 0.5 40 15:43 23.06.2019
5922 Clear 5 1039 32 10000 0.5 40 15:24 23.06.2019
5923 Clear 3 1039 37 10000 0.5 90 14:59 23.06.2019
5924 Clear -2 1039 58 10000 0.72 232.292 14:37 23.06.2019
5925 Clear -2 1038 58 10000 0.72 232.292 14:19 23.06.2019
5926 Clear -2 1038 54 10000 0.72 232.292 13:42 23.06.2019
5927 Clouds -2 1038 54 10000 0.74 250.189 13:20 23.06.2019
5928 Clouds -3 1038 58 10000 1.5 300 12:56 23.06.2019
5929 Clouds -2 1037 54 10000 3.1 80 12:37 23.06.2019
5930 Clear -1 1037 80 10000 0.55 242.319 12:18 23.06.2019
5931 Clear -1 1037 80 10000 0.55 242.319 11:44 23.06.2019
5932 Clear -1 1037 80 10000 0.55 242.319 11:24 23.06.2019
5933 Clear -1 1037 54 10000 2.1 290 10:47 23.06.2019
5934 Clear -1 1037 54 10000 2.1 290 10:21 23.06.2019
5935 Clear -1 1037 54 10000 0.55 242.319 09:54 23.06.2019
5936 Clouds -1 1037 54 10000 0.53 1.837 09:22 23.06.2019
5937 Clouds 0 1037 76 10000 0.53 1.837 08:46 23.06.2019
5938 Clouds 0 1037 76 10000 0.47 357.915 08:27 23.06.2019
5939 Clouds 1 1037 40 10000 0.47 357.915 07:55 23.06.2019
5940 Clouds 1 1037 40 10000 0.47 357.915 07:25 23.06.2019
5941 Clouds 2 1037 34 10000 0.47 357.915 06:59 23.06.2019
5942 Clouds 2 1037 34 10000 0.47 357.915 06:40 23.06.2019
5943 Clouds 5 1037 25 10000 2.6 290 04:38 23.06.2019
5944 Clear 12 1035 11 10000 3.1 80 02:32 23.06.2019
5945 Clear 13 1034 9 10000 7.2 20 01:39 23.06.2019
5946 Clear 15 1033 11 10000 5.7 20 00:47 23.06.2019
5947 Clear 15 1033 11 10000 5.7 20 00:26 23.06.2019
5948 Clear 18 1033 10 10000 4.6 20 23:42 22.06.2019
5949 Clear 18 1033 10 10000 4.6 20 23:24 22.06.2019
5950 Clear 19 1033 11 10000 6.7 40 22:46 22.06.2019
5951 Clear 19 1033 11 10000 7.2 30 22:24 22.06.2019
5952 Clear 20 1033 10 10000 4.1 20 21:41 22.06.2019
5953 Clear 20 1034 22 10000 6.2 30 21:20 22.06.2019
5954 Clear 20 1034 22 10000 6.2 30 20:53 22.06.2019
5955 Clear 20 1034 12 10000 2.6 10 20:27 22.06.2019
5956 Clear 20 1035 13 10000 1.5 110 19:58 22.06.2019
5957 Clear 19 1035 14 10000 2.6 80 19:39 22.06.2019
5958 Clear 18 1036 18 10000 2.1 20 19:19 22.06.2019
5959 Clear 16 1037 26 10000 2.1 60 18:41 22.06.2019
5960 Clear 14 1037 30 10000 1.5 50 18:19 22.06.2019
5961 Clear 12 1038 34 10000 1.5 40 17:40 22.06.2019
5962 Clear 12 1038 34 10000 1.5 40 17:22 22.06.2019
5963 Haze 10 1039 37 10000 0.5 20 16:40 22.06.2019
5964 Haze 10 1039 37 10000 0.5 20 16:22 22.06.2019
5965 Clear 6 1039 48 10000 1 50 15:42 22.06.2019
5966 Clear 6 1039 48 10000 1 50 15:24 22.06.2019
5967 Haze 4 1039 60 10000 1.5 90 14:50 22.06.2019
5968 Haze 1 1038 69 10000 1 100 14:29 22.06.2019
5969 Clear 0 1038 80 10000 1 80 13:55 22.06.2019
5970 Clear 0 1038 80 10000 1.5 280 13:36 22.06.2019
5971 Clear -1 1038 74 10000 1.5 260 13:18 22.06.2019
5972 Clear -1 1037 74 10000 0.65 155.688 12:41 22.06.2019
5973 Clear 0 1037 80 10000 0.3 185.126 11:59 22.06.2019
5974 Clear 0 1037 80 10000 0.3 185.126 11:40 22.06.2019
5975 Clear 1 1037 64 10000 1.5 310 10:54 22.06.2019
5976 Clear 2 1037 64 10000 0.3 185.126 10:22 22.06.2019
5977 Clear 2 1037 64 10000 0.3 185.126 09:56 22.06.2019
5978 Clear 2 1037 64 10000 0.34 342.775 09:28 22.06.2019
5979 Clear 2 1037 59 10000 1.5 270 08:45 22.06.2019
5980 Clear 2 1037 59 10000 1.5 270 08:26 22.06.2019
5981 Clear 3 1037 55 10000 1 290 07:43 22.06.2019
5982 Clear 4 1037 48 10000 1.5 270 06:58 22.06.2019
5983 Clear 4 1037 48 10000 1.5 270 06:31 22.06.2019
5984 Clear 10 1035 27 10000 1 300 03:21 22.06.2019
5985 Clear 14 1034 16 10000 3.6 30 02:18 22.06.2019
5986 Clear 17 1033 16 10000 4.6 360 00:47 22.06.2019
5987 Clear 17 1033 16 10000 4.6 360 00:23 22.06.2019
5988 Clear 19 1032 17 10000 5.7 10 23:49 21.06.2019
5989 Clear 19 1032 17 10000 5.7 10 23:22 21.06.2019
5990 Clear 19 1032 15 10000 5.7 10 22:53 21.06.2019
5991 Clear 20 1032 16 10000 5.7 20 22:25 21.06.2019
5992 Clear 20 1032 18 10000 3.6 40 21:56 21.06.2019
5993 Clear 20 1033 18 10000 1 80 21:37 21.06.2019
5994 Clear 20 1033 18 10000 2.6 340 21:19 21.06.2019
5995 Clear 19 1034 19 10000 1 190 20:47 21.06.2019
5996 Clear 18 1035 23 10000 0.5 220 20:22 21.06.2019
5997 Clear 18 1036 23 10000 1 30 19:38 21.06.2019
5998 Clear 17 1037 23 10000 1.5 240 18:55 21.06.2019
5999 Clear 15 1038 33 10000 2.1 360 18:34 21.06.2019
6000 Clear 14 1038 41 10000 2.6 50 17:56 21.06.2019
6001 Clear 12 1039 40 10000 2.1 50 17:30 21.06.2019
6002 Clear 9 1039 49 10000 1.5 0 16:42 21.06.2019
6003 Clear 9 1039 49 10000 1.5 0 16:23 21.06.2019
6004 Clear 6 1039 60 10000 1 60 15:53 21.06.2019
6005 Clear 6 1039 60 10000 1 60 15:33 21.06.2019
6006 Clear 4 1039 69 10000 1 90 14:53 21.06.2019
6007 Clear -1 1039 86 10000 0.48 221.952 14:31 21.06.2019
6008 Clouds -1 1038 86 10000 0.48 221.952 13:59 21.06.2019
6009 Clouds 0 1038 83 10000 0.48 221.952 13:37 21.06.2019
6010 Clouds 0 1038 83 10000 0.63 196.559 13:18 21.06.2019
6011 Clouds 0 1038 83 10000 1 0 12:42 21.06.2019
6012 Clouds 0 1038 81 10000 1 0 12:22 21.06.2019
6013 Clear 0 1037 81 10000 0.34 240.945 11:48 21.06.2019
6014 Clear 0 1037 81 10000 0.34 240.945 11:27 21.06.2019
6015 Clear 0 1037 81 10000 1.5 290 10:56 21.06.2019
6016 Clear 0 1037 81 10000 1.5 290 10:38 21.06.2019
6017 Clear 0 1037 81 10000 1.5 290 10:19 21.06.2019
6018 Clear 1 1037 80 10000 1 310 09:41 21.06.2019
6019 Clear 1 1037 80 10000 1 310 09:21 21.06.2019
6020 Clear 2 1037 74 10000 0.56 328.311 08:44 21.06.2019
6021 Clear 2 1037 74 10000 0.81 324.143 08:24 21.06.2019
6022 Clear 2 1037 47 10000 0.81 324.143 07:56 21.06.2019
6023 Clear 2 1037 47 10000 0.81 324.143 07:38 21.06.2019
6024 Clear 4 1037 64 10000 0.81 324.143 06:58 21.06.2019
6025 Clear 4 1037 64 10000 1.19 6.085 06:23 21.06.2019
6026 Clear 4 1037 69 10000 1.19 6.085 05:30 21.06.2019
6027 Clear 5 1036 65 10000 1 0 04:31 21.06.2019
6028 Clear 8 1036 52 10000 1.19 6.085 03:35 21.06.2019
6029 Clouds 10 1034 46 10000 2.6 310 02:53 21.06.2019
6030 Clouds 12 1034 34 10000 2.6 340 01:56 21.06.2019
6031 Clouds 14 1034 35 10000 4.1 40 00:58 21.06.2019
6032 Clouds 15 1034 65 10000 4.6 10 00:27 21.06.2019
6033 Clouds 17 1033 33 10000 2.1 20 23:49 20.06.2019
6034 Clouds 17 1033 33 10000 2.1 20 23:24 20.06.2019
6035 Clouds 16 1033 38 10000 4.6 340 22:58 20.06.2019
6036 Clouds 16 1034 51 10000 5.1 350 22:39 20.06.2019
6037 Clouds 16 1034 51 10000 5.1 350 22:21 20.06.2019
6038 Clouds 15 1034 47 10000 1.5 70 21:49 20.06.2019
6039 Clouds 15 1035 47 10000 1 40 21:19 20.06.2019
6040 Clouds 15 1035 47 10000 1 40 20:58 20.06.2019
6041 Clouds 15 1035 47 10000 1.5 220 20:39 20.06.2019
6042 Clouds 14 1036 50 10000 1 140 20:18 20.06.2019
6043 Clouds 13 1037 58 10000 2.1 110 19:39 20.06.2019
6044 Clouds 13 1037 58 10000 1 0 19:18 20.06.2019
6045 Rain 12 1038 58 10000 3.1 110 18:43 20.06.2019
6046 Rain 12 1038 58 10000 3.1 110 18:23 20.06.2019
6047 Clouds 12 1038 58 10000 2.1 110 17:57 20.06.2019
6048 Clouds 10 1038 71 10000 1.5 0 17:39 20.06.2019
6049 Clouds 9 1038 70 10000 2.1 80 16:58 20.06.2019
6050 Mist 8 1038 75 10000 2.1 100 16:39 20.06.2019
6051 Mist 8 1038 75 10000 2.1 110 16:19 20.06.2019
6052 Mist 8 1038 75 10000 2.1 110 16:19 20.06.2019
6053 Mist 8 1038 81 10000 1.5 90 15:42 20.06.2019
6054 Mist 8 1038 81 10000 1.5 90 15:23 20.06.2019
6055 Mist 7 1038 81 10000 1.5 170 14:52 20.06.2019
6056 Drizzle 6 1037 87 9000 1 100 14:24 20.06.2019
6057 Drizzle 6 1037 87 9000 1 100 13:56 20.06.2019
6058 Rain 6 1036 81 9000 1 360 13:37 20.06.2019
6059 Drizzle 7 1036 75 10000 1 140 13:18 20.06.2019
6060 Drizzle 6 1036 81 10000 0.5 80 12:40 20.06.2019
6061 Clouds 6 1035 75 10000 3.1 90 12:19 20.06.2019
6062 Clouds 6 1035 75 10000 3.1 90 11:40 20.06.2019
6063 Clouds 6 1035 75 10000 3.1 90 11:22 20.06.2019
6064 Clouds 6 1035 70 10000 0.5 20 10:43 20.06.2019
6065 Clouds 5 1035 75 10000 0.5 80 10:23 20.06.2019
6066 Clouds 5 1035 75 10000 0.5 80 09:41 20.06.2019
6067 Clouds 5 1035 75 10000 0.5 80 09:41 20.06.2019
6068 Clouds 5 1035 75 10000 0.5 80 09:23 20.06.2019
6069 Clouds 6 1036 70 10000 0.95 43.249 08:48 20.06.2019
6070 Clouds 6 1036 70 10000 0.95 43.249 08:28 20.06.2019
6071 Clouds 6 1035 70 10000 0.95 43.249 07:59 20.06.2019
6072 Clouds 6 1035 70 10000 0.95 43.249 07:33 20.06.2019
6073 Clouds 7 1036 65 10000 1 170 06:57 20.06.2019
6074 Clouds 8 1036 61 10000 1 250 06:18 20.06.2019
6075 Clouds 11 1035 50 10000 1.5 90 03:40 20.06.2019
6076 Clouds 18 1031 18 10000 5.1 10 00:59 20.06.2019
6077 Clouds 18 1031 18 10000 5.1 10 00:33 20.06.2019
6078 Clouds 20 1031 13 10000 5.1 40 23:43 19.06.2019
6079 Clouds 20 1031 13 10000 5.1 40 23:25 19.06.2019
6080 Clouds 21 1031 15 10000 4.6 40 22:48 19.06.2019
6081 Clouds 21 1031 15 10000 4.6 40 22:24 19.06.2019
6082 Clouds 22 1031 12 10000 3.6 30 21:57 19.06.2019
6083 Clouds 22 1031 13 10000 2.1 0 21:37 19.06.2019
6084 Clouds 21 1032 12 10000 3.1 40 21:18 19.06.2019
6085 Clouds 21 1032 16 10000 4.1 350 20:39 19.06.2019
6086 Clouds 21 1032 21 10000 2.1 0 20:20 19.06.2019
6087 Clouds 21 1033 26 10000 1.5 40 19:43 19.06.2019
6088 Clouds 21 1033 26 10000 1.5 40 19:24 19.06.2019
6089 Clouds 19 1034 32 10000 1.5 0 18:55 19.06.2019
6090 Clouds 17 1034 36 10000 1.5 100 18:23 19.06.2019
6091 Clouds 16 1036 38 10000 0.44 93.389 17:43 19.06.2019
6092 Clouds 16 1036 38 10000 0.44 93.389 17:25 19.06.2019
6093 Clouds 14 1036 50 10000 1.5 0 16:56 19.06.2019
6094 Clouds 12 1036 58 10000 0.5 0 16:36 19.06.2019
6095 Clouds 11 1036 62 10000 2.1 50 16:18 19.06.2019
6096 Haze 9 1037 66 10000 2.1 90 15:42 19.06.2019
6097 Haze 9 1037 66 10000 2.1 90 15:20 19.06.2019
6098 Haze 5 1036 93 10000 0.5 0 14:43 19.06.2019
6099 Haze 5 1036 93 10000 0.5 0 14:23 19.06.2019
6100 Clouds 3 1035 86 10000 0.5 320 13:44 19.06.2019
6101 Clouds 3 1035 93 10000 0.07 212.471 13:25 19.06.2019
6102 Clouds 3 1035 93 10000 0.07 212.471 13:25 19.06.2019
6103 Clouds 4 1035 86 10000 0.07 212.471 12:48 19.06.2019
6104 Clouds 4 1035 86 10000 0.5 201.013 12:22 19.06.2019
6105 Clouds 4 1035 86 10000 0.5 201.013 12:22 19.06.2019
6106 Clouds 4 1034 86 10000 0.5 360 11:58 19.06.2019
6107 Clouds 4 1034 86 10000 0.5 360 11:39 19.06.2019
6108 Clouds 4 1034 86 10000 0.5 360 11:20 19.06.2019
6109 Clouds 4 1034 86 10000 1 250 10:47 19.06.2019
6110 Clouds 4 1034 86 10000 1 250 10:28 19.06.2019
6111 Clouds 6 1034 81 10000 0.5 360 09:56 19.06.2019
6112 Clouds 6 1034 81 10000 0.5 360 09:36 19.06.2019
6113 Clouds 6 1035 81 10000 0.5 270 09:18 19.06.2019
6114 Clouds 6 1035 81 10000 0.5 270 08:43 19.06.2019
6115 Clouds 6 1035 81 10000 0.5 270 08:24 19.06.2019
6116 Clouds 7 1035 81 10000 2.1 300 07:43 19.06.2019
6117 Clouds 7 1035 81 10000 2.1 300 07:22 19.06.2019
6118 Clouds 7 1034 81 10000 1 80 06:36 19.06.2019
6119 Clouds 7 1034 81 10000 2.1 290 06:18 19.06.2019
6120 Clouds 7 1034 81 10000 2.1 290 05:24 19.06.2019
6121 Clouds 11 1033 66 10000 2.1 70 03:53 19.06.2019
6122 Drizzle 13 1032 50 9000 3.6 290 02:40 19.06.2019
6123 Rain 15 1031 38 10000 1.5 90 01:39 19.06.2019
6124 Rain 17 1031 33 10000 5.7 60 00:54 19.06.2019
6125 Clouds 19 1030 32 10000 4.1 20 00:36 19.06.2019
6126 Clouds 20 1029 30 10000 5.1 10 23:58 18.06.2019
6127 Clouds 22 1029 21 10000 2.1 300 23:37 18.06.2019
6128 Clouds 22 1029 21 10000 4.6 320 23:19 18.06.2019
6129 Clouds 22 1029 21 10000 2.1 360 22:41 18.06.2019
6130 Clouds 22 1029 21 10000 2.1 360 22:21 18.06.2019
6131 Clouds 22 1030 21 10000 2.6 290 21:44 18.06.2019
6132 Clouds 22 1030 21 10000 2.6 290 21:22 18.06.2019
6133 Clouds 22 1032 37 10000 4.1 320 20:58 18.06.2019
6134 Clouds 21 1033 22 10000 3.1 20 20:38 18.06.2019
6135 Clouds 20 1033 24 10000 2.1 330 20:19 18.06.2019
6136 Clouds 19 1034 24 10000 2.6 40 19:39 18.06.2019
6137 Clouds 19 1034 24 10000 2.6 40 19:21 18.06.2019
6138 Clear 18 1036 31 10000 0.5 0 18:49 18.06.2019
6139 Clear 18 1036 31 10000 0.5 0 18:25 18.06.2019
6140 Clear 15 1037 41 10000 0.5 60 17:46 18.06.2019
6141 Clear 15 1037 41 10000 0.5 60 17:22 18.06.2019
6142 Clear 14 1038 44 10000 0.5 30 16:58 18.06.2019
6143 Haze 11 1038 53 10000 1 0 16:39 18.06.2019
6144 Haze 10 1038 53 10000 0.5 20 16:21 18.06.2019
6145 Haze 8 1039 61 10000 0.5 0 15:39 18.06.2019
6146 Haze 8 1039 61 10000 0.5 0 15:20 18.06.2019
6147 Haze 7 1038 65 10000 0.5 330 14:56 18.06.2019
6148 Clear 3 1038 87 10000 1.5 90 14:37 18.06.2019
6149 Clear 2 1037 87 10000 1.5 80 14:18 18.06.2019
6150 -273 0 0 0 0 0 14:18 18.06.2019
6151 Clear 2 1037 87 10000 1 80 13:43 18.06.2019
6152 Clouds 2 1037 87 10000 1 80 13:22 18.06.2019
6153 Clouds 2 1037 80 10000 0.53 210.72 12:45 18.06.2019
6154 Clouds 2 1037 80 10000 0.53 210.72 12:27 18.06.2019
6155 Clear 3 1036 86 10000 0.77 227.265 11:49 18.06.2019
6156 Clear 3 1036 86 10000 0.77 227.265 11:23 18.06.2019
6157 Clear 3 1036 86 10000 0.77 227.265 11:23 18.06.2019
6158 Clear 3 1036 86 10000 0.5 360 10:58 18.06.2019
6159 Clear 3 1036 86 10000 0.5 360 10:38 18.06.2019
6160 Clear 3 1036 86 10000 0.5 360 10:20 18.06.2019
6161 Clear 3 1036 86 10000 2.1 300 09:51 18.06.2019
6162 Clear 3 1036 83 10000 2.1 300 09:24 18.06.2019
6163 Clear 4 1036 83 10000 1 80 08:48 18.06.2019
6164 Clear 4 1036 83 10000 1 80 08:22 18.06.2019
6165 Clear 5 1036 83 10000 2.6 300 07:46 18.06.2019
6166 Clear 5 1036 83 10000 2.6 300 07:24 18.06.2019
6167 Clear 6 1037 83 10000 2.1 290 06:48 18.06.2019
6168 Clear 7 1036 65 10000 2.1 280 05:24 18.06.2019
6169 Clear 9 1036 57 10000 1.5 120 04:21 18.06.2019
6170 Clouds 13 1034 47 10000 0.5 30 02:45 18.06.2019
6171 Clouds 15 1033 65 10000 2.6 310 01:26 18.06.2019
6172 Clouds 16 1033 31 10000 3.1 300 00:57 18.06.2019
6173 Clouds 18 1033 65 10000 5.1 280 00:30 18.06.2019
6174 Clouds 19 1033 52 10000 6.2 270 23:42 17.06.2019
6175 Clouds 19 1033 52 10000 5.7 260 23:23 17.06.2019
6176 Clouds 19 1033 52 10000 5.7 260 22:58 17.06.2019
6177 Clouds 19 1033 29 10000 5.7 310 22:38 17.06.2019
6178 Clouds 19 1033 52 10000 4.1 240 22:20 17.06.2019
6179 Clouds 18 1034 31 10000 4.6 280 21:42 17.06.2019
6180 Clouds 19 1034 29 10000 3.1 330 21:23 17.06.2019
6181 Clouds 18 1034 31 10000 4.6 280 21:23 17.06.2019
6182 Clouds 18 1035 34 10000 2.1 340 20:40 17.06.2019
6183 Clouds 18 1036 31 10000 2.6 360 20:21 17.06.2019
6184 Clouds 18 1036 31 10000 2.6 360 19:56 17.06.2019
6185 Clouds 18 1037 49 10000 1.5 310 19:38 17.06.2019
6186 Clouds 17 1037 33 10000 3.6 40 19:19 17.06.2019
6187 Clouds 17 1037 33 10000 3.6 40 18:39 17.06.2019
6188 Clouds 14 1038 44 10000 2.1 20 18:18 17.06.2019
6189 Clouds 14 1038 44 10000 2.1 20 17:48 17.06.2019
6190 Clouds 14 1038 44 10000 2.1 20 17:48 17.06.2019
6191 Clouds 14 1038 44 10000 2.1 20 17:29 17.06.2019
6192 Clouds 13 1039 47 10000 2.1 20 16:56 17.06.2019
6193 Clouds 13 1039 47 10000 1 80 16:38 17.06.2019
6194 Clouds 11 1039 57 10000 1.5 60 16:20 17.06.2019
6195 Clouds 10 1039 57 10000 1 20 15:43 17.06.2019
6196 Clouds 10 1039 57 10000 0.5 120 15:20 17.06.2019
6197 Clouds 5 1038 80 10000 1 270 14:56 17.06.2019
6198 Clouds 5 1038 80 10000 1 270 14:36 17.06.2019
6199 Clouds 5 1038 80 10000 1 270 14:36 17.06.2019
6200 Clouds 5 1038 75 10000 0.5 360 14:18 17.06.2019
6201 Clouds 5 1037 80 10000 0.94 43.061 13:40 17.06.2019
6202 Clouds 4 1037 80 10000 2.6 290 13:20 17.06.2019
6203 Clouds 7 1037 75 10000 0.75 148.76 12:40 17.06.2019
6204 Clouds 7 1037 75 10000 0.5 0 12:19 17.06.2019
6205 Clouds 7 1037 75 10000 0.5 0 12:19 17.06.2019
6206 Clouds 7 1037 75 10000 0.5 0 11:43 17.06.2019
6207 Clouds 7 1037 75 10000 0.5 0 11:25 17.06.2019
6208 Clouds 7 1036 75 10000 1.5 250 10:47 17.06.2019
6209 Clouds 7 1036 75 10000 1.5 250 10:29 17.06.2019
6210 Clouds 8 1037 70 10000 2.1 60 09:56 17.06.2019
6211 Clouds 8 1037 70 10000 2.1 60 09:34 17.06.2019
6212 Clouds 7 1037 75 10000 1.5 50 08:55 17.06.2019
6213 Clouds 7 1037 75 10000 1.5 50 08:36 17.06.2019
6214 Clouds 8 1037 70 10000 1 0 08:18 17.06.2019
6215 Clouds 8 1037 70 10000 1 0 07:38 17.06.2019
6216 Clouds 9 1037 66 10000 1.5 260 07:18 17.06.2019
6217 Clouds 9 1037 66 10000 3.1 270 06:22 17.06.2019
6218 Clouds 9 1037 66 10000 3.1 270 05:29 17.06.2019
6219 Clouds 10 1036 61 10000 1 250 04:30 17.06.2019
6220 Clouds 10 1036 61 10000 1.53 3.609 03:32 17.06.2019
6221 Clouds 11 1035 57 10000 2.1 270 02:46 17.06.2019
6222 Clouds 11 1035 57 10000 2.1 270 02:28 17.06.2019
6223 Clouds 11 1034 57 10000 3.6 300 01:36 17.06.2019
6224 Clouds 11 1034 57 10000 3.1 280 00:58 17.06.2019
6225 Clouds 12 1034 54 10000 5.1 300 00:38 17.06.2019
6226 Clouds 13 1034 43 10000 4.1 280 00:19 17.06.2019
6227 Clouds 14 1033 41 10000 5.7 290 23:39 16.06.2019
6228 Clouds 14 1033 41 10000 5.7 290 23:39 16.06.2019
6229 Clouds 15 1033 64 10000 1.5 240 23:20 16.06.2019
6230 Clouds 14 1033 44 10000 1 80 22:45 16.06.2019
6231 Drizzle 14 1033 44 9000 1 40 22:20 16.06.2019
6232 Drizzle 14 1033 44 9000 1 40 21:58 16.06.2019
6233 Drizzle 14 1033 44 9000 1 40 21:40 16.06.2019
6234 Clouds 14 1034 44 10000 1 290 21:21 16.06.2019
6235 Clouds 14 1034 44 10000 1 300 20:40 16.06.2019
6236 Clouds 14 1034 44 10000 1.5 300 20:19 16.06.2019
6237 Clouds 14 1034 44 10000 1.5 300 19:58 16.06.2019
6238 Clouds 13 1035 47 10000 1 310 19:39 16.06.2019
6239 Clouds 13 1035 50 10000 0.5 240 19:21 16.06.2019
6240 Clouds 13 1035 50 10000 0.5 240 18:42 16.06.2019
6241 Drizzle 13 1036 50 10000 1 340 18:21 16.06.2019
6242 Drizzle 13 1036 50 10000 1 340 17:58 16.06.2019
6243 Drizzle 13 1036 50 10000 1 340 17:40 16.06.2019
6244 Clouds 11 1036 62 10000 1 0 17:21 16.06.2019
6245 Clouds 11 1036 62 10000 1 0 16:55 16.06.2019
6246 Clouds 11 1036 62 10000 1 0 16:37 16.06.2019
6247 Clouds 11 1036 57 10000 1 60 16:18 16.06.2019
6248 Clouds 11 1036 57 10000 1 60 15:40 16.06.2019
6249 Clouds 9 1036 66 10000 0.5 80 15:21 16.06.2019
6250 Clouds 8 1035 70 10000 0.5 230 14:41 16.06.2019
6251 Clouds 7 1034 75 10000 1.5 110 14:22 16.06.2019
6252 Clouds 7 1034 75 10000 2.1 100 13:51 16.06.2019
6253 Clouds 7 1034 75 10000 2.1 100 13:51 16.06.2019
6254 Clouds 7 1034 75 10000 2.1 100 13:51 16.06.2019
6255 Clouds 7 1034 75 10000 2.1 100 13:26 16.06.2019
6256 Clouds 8 1034 70 10000 2.1 110 12:56 16.06.2019
6257 Clouds 9 1034 66 10000 1.5 130 12:37 16.06.2019
6258 Clouds 8 1034 70 10000 0.84 340.145 12:18 16.06.2019
6259 Clouds 8 1034 70 10000 0.84 340.145 11:38 16.06.2019
6260 Clouds 7 1034 70 10000 0.84 340.145 11:19 16.06.2019
6261 Clouds 7 1034 70 10000 0.84 340.145 10:45 16.06.2019
6262 Clouds 7 1035 75 10000 1 0 10:20 16.06.2019
6263 Clouds 7 1035 75 10000 1 0 09:48 16.06.2019
6264 Clouds 7 1035 70 10000 1 0 09:26 16.06.2019
6265 Clouds 7 1035 70 10000 1 0 08:56 16.06.2019
6266 Clouds 7 1035 70 10000 1 0 08:38 16.06.2019
6267 Clouds 8 1035 65 10000 1.39 4.651 08:18 16.06.2019
6268 Clouds 8 1035 65 10000 1.39 4.651 07:42 16.06.2019
6269 Clouds 7 1035 70 10000 2.6 280 06:57 16.06.2019
6270 Clouds 7 1035 70 10000 2.6 280 06:30 16.06.2019
6271 Clear 7 1035 75 10000 1.5 290 05:40 16.06.2019
6272 Clear 11 1034 62 10000 1 0 04:36 16.06.2019
6273 Clear 11 1033 62 10000 2.05 7.316 03:53 16.06.2019
6274 Clear 11 1033 62 10000 2.05 7.316 03:30 16.06.2019
6275 Clouds 14 1031 47 10000 0.5 0 01:59 16.06.2019
6276 Clouds 15 1030 38 10000 1.5 30 01:40 16.06.2019
6277 Clouds 17 1030 27 10000 5.1 310 01:21 16.06.2019
6278 Clouds 19 1029 20 10000 5.1 300 00:39 16.06.2019
6279 Clouds 20 1029 19 10000 5.7 310 00:19 16.06.2019
6280 Clouds 20 1029 19 10000 5.7 310 23:42 15.06.2019
6281 Clouds 21 1028 16 10000 6.2 280 23:23 15.06.2019
6282 Clouds 21 1028 16 10000 6.2 280 22:49 15.06.2019
6283 Clouds 21 1028 16 10000 6.2 280 22:26 15.06.2019
6284 Clouds 21 1030 21 10000 5.7 290 21:47 15.06.2019
6285 Clouds 21 1030 21 10000 5.7 290 21:29 15.06.2019
6286 Clouds 22 1030 17 10000 5.7 310 20:57 15.06.2019
6287 Clouds 22 1030 17 10000 5.7 310 20:39 15.06.2019
6288 Clouds 20 1031 22 10000 6.7 260 20:18 15.06.2019
6289 Clouds 19 1032 25 10000 2.1 310 19:41 15.06.2019
6290 Clear 19 1033 29 10000 1.5 0 19:23 15.06.2019
6291 Clear 17 1034 33 10000 1.77 298.683 18:39 15.06.2019
6292 Clear 16 1034 36 10000 1 0 18:20 15.06.2019
6293 Clouds 14 1035 44 10000 2.1 20 17:43 15.06.2019
6294 Clouds 14 1036 44 10000 1 0 17:22 15.06.2019
6295 Clouds 11 1036 53 10000 0.5 300 16:48 15.06.2019
6296 Clouds 11 1037 53 10000 0.5 300 16:20 15.06.2019
6297 Haze 8 1037 65 9000 1 0 15:44 15.06.2019
6298 Haze 8 1037 61 9000 0.5 0 15:23 15.06.2019
6299 Haze 4 1036 78 9000 1 90 14:43 15.06.2019
6300 Fog 4 1036 78 10000 1.5 90 14:19 15.06.2019
6301 Clouds 3 1035 78 10000 1.5 100 13:57 15.06.2019
6302 Clouds 3 1035 78 10000 1.5 100 13:39 15.06.2019
6303 Clear 3 1035 78 10000 1.5 230 13:18 15.06.2019
6304 Clear 3 1035 74 10000 1 210 12:47 15.06.2019
6305 Clear 4 1035 83 10000 2.1 90 12:23 15.06.2019
6306 Clear 4 1035 80 10000 2.1 90 11:51 15.06.2019
6307 Clear 4 1035 80 10000 2.1 90 11:32 15.06.2019
6308 Clear 4 1035 79 10000 1 280 10:47 15.06.2019
6309 Clear 4 1035 79 10000 1 280 10:26 15.06.2019
6310 Clear 3 1034 79 10000 1 300 09:56 15.06.2019
6311 Clear 3 1034 79 10000 1 300 09:38 15.06.2019
6312 Clear 4 1034 79 10000 2.1 290 09:18 15.06.2019
6313 Clear 4 1034 79 10000 2.1 290 08:41 15.06.2019
6314 Clear 5 1035 79 10000 1.5 270 08:18 15.06.2019
6315 Clear 5 1035 79 10000 1.5 270 08:18 15.06.2019
6316 Clear 5 1035 79 10000 1.5 270 07:26 15.06.2019
6317 Clear 5 1020 79 0 0.72 354.337 06:48 15.06.2019
6318 Clear 5 1020 79 0 0.72 354.337 06:29 15.06.2019
6319 Rain 8 1035 61 10000 2.6 270 05:40 15.06.2019
6320 Rain 8 1034 80 10000 2.6 270 04:56 15.06.2019
6321 Rain 8 1034 61 10000 2.1 280 04:26 15.06.2019
6322 Rain 9 1034 80 10000 0.5 90 03:33 15.06.2019
6323 Rain 9 1034 80 10000 0.5 90 03:33 15.06.2019
6324 Rain 11 1033 43 10000 1 100 02:37 15.06.2019
6325 Clouds 16 1031 29 10000 3.6 320 01:57 15.06.2019
6326 Clouds 16 1031 29 10000 3.6 320 01:24 15.06.2019
6327 Clouds 19 1030 15 10000 4.1 30 00:42 15.06.2019
6328 Clouds 19 1030 16 10000 3.6 40 00:23 15.06.2019
6329 Clouds 20 1030 14 10000 4.1 50 23:49 14.06.2019
6330 Clouds 21 1030 13 10000 4.6 40 23:20 14.06.2019
6331 Clouds 22 1030 13 10000 4.1 10 22:41 14.06.2019
6332 Clouds 22 1030 13 10000 4.1 10 22:41 14.06.2019
6333 Clouds 22 1030 44 10000 3.1 360 22:21 14.06.2019
6334 Clouds 21 1031 44 10000 3.1 270 21:49 14.06.2019
6335 Clouds 21 1031 27 10000 3.1 270 21:28 14.06.2019
6336 Clouds 21 1032 26 10000 1.5 270 20:57 14.06.2019
6337 Clouds 21 1032 28 10000 1.5 0 20:38 14.06.2019
6338 Clouds 20 1033 28 10000 1.5 0 20:18 14.06.2019
6339 Clouds 19 1034 32 10000 1.5 140 19:41 14.06.2019
6340 Clouds 18 1035 34 10000 2.6 50 19:22 14.06.2019
6341 Clouds 18 1035 36 10000 1 0 18:54 14.06.2019
6342 Clouds 18 1035 36 10000 1 0 18:54 14.06.2019
6343 Clouds 18 1035 36 10000 1 0 18:36 14.06.2019
6344 Clouds 17 1036 42 10000 2.6 60 18:18 14.06.2019
6345 Clouds 15 1037 47 10000 2.6 40 17:44 14.06.2019
6346 Clouds 14 1037 50 10000 0.5 0 17:23 14.06.2019
6347 Clouds 12 1038 54 10000 2.1 90 16:49 14.06.2019
6348 Dust 10 1038 61 10000 2.1 60 16:24 14.06.2019
6349 Dust 10 1038 61 10000 2.1 60 16:24 14.06.2019
6350 Dust 10 1038 61 10000 2.1 60 16:24 14.06.2019
6351 Dust 10 1038 61 10000 2.1 60 15:59 14.06.2019
6352 Dust 10 1038 61 10000 2.1 60 15:39 14.06.2019
6353 Dust 6 1038 75 10000 1.5 90 15:20 14.06.2019
6354 Dust 4 1037 80 10000 0.24 313.838 14:47 14.06.2019
6355 Dust 4 1037 80 10000 0.24 313.838 14:29 14.06.2019
6356 Clouds 3 1037 86 10000 0.5 360 13:47 14.06.2019
6357 Clouds 3 1037 86 10000 0.5 360 13:28 14.06.2019
6358 Clouds 4 1036 80 10000 1.5 80 12:59 14.06.2019
6359 Clouds 4 1036 80 10000 1.5 80 12:59 14.06.2019
6360 Clouds 4 1036 80 10000 1.5 80 12:59 14.06.2019
6361 Clouds 4 1036 80 10000 1 260 12:39 14.06.2019
6362 Clouds 4 1036 80 10000 1 260 12:39 14.06.2019
6363 Clouds 6 1035 70 10000 1 170 12:21 14.06.2019
6364 Clouds 6 1035 70 10000 1 170 12:21 14.06.2019
6365 Clouds 6 1035 70 10000 1 170 11:42 14.06.2019
6366 Clouds 6 1035 70 10000 1 170 11:42 14.06.2019
6367 Clouds 6 1035 70 10000 1 170 11:23 14.06.2019
6368 Clouds 4 1035 78 10000 0.35 248.563 10:48 14.06.2019
6369 Clouds 4 1036 78 10000 2.1 290 10:22 14.06.2019
6370 Clouds 4 1036 78 10000 2.1 290 09:55 14.06.2019
6371 Clouds 4 1036 78 10000 2.1 290 09:34 14.06.2019
6372 Clouds 6 1036 70 10000 0.5 360 08:49 14.06.2019
6373 Clouds 7 1036 65 10000 1 250 08:21 14.06.2019
6374 Clouds 7 1036 65 10000 1 250 08:21 14.06.2019
6375 Clouds 7 1036 65 10000 1 250 07:57 14.06.2019
6376 Clouds 7 1036 65 10000 1 250 07:39 14.06.2019
6377 Clouds 7 1036 65 10000 3.1 290 07:18 14.06.2019
6378 Clouds 8 1036 61 10000 2.6 300 06:20 14.06.2019
6379 Clouds 8 1036 61 10000 2.6 300 05:47 14.06.2019
6380 Clouds 7 1036 78 10000 2.6 300 04:54 14.06.2019
6381 Clouds 10 1035 53 10000 1 360 04:27 14.06.2019
6382 Clouds 14 1034 41 10000 0.5 60 03:41 14.06.2019
6383 Clouds 14 1034 65 10000 2.6 50 03:21 14.06.2019
6384 Clouds 15 1033 30 10000 2.6 340 02:36 14.06.2019
6385 Clouds 17 1032 21 10000 1 0 01:51 14.06.2019
6386 Clouds 19 1031 19 10000 4.1 10 00:40 14.06.2019
6387 Clouds 20 1030 19 10000 3.6 10 00:21 14.06.2019
6388 Clouds 20 1030 19 10000 3.1 360 23:50 13.06.2019
6389 Clouds 21 1030 16 10000 2.6 360 23:25 13.06.2019
6390 Clouds 21 1031 19 10000 3.1 260 22:41 13.06.2019
6391 Clouds 22 1031 19 10000 3.1 340 22:22 13.06.2019
6392 Clouds 22 1031 19 10000 3.1 340 21:59 13.06.2019
6393 Clouds 22 1032 21 10000 2.6 360 21:38 13.06.2019
6394 Clouds 22 1032 19 10000 1 0 21:19 13.06.2019
6395 Clouds 22 1033 21 10000 4.1 310 20:45 13.06.2019
6396 Clouds 22 1033 28 10000 1.5 140 20:20 13.06.2019
6397 Clouds 21 1035 22 10000 2.1 360 19:43 13.06.2019
6398 Clouds 21 1035 22 10000 2.1 360 19:25 13.06.2019
6399 Clouds 19 1036 29 10000 2.1 160 19:00 13.06.2019
6400 Clouds 19 1036 29 10000 2.1 160 18:41 13.06.2019
6401 Clouds 17 1037 39 10000 0.5 0 18:23 13.06.2019
6402 Clouds 17 1037 39 10000 0.5 0 17:56 13.06.2019
6403 Clouds 17 1037 39 10000 0.5 0 17:36 13.06.2019
6404 Clear 14 1038 50 10000 0.6 192.966 17:18 13.06.2019
6405 Clear 14 1038 50 10000 0.6 192.966 16:41 13.06.2019
6406 -273 0 0 0 0 0 16:20 13.06.2019
6407 Clear 10 1039 61 10000 1 50 15:43 13.06.2019
6408 Clear 10 1039 61 10000 1 50 15:24 13.06.2019
6409 Clouds 5 1038 80 10000 0.39 145.296 14:54 13.06.2019
6410 Clouds 5 1038 80 10000 0.39 145.296 14:31 13.06.2019
6411 Clouds 4 1037 80 10000 1.5 90 13:59 13.06.2019
6412 Clouds 4 1037 80 10000 1.5 90 13:39 13.06.2019
6413 Clear 4 1036 80 10000 1 310 13:21 13.06.2019
6414 Clear 4 1036 86 10000 1 270 12:42 13.06.2019
6415 Clear 4 1036 86 10000 0.76 270.225 12:22 13.06.2019
6416 Clear 4 1036 86 10000 0.76 270.225 12:22 13.06.2019
6417 Clear 4 1036 86 10000 0.76 270.225 11:47 13.06.2019
6418 Clear 4 1036 86 10000 0.76 270.225 11:29 13.06.2019
6419 Clear 15 1036 30 0 0.76 270.225 10:55 13.06.2019
6420 Clear 15 1036 30 0 0.76 270.225 10:37 13.06.2019
6421 Clouds 15 1033 77 10000 4.1 310 10:18 13.06.2019
6422 Clouds 15 1033 77 10000 4.1 310 09:42 13.06.2019
6423 Clear 5 1036 75 10000 2.6 280 09:22 13.06.2019
6424 Clear 5 1036 75 10000 2.6 280 08:44 13.06.2019
6425 Clear 5 1036 75 10000 2.6 280 08:23 13.06.2019
6426 Clear 6 1036 70 10000 1.42 307.659 07:52 13.06.2019
6427 Clear 6 1036 70 10000 1.42 307.659 07:25 13.06.2019
6428 Clear 7 1035 65 10000 3.1 280 06:47 13.06.2019
6429 Clear 7 1035 65 10000 1 270 06:23 13.06.2019
6430 Clear 7 1035 65 10000 1 270 05:55 13.06.2019
6431 Clear 7 1035 65 10000 1 270 05:36 13.06.2019
6432 Mist 11 1035 50 10000 0.5 100 04:57 13.06.2019
6433 Clouds 13 1033 47 10000 1.5 250 02:26 13.06.2019
6434 Clouds 17 1032 65 10000 4.6 10 00:55 13.06.2019
6435 Clouds 18 1031 31 10000 3.6 30 00:22 13.06.2019
6436 Clouds 20 1031 22 10000 2.1 350 23:24 12.06.2019
6437 Clouds 20 1031 22 10000 2.1 350 22:45 12.06.2019
6438 Clouds 20 1031 22 10000 2.1 350 22:26 12.06.2019
6439 Clouds 22 1031 19 10000 1.5 270 21:57 12.06.2019
6440 Clouds 21 1031 21 10000 1 280 21:38 12.06.2019
6441 Clouds 21 1032 22 10000 3.1 240 21:18 12.06.2019
6442 Clouds 22 1033 21 10000 2.6 240 20:38 12.06.2019
6443 Clouds 21 1033 22 10000 3.1 320 20:20 12.06.2019
6444 Clouds 19 1035 26 10000 2.6 30 19:42 12.06.2019
6445 Clouds 19 1035 26 10000 2.1 10 19:23 12.06.2019
6446 Clouds 19 1035 26 10000 2.1 10 18:57 12.06.2019
6447 Clouds 17 1036 33 10000 2.6 70 18:39 12.06.2019
6448 Clouds 16 1036 38 10000 1 10 18:19 12.06.2019
6449 Clouds 15 1037 41 10000 1.5 50 17:44 12.06.2019
6450 Clouds 13 1037 47 10000 1 360 17:21 12.06.2019
6451 Haze 12 1037 50 10000 0.5 320 16:42 12.06.2019
6452 -273 0 0 0 0 0 16:23 12.06.2019
6453 Haze 10 1038 57 10000 0.5 0 15:54 12.06.2019
6454 Haze 9 1037 57 10000 0.5 280 15:32 12.06.2019
6455 Clouds 6 1037 70 10000 0.5 90 14:50 12.06.2019
6456 Clouds 6 1037 70 10000 0.5 90 14:29 12.06.2019
6457 Clouds 3 1037 70 10000 0.5 100 13:55 12.06.2019
6458 Clouds 2 1036 80 10000 0.5 0 13:36 12.06.2019
6459 Clouds 2 1036 80 10000 1.5 290 13:18 12.06.2019
6460 Clouds 3 1036 74 10000 0.5 0 12:39 12.06.2019
6461 Clouds 4 1035 74 10000 1 90 12:19 12.06.2019
6462 Clouds 4 1035 74 10000 1 90 12:19 12.06.2019
6463 Clouds 4 1035 74 10000 1 90 11:47 12.06.2019
6464 Clouds 4 1035 74 10000 1 90 11:47 12.06.2019
6465 Clouds 4 1035 74 10000 1 90 11:29 12.06.2019
6466 Clouds 4 1035 74 10000 1.5 100 10:54 12.06.2019
6467 Clouds 4 1035 74 10000 1.5 100 10:35 12.06.2019
6468 Clear 5 1036 74 10000 1.03 298.289 09:58 12.06.2019
6469 Clear 5 1036 74 10000 1.03 298.289 09:40 12.06.2019
6470 Clear 4 1036 69 10000 1.65 316.765 09:18 12.06.2019
6471 Clear 4 1036 69 10000 1.65 316.765 08:26 12.06.2019
6472 Clear 5 1036 65 10000 1 310 07:52 12.06.2019
6473 Clouds 6 1035 69 10000 0.5 0 06:55 12.06.2019
6474 Clouds 7 1035 70 10000 1 0 06:29 12.06.2019
6475 Clouds 6 1035 60 10000 1.5 280 05:25 12.06.2019
6476 Clouds 12 1033 40 10000 0.5 0 02:20 12.06.2019
6477 Clouds 15 1032 33 10000 2.1 80 00:41 12.06.2019
6478 Rain 16 1032 36 10000 7.7 300 23:53 11.06.2019
6479 Rain 16 1032 36 10000 7.7 300 23:53 11.06.2019
6480 Rain 16 1032 36 10000 7.7 300 23:34 11.06.2019
6481 Rain 17 1031 29 10000 6.2 280 22:45 11.06.2019
6482 Rain 19 1031 22 10000 5.7 320 22:24 11.06.2019
6483 Rain 19 1031 22 10000 5.7 320 22:24 11.06.2019
6484 Dust 20 1031 20 10000 5.1 330 21:58 11.06.2019
6485 Dust 20 1031 20 10000 5.1 330 21:40 11.06.2019
6486 Clouds 20 1032 22 10000 3.6 290 21:21 11.06.2019
6487 Clouds 20 1032 24 10000 3.6 310 20:50 11.06.2019
6488 Clouds 21 1033 22 10000 1 280 20:28 11.06.2019
6489 Clouds 21 1033 22 10000 1 280 19:59 11.06.2019
6490 Clouds 21 1033 22 10000 1 280 19:40 11.06.2019
6491 Clouds 20 1034 28 10000 1.5 20 19:22 11.06.2019
6492 Clouds 19 1034 28 10000 1 0 18:41 11.06.2019
6493 Clouds 18 1035 34 10000 1 330 18:19 11.06.2019
6494 Clouds 16 1036 38 10000 0.5 0 17:41 11.06.2019
6495 Clouds 13 1037 47 10000 2.1 10 17:20 11.06.2019
6496 Clouds 13 1037 47 10000 2.1 10 16:43 11.06.2019
6497 Clouds 11 1037 57 10000 1 330 16:23 11.06.2019
6498 Clouds 9 1037 61 10000 1 60 15:43 11.06.2019
6499 Clouds 9 1037 61 10000 1 60 15:25 11.06.2019
6500 Clouds 8 1037 65 10000 0.5 130 14:56 11.06.2019
6501 Clouds 3 1037 86 10000 0.5 320 14:38 11.06.2019
6502 Clouds 3 1037 79 10000 0.2 265.689 14:19 11.06.2019
6503 Clouds 3 1036 79 10000 1.5 110 13:42 11.06.2019
6504 Clouds 3 1036 79 10000 1 0 13:21 11.06.2019
6505 Clear 4 1035 80 10000 0.21 251.735 12:42 11.06.2019
6506 Clear 3 1035 82 10000 0.86 276.399 12:21 11.06.2019
6507 Clear 3 1035 82 10000 0.86 276.399 11:54 11.06.2019
6508 Clear 3 1035 82 10000 0.86 276.399 11:32 11.06.2019
6509 Clear 4 1035 82 10000 0.86 276.399 10:51 11.06.2019
6510 Clear 5 1035 82 10000 0.86 276.399 10:27 11.06.2019
6511 Clear 4 1035 82 10000 0.86 276.399 10:27 11.06.2019
6512 Clear 5 1035 82 10000 0.86 276.399 09:51 11.06.2019
6513 Clear 5 1035 75 10000 1.4 289.945 09:26 11.06.2019
6514 Clear 5 1035 75 10000 1.4 289.945 08:59 11.06.2019
6515 Clear 5 1035 75 10000 1.4 289.945 08:40 11.06.2019
6516 Clear 6 1035 70 10000 1 60 08:20 11.06.2019
6517 Clear 6 1035 70 10000 1 60 07:34 11.06.2019
6518 Clear 6 1034 70 10000 1.44 291.779 06:53 11.06.2019
6519 Clear 8 1034 65 10000 1.67 335.227 05:21 11.06.2019
6520 Clear 10 1034 53 10000 2.1 270 04:38 11.06.2019
6521 Clear 14 1032 41 10000 4.6 270 02:26 11.06.2019
6522 Clouds 18 1030 27 10000 3.1 10 00:52 11.06.2019
6523 Clouds 18 1030 27 10000 3.1 10 00:26 11.06.2019
6524 Clouds 20 1030 24 10000 3.6 60 23:45 10.06.2019
6525 Clouds 21 1030 22 10000 3.1 50 23:21 10.06.2019
6526 Clouds 20 1030 24 10000 2.1 340 22:45 10.06.2019
6527 Clouds 20 1030 24 10000 2.1 340 22:26 10.06.2019
6528 Clouds 19 1031 22 10000 1.5 360 21:56 10.06.2019
6529 Clouds 19 1031 22 10000 1.5 360 21:38 10.06.2019
6530 Mist 21 1032 19 10000 1 0 21:19 10.06.2019
6531 Clouds 20 1033 19 10000 3.6 320 20:42 10.06.2019
6532 Clouds 20 1034 20 10000 2.6 60 20:21 10.06.2019
6533 Clouds 20 1034 20 10000 2.6 60 19:44 10.06.2019
6534 Clouds 18 1035 27 10000 1.5 0 19:23 10.06.2019
6535 Clouds 18 1035 27 10000 1.5 0 18:57 10.06.2019
6536 Clouds 17 1036 33 10000 1 0 18:39 10.06.2019
6537 Clouds 15 1036 41 10000 2.1 0 18:19 10.06.2019
6538 Clouds 13 1037 47 10000 1.5 0 17:44 10.06.2019
6539 Clouds 13 1037 47 10000 1 60 17:24 10.06.2019
6540 Haze 10 1038 57 10000 1 120 16:49 10.06.2019
6541 Haze 10 1038 57 10000 1 120 16:30 10.06.2019
6542 Haze 8 1038 65 10000 1.5 80 15:58 10.06.2019
6543 Haze 8 1038 65 10000 1.5 90 15:39 10.06.2019
6544 Haze 7 1038 65 10000 0.5 0 15:21 10.06.2019
6545 Mist 4 1037 80 10000 0.19 327.391 14:42 10.06.2019
6546 Mist 3 1037 77 10000 1.5 90 14:24 10.06.2019
6547 Clouds 2 1037 80 10000 2.1 80 13:46 10.06.2019
6548 Clouds 2 1037 80 10000 2.1 80 13:46 10.06.2019
6549 Clear 2 1037 77 10000 0.19 327.391 13:28 10.06.2019
6550 Clear 2 1037 81 10000 0.19 298.61 12:54 10.06.2019
6551 Clear 2 1036 81 10000 0.5 150 12:31 10.06.2019
6552 Clear 3 1035 74 10000 2.1 280 11:58 10.06.2019
6553 Clear 3 1035 74 10000 2.1 280 11:38 10.06.2019
6554 Clear 3 1035 86 10000 1.5 60 11:18 10.06.2019
6555 Clear 3 1035 86 10000 1.5 60 10:41 10.06.2019
6556 Clear 4 1035 80 10000 0.5 80 10:19 10.06.2019
6557 Clear 4 1035 80 10000 0.5 80 09:51 10.06.2019
6558 Clear 4 1035 80 10000 0.5 80 09:29 10.06.2019
6559 Clear 4 1036 82 10000 1.11 280.632 08:50 10.06.2019
6560 Clear 4 1036 82 10000 1.11 280.632 08:27 10.06.2019
6561 Clear 4 1036 82 10000 1.11 280.632 07:46 10.06.2019
6562 Clear 8 1035 61 10000 2.1 290 04:44 10.06.2019
6563 Clear 9 1035 57 10000 1.5 290 03:29 10.06.2019
6564 Clear 15 1033 41 10000 1.5 350 01:56 10.06.2019
6565 Clouds 16 1033 36 10000 2.1 80 01:23 10.06.2019
6566 Clouds 17 1032 33 10000 3.1 80 00:47 10.06.2019
6567 Clouds 21 1032 19 10000 1.5 0 23:49 09.06.2019
6568 Clouds 21 1032 19 10000 1.5 0 23:25 09.06.2019
6569 Clouds 21 1032 19 10000 1.5 280 22:59 09.06.2019
6570 Clouds 19 1032 20 10000 2.1 70 22:39 09.06.2019
6571 Clouds 20 1032 18 10000 2.1 10 22:21 09.06.2019
6572 Clouds 19 1033 22 10000 2.1 360 21:39 09.06.2019
6573 Clouds 18 1034 22 10000 1.5 0 21:21 09.06.2019
6574 Clouds 19 1034 25 10000 2.1 330 20:42 09.06.2019
6575 Clouds 17 1035 29 10000 2.1 0 20:22 09.06.2019
6576 Clouds 19 1035 23 10000 1.5 350 19:46 09.06.2019
6577 Clouds 18 1036 22 10000 2.1 330 19:19 09.06.2019
6578 Clouds 18 1036 22 10000 2.1 330 18:56 09.06.2019
6579 Clouds 16 1036 38 10000 2.1 250 18:36 09.06.2019
6580 Clouds 16 1037 38 10000 2.1 290 18:18 09.06.2019
6581 Clouds 14 1037 44 10000 2.1 340 17:42 09.06.2019
6582 Clouds 14 1038 47 10000 1 0 17:23 09.06.2019
6583 Clouds 12 1038 50 10000 1.5 30 16:41 09.06.2019
6584 Clouds 10 1038 57 10000 1.17 268.921 16:21 09.06.2019
6585 Clouds 10 1038 57 10000 1.17 268.921 16:21 09.06.2019
6586 Haze 8 1038 61 10000 0.5 0 15:51 09.06.2019
6587 Haze 8 1038 61 10000 0.5 0 15:30 09.06.2019
6588 Haze 8 1037 61 10000 0.32 234.252 14:59 09.06.2019
6589 Haze 3 1037 68 10000 0.32 234.252 14:41 09.06.2019
6590 Clouds 2 1037 80 10000 0.32 234.252 14:20 09.06.2019
6591 Mist 4 1036 68 10000 1 320 13:48 09.06.2019
6592 Clouds 2 1036 80 10000 1 120 13:18 09.06.2019
6593 Clouds 3 1036 74 10000 1.5 240 12:39 09.06.2019
6594 Mist 4 1035 79 10000 0.5 180 12:21 09.06.2019
6595 Mist 4 1035 79 10000 0.5 180 11:39 09.06.2019
6596 Clouds 4 1035 69 10000 2.1 80 11:20 09.06.2019
6597 Clouds 4 1035 69 10000 2.1 80 10:44 09.06.2019
6598 Clouds 4 1035 69 10000 2.6 290 10:22 09.06.2019
6599 Clouds 4 1035 69 10000 2.6 290 09:40 09.06.2019
6600 Mist 4 1035 69 10000 1 110 09:21 09.06.2019
6601 Mist 4 1035 69 10000 1 110 08:46 09.06.2019
6602 Mist 4 1035 69 10000 1 110 08:28 09.06.2019
6603 Clouds 6 1035 56 10000 0.5 280 07:21 09.06.2019
6604 Clouds 6 1035 56 10000 0.5 280 06:30 09.06.2019
6605 Clouds 8 1034 49 10000 0.5 360 04:57 09.06.2019
6606 Clouds 15 1031 28 10000 3.1 310 01:39 09.06.2019
6607 Clouds 17 1031 25 10000 3.6 290 01:21 09.06.2019
6608 Clouds 17 1031 25 10000 3.6 290 01:21 09.06.2019
6609 Clear 19 1030 20 10000 4.1 320 00:58 09.06.2019
6610 Clouds 21 1030 13 10000 5.1 290 23:44 08.06.2019
6611 Clouds 21 1030 13 10000 5.1 290 23:24 08.06.2019
6612 Clouds 21 1030 12 10000 5.1 290 22:58 08.06.2019
6613 Clouds 21 1030 12 10000 5.1 290 22:40 08.06.2019
6614 Clouds 21 1030 11 10000 5.7 320 22:19 08.06.2019
6615 Clouds 21 1030 11 10000 5.7 320 22:19 08.06.2019
6616 Clouds 21 1030 11 10000 5.7 320 22:19 08.06.2019
6617 Clear 21 1031 12 10000 2.6 10 21:51 08.06.2019
6618 Clear 21 1031 12 10000 2.6 10 21:51 08.06.2019
6619 Clear 21 1031 12 10000 2.6 10 21:27 08.06.2019
6620 Clear 20 1032 14 10000 1 0 20:50 08.06.2019
6621 Clear 20 1032 14 10000 1 0 20:26 08.06.2019
6622 Clear 20 1033 13 10000 2.6 70 19:59 08.06.2019
6623 Clear 19 1034 14 10000 2.1 300 19:39 08.06.2019
6624 Clear 18 1035 16 10000 0.5 0 19:20 08.06.2019
6625 Clear 18 1035 16 10000 0.5 0 18:56 08.06.2019
6626 Clear 18 1035 16 10000 0.5 0 18:35 08.06.2019
6627 Clear 13 1037 22 10000 1 0 17:51 08.06.2019
6628 Clear 11 1037 27 10000 1.5 0 17:25 08.06.2019
6629 Clear 11 1037 27 10000 1.5 0 16:58 08.06.2019
6630 Clear 11 1037 27 10000 1.5 0 16:38 08.06.2019
6631 Clear 9 1038 36 10000 1 100 15:57 08.06.2019
6632 Clear 5 1037 52 10000 1.5 90 15:37 08.06.2019
6633 Clear -1 1037 74 10000 0.56 172.671 14:50 08.06.2019
6634 Clear -1 1037 74 10000 0.56 172.671 14:31 08.06.2019
6635 Clear 0 1037 83 10000 0.56 172.671 13:56 08.06.2019
6636 Clear 0 1037 83 10000 0.56 172.671 13:24 08.06.2019
6637 Clear 0 1036 76 10000 1 70 12:45 08.06.2019
6638 Clear 1 1035 64 10000 0.7 277.024 12:19 08.06.2019
6639 Clear 1 1035 64 10000 0.7 277.024 11:40 08.06.2019
6640 Clear 1 1035 59 10000 0.7 277.024 11:21 08.06.2019
6641 Clear 1 1035 59 10000 0.7 277.024 10:44 08.06.2019
6642 Clear 1 1035 64 10000 0.7 277.024 10:22 08.06.2019
6643 Clear 1 1035 64 10000 0.7 277.024 09:43 08.06.2019
6644 Clear 3 1035 55 10000 1.5 60 08:59 08.06.2019
6645 Clear 3 1035 55 10000 1.5 60 08:28 08.06.2019
6646 Clear 4 1034 51 10000 1.5 270 07:46 08.06.2019
6647 Clear 4 1034 51 10000 1.12 313.949 06:45 08.06.2019
6648 Clear 4 1034 51 10000 1.12 313.949 06:45 08.06.2019
6649 Clear 9 1032 31 10000 2.6 280 03:41 08.06.2019
6650 Clear 14 1031 20 10000 2.6 290 02:21 08.06.2019
6651 Clear 19 1029 12 10000 2.1 190 00:32 08.06.2019
6652 Clear 20 1029 11 10000 0.5 0 23:59 07.06.2019
6653 Clear 20 1030 11 10000 2.1 100 23:21 07.06.2019
6654 Clear 20 1030 11 10000 2.1 100 22:54 07.06.2019
6655 Clear 21 1030 9 10000 2.1 270 22:35 07.06.2019
6656 Clear 20 1030 11 10000 1 30 21:57 07.06.2019
6657 Clear 20 1030 11 10000 1 30 21:39 07.06.2019
6658 Clear 20 1031 11 10000 1.7 322.359 21:20 07.06.2019
6659 Clear 20 1032 11 10000 1 360 20:42 07.06.2019
6660 Clear 19 1033 12 10000 3.1 300 20:23 07.06.2019
6661 Clouds 19 1034 11 10000 1 270 19:46 07.06.2019
6662 Clouds 17 1034 17 10000 1.5 260 19:20 07.06.2019
6663 Clouds 16 1035 21 10000 1 60 18:45 07.06.2019
6664 Clouds 16 1035 21 10000 1 60 18:27 07.06.2019
6665 Clear 13 1036 20 10000 1 330 17:46 07.06.2019
6666 Clear 13 1036 20 10000 1 330 17:46 07.06.2019
6667 Clear 13 1036 20 10000 1 330 17:23 07.06.2019
6668 Haze 6 1037 38 10000 1 60 16:42 07.06.2019
6669 Haze 8 1037 36 10000 1 110 16:22 07.06.2019
6670 Haze 5 1037 41 10000 1.5 70 15:49 07.06.2019
6671 Haze 3 1037 44 10000 1.5 70 15:20 07.06.2019
6672 Haze 1 1036 55 10000 1.5 80 14:46 07.06.2019
6673 Clear -2 1036 68 10000 1.5 90 14:23 07.06.2019
6674 Clear -1 1036 68 10000 0.5 0 13:36 07.06.2019
6675 Clear -1 1036 63 10000 0.5 60 13:18 07.06.2019
6676 Clear -1 1035 58 10000 1.5 80 12:39 07.06.2019
6677 Clear 0 1034 88 10000 1 0 12:18 07.06.2019
6678 Clear 0 1034 88 10000 1 0 11:40 07.06.2019
6679 Clear 0 1034 88 10000 0.9 252.25 11:21 07.06.2019
6680 Clear 0 1034 88 10000 0.9 252.25 10:47 07.06.2019
6681 Clear 1 1034 47 10000 1 90 10:22 07.06.2019
6682 Clear 1 1034 47 10000 1 90 09:49 07.06.2019
6683 Clear 1 1034 47 10000 1 90 09:27 07.06.2019
6684 Clear 2 1035 40 10000 0.5 0 08:50 07.06.2019
6685 Clear 2 1035 37 10000 1 90 08:28 07.06.2019
6686 Clear 2 1035 40 10000 0.5 0 08:28 07.06.2019
6687 Clear 2 1035 37 10000 1 90 07:55 07.06.2019
6688 Clear